Wetterdaten: Donnerstag, 22.03.2018
Datum Zeit Temp. A. Pool Temp. Feuchte A. Luftdruck Regen Wind Richtung Richtung Sonnenschein ET UV Solar Taupunkt Windchill Windben Empfang
22.03.2018 00:00 -1,8 C 3,9 C 88 % 1026,0 hPa 0,0 l/m 4,8 km/h (1 Bft) W-SW 245 0 min 0,000 mm 0,0 UV-I 0 W/m -3,5 C -1,8 C 6,4 km/h (2 Bft) 100,00 %
22.03.2018 00:02 -1,8 C 3,9 C 88 % 1026,0 hPa 0,0 l/m 4,6 km/h (1 Bft) W-SW 252 0 min 0,000 mm 0,0 UV-I 0 W/m -3,5 C -1,8 C 6,4 km/h (2 Bft) 95,45 %
22.03.2018 00:03 -1,8 C 3,9 C 88 % 1026,0 hPa 0,0 l/m 5,8 km/h (2 Bft) W-SW 250 0 min 0,000 mm 0,0 UV-I 0 W/m -3,5 C -1,8 C 8,0 km/h (2 Bft) 95,65 %
22.03.2018 00:04 -1,8 C 3,9 C 87 % 1026,0 hPa 0,0 l/m 5,2 km/h (1 Bft) W-SW 257 0 min 0,000 mm 0,0 UV-I 0 W/m -3,7 C -1,8 C 6,4 km/h (2 Bft) 100,00 %
22.03.2018 00:05 -1,8 C 3,9 C 87 % 1025,9 hPa 0,0 l/m 4,6 km/h (1 Bft) W-SW 244 0 min 0,000 mm 0,0 UV-I 0 W/m -3,7 C -1,8 C 6,4 km/h (2 Bft) 95,65 %
22.03.2018 00:06 -1,8 C 3,9 C 88 % 1025,9 hPa 0,0 l/m 5,3 km/h (1 Bft) W-SW 240 0 min 0,000 mm 0,0 UV-I 0 W/m -3,5 C -1,8 C 6,4 km/h (2 Bft) 100,00 %
22.03.2018 00:07 -1,8 C 3,9 C 87 % 1025,9 hPa 0,0 l/m 5,5 km/h (1 Bft) W-SW 255 0 min 0,000 mm 0,0 UV-I 0 W/m -3,7 C -1,8 C 6,4 km/h (2 Bft) 95,65 %
22.03.2018 00:08 -1,8 C 3,9 C 87 % 1025,9 hPa 0,0 l/m 5,7 km/h (1 Bft) W-SW 247 0 min 0,000 mm 0,0 UV-I 0 W/m -3,7 C -1,8 C 8,0 km/h (2 Bft) 96,00 %
22.03.2018 00:09 -1,8 C 3,9 C 87 % 1025,9 hPa 0,0 l/m 6,3 km/h (2 Bft) W-SW 250 0 min 0,000 mm 0,0 UV-I 0 W/m -3,7 C -1,8 C 9,7 km/h (2 Bft) 100,00 %
22.03.2018 00:10 -1,8 C 3,9 C 87 % 1025,9 hPa 0,0 l/m 6,8 km/h (2 Bft) W-SW 251 0 min 0,000 mm 0,0 UV-I 0 W/m -3,7 C -2,2 C 9,7 km/h (2 Bft) 95,65 %
22.03.2018 00:11 -1,8 C 3,9 C 87 % 1025,9 hPa 0,0 l/m 6,0 km/h (2 Bft) W-SW 256 0 min 0,000 mm 0,0 UV-I 0 W/m -3,7 C -1,8 C 8,0 km/h (2 Bft) 95,83 %
22.03.2018 00:12 -1,7 C 3,9 C 87 % 1025,8 hPa 0,0 l/m 7,7 km/h (2 Bft) W-SW 242 0 min 0,000 mm 0,0 UV-I 0 W/m -3,6 C -3,1 C 12,9 km/h (3 Bft) 96,15 %
22.03.2018 00:13 -1,7 C 3,9 C 87 % 1025,8 hPa 0,0 l/m 6,8 km/h (2 Bft) W-SW 242 0 min 0,000 mm 0,0 UV-I 0 W/m -3,6 C -2,1 C 9,7 km/h (2 Bft) 100,00 %
22.03.2018 00:14 -1,7 C 3,9 C 87 % 1025,8 hPa 0,0 l/m 5,5 km/h (1 Bft) W-SW 245 0 min 0,000 mm 0,0 UV-I 0 W/m -3,6 C -1,7 C 8,0 km/h (2 Bft) 91,30 %
22.03.2018 00:15 -1,7 C 3,9 C 87 % 1025,8 hPa 0,0 l/m 7,1 km/h (2 Bft) SW 232 0 min 0,000 mm 0,0 UV-I 0 W/m -3,6 C -2,5 C 8,0 km/h (2 Bft) 100,00 %
22.03.2018 00:16 -1,7 C 3,9 C 87 % 1025,9 hPa 0,0 l/m 5,9 km/h (2 Bft) W-SW 244 0 min 0,000 mm 0,0 UV-I 0 W/m -3,6 C -1,7 C 9,7 km/h (2 Bft) 91,30 %
22.03.2018 00:17 -1,8 C 3,9 C 87 % 1025,9 hPa 0,0 l/m 6,9 km/h (2 Bft) SW 227 0 min 0,000 mm 0,0 UV-I 0 W/m -3,7 C -2,3 C 12,9 km/h (3 Bft) 95,83 %
22.03.2018 00:18 -1,8 C 3,9 C 87 % 1025,8 hPa 0,0 l/m 5,4 km/h (1 Bft) W-SW 238 0 min 0,000 mm 0,0 UV-I 0 W/m -3,7 C -1,8 C 6,4 km/h (2 Bft) 100,00 %
22.03.2018 00:19 -1,8 C 3,9 C 87 % 1025,8 hPa 0,0 l/m 5,0 km/h (1 Bft) W-SW 237 0 min 0,000 mm 0,0 UV-I 0 W/m -3,7 C -1,8 C 6,4 km/h (2 Bft) 95,83 %
22.03.2018 00:20 -1,8 C 3,9 C 87 % 1025,8 hPa 0,0 l/m 6,1 km/h (2 Bft) W-SW 241 0 min 0,000 mm 0,0 UV-I 0 W/m -3,7 C -1,8 C 8,0 km/h (2 Bft) 100,00 %
22.03.2018 00:21 -1,8 C 3,9 C 87 % 1025,8 hPa 0,0 l/m 5,7 km/h (1 Bft) W-SW 239 0 min 0,000 mm 0,0 UV-I 0 W/m -3,7 C -1,8 C 8,0 km/h (2 Bft) 91,67 %
22.03.2018 00:22 -1,8 C 3,9 C 87 % 1025,8 hPa 0,0 l/m 5,7 km/h (1 Bft) W-SW 242 0 min 0,000 mm 0,0 UV-I 0 W/m -3,7 C -1,8 C 8,0 km/h (2 Bft) 100,00 %
22.03.2018 00:23 -1,8 C 3,9 C 87 % 1025,8 hPa 0,0 l/m 6,1 km/h (2 Bft) W-SW 241 0 min 0,000 mm 0,0 UV-I 0 W/m -3,7 C -1,8 C 8,0 km/h (2 Bft) 95,83 %
22.03.2018 00:24 -1,8 C 3,9 C 87 % 1025,8 hPa 0,0 l/m 7,4 km/h (2 Bft) SW 234 0 min 0,000 mm 0,0 UV-I 0 W/m -3,7 C -2,9 C 9,7 km/h (2 Bft) 100,00 %
22.03.2018 00:25 -1,8 C 3,9 C 87 % 1025,8 hPa 0,0 l/m 7,3 km/h (2 Bft) W-SW 249 0 min 0,000 mm 0,0 UV-I 0 W/m -3,7 C -2,8 C 12,9 km/h (3 Bft) 95,83 %
22.03.2018 00:26 -1,8 C 3,9 C 87 % 1025,8 hPa 0,0 l/m 7,5 km/h (2 Bft) W-SW 241 0 min 0,000 mm 0,0 UV-I 0 W/m -3,7 C -3,0 C 12,9 km/h (3 Bft) 91,30 %
22.03.2018 00:27 -1,8 C 3,9 C 87 % 1025,8 hPa 0,0 l/m 5,8 km/h (2 Bft) W-SW 240 0 min 0,000 mm 0,0 UV-I 0 W/m -3,7 C -1,8 C 8,0 km/h (2 Bft) 95,83 %
22.03.2018 00:28 -1,8 C 3,9 C 87 % 1025,8 hPa 0,0 l/m 5,9 km/h (2 Bft) W-SW 241 0 min 0,000 mm 0,0 UV-I 0 W/m -3,7 C -1,8 C 8,0 km/h (2 Bft) 100,00 %
22.03.2018 00:29 -1,8 C 3,9 C 87 % 1025,8 hPa 0,0 l/m 6,4 km/h (2 Bft) SW 231 0 min 0,000 mm 0,0 UV-I 0 W/m -3,7 C -1,8 C 8,0 km/h (2 Bft) 95,83 %
22.03.2018 00:30 -1,8 C 3,9 C 87 % 1025,8 hPa 0,0 l/m 6,9 km/h (2 Bft) W-SW 246 0 min 0,000 mm 0,0 UV-I 0 W/m -3,7 C -2,3 C 9,7 km/h (2 Bft) 91,30 %
22.03.2018 00:31 -1,8 C 3,9 C 87 % 1025,8 hPa 0,0 l/m 6,8 km/h (2 Bft) W-SW 240 0 min 0,000 mm 0,0 UV-I 0 W/m -3,7 C -2,2 C 9,7 km/h (2 Bft) 100,00 %
22.03.2018 00:32 -1,8 C 3,9 C 87 % 1025,8 hPa 0,0 l/m 6,3 km/h (2 Bft) W-SW 248 0 min 0,000 mm 0,0 UV-I 0 W/m -3,7 C -1,8 C 8,0 km/h (2 Bft) 91,67 %
22.03.2018 00:33 -1,8 C 3,9 C 87 % 1025,8 hPa 0,0 l/m 6,2 km/h (2 Bft) W-SW 248 0 min 0,000 mm 0,0 UV-I 0 W/m -3,7 C -1,8 C 8,0 km/h (2 Bft) 100,00 %
22.03.2018 00:34 -1,8 C 3,9 C 87 % 1025,8 hPa 0,0 l/m 7,7 km/h (2 Bft) W-SW 247 0 min 0,000 mm 0,0 UV-I 0 W/m -3,7 C -3,2 C 11,3 km/h (2 Bft) 95,83 %
22.03.2018 00:35 -1,8 C 3,9 C 87 % 1025,8 hPa 0,0 l/m 7,7 km/h (2 Bft) W-SW 240 0 min 0,000 mm 0,0 UV-I 0 W/m -3,7 C -3,2 C 12,9 km/h (3 Bft) 100,00 %
22.03.2018 00:36 -1,8 C 3,9 C 87 % 1025,8 hPa 0,0 l/m 6,7 km/h (2 Bft) W-SW 244 0 min 0,000 mm 0,0 UV-I 0 W/m -3,7 C -2,1 C 9,7 km/h (2 Bft) 95,83 %
22.03.2018 00:37 -1,8 C 3,9 C 87 % 1025,8 hPa 0,0 l/m 6,6 km/h (2 Bft) W-SW 239 0 min 0,000 mm 0,0 UV-I 0 W/m -3,7 C -2,0 C 11,3 km/h (2 Bft) 100,00 %
22.03.2018 00:38 -1,8 C 3,9 C 87 % 1025,7 hPa 0,0 l/m 6,3 km/h (2 Bft) W-SW 250 0 min 0,000 mm 0,0 UV-I 0 W/m -3,7 C -1,8 C 8,0 km/h (2 Bft) 91,67 %
22.03.2018 00:39 -1,8 C 3,9 C 87 % 1025,8 hPa 0,0 l/m 6,2 km/h (2 Bft) W-SW 244 0 min 0,000 mm 0,0 UV-I 0 W/m -3,7 C -1,8 C 8,0 km/h (2 Bft) 95,65 %
22.03.2018 00:40 -1,9 C 3,9 C 87 % 1025,7 hPa 0,0 l/m 5,9 km/h (2 Bft) W-SW 242 0 min 0,000 mm 0,0 UV-I 0 W/m -3,8 C -1,9 C 8,0 km/h (2 Bft) 100,00 %
22.03.2018 00:41 -1,9 C 3,9 C 87 % 1025,7 hPa 0,0 l/m 5,9 km/h (2 Bft) SW 233 0 min 0,000 mm 0,0 UV-I 0 W/m -3,8 C -1,9 C 6,4 km/h (2 Bft) 91,30 %
22.03.2018 00:42 -1,9 C 3,9 C 87 % 1025,7 hPa 0,0 l/m 5,4 km/h (1 Bft) SW 236 0 min 0,000 mm 0,0 UV-I 0 W/m -3,8 C -1,9 C 6,4 km/h (2 Bft) 100,00 %
22.03.2018 00:43 -1,9 C 3,9 C 87 % 1025,6 hPa 0,0 l/m 5,9 km/h (2 Bft) W-SW 241 0 min 0,000 mm 0,0 UV-I 0 W/m -3,8 C -1,9 C 8,0 km/h (2 Bft) 95,65 %
22.03.2018 00:44 -1,9 C 3,9 C 87 % 1025,6 hPa 0,0 l/m 5,4 km/h (1 Bft) W-SW 244 0 min 0,000 mm 0,0 UV-I 0 W/m -3,8 C -1,9 C 6,4 km/h (2 Bft) 100,00 %
22.03.2018 00:45 -1,9 C 3,9 C 87 % 1025,6 hPa 0,0 l/m 5,1 km/h (1 Bft) SW 236 0 min 0,000 mm 0,0 UV-I 0 W/m -3,8 C -1,9 C 6,4 km/h (2 Bft) 91,30 %
22.03.2018 00:46 -1,9 C 3,9 C 87 % 1025,6 hPa 0,0 l/m 5,4 km/h (1 Bft) SW 234 0 min 0,000 mm 0,0 UV-I 0 W/m -3,8 C -1,9 C 6,4 km/h (2 Bft) 100,00 %
22.03.2018 00:47 -1,9 C 3,9 C 87 % 1025,6 hPa 0,0 l/m 4,9 km/h (1 Bft) SW 233 0 min 0,000 mm 0,0 UV-I 0 W/m -3,8 C -1,9 C 6,4 km/h (2 Bft) 95,65 %
22.03.2018 00:48 -2,0 C 3,9 C 87 % 1025,6 hPa 0,0 l/m 6,2 km/h (2 Bft) SW 230 0 min 0,000 mm 0,0 UV-I 0 W/m -3,9 C -2,0 C 8,0 km/h (2 Bft) 95,83 %
22.03.2018 00:49 -2,0 C 3,9 C 87 % 1025,6 hPa 0,0 l/m 6,0 km/h (2 Bft) SW 229 0 min 0,000 mm 0,0 UV-I 0 W/m -3,9 C -2,0 C 6,4 km/h (2 Bft) 100,00 %
22.03.2018 00:50 -2,0 C 3,9 C 87 % 1025,6 hPa 0,0 l/m 5,6 km/h (1 Bft) W-SW 241 0 min 0,000 mm 0,0 UV-I 0 W/m -3,9 C -2,0 C 6,4 km/h (2 Bft) 91,67 %
22.03.2018 00:51 -2,1 C 3,9 C 87 % 1025,6 hPa 0,0 l/m 5,7 km/h (1 Bft) SW 226 0 min 0,000 mm 0,0 UV-I 0 W/m -4,0 C -2,1 C 8,0 km/h (2 Bft) 95,65 %
22.03.2018 00:52 -2,0 C 3,9 C 87 % 1025,7 hPa 0,0 l/m 5,4 km/h (1 Bft) SW 234 0 min 0,000 mm 0,0 UV-I 0 W/m -3,9 C -2,0 C 8,0 km/h (2 Bft) 100,00 %
22.03.2018 00:53 -2,1 C 3,9 C 87 % 1025,7 hPa 0,0 l/m 5,7 km/h (1 Bft) SW 235 0 min 0,000 mm 0,0 UV-I 0 W/m -4,0 C -2,1 C 6,4 km/h (2 Bft) 95,83 %
22.03.2018 00:54 -2,1 C 3,9 C 87 % 1025,6 hPa 0,0 l/m 4,4 km/h (1 Bft) SW 236 0 min 0,000 mm 0,0 UV-I 0 W/m -4,0 C -2,1 C 6,4 km/h (2 Bft) 91,30 %
22.03.2018 00:55 -2,1 C 3,9 C 87 % 1025,7 hPa 0,0 l/m 4,4 km/h (1 Bft) SW 232 0 min 0,000 mm 0,0 UV-I 0 W/m -4,0 C -2,1 C 6,4 km/h (2 Bft) 95,83 %
22.03.2018 00:56 -2,1 C 3,9 C 87 % 1025,6 hPa 0,0 l/m 4,7 km/h (1 Bft) SW 230 0 min 0,000 mm 0,0 UV-I 0 W/m -4,0 C -2,1 C 6,4 km/h (2 Bft) 100,00 %
22.03.2018 00:57 -2,2 C 3,9 C 87 % 1025,7 hPa 0,0 l/m 4,2 km/h (1 Bft) SW 230 0 min 0,000 mm 0,0 UV-I 0 W/m -4,1 C -2,2 C 4,8 km/h (1 Bft) 95,83 %
22.03.2018 00:58 -2,2 C 3,9 C 87 % 1025,7 hPa 0,0 l/m 4,1 km/h (1 Bft) SW 229 0 min 0,000 mm 0,0 UV-I 0 W/m -4,1 C -2,2 C 6,4 km/h (2 Bft) 100,00 %
22.03.2018 00:59 -2,3 C 3,9 C 88 % 1025,6 hPa 0,0 l/m 5,0 km/h (1 Bft) SW 229 0 min 0,000 mm 0,0 UV-I 0 W/m -4,0 C -2,3 C 6,4 km/h (2 Bft) 95,83 %
22.03.2018 01:00 -2,3 C 3,9 C 88 % 1025,6 hPa 0,0 l/m 5,2 km/h (1 Bft) SW 228 0 min 0,000 mm 0,0 UV-I 0 W/m -4,0 C -2,3 C 6,4 km/h (2 Bft) 100,00 %
22.03.2018 01:01 -2,3 C 3,9 C 88 % 1025,7 hPa 0,0 l/m 5,5 km/h (1 Bft) SW 228 0 min 0,000 mm 0,0 UV-I 0 W/m -4,0 C -2,3 C 6,4 km/h (2 Bft) 91,67 %
22.03.2018 01:02 -2,3 C 3,9 C 88 % 1025,6 hPa 0,0 l/m 5,5 km/h (1 Bft) SW 231 0 min 0,000 mm 0,0 UV-I 0 W/m -4,0 C -2,3 C 6,4 km/h (2 Bft) 95,65 %
22.03.2018 01:03 -2,3 C 3,9 C 88 % 1025,6 hPa 0,0 l/m 5,2 km/h (1 Bft) SW 215 0 min 0,000 mm 0,0 UV-I 0 W/m -4,0 C -2,3 C 6,4 km/h (2 Bft) 95,83 %
22.03.2018 01:04 -2,4 C 3,9 C 88 % 1025,6 hPa 0,0 l/m 5,4 km/h (1 Bft) SW 228 0 min 0,000 mm 0,0 UV-I 0 W/m -4,1 C -2,4 C 6,4 km/h (2 Bft) 88,46 %
22.03.2018 01:05 -2,4 C 3,9 C 88 % 1025,6 hPa 0,0 l/m 4,9 km/h (1 Bft) SW 227 0 min 0,000 mm 0,0 UV-I 0 W/m -4,1 C -2,4 C 6,4 km/h (2 Bft) 100,00 %
22.03.2018 01:06 -2,6 C 3,9 C 88 % 1025,6 hPa 0,0 l/m 4,8 km/h (1 Bft) SW 217 0 min 0,000 mm 0,0 UV-I 0 W/m -4,3 C -2,6 C 6,4 km/h (2 Bft) 86,96 %
22.03.2018 01:07 -2,7 C 3,9 C 88 % 1025,7 hPa 0,0 l/m 3,8 km/h (1 Bft) SW 217 0 min 0,000 mm 0,0 UV-I 0 W/m -4,4 C -2,7 C 4,8 km/h (1 Bft) 100,00 %
22.03.2018 01:08 -2,7 C 3,9 C 88 % 1025,6 hPa 0,0 l/m 3,8 km/h (1 Bft) SW 217 0 min 0,000 mm 0,0 UV-I 0 W/m -4,4 C -2,7 C 4,8 km/h (1 Bft) 91,30 %
22.03.2018 01:09 -2,7 C 3,9 C 89 % 1025,6 hPa 0,0 l/m 4,4 km/h (1 Bft) SW 217 0 min 0,000 mm 0,0 UV-I 0 W/m -4,3 C -2,7 C 6,4 km/h (2 Bft) 95,83 %
22.03.2018 01:10 -2,7 C 3,9 C 89 % 1025,6 hPa 0,0 l/m 6,0 km/h (2 Bft) SW 223 0 min 0,000 mm 0,0 UV-I 0 W/m -4,3 C -2,7 C 8,0 km/h (2 Bft) 100,00 %
22.03.2018 01:11 -2,8 C 3,9 C 89 % 1025,6 hPa 0,0 l/m 5,3 km/h (1 Bft) SW 217 0 min 0,000 mm 0,0 UV-I 0 W/m -4,4 C -2,8 C 6,4 km/h (2 Bft) 96,15 %
22.03.2018 01:12 -2,7 C 3,9 C 89 % 1025,6 hPa 0,0 l/m 5,3 km/h (1 Bft) SW 223 0 min 0,000 mm 0,0 UV-I 0 W/m -4,3 C -2,7 C 6,4 km/h (2 Bft) 100,00 %
22.03.2018 01:13 -2,7 C 3,9 C 89 % 1025,6 hPa 0,0 l/m 6,7 km/h (2 Bft) SW 229 0 min 0,000 mm 0,0 UV-I 0 W/m -4,3 C -3,0 C 8,0 km/h (2 Bft) 91,30 %
22.03.2018 01:14 -2,7 C 3,9 C 89 % 1025,6 hPa 0,0 l/m 6,6 km/h (2 Bft) SW 231 0 min 0,000 mm 0,0 UV-I 0 W/m -4,3 C -2,9 C 8,0 km/h (2 Bft) 95,83 %
22.03.2018 01:15 -2,7 C 3,9 C 89 % 1025,6 hPa 0,0 l/m 5,4 km/h (1 Bft) SW 233 0 min 0,000 mm 0,0 UV-I 0 W/m -4,3 C -2,7 C 6,4 km/h (2 Bft) 95,65 %
22.03.2018 01:16 -2,6 C 3,9 C 89 % 1025,6 hPa 0,0 l/m 7,2 km/h (2 Bft) SW 234 0 min 0,000 mm 0,0 UV-I 0 W/m -4,2 C -3,5 C 9,7 km/h (2 Bft) 100,00 %
22.03.2018 01:17 -2,5 C 3,9 C 89 % 1025,6 hPa 0,0 l/m 5,9 km/h (2 Bft) SW 232 0 min 0,000 mm 0,0 UV-I 0 W/m -4,1 C -2,5 C 8,0 km/h (2 Bft) 95,65 %
22.03.2018 01:18 -2,4 C 3,9 C 89 % 1025,6 hPa 0,0 l/m 6,2 km/h (2 Bft) W-SW 237 0 min 0,000 mm 0,0 UV-I 0 W/m -4,0 C -2,4 C 8,0 km/h (2 Bft) 100,00 %
22.03.2018 01:19 -2,4 C 3,9 C 89 % 1025,6 hPa 0,0 l/m 6,1 km/h (2 Bft) SW 235 0 min 0,000 mm 0,0 UV-I 0 W/m -4,0 C -2,4 C 6,4 km/h (2 Bft) 95,65 %
22.03.2018 01:20 -2,4 C 3,9 C 88 % 1025,6 hPa 0,0 l/m 5,6 km/h (1 Bft) SW 234 0 min 0,000 mm 0,0 UV-I 0 W/m -4,1 C -2,4 C 6,4 km/h (2 Bft) 95,83 %
22.03.2018 01:21 -2,4 C 3,9 C 88 % 1025,6 hPa 0,0 l/m 6,3 km/h (2 Bft) SW 229 0 min 0,000 mm 0,0 UV-I 0 W/m -4,1 C -2,4 C 8,0 km/h (2 Bft) 100,00 %
22.03.2018 01:22 -2,4 C 3,9 C 88 % 1025,6 hPa 0,0 l/m 5,8 km/h (2 Bft) SW 229 0 min 0,000 mm 0,0 UV-I 0 W/m -4,1 C -2,4 C 8,0 km/h (2 Bft) 91,67 %
22.03.2018 01:23 -2,4 C 3,9 C 88 % 1025,6 hPa 0,0 l/m 5,5 km/h (1 Bft) S-SW 207 0 min 0,000 mm 0,0 UV-I 0 W/m -4,1 C -2,4 C 6,4 km/h (2 Bft) 95,65 %
22.03.2018 01:24 -2,4 C 3,9 C 88 % 1025,6 hPa 0,0 l/m 5,8 km/h (2 Bft) SW 220 0 min 0,000 mm 0,0 UV-I 0 W/m -4,1 C -2,4 C 8,0 km/h (2 Bft) 95,83 %
22.03.2018 01:25 -2,4 C 3,9 C 88 % 1025,5 hPa 0,0 l/m 5,4 km/h (1 Bft) SW 231 0 min 0,000 mm 0,0 UV-I 0 W/m -4,1 C -2,4 C 8,0 km/h (2 Bft) 100,00 %
22.03.2018 01:26 -2,4 C 3,9 C 88 % 1025,6 hPa 0,0 l/m 5,8 km/h (2 Bft) SW 223 0 min 0,000 mm 0,0 UV-I 0 W/m -4,1 C -2,4 C 6,4 km/h (2 Bft) 95,65 %
22.03.2018 01:27 -2,4 C 3,9 C 88 % 1025,5 hPa 0,0 l/m 5,7 km/h (1 Bft) SW 228 0 min 0,000 mm 0,0 UV-I 0 W/m -4,1 C -2,4 C 8,0 km/h (2 Bft) 95,83 %
22.03.2018 01:28 -2,4 C 3,9 C 88 % 1025,5 hPa 0,0 l/m 4,3 km/h (1 Bft) SW 227 0 min 0,000 mm 0,0 UV-I 0 W/m -4,1 C -2,4 C 4,8 km/h (1 Bft) 100,00 %
22.03.2018 01:29 -2,6 C 3,9 C 88 % 1025,5 hPa 0,0 l/m 4,3 km/h (1 Bft) SW 227 0 min 0,000 mm 0,0 UV-I 0 W/m -4,3 C -2,6 C 4,8 km/h (1 Bft) 95,83 %
22.03.2018 01:30 -2,6 C 3,9 C 88 % 1025,6 hPa 0,0 l/m 4,0 km/h (1 Bft) SW 227 0 min 0,000 mm 0,0 UV-I 0 W/m -4,3 C -2,6 C 4,8 km/h (1 Bft) 100,00 %
22.03.2018 01:31 -2,7 C 3,9 C 88 % 1025,5 hPa 0,0 l/m 4,0 km/h (1 Bft) SW 227 0 min 0,000 mm 0,0 UV-I 0 W/m -4,4 C -2,7 C 4,8 km/h (1 Bft) 95,83 %
22.03.2018 01:32 -2,7 C 3,9 C 89 % 1025,5 hPa 0,0 l/m 4,6 km/h (1 Bft) SW 227 0 min 0,000 mm 0,0 UV-I 0 W/m -4,3 C -2,7 C 6,4 km/h (2 Bft) 100,00 %
22.03.2018 01:33 -2,7 C 3,9 C 89 % 1025,4 hPa 0,0 l/m 4,2 km/h (1 Bft) SW 227 0 min 0,000 mm 0,0 UV-I 0 W/m -4,3 C -2,7 C 6,4 km/h (2 Bft) 91,67 %
22.03.2018 01:34 -2,7 C 3,9 C 88 % 1025,4 hPa 0,0 l/m 5,4 km/h (1 Bft) SW 223 0 min 0,000 mm 0,0 UV-I 0 W/m -4,4 C -2,7 C 8,0 km/h (2 Bft) 100,00 %
22.03.2018 01:35 -2,8 C 3,9 C 88 % 1025,4 hPa 0,0 l/m 4,6 km/h (1 Bft) SW 223 0 min 0,000 mm 0,0 UV-I 0 W/m -4,5 C -2,8 C 4,8 km/h (1 Bft) 100,00 %
22.03.2018 01:36 -2,9 C 3,9 C 88 % 1025,4 hPa 0,0 l/m 5,3 km/h (1 Bft) SW 223 0 min 0,000 mm 0,0 UV-I 0 W/m -4,6 C -2,9 C 6,4 km/h (2 Bft) 91,30 %
22.03.2018 01:37 -2,9 C 3,9 C 88 % 1025,4 hPa 0,0 l/m 4,5 km/h (1 Bft) SW 223 0 min 0,000 mm 0,0 UV-I 0 W/m -4,6 C -2,9 C 6,4 km/h (2 Bft) 100,00 %
22.03.2018 01:38 -2,9 C 3,9 C 89 % 1025,4 hPa 0,0 l/m 3,7 km/h (1 Bft) SW 223 0 min 0,000 mm 0,0 UV-I 0 W/m -4,5 C -2,9 C 4,8 km/h (1 Bft) 100,00 %
22.03.2018 01:39 -2,9 C 3,9 C 89 % 1025,4 hPa 0,0 l/m 5,0 km/h (1 Bft) SW 223 0 min 0,000 mm 0,0 UV-I 0 W/m -4,5 C -2,9 C 6,4 km/h (2 Bft) 100,00 %
22.03.2018 01:40 -2,9 C 3,9 C 89 % 1025,4 hPa 0,0 l/m 4,4 km/h (1 Bft) SW 227 0 min 0,000 mm 0,0 UV-I 0 W/m -4,5 C -2,9 C 6,4 km/h (2 Bft) 100,00 %
22.03.2018 01:41 -2,8 C 3,9 C 89 % 1025,4 hPa 0,0 l/m 4,2 km/h (1 Bft) SW 228 0 min 0,000 mm 0,0 UV-I 0 W/m -4,4 C -2,8 C 4,8 km/h (1 Bft) 100,00 %
22.03.2018 01:42 -2,8 C 3,9 C 89 % 1025,3 hPa 0,0 l/m 4,4 km/h (1 Bft) SW 228 0 min 0,000 mm 0,0 UV-I 0 W/m -4,4 C -2,8 C 4,8 km/h (1 Bft) 100,00 %
22.03.2018 01:43 -2,8 C 3,9 C 89 % 1025,3 hPa 0,0 l/m 5,0 km/h (1 Bft) SW 226 0 min 0,000 mm 0,0 UV-I 0 W/m -4,4 C -2,8 C 6,4 km/h (2 Bft) 100,00 %
22.03.2018 01:44 -2,9 C 3,9 C 89 % 1025,3 hPa 0,0 l/m 4,9 km/h (1 Bft) SW 226 0 min 0,000 mm 0,0 UV-I 0 W/m -4,5 C -2,9 C 6,4 km/h (2 Bft) 100,00 %
22.03.2018 01:45 -2,9 C 3,9 C 89 % 1025,3 hPa 0,0 l/m 4,3 km/h (1 Bft) SW 227 0 min 0,000 mm 0,0 UV-I 0 W/m -4,5 C -2,9 C 4,8 km/h (1 Bft) 95,83 %
22.03.2018 01:46 -2,9 C 3,9 C 89 % 1025,3 hPa 0,0 l/m 5,4 km/h (1 Bft) SW 227 0 min 0,000 mm 0,0 UV-I 0 W/m -4,5 C -2,9 C 6,4 km/h (2 Bft) 95,65 %
22.03.2018 01:47 -2,9 C 3,9 C 89 % 1025,3 hPa 0,0 l/m 4,7 km/h (1 Bft) SW 227 0 min 0,000 mm 0,0 UV-I 0 W/m -4,5 C -2,9 C 4,8 km/h (1 Bft) 100,00 %
22.03.2018 01:48 -2,9 C 3,9 C 89 % 1025,3 hPa 0,0 l/m 5,0 km/h (1 Bft) SW 229 0 min 0,000 mm 0,0 UV-I 0 W/m -4,5 C -2,9 C 6,4 km/h (2 Bft) 100,00 %
22.03.2018 01:49 -2,9 C 3,9 C 89 % 1025,3 hPa 0,0 l/m 5,6 km/h (1 Bft) SW 234 0 min 0,000 mm 0,0 UV-I 0 W/m -4,5 C -2,9 C 6,4 km/h (2 Bft) 100,00 %
22.03.2018 01:50 -2,8 C 3,9 C 90 % 1025,3 hPa 0,0 l/m 5,0 km/h (1 Bft) SW 229 0 min 0,000 mm 0,0 UV-I 0 W/m -4,2 C -2,8 C 6,4 km/h (2 Bft) 96,30 %
22.03.2018 01:51 -2,8 C 3,9 C 90 % 1025,3 hPa 0,0 l/m 4,8 km/h (1 Bft) SW 229 0 min 0,000 mm 0,0 UV-I 0 W/m -4,2 C -2,8 C 4,8 km/h (1 Bft) 100,00 %
22.03.2018 01:52 -2,8 C 3,9 C 89 % 1025,2 hPa 0,0 l/m 4,7 km/h (1 Bft) S-SW 202 0 min 0,000 mm 0,0 UV-I 0 W/m -4,4 C -2,8 C 6,4 km/h (2 Bft) 100,00 %
22.03.2018 01:53 -2,8 C 3,9 C 89 % 1025,2 hPa 0,0 l/m 4,2 km/h (1 Bft) SW 224 0 min 0,000 mm 0,0 UV-I 0 W/m -4,4 C -2,8 C 6,4 km/h (2 Bft) 100,00 %
22.03.2018 01:54 -2,9 C 3,9 C 89 % 1025,2 hPa 0,0 l/m 3,8 km/h (1 Bft) SW 232 0 min 0,000 mm 0,0 UV-I 0 W/m -4,5 C -2,9 C 4,8 km/h (1 Bft) 100,00 %
22.03.2018 01:55 -3,1 C 3,9 C 89 % 1025,2 hPa 0,0 l/m 4,8 km/h (1 Bft) SW 223 0 min 0,000 mm 0,0 UV-I 0 W/m -4,6 C -3,1 C 6,4 km/h (2 Bft) 100,00 %
22.03.2018 01:56 -3,0 C 3,9 C 89 % 1025,2 hPa 0,0 l/m 5,2 km/h (1 Bft) SW 227 0 min 0,000 mm 0,0 UV-I 0 W/m -4,6 C -3,0 C 6,4 km/h (2 Bft) 95,83 %
22.03.2018 01:57 -2,9 C 3,9 C 90 % 1025,2 hPa 0,0 l/m 5,0 km/h (1 Bft) SW 232 0 min 0,000 mm 0,0 UV-I 0 W/m -4,3 C -2,9 C 6,4 km/h (2 Bft) 100,00 %
22.03.2018 01:58 -2,9 C 3,9 C 90 % 1025,1 hPa 0,0 l/m 5,6 km/h (1 Bft) SW 233 0 min 0,000 mm 0,0 UV-I 0 W/m -4,3 C -2,9 C 6,4 km/h (2 Bft) 95,83 %
22.03.2018 01:59 -2,9 C 3,9 C 90 % 1025,1 hPa 0,0 l/m 4,8 km/h (1 Bft) SW 233 0 min 0,000 mm 0,0 UV-I 0 W/m -4,3 C -2,9 C 6,4 km/h (2 Bft) 95,65 %
22.03.2018 02:00 -2,8 C 3,9 C 90 % 1025,1 hPa 0,0 l/m 5,0 km/h (1 Bft) W-SW 239 0 min 0,000 mm 0,0 UV-I 0 W/m -4,2 C -2,8 C 6,4 km/h (2 Bft) 100,00 %
22.03.2018 02:01 -2,8 C 3,9 C 90 % 1025,1 hPa 0,0 l/m 4,9 km/h (1 Bft) W-SW 239 0 min 0,000 mm 0,0 UV-I 0 W/m -4,2 C -2,8 C 6,4 km/h (2 Bft) 96,15 %
22.03.2018 02:02 -2,8 C 3,9 C 89 % 1025,1 hPa 0,0 l/m 3,6 km/h (1 Bft) W-SW 239 0 min 0,000 mm 0,0 UV-I 0 W/m -4,4 C -2,8 C 4,8 km/h (1 Bft) 100,00 %
22.03.2018 02:03 -2,9 C 3,9 C 89 % 1025,1 hPa 0,0 l/m 3,4 km/h (1 Bft) W-SW 239 0 min 0,000 mm 0,0 UV-I 0 W/m -4,5 C -2,9 C 4,8 km/h (1 Bft) 100,00 %
22.03.2018 02:04 -2,9 C 3,9 C 89 % 1025,1 hPa 0,0 l/m 3,0 km/h (1 Bft) W-SW 239 0 min 0,000 mm 0,0 UV-I 0 W/m -4,5 C -2,9 C 4,8 km/h (1 Bft) 100,00 %
22.03.2018 02:05 -2,9 C 3,9 C 90 % 1025,1 hPa 0,0 l/m 4,2 km/h (1 Bft) W-SW 239 0 min 0,000 mm 0,0 UV-I 0 W/m -4,3 C -2,9 C 4,8 km/h (1 Bft) 95,65 %
22.03.2018 02:06 -2,9 C 3,9 C 90 % 1025,1 hPa 0,0 l/m 4,6 km/h (1 Bft) W-SW 238 0 min 0,000 mm 0,0 UV-I 0 W/m -4,3 C -2,9 C 6,4 km/h (2 Bft) 100,00 %
22.03.2018 02:07 -2,9 C 3,9 C 90 % 1025,0 hPa 0,0 l/m 3,8 km/h (1 Bft) W-SW 238 0 min 0,000 mm 0,0 UV-I 0 W/m -4,3 C -2,9 C 4,8 km/h (1 Bft) 95,65 %
22.03.2018 02:08 -3,0 C 3,9 C 90 % 1025,0 hPa 0,0 l/m 4,0 km/h (1 Bft) W-SW 238 0 min 0,000 mm 0,0 UV-I 0 W/m -4,4 C -3,0 C 4,8 km/h (1 Bft) 100,00 %
22.03.2018 02:09 -3,1 C 3,9 C 89 % 1025,0 hPa 0,0 l/m 4,2 km/h (1 Bft) W-SW 238 0 min 0,000 mm 0,0 UV-I 0 W/m -4,6 C -3,1 C 6,4 km/h (2 Bft) 95,83 %
22.03.2018 02:10 -3,1 C 3,9 C 90 % 1025,0 hPa 0,0 l/m 4,2 km/h (1 Bft) S-SW 211 0 min 0,000 mm 0,0 UV-I 0 W/m -4,5 C -3,1 C 4,8 km/h (1 Bft) 100,00 %
22.03.2018 02:11 -3,1 C 3,9 C 90 % 1025,0 hPa 0,0 l/m 3,8 km/h (1 Bft) S-SW 211 0 min 0,000 mm 0,0 UV-I 0 W/m -4,5 C -3,1 C 6,4 km/h (2 Bft) 95,83 %
22.03.2018 02:12 -3,1 C 3,9 C 90 % 1024,9 hPa 0,0 l/m 4,0 km/h (1 Bft) SW 223 0 min 0,000 mm 0,0 UV-I 0 W/m -4,5 C -3,1 C 4,8 km/h (1 Bft) 95,65 %
22.03.2018 02:13 -3,1 C 3,9 C 90 % 1024,9 hPa 0,0 l/m 3,9 km/h (1 Bft) SW 223 0 min 0,000 mm 0,0 UV-I 0 W/m -4,5 C -3,1 C 4,8 km/h (1 Bft) 100,00 %
22.03.2018 02:14 -3,1 C 3,9 C 90 % 1024,9 hPa 0,0 l/m 3,4 km/h (1 Bft) SW 222 0 min 0,000 mm 0,0 UV-I 0 W/m -4,5 C -3,1 C 4,8 km/h (1 Bft) 100,00 %
22.03.2018 02:15 -3,1 C 3,9 C 90 % 1024,9 hPa 0,0 l/m 3,6 km/h (1 Bft) SW 222 0 min 0,000 mm 0,0 UV-I 0 W/m -4,5 C -3,1 C 4,8 km/h (1 Bft) 100,00 %
22.03.2018 02:16 -3,1 C 3,9 C 90 % 1024,9 hPa 0,0 l/m 4,2 km/h (1 Bft) SW 222 0 min 0,000 mm 0,0 UV-I 0 W/m -4,5 C -3,1 C 4,8 km/h (1 Bft) 100,00 %
22.03.2018 02:17 -3,1 C 3,9 C 90 % 1024,9 hPa 0,0 l/m 3,4 km/h (1 Bft) SW 222 0 min 0,000 mm 0,0 UV-I 0 W/m -4,5 C -3,1 C 4,8 km/h (1 Bft) 100,00 %
22.03.2018 02:18 -3,2 C 3,9 C 90 % 1024,9 hPa 0,0 l/m 3,3 km/h (1 Bft) SW 222 0 min 0,000 mm 0,0 UV-I 0 W/m -4,6 C -3,2 C 4,8 km/h (1 Bft) 100,00 %
22.03.2018 02:19 -3,2 C 3,9 C 90 % 1024,9 hPa 0,0 l/m 2,7 km/h (1 Bft) SW 222 0 min 0,000 mm 0,0 UV-I 0 W/m -4,6 C -3,2 C 3,2 km/h (1 Bft) 100,00 %
22.03.2018 02:20 -3,2 C 3,9 C 90 % 1024,9 hPa 0,0 l/m 2,2 km/h (1 Bft) SW 222 0 min 0,000 mm 0,0 UV-I 0 W/m -4,6 C -3,2 C 3,2 km/h (1 Bft) 100,00 %
22.03.2018 02:21 -3,2 C 3,9 C 90 % 1024,9 hPa 0,0 l/m 3,0 km/h (1 Bft) SW 222 0 min 0,000 mm 0,0 UV-I 0 W/m -4,6 C -3,2 C 4,8 km/h (1 Bft) 100,00 %
22.03.2018 02:22 -3,2 C 3,9 C 90 % 1024,8 hPa 0,0 l/m 2,5 km/h (1 Bft) SW 222 0 min 0,000 mm 0,0 UV-I 0 W/m -4,6 C -3,2 C 3,2 km/h (1 Bft) 100,00 %
22.03.2018 02:23 -3,2 C 3,9 C 90 % 1024,8 hPa 0,0 l/m 2,7 km/h (1 Bft) SW 222 0 min 0,000 mm 0,0 UV-I 0 W/m -4,6 C -3,2 C 3,2 km/h (1 Bft) 95,83 %
22.03.2018 02:24 -3,2 C 3,9 C 90 % 1024,8 hPa 0,0 l/m 2,5 km/h (1 Bft) SW 222 0 min 0,000 mm 0,0 UV-I 0 W/m -4,6 C -3,2 C 4,8 km/h (1 Bft) 95,83 %
22.03.2018 02:25 -3,2 C 3,9 C 90 % 1024,8 hPa 0,0 l/m 3,6 km/h (1 Bft) SW 222 0 min 0,000 mm 0,0 UV-I 0 W/m -4,6 C -3,2 C 4,8 km/h (1 Bft) 100,00 %
22.03.2018 02:26 -3,2 C 3,9 C 90 % 1024,8 hPa 0,0 l/m 3,2 km/h (1 Bft) SW 222 0 min 0,000 mm 0,0 UV-I 0 W/m -4,6 C -3,2 C 4,8 km/h (1 Bft) 95,83 %
22.03.2018 02:27 -3,3 C 3,9 C 90 % 1024,8 hPa 0,0 l/m 3,6 km/h (1 Bft) SW 222 0 min 0,000 mm 0,0 UV-I 0 W/m -4,7 C -3,3 C 4,8 km/h (1 Bft) 100,00 %
22.03.2018 02:28 -3,3 C 3,9 C 90 % 1024,8 hPa 0,0 l/m 3,9 km/h (1 Bft) SW 215 0 min 0,000 mm 0,0 UV-I 0 W/m -4,7 C -3,3 C 4,8 km/h (1 Bft) 100,00 %
22.03.2018 02:29 -3,4 C 3,9 C 90 % 1024,8 hPa 0,0 l/m 5,2 km/h (1 Bft) SW 218 0 min 0,000 mm 0,0 UV-I 0 W/m -4,8 C -3,4 C 6,4 km/h (2 Bft) 100,00 %
22.03.2018 02:30 -3,3 C 3,9 C 91 % 1024,8 hPa 0,0 l/m 4,0 km/h (1 Bft) SW 217 0 min 0,000 mm 0,0 UV-I 0 W/m -4,6 C -3,3 C 4,8 km/h (1 Bft) 100,00 %
22.03.2018 02:31 -3,3 C 3,9 C 91 % 1024,8 hPa 0,0 l/m 4,1 km/h (1 Bft) S-SW 200 0 min 0,000 mm 0,0 UV-I 0 W/m -4,6 C -3,3 C 6,4 km/h (2 Bft) 100,00 %
22.03.2018 02:32 -3,3 C 3,9 C 91 % 1024,8 hPa 0,0 l/m 4,5 km/h (1 Bft) S-SW 207 0 min 0,000 mm 0,0 UV-I 0 W/m -4,6 C -3,3 C 4,8 km/h (1 Bft) 100,00 %
22.03.2018 02:33 -3,3 C 3,9 C 91 % 1024,8 hPa 0,0 l/m 4,4 km/h (1 Bft) S-SW 207 0 min 0,000 mm 0,0 UV-I 0 W/m -4,6 C -3,3 C 4,8 km/h (1 Bft) 100,00 %
22.03.2018 02:34 -3,3 C 3,9 C 91 % 1024,7 hPa 0,0 l/m 5,5 km/h (1 Bft) S-SW 205 0 min 0,000 mm 0,0 UV-I 0 W/m -4,6 C -3,3 C 6,4 km/h (2 Bft) 100,00 %
22.03.2018 02:35 -3,4 C 3,9 C 91 % 1024,7 hPa 0,0 l/m 5,1 km/h (1 Bft) S-SW 205 0 min 0,000 mm 0,0 UV-I 0 W/m -4,7 C -3,4 C 6,4 km/h (2 Bft) 96,15 %
22.03.2018 02:36 -3,4 C 3,9 C 91 % 1024,7 hPa 0,0 l/m 5,3 km/h (1 Bft) S-SW 200 0 min 0,000 mm 0,0 UV-I 0 W/m -4,7 C -3,4 C 6,4 km/h (2 Bft) 100,00 %
22.03.2018 02:37 -3,4 C 3,9 C 91 % 1024,7 hPa 0,0 l/m 4,6 km/h (1 Bft) S-SW 197 0 min 0,000 mm 0,0 UV-I 0 W/m -4,7 C -3,4 C 6,4 km/h (2 Bft) 100,00 %
22.03.2018 02:38 -3,4 C 3,9 C 91 % 1024,7 hPa 0,0 l/m 4,6 km/h (1 Bft) S-SW 196 0 min 0,000 mm 0,0 UV-I 0 W/m -4,7 C -3,4 C 4,8 km/h (1 Bft) 100,00 %
22.03.2018 02:39 -3,4 C 3,9 C 91 % 1024,7 hPa 0,0 l/m 4,8 km/h (1 Bft) S 191 0 min 0,000 mm 0,0 UV-I 0 W/m -4,7 C -3,4 C 6,4 km/h (2 Bft) 100,00 %
22.03.2018 02:40 -3,4 C 3,9 C 91 % 1024,7 hPa 0,0 l/m 4,0 km/h (1 Bft) S 190 0 min 0,000 mm 0,0 UV-I 0 W/m -4,7 C -3,4 C 4,8 km/h (1 Bft) 100,00 %
22.03.2018 02:41 -3,3 C 3,9 C 91 % 1024,7 hPa 0,0 l/m 3,7 km/h (1 Bft) S 191 0 min 0,000 mm 0,0 UV-I 0 W/m -4,6 C -3,3 C 4,8 km/h (1 Bft) 95,65 %
22.03.2018 02:42 -3,3 C 3,9 C 91 % 1024,7 hPa 0,0 l/m 4,3 km/h (1 Bft) S-SW 192 0 min 0,000 mm 0,0 UV-I 0 W/m -4,6 C -3,3 C 6,4 km/h (2 Bft) 100,00 %
22.03.2018 02:43 -3,3 C 3,9 C 91 % 1024,7 hPa 0,0 l/m 4,4 km/h (1 Bft) S-SW 192 0 min 0,000 mm 0,0 UV-I 0 W/m -4,6 C -3,3 C 4,8 km/h (1 Bft) 100,00 %
22.03.2018 02:44 -3,3 C 3,9 C 91 % 1024,7 hPa 0,0 l/m 5,2 km/h (1 Bft) S-SW 198 0 min 0,000 mm 0,0 UV-I 0 W/m -4,6 C -3,3 C 6,4 km/h (2 Bft) 100,00 %
22.03.2018 02:45 -3,4 C 3,9 C 91 % 1024,7 hPa 0,0 l/m 4,8 km/h (1 Bft) S-SW 198 0 min 0,000 mm 0,0 UV-I 0 W/m -4,7 C -3,4 C 6,4 km/h (2 Bft) 95,65 %
22.03.2018 02:46 -3,4 C 3,9 C 91 % 1024,7 hPa 0,0 l/m 4,3 km/h (1 Bft) S-SW 198 0 min 0,000 mm 0,0 UV-I 0 W/m -4,7 C -3,4 C 4,8 km/h (1 Bft) 100,00 %
22.03.2018 02:47 -3,4 C 3,9 C 91 % 1024,7 hPa 0,0 l/m 4,5 km/h (1 Bft) S-SW 198 0 min 0,000 mm 0,0 UV-I 0 W/m -4,7 C -3,4 C 6,4 km/h (2 Bft) 100,00 %
22.03.2018 02:48 -3,3 C 3,9 C 91 % 1024,6 hPa 0,0 l/m 4,7 km/h (1 Bft) S-SW 192 0 min 0,000 mm 0,0 UV-I 0 W/m -4,6 C -3,3 C 4,8 km/h (1 Bft) 100,00 %
22.03.2018 02:49 -3,3 C 3,9 C 91 % 1024,6 hPa 0,0 l/m 4,7 km/h (1 Bft) S 189 0 min 0,000 mm 0,0 UV-I 0 W/m -4,6 C -3,3 C 6,4 km/h (2 Bft) 100,00 %
22.03.2018 02:50 -3,3 C 3,9 C 91 % 1024,7 hPa 0,0 l/m 5,0 km/h (1 Bft) S-SW 202 0 min 0,000 mm 0,0 UV-I 0 W/m -4,6 C -3,3 C 6,4 km/h (2 Bft) 100,00 %
22.03.2018 02:51 -3,2 C 3,9 C 91 % 1024,6 hPa 0,0 l/m 5,1 km/h (1 Bft) S-SW 192 0 min 0,000 mm 0,0 UV-I 0 W/m -4,5 C -3,2 C 6,4 km/h (2 Bft) 100,00 %
22.03.2018 02:52 -3,2 C 3,9 C 91 % 1024,6 hPa 0,0 l/m 5,0 km/h (1 Bft) S-SW 192 0 min 0,000 mm 0,0 UV-I 0 W/m -4,5 C -3,2 C 6,4 km/h (2 Bft) 95,65 %
22.03.2018 02:53 -3,1 C 3,9 C 91 % 1024,6 hPa 0,0 l/m 4,4 km/h (1 Bft) S-SW 192 0 min 0,000 mm 0,0 UV-I 0 W/m -4,4 C -3,1 C 6,4 km/h (2 Bft) 100,00 %
22.03.2018 02:54 -3,1 C 3,9 C 91 % 1024,6 hPa 0,0 l/m 4,4 km/h (1 Bft) S-SW 192 0 min 0,000 mm 0,0 UV-I 0 W/m -4,4 C -3,1 C 4,8 km/h (1 Bft) 91,30 %
22.03.2018 02:55 -3,1 C 3,9 C 90 % 1024,6 hPa 0,0 l/m 4,6 km/h (1 Bft) S-SW 192 0 min 0,000 mm 0,0 UV-I 0 W/m -4,5 C -3,1 C 4,8 km/h (1 Bft) 100,00 %
22.03.2018 02:56 -3,1 C 3,9 C 90 % 1024,6 hPa 0,0 l/m 4,4 km/h (1 Bft) S-SW 192 0 min 0,000 mm 0,0 UV-I 0 W/m -4,5 C -3,1 C 6,4 km/h (2 Bft) 100,00 %
22.03.2018 02:57 -3,1 C 3,9 C 90 % 1024,5 hPa 0,0 l/m 4,0 km/h (1 Bft) S-SW 192 0 min 0,000 mm 0,0 UV-I 0 W/m -4,5 C -3,1 C 4,8 km/h (1 Bft) 100,00 %
22.03.2018 02:58 -3,1 C 3,9 C 90 % 1024,5 hPa 0,0 l/m 4,6 km/h (1 Bft) S-SW 192 0 min 0,000 mm 0,0 UV-I 0 W/m -4,5 C -3,1 C 6,4 km/h (2 Bft) 91,30 %
22.03.2018 02:59 -3,1 C 3,9 C 90 % 1024,5 hPa 0,0 l/m 3,8 km/h (1 Bft) S-SW 192 0 min 0,000 mm 0,0 UV-I 0 W/m -4,5 C -3,1 C 4,8 km/h (1 Bft) 100,00 %
22.03.2018 03:00 -3,2 C 3,9 C 90 % 1024,5 hPa 0,0 l/m 4,4 km/h (1 Bft) S 191 0 min 0,000 mm 0,0 UV-I 0 W/m -4,6 C -3,2 C 6,4 km/h (2 Bft) 100,00 %
22.03.2018 03:01 -3,2 C 3,9 C 90 % 1024,5 hPa 0,0 l/m 4,4 km/h (1 Bft) S 190 0 min 0,000 mm 0,0 UV-I 0 W/m -4,6 C -3,2 C 4,8 km/h (1 Bft) 100,00 %
22.03.2018 03:02 -3,2 C 3,9 C 90 % 1024,5 hPa 0,0 l/m 4,6 km/h (1 Bft) S-SW 192 0 min 0,000 mm 0,0 UV-I 0 W/m -4,6 C -3,2 C 6,4 km/h (2 Bft) 95,65 %
22.03.2018 03:03 -3,2 C 3,9 C 90 % 1024,4 hPa 0,0 l/m 4,9 km/h (1 Bft) S-SW 194 0 min 0,000 mm 0,0 UV-I 0 W/m -4,6 C -3,2 C 6,4 km/h (2 Bft) 100,00 %
22.03.2018 03:04 -3,2 C 3,9 C 90 % 1024,5 hPa 0,0 l/m 4,9 km/h (1 Bft) S-SW 195 0 min 0,000 mm 0,0 UV-I 0 W/m -4,6 C -3,2 C 6,4 km/h (2 Bft) 100,00 %
22.03.2018 03:05 -3,2 C 3,9 C 90 % 1024,5 hPa 0,0 l/m 5,2 km/h (1 Bft) S-SW 192 0 min 0,000 mm 0,0 UV-I 0 W/m -4,6 C -3,2 C 6,4 km/h (2 Bft) 100,00 %
22.03.2018 03:06 -3,1 C 3,9 C 90 % 1024,4 hPa 0,0 l/m 5,0 km/h (1 Bft) S-SW 196 0 min 0,000 mm 0,0 UV-I 0 W/m -4,5 C -3,1 C 6,4 km/h (2 Bft) 100,00 %
22.03.2018 03:07 -3,1 C 3,9 C 90 % 1024,4 hPa 0,0 l/m 5,6 km/h (1 Bft) S-SW 198 0 min 0,000 mm 0,0 UV-I 0 W/m -4,5 C -3,1 C 6,4 km/h (2 Bft) 100,00 %
22.03.2018 03:08 -3,1 C 3,9 C 90 % 1024,4 hPa 0,0 l/m 5,0 km/h (1 Bft) S-SW 202 0 min 0,000 mm 0,0 UV-I 0 W/m -4,5 C -3,1 C 6,4 km/h (2 Bft) 95,83 %
22.03.2018 03:09 -3,1 C 3,9 C 90 % 1024,4 hPa 0,0 l/m 4,5 km/h (1 Bft) S-SW 195 0 min 0,000 mm 0,0 UV-I 0 W/m -4,5 C -3,1 C 4,8 km/h (1 Bft) 95,65 %
22.03.2018 03:10 -3,1 C 3,9 C 90 % 1024,3 hPa 0,0 l/m 4,8 km/h (1 Bft) S-SW 196 0 min 0,000 mm 0,0 UV-I 0 W/m -4,5 C -3,1 C 6,4 km/h (2 Bft) 100,00 %
22.03.2018 03:11 -3,1 C 3,9 C 90 % 1024,3 hPa 0,0 l/m 5,8 km/h (2 Bft) SW 215 0 min 0,000 mm 0,0 UV-I 0 W/m -4,5 C -3,1 C 8,0 km/h (2 Bft) 100,00 %
22.03.2018 03:12 -3,1 C 3,9 C 90 % 1024,3 hPa 0,0 l/m 5,8 km/h (2 Bft) S-SW 196 0 min 0,000 mm 0,0 UV-I 0 W/m -4,5 C -3,1 C 8,0 km/h (2 Bft) 95,83 %
22.03.2018 03:14 -3,0 C 3,9 C 90 % 1024,3 hPa 0,0 l/m 5,9 km/h (2 Bft) S-SW 202 0 min 0,000 mm 0,0 UV-I 0 W/m -4,4 C -3,0 C 8,0 km/h (2 Bft) 97,87 %
22.03.2018 03:15 -3,0 C 3,9 C 90 % 1024,3 hPa 0,0 l/m 5,4 km/h (1 Bft) S-SW 200 0 min 0,000 mm 0,0 UV-I 0 W/m -4,4 C -3,0 C 6,4 km/h (2 Bft) 100,00 %
22.03.2018 03:16 -3,0 C 3,9 C 90 % 1024,3 hPa 0,0 l/m 5,2 km/h (1 Bft) S-SW 198 0 min 0,000 mm 0,0 UV-I 0 W/m -4,4 C -3,0 C 6,4 km/h (2 Bft) 100,00 %
22.03.2018 03:17 -2,9 C 3,9 C 89 % 1024,3 hPa 0,0 l/m 5,2 km/h (1 Bft) S-SW 205 0 min 0,000 mm 0,0 UV-I 0 W/m -4,5 C -2,9 C 6,4 km/h (2 Bft) 100,00 %
22.03.2018 03:19 -3,0 C 3,9 C 89 % 1024,3 hPa 0,0 l/m 4,9 km/h (1 Bft) S-SW 203 0 min 0,000 mm 0,0 UV-I 0 W/m -4,6 C -3,0 C 6,4 km/h (2 Bft) 100,00 %
22.03.2018 03:20 -3,0 C 3,9 C 89 % 1024,3 hPa 0,0 l/m 4,5 km/h (1 Bft) S-SW 204 0 min 0,000 mm 0,0 UV-I 0 W/m -4,6 C -3,0 C 6,4 km/h (2 Bft) 95,83 %
22.03.2018 03:21 -3,0 C 3,9 C 89 % 1024,3 hPa 0,0 l/m 4,6 km/h (1 Bft) S-SW 204 0 min 0,000 mm 0,0 UV-I 0 W/m -4,6 C -3,0 C 6,4 km/h (2 Bft) 95,65 %
22.03.2018 03:22 -3,0 C 3,9 C 89 % 1024,3 hPa 0,0 l/m 3,7 km/h (1 Bft) S-SW 204 0 min 0,000 mm 0,0 UV-I 0 W/m -4,6 C -3,0 C 4,8 km/h (1 Bft) 100,00 %
22.03.2018 03:24 -3,0 C 3,9 C 89 % 1024,2 hPa 0,0 l/m 4,3 km/h (1 Bft) S-SW 204 0 min 0,000 mm 0,0 UV-I 0 W/m -4,6 C -3,0 C 6,4 km/h (2 Bft) 100,00 %
22.03.2018 03:25 -3,0 C 3,9 C 89 % 1024,2 hPa 0,0 l/m 4,2 km/h (1 Bft) S-SW 204 0 min 0,000 mm 0,0 UV-I 0 W/m -4,6 C -3,0 C 4,8 km/h (1 Bft) 95,65 %
22.03.2018 03:26 -3,1 C 3,9 C 89 % 1024,2 hPa 0,0 l/m 4,3 km/h (1 Bft) S-SW 204 0 min 0,000 mm 0,0 UV-I 0 W/m -4,6 C -3,1 C 4,8 km/h (1 Bft) 100,00 %
22.03.2018 03:27 -3,0 C 3,9 C 89 % 1024,2 hPa 0,0 l/m 4,0 km/h (1 Bft) S-SW 204 0 min 0,000 mm 0,0 UV-I 0 W/m -4,6 C -3,0 C 4,8 km/h (1 Bft) 95,65 %
22.03.2018 03:28 -3,1 C 3,9 C 89 % 1024,2 hPa 0,0 l/m 5,2 km/h (1 Bft) S-SW 203 0 min 0,000 mm 0,0 UV-I 0 W/m -4,6 C -3,1 C 6,4 km/h (2 Bft) 100,00 %
22.03.2018 03:29 -3,1 C 3,9 C 89 % 1024,2 hPa 0,0 l/m 3,8 km/h (1 Bft) S-SW 203 0 min 0,000 mm 0,0 UV-I 0 W/m -4,6 C -3,1 C 6,4 km/h (2 Bft) 100,00 %
22.03.2018 03:30 -3,2 C 3,9 C 89 % 1024,2 hPa 0,0 l/m 3,4 km/h (1 Bft) S-SW 203 0 min 0,000 mm 0,0 UV-I 0 W/m -4,7 C -3,2 C 4,8 km/h (1 Bft) 95,83 %
22.03.2018 03:31 -3,2 C 3,9 C 89 % 1024,2 hPa 0,0 l/m 3,5 km/h (1 Bft) S-SW 203 0 min 0,000 mm 0,0 UV-I 0 W/m -4,7 C -3,2 C 4,8 km/h (1 Bft) 100,00 %
22.03.2018 03:32 -3,3 C 3,9 C 89 % 1024,2 hPa 0,0 l/m 3,9 km/h (1 Bft) S-SW 203 0 min 0,000 mm 0,0 UV-I 0 W/m -4,8 C -3,3 C 4,8 km/h (1 Bft) 100,00 %
22.03.2018 03:33 -3,3 C 3,9 C 89 % 1024,2 hPa 0,0 l/m 3,2 km/h (1 Bft) S-SW 203 0 min 0,000 mm 0,0 UV-I 0 W/m -4,8 C -3,3 C 4,8 km/h (1 Bft) 95,83 %
22.03.2018 03:34 -3,3 C 3,9 C 90 % 1024,2 hPa 0,0 l/m 3,6 km/h (1 Bft) S-SW 203 0 min 0,000 mm 0,0 UV-I 0 W/m -4,7 C -3,3 C 4,8 km/h (1 Bft) 100,00 %
22.03.2018 03:35 -3,3 C 3,9 C 90 % 1024,2 hPa 0,0 l/m 3,2 km/h (1 Bft) S-SW 203 0 min 0,000 mm 0,0 UV-I 0 W/m -4,7 C -3,3 C 4,8 km/h (1 Bft) 87,50 %
22.03.2018 03:36 -3,3 C 3,9 C 90 % 1024,2 hPa 0,0 l/m 3,6 km/h (1 Bft) S-SW 204 0 min 0,000 mm 0,0 UV-I 0 W/m -4,7 C -3,3 C 4,8 km/h (1 Bft) 95,65 %
22.03.2018 03:37 -3,3 C 3,9 C 90 % 1024,2 hPa 0,0 l/m 3,5 km/h (1 Bft) S-SW 204 0 min 0,000 mm 0,0 UV-I 0 W/m -4,7 C -3,3 C 4,8 km/h (1 Bft) 79,17 %
22.03.2018 03:38 -3,4 C 3,9 C 90 % 1024,2 hPa 0,0 l/m 3,7 km/h (1 Bft) S-SW 204 0 min 0,000 mm 0,0 UV-I 0 W/m -4,8 C -3,4 C 6,4 km/h (2 Bft) 95,65 %
22.03.2018 03:39 -3,4 C 3,9 C 90 % 1024,1 hPa 0,0 l/m 3,6 km/h (1 Bft) S-SW 203 0 min 0,000 mm 0,0 UV-I 0 W/m -4,8 C -3,4 C 4,8 km/h (1 Bft) 95,83 %
22.03.2018 03:40 -3,4 C 3,9 C 90 % 1024,1 hPa 0,0 l/m 3,9 km/h (1 Bft) S-SW 203 0 min 0,000 mm 0,0 UV-I 0 W/m -4,8 C -3,4 C 4,8 km/h (1 Bft) 91,30 %
22.03.2018 03:41 -3,4 C 3,9 C 90 % 1024,1 hPa 0,0 l/m 3,9 km/h (1 Bft) S-SW 203 0 min 0,000 mm 0,0 UV-I 0 W/m -4,8 C -3,4 C 4,8 km/h (1 Bft) 100,00 %
22.03.2018 03:42 -3,4 C 3,9 C 90 % 1024,1 hPa 0,0 l/m 3,6 km/h (1 Bft) S-SW 203 0 min 0,000 mm 0,0 UV-I 0 W/m -4,8 C -3,4 C 4,8 km/h (1 Bft) 91,30 %
22.03.2018 03:43 -3,4 C 3,9 C 90 % 1024,1 hPa 0,0 l/m 3,1 km/h (1 Bft) S-SW 203 0 min 0,000 mm 0,0 UV-I 0 W/m -4,8 C -3,4 C 4,8 km/h (1 Bft) 95,83 %
22.03.2018 03:44 -3,4 C 3,9 C 90 % 1024,1 hPa 0,0 l/m 2,7 km/h (1 Bft) S-SW 203 0 min 0,000 mm 0,0 UV-I 0 W/m -4,8 C -3,4 C 4,8 km/h (1 Bft) 87,50 %
22.03.2018 03:45 -3,4 C 3,9 C 90 % 1024,1 hPa 0,0 l/m 2,9 km/h (1 Bft) S-SW 203 0 min 0,000 mm 0,0 UV-I 0 W/m -4,8 C -3,4 C 3,2 km/h (1 Bft) 96,15 %
22.03.2018 03:46 -3,4 C 3,9 C 90 % 1024,1 hPa 0,0 l/m 2,6 km/h (1 Bft) S-SW 203 0 min 0,000 mm 0,0 UV-I 0 W/m -4,8 C -3,4 C 3,2 km/h (1 Bft) 96,15 %
22.03.2018 03:47 -3,5 C 3,9 C 90 % 1024,1 hPa 0,0 l/m 3,0 km/h (1 Bft) S-SW 203 0 min 0,000 mm 0,0 UV-I 0 W/m -4,9 C -3,5 C 4,8 km/h (1 Bft) 95,83 %
22.03.2018 03:48 -3,5 C 3,9 C 91 % 1024,1 hPa 0,0 l/m 3,3 km/h (1 Bft) S-SW 204 0 min 0,000 mm 0,0 UV-I 0 W/m -4,8 C -3,5 C 4,8 km/h (1 Bft) 91,30 %
22.03.2018 03:49 -3,5 C 3,9 C 90 % 1024,1 hPa 0,0 l/m 3,6 km/h (1 Bft) S-SW 204 0 min 0,000 mm 0,0 UV-I 0 W/m -4,9 C -3,5 C 4,8 km/h (1 Bft) 87,50 %
22.03.2018 03:50 -3,6 C 3,9 C 90 % 1024,1 hPa 0,0 l/m 3,0 km/h (1 Bft) S-SW 203 0 min 0,000 mm 0,0 UV-I 0 W/m -5,0 C -3,6 C 4,8 km/h (1 Bft) 100,00 %
22.03.2018 03:51 -3,6 C 3,9 C 91 % 1024,1 hPa 0,0 l/m 3,4 km/h (1 Bft) S-SW 203 0 min 0,000 mm 0,0 UV-I 0 W/m -4,8 C -3,6 C 4,8 km/h (1 Bft) 91,30 %
22.03.2018 03:52 -3,6 C 3,9 C 91 % 1024,0 hPa 0,0 l/m 3,2 km/h (1 Bft) S-SW 203 0 min 0,000 mm 0,0 UV-I 0 W/m -4,8 C -3,6 C 4,8 km/h (1 Bft) 95,83 %
22.03.2018 03:53 -3,5 C 3,9 C 91 % 1024,1 hPa 0,0 l/m 3,8 km/h (1 Bft) S-SW 203 0 min 0,000 mm 0,0 UV-I 0 W/m -4,8 C -3,5 C 4,8 km/h (1 Bft) 91,30 %
22.03.2018 03:54 -3,6 C 3,9 C 91 % 1024,1 hPa 0,0 l/m 3,6 km/h (1 Bft) S-SW 203 0 min 0,000 mm 0,0 UV-I 0 W/m -4,8 C -3,6 C 4,8 km/h (1 Bft) 100,00 %
22.03.2018 03:55 -3,6 C 3,9 C 91 % 1024,0 hPa 0,0 l/m 4,0 km/h (1 Bft) S-SW 203 0 min 0,000 mm 0,0 UV-I 0 W/m -4,8 C -3,6 C 4,8 km/h (1 Bft) 88,46 %
22.03.2018 03:56 -3,6 C 3,9 C 91 % 1024,0 hPa 0,0 l/m 3,7 km/h (1 Bft) S-SW 203 0 min 0,000 mm 0,0 UV-I 0 W/m -4,8 C -3,6 C 4,8 km/h (1 Bft) 95,83 %
22.03.2018 03:57 -3,6 C 3,9 C 91 % 1024,0 hPa 0,0 l/m 4,1 km/h (1 Bft) S-SW 203 0 min 0,000 mm 0,0 UV-I 0 W/m -4,8 C -3,6 C 4,8 km/h (1 Bft) 88,46 %
22.03.2018 03:58 -3,7 C 3,9 C 91 % 1024,0 hPa 0,0 l/m 3,5 km/h (1 Bft) S-SW 203 0 min 0,000 mm 0,0 UV-I 0 W/m -4,9 C -3,7 C 4,8 km/h (1 Bft) 95,83 %
22.03.2018 03:59 -3,6 C 3,9 C 91 % 1024,0 hPa 0,0 l/m 3,5 km/h (1 Bft) S-SW 203 0 min 0,000 mm 0,0 UV-I 0 W/m -4,8 C -3,6 C 4,8 km/h (1 Bft) 95,65 %
22.03.2018 04:00 -3,6 C 3,9 C 91 % 1023,9 hPa 0,0 l/m 4,0 km/h (1 Bft) S-SW 203 0 min 0,000 mm 0,0 UV-I 0 W/m -4,8 C -3,6 C 4,8 km/h (1 Bft) 88,89 %
22.03.2018 04:01 -3,7 C 3,9 C 91 % 1024,0 hPa 0,0 l/m 3,8 km/h (1 Bft) S-SW 203 0 min 0,000 mm 0,0 UV-I 0 W/m -4,9 C -3,7 C 4,8 km/h (1 Bft) 75,00 %
22.03.2018 04:02 -3,7 C 3,9 C 91 % 1024,0 hPa 0,0 l/m 5,0 km/h (1 Bft) S-SW 203 0 min 0,000 mm 0,0 UV-I 0 W/m -4,9 C -3,7 C 6,4 km/h (2 Bft) 95,83 %
22.03.2018 04:03 -3,8 C 3,9 C 90 % 1024,0 hPa 0,0 l/m 5,4 km/h (1 Bft) S-SW 202 0 min 0,000 mm 0,0 UV-I 0 W/m -5,2 C -3,8 C 6,4 km/h (2 Bft) 96,15 %
22.03.2018 04:04 -3,8 C 3,9 C 91 % 1023,9 hPa 0,0 l/m 5,4 km/h (1 Bft) S-SW 202 0 min 0,000 mm 0,0 UV-I 0 W/m -5,0 C -3,8 C 6,4 km/h (2 Bft) 83,33 %
22.03.2018 04:05 -3,8 C 3,9 C 91 % 1023,9 hPa 0,0 l/m 4,6 km/h (1 Bft) S-SW 198 0 min 0,000 mm 0,0 UV-I 0 W/m -5,0 C -3,8 C 6,4 km/h (2 Bft) 95,83 %
22.03.2018 04:06 -3,8 C 3,9 C 91 % 1023,9 hPa 0,0 l/m 3,3 km/h (1 Bft) S-SW 198 0 min 0,000 mm 0,0 UV-I 0 W/m -5,0 C -3,8 C 4,8 km/h (1 Bft) 95,65 %
22.03.2018 04:07 -3,8 C 3,9 C 91 % 1023,9 hPa 0,0 l/m 3,2 km/h (1 Bft) S-SW 198 0 min 0,000 mm 0,0 UV-I 0 W/m -5,0 C -3,8 C 4,8 km/h (1 Bft) 95,83 %
22.03.2018 04:08 -3,8 C 3,9 C 91 % 1023,9 hPa 0,0 l/m 2,2 km/h (1 Bft) S-SW 198 0 min 0,000 mm 0,0 UV-I 0 W/m -5,0 C -3,8 C 4,8 km/h (1 Bft) 91,30 %
22.03.2018 04:09 -3,9 C 3,9 C 91 % 1023,8 hPa 0,0 l/m 3,3 km/h (1 Bft) S-SW 198 0 min 0,000 mm 0,0 UV-I 0 W/m -5,1 C -3,9 C 4,8 km/h (1 Bft) 95,83 %
22.03.2018 04:10 -3,9 C 3,9 C 91 % 1023,8 hPa 0,0 l/m 4,2 km/h (1 Bft) S-SW 198 0 min 0,000 mm 0,0 UV-I 0 W/m -5,1 C -3,9 C 4,8 km/h (1 Bft) 96,15 %
22.03.2018 04:11 -3,9 C 3,9 C 91 % 1023,9 hPa 0,0 l/m 3,3 km/h (1 Bft) S-SW 198 0 min 0,000 mm 0,0 UV-I 0 W/m -5,1 C -3,9 C 4,8 km/h (1 Bft) 95,83 %
22.03.2018 04:12 -3,9 C 3,9 C 91 % 1023,9 hPa 0,0 l/m 3,5 km/h (1 Bft) S-SW 198 0 min 0,000 mm 0,0 UV-I 0 W/m -5,1 C -3,9 C 4,8 km/h (1 Bft) 86,96 %
22.03.2018 04:13 -3,9 C 3,9 C 91 % 1023,8 hPa 0,0 l/m 3,5 km/h (1 Bft) S-SW 198 0 min 0,000 mm 0,0 UV-I 0 W/m -5,1 C -3,9 C 4,8 km/h (1 Bft) 95,83 %
22.03.2018 04:14 -3,9 C 3,9 C 91 % 1023,8 hPa 0,0 l/m 3,8 km/h (1 Bft) S-SW 198 0 min 0,000 mm 0,0 UV-I 0 W/m -5,1 C -3,9 C 4,8 km/h (1 Bft) 91,30 %
22.03.2018 04:15 -3,9 C 3,9 C 91 % 1023,8 hPa 0,0 l/m 4,0 km/h (1 Bft) S-SW 198 0 min 0,000 mm 0,0 UV-I 0 W/m -5,1 C -3,9 C 4,8 km/h (1 Bft) 95,83 %
22.03.2018 04:16 -3,8 C 3,9 C 91 % 1023,8 hPa 0,0 l/m 3,8 km/h (1 Bft) S-SW 198 0 min 0,000 mm 0,0 UV-I 0 W/m -5,0 C -3,8 C 4,8 km/h (1 Bft) 91,30 %
22.03.2018 04:17 -3,9 C 3,9 C 91 % 1023,8 hPa 0,0 l/m 3,7 km/h (1 Bft) S-SW 198 0 min 0,000 mm 0,0 UV-I 0 W/m -5,1 C -3,9 C 4,8 km/h (1 Bft) 95,83 %
22.03.2018 04:18 -3,9 C 3,9 C 91 % 1023,8 hPa 0,0 l/m 3,7 km/h (1 Bft) S-SW 198 0 min 0,000 mm 0,0 UV-I 0 W/m -5,1 C -3,9 C 4,8 km/h (1 Bft) 95,65 %
22.03.2018 04:19 -3,9 C 3,9 C 91 % 1023,8 hPa 0,0 l/m 4,0 km/h (1 Bft) S-SW 198 0 min 0,000 mm 0,0 UV-I 0 W/m -5,1 C -3,9 C 4,8 km/h (1 Bft) 95,83 %
22.03.2018 04:20 -3,8 C 3,9 C 91 % 1023,8 hPa 0,0 l/m 3,7 km/h (1 Bft) S-SW 198 0 min 0,000 mm 0,0 UV-I 0 W/m -5,0 C -3,8 C 4,8 km/h (1 Bft) 95,65 %
22.03.2018 04:21 -3,8 C 3,9 C 91 % 1023,7 hPa 0,0 l/m 4,3 km/h (1 Bft) S-SW 198 0 min 0,000 mm 0,0 UV-I 0 W/m -5,0 C -3,8 C 4,8 km/h (1 Bft) 95,83 %
22.03.2018 04:22 -3,8 C 3,9 C 91 % 1023,7 hPa 0,0 l/m 3,8 km/h (1 Bft) S-SW 198 0 min 0,000 mm 0,0 UV-I 0 W/m -5,0 C -3,8 C 4,8 km/h (1 Bft) 100,00 %
22.03.2018 04:23 -3,9 C 3,9 C 91 % 1023,7 hPa 0,0 l/m 3,2 km/h (1 Bft) S-SW 198 0 min 0,000 mm 0,0 UV-I 0 W/m -5,1 C -3,9 C 4,8 km/h (1 Bft) 95,83 %
22.03.2018 04:24 -3,9 C 3,9 C 91 % 1023,7 hPa 0,0 l/m 3,3 km/h (1 Bft) S-SW 198 0 min 0,000 mm 0,0 UV-I 0 W/m -5,1 C -3,9 C 4,8 km/h (1 Bft) 95,65 %
22.03.2018 04:25 -3,9 C 3,9 C 90 % 1023,7 hPa 0,0 l/m 3,4 km/h (1 Bft) S-SW 198 0 min 0,000 mm 0,0 UV-I 0 W/m -5,3 C -3,9 C 4,8 km/h (1 Bft) 95,83 %
22.03.2018 04:26 -3,9 C 3,9 C 90 % 1023,7 hPa 0,0 l/m 3,3 km/h (1 Bft) S-SW 198 0 min 0,000 mm 0,0 UV-I 0 W/m -5,3 C -3,9 C 4,8 km/h (1 Bft) 91,67 %
22.03.2018 04:27 -3,9 C 3,9 C 91 % 1023,7 hPa 0,0 l/m 3,8 km/h (1 Bft) S-SW 198 0 min 0,000 mm 0,0 UV-I 0 W/m -5,1 C -3,9 C 4,8 km/h (1 Bft) 88,46 %
22.03.2018 04:28 -3,9 C 3,9 C 91 % 1023,7 hPa 0,0 l/m 4,7 km/h (1 Bft) S-SW 192 0 min 0,000 mm 0,0 UV-I 0 W/m -5,1 C -3,9 C 6,4 km/h (2 Bft) 91,30 %
22.03.2018 04:29 -3,9 C 3,9 C 90 % 1023,7 hPa 0,0 l/m 4,1 km/h (1 Bft) S 191 0 min 0,000 mm 0,0 UV-I 0 W/m -5,3 C -3,9 C 6,4 km/h (2 Bft) 100,00 %
22.03.2018 04:30 -4,0 C 3,9 C 90 % 1023,7 hPa 0,0 l/m 3,2 km/h (1 Bft) S 191 0 min 0,000 mm 0,0 UV-I 0 W/m -5,4 C -4,0 C 4,8 km/h (1 Bft) 95,83 %
22.03.2018 04:31 -4,0 C 3,9 C 90 % 1023,7 hPa 0,0 l/m 4,6 km/h (1 Bft) S 191 0 min 0,000 mm 0,0 UV-I 0 W/m -5,4 C -4,0 C 6,4 km/h (2 Bft) 95,65 %
22.03.2018 04:32 -4,0 C 3,9 C 91 % 1023,7 hPa 0,0 l/m 5,2 km/h (1 Bft) S 191 0 min 0,000 mm 0,0 UV-I 0 W/m -5,2 C -4,0 C 6,4 km/h (2 Bft) 91,67 %
22.03.2018 04:33 -4,0 C 3,9 C 91 % 1023,7 hPa 0,0 l/m 4,8 km/h (1 Bft) S 191 0 min 0,000 mm 0,0 UV-I 0 W/m -5,2 C -4,0 C 6,4 km/h (2 Bft) 95,65 %
22.03.2018 04:34 -4,0 C 3,9 C 90 % 1023,7 hPa 0,0 l/m 4,6 km/h (1 Bft) S-SW 192 0 min 0,000 mm 0,0 UV-I 0 W/m -5,4 C -4,0 C 4,8 km/h (1 Bft) 100,00 %
22.03.2018 04:35 -3,9 C 3,9 C 90 % 1023,7 hPa 0,0 l/m 4,1 km/h (1 Bft) S-SW 192 0 min 0,000 mm 0,0 UV-I 0 W/m -5,3 C -3,9 C 6,4 km/h (2 Bft) 91,30 %
22.03.2018 04:36 -3,9 C 3,9 C 91 % 1023,7 hPa 0,0 l/m 4,4 km/h (1 Bft) S-SW 192 0 min 0,000 mm 0,0 UV-I 0 W/m -5,1 C -3,9 C 4,8 km/h (1 Bft) 100,00 %
22.03.2018 04:37 -3,9 C 3,9 C 90 % 1023,7 hPa 0,0 l/m 4,3 km/h (1 Bft) S-SW 192 0 min 0,000 mm 0,0 UV-I 0 W/m -5,3 C -3,9 C 4,8 km/h (1 Bft) 95,65 %
22.03.2018 04:38 -3,9 C 3,9 C 90 % 1023,6 hPa 0,0 l/m 3,7 km/h (1 Bft) S-SW 192 0 min 0,000 mm 0,0 UV-I 0 W/m -5,3 C -3,9 C 4,8 km/h (1 Bft) 100,00 %
22.03.2018 04:39 -3,9 C 3,9 C 90 % 1023,7 hPa 0,0 l/m 3,8 km/h (1 Bft) S-SW 192 0 min 0,000 mm 0,0 UV-I 0 W/m -5,3 C -3,9 C 4,8 km/h (1 Bft) 92,31 %
22.03.2018 04:40 -3,9 C 3,9 C 90 % 1023,7 hPa 0,0 l/m 4,1 km/h (1 Bft) S-SW 192 0 min 0,000 mm 0,0 UV-I 0 W/m -5,3 C -3,9 C 4,8 km/h (1 Bft) 100,00 %
22.03.2018 04:41 -3,9 C 3,9 C 90 % 1023,6 hPa 0,0 l/m 4,3 km/h (1 Bft) S-SW 192 0 min 0,000 mm 0,0 UV-I 0 W/m -5,3 C -3,9 C 4,8 km/h (1 Bft) 100,00 %
22.03.2018 04:42 -4,0 C 3,9 C 90 % 1023,6 hPa 0,0 l/m 3,8 km/h (1 Bft) S-SW 192 0 min 0,000 mm 0,0 UV-I 0 W/m -5,4 C -4,0 C 6,4 km/h (2 Bft) 91,67 %
22.03.2018 04:43 -4,0 C 3,9 C 90 % 1023,6 hPa 0,0 l/m 4,5 km/h (1 Bft) S-SW 192 0 min 0,000 mm 0,0 UV-I 0 W/m -5,4 C -4,0 C 6,4 km/h (2 Bft) 100,00 %
22.03.2018 04:44 -4,0 C 3,9 C 90 % 1023,6 hPa 0,0 l/m 5,0 km/h (1 Bft) S-SW 192 0 min 0,000 mm 0,0 UV-I 0 W/m -5,4 C -4,0 C 6,4 km/h (2 Bft) 100,00 %
22.03.2018 04:45 -3,9 C 3,9 C 90 % 1023,6 hPa 0,0 l/m 4,3 km/h (1 Bft) S-SW 192 0 min 0,000 mm 0,0 UV-I 0 W/m -5,3 C -3,9 C 4,8 km/h (1 Bft) 100,00 %
22.03.2018 04:46 -3,9 C 3,9 C 90 % 1023,6 hPa 0,0 l/m 4,8 km/h (1 Bft) S-SW 192 0 min 0,000 mm 0,0 UV-I 0 W/m -5,3 C -3,9 C 6,4 km/h (2 Bft) 100,00 %
22.03.2018 04:47 -4,0 C 3,9 C 90 % 1023,6 hPa 0,0 l/m 5,1 km/h (1 Bft) S-SW 192 0 min 0,000 mm 0,0 UV-I 0 W/m -5,4 C -4,0 C 6,4 km/h (2 Bft) 100,00 %
22.03.2018 04:48 -4,0 C 3,9 C 90 % 1023,6 hPa 0,0 l/m 5,2 km/h (1 Bft) S-SW 192 0 min 0,000 mm 0,0 UV-I 0 W/m -5,4 C -4,0 C 6,4 km/h (2 Bft) 100,00 %
22.03.2018 04:49 -3,9 C 3,9 C 90 % 1023,5 hPa 0,0 l/m 4,5 km/h (1 Bft) S-SW 192 0 min 0,000 mm 0,0 UV-I 0 W/m -5,3 C -3,9 C 6,4 km/h (2 Bft) 100,00 %
22.03.2018 04:50 -4,0 C 3,9 C 90 % 1023,6 hPa 0,0 l/m 4,6 km/h (1 Bft) S-SW 192 0 min 0,000 mm 0,0 UV-I 0 W/m -5,4 C -4,0 C 6,4 km/h (2 Bft) 95,65 %
22.03.2018 04:51 -4,1 C 3,9 C 89 % 1023,5 hPa 0,0 l/m 4,8 km/h (1 Bft) S-SW 192 0 min 0,000 mm 0,0 UV-I 0 W/m -5,6 C -4,1 C 6,4 km/h (2 Bft) 100,00 %
22.03.2018 04:52 -4,1 C 3,9 C 89 % 1023,5 hPa 0,0 l/m 4,7 km/h (1 Bft) S-SW 192 0 min 0,000 mm 0,0 UV-I 0 W/m -5,6 C -4,1 C 6,4 km/h (2 Bft) 92,31 %
22.03.2018 04:53 -4,1 C 3,9 C 90 % 1023,5 hPa 0,0 l/m 4,8 km/h (1 Bft) S-SW 192 0 min 0,000 mm 0,0 UV-I 0 W/m -5,5 C -4,1 C 6,4 km/h (2 Bft) 100,00 %
22.03.2018 04:54 -4,2 C 3,9 C 90 % 1023,5 hPa 0,0 l/m 5,4 km/h (1 Bft) S-SW 192 0 min 0,000 mm 0,0 UV-I 0 W/m -5,6 C -4,2 C 6,4 km/h (2 Bft) 95,65 %
22.03.2018 04:55 -4,2 C 3,9 C 89 % 1023,4 hPa 0,0 l/m 5,5 km/h (1 Bft) S 190 0 min 0,000 mm 0,0 UV-I 0 W/m -5,7 C -4,2 C 6,4 km/h (2 Bft) 100,00 %
22.03.2018 04:56 -4,3 C 3,9 C 89 % 1023,4 hPa 0,0 l/m 4,8 km/h (1 Bft) S 190 0 min 0,000 mm 0,0 UV-I 0 W/m -5,8 C -4,3 C 6,4 km/h (2 Bft) 100,00 %
22.03.2018 04:57 -4,3 C 3,9 C 90 % 1023,4 hPa 0,0 l/m 4,8 km/h (1 Bft) S 190 0 min 0,000 mm 0,0 UV-I 0 W/m -5,7 C -4,3 C 6,4 km/h (2 Bft) 100,00 %
22.03.2018 04:58 -4,3 C 3,9 C 90 % 1023,4 hPa 0,0 l/m 3,9 km/h (1 Bft) S 190 0 min 0,000 mm 0,0 UV-I 0 W/m -5,7 C -4,3 C 6,4 km/h (2 Bft) 100,00 %
22.03.2018 04:59 -4,2 C 3,9 C 90 % 1023,4 hPa 0,0 l/m 3,8 km/h (1 Bft) S 190 0 min 0,000 mm 0,0 UV-I 0 W/m -5,6 C -4,2 C 4,8 km/h (1 Bft) 100,00 %
22.03.2018 05:00 -4,2 C 3,9 C 90 % 1023,3 hPa 0,0 l/m 4,6 km/h (1 Bft) S 190 0 min 0,000 mm 0,0 UV-I 0 W/m -5,6 C -4,2 C 6,4 km/h (2 Bft) 96,15 %
22.03.2018 05:01 -4,2 C 3,9 C 90 % 1023,4 hPa 0,0 l/m 4,4 km/h (1 Bft) S 190 0 min 0,000 mm 0,0 UV-I 0 W/m -5,6 C -4,2 C 6,4 km/h (2 Bft) 100,00 %
22.03.2018 05:02 -4,3 C 3,9 C 90 % 1023,4 hPa 0,0 l/m 4,3 km/h (1 Bft) S 190 0 min 0,000 mm 0,0 UV-I 0 W/m -5,7 C -4,3 C 4,8 km/h (1 Bft) 100,00 %
22.03.2018 05:03 -4,3 C 3,9 C 90 % 1023,3 hPa 0,0 l/m 4,0 km/h (1 Bft) S 190 0 min 0,000 mm 0,0 UV-I 0 W/m -5,7 C -4,3 C 4,8 km/h (1 Bft) 100,00 %
22.03.2018 05:04 -4,3 C 3,9 C 90 % 1023,4 hPa 0,0 l/m 3,8 km/h (1 Bft) S 190 0 min 0,000 mm 0,0 UV-I 0 W/m -5,7 C -4,3 C 4,8 km/h (1 Bft) 100,00 %
22.03.2018 05:05 -4,3 C 3,9 C 90 % 1023,4 hPa 0,0 l/m 3,7 km/h (1 Bft) S 190 0 min 0,000 mm 0,0 UV-I 0 W/m -5,7 C -4,3 C 4,8 km/h (1 Bft) 100,00 %
22.03.2018 05:06 -4,3 C 3,9 C 90 % 1023,3 hPa 0,0 l/m 3,4 km/h (1 Bft) S 190 0 min 0,000 mm 0,0 UV-I 0 W/m -5,7 C -4,3 C 4,8 km/h (1 Bft) 100,00 %
22.03.2018 05:07 -4,3 C 3,9 C 90 % 1023,4 hPa 0,0 l/m 3,3 km/h (1 Bft) S 190 0 min 0,000 mm 0,0 UV-I 0 W/m -5,7 C -4,3 C 4,8 km/h (1 Bft) 100,00 %
22.03.2018 05:08 -4,3 C 3,9 C 90 % 1023,3 hPa 0,0 l/m 3,8 km/h (1 Bft) S 190 0 min 0,000 mm 0,0 UV-I 0 W/m -5,7 C -4,3 C 4,8 km/h (1 Bft) 95,65 %
22.03.2018 05:09 -4,3 C 3,9 C 90 % 1023,3 hPa 0,0 l/m 3,3 km/h (1 Bft) S 190 0 min 0,000 mm 0,0 UV-I 0 W/m -5,7 C -4,3 C 4,8 km/h (1 Bft) 100,00 %
22.03.2018 05:10 -4,3 C 3,9 C 90 % 1023,3 hPa 0,0 l/m 3,2 km/h (1 Bft) S 190 0 min 0,000 mm 0,0 UV-I 0 W/m -5,7 C -4,3 C 4,8 km/h (1 Bft) 100,00 %
22.03.2018 05:11 -4,3 C 3,9 C 90 % 1023,3 hPa 0,0 l/m 3,1 km/h (1 Bft) S 190 0 min 0,000 mm 0,0 UV-I 0 W/m -5,7 C -4,3 C 4,8 km/h (1 Bft) 100,00 %
22.03.2018 05:12 -4,3 C 3,9 C 90 % 1023,3 hPa 0,0 l/m 3,8 km/h (1 Bft) S 190 0 min 0,000 mm 0,0 UV-I 0 W/m -5,7 C -4,3 C 4,8 km/h (1 Bft) 100,00 %
22.03.2018 05:13 -4,3 C 3,9 C 90 % 1023,3 hPa 0,0 l/m 4,5 km/h (1 Bft) S 190 0 min 0,000 mm 0,0 UV-I 0 W/m -5,7 C -4,3 C 6,4 km/h (2 Bft) 92,31 %
22.03.2018 05:14 -4,3 C 3,9 C 90 % 1023,3 hPa 0,0 l/m 4,5 km/h (1 Bft) S 190 0 min 0,000 mm 0,0 UV-I 0 W/m -5,7 C -4,3 C 4,8 km/h (1 Bft) 100,00 %
22.03.2018 05:15 -4,3 C 3,9 C 90 % 1023,3 hPa 0,0 l/m 4,9 km/h (1 Bft) S 190 0 min 0,000 mm 0,0 UV-I 0 W/m -5,7 C -4,3 C 6,4 km/h (2 Bft) 92,31 %
22.03.2018 05:16 -4,2 C 3,9 C 90 % 1023,3 hPa 0,0 l/m 4,7 km/h (1 Bft) S 190 0 min 0,000 mm 0,0 UV-I 0 W/m -5,6 C -4,2 C 6,4 km/h (2 Bft) 100,00 %
22.03.2018 05:17 -4,2 C 3,9 C 90 % 1023,3 hPa 0,0 l/m 5,4 km/h (1 Bft) S 190 0 min 0,000 mm 0,0 UV-I 0 W/m -5,6 C -4,2 C 6,4 km/h (2 Bft) 100,00 %
22.03.2018 05:18 -4,2 C 3,9 C 90 % 1023,3 hPa 0,0 l/m 4,9 km/h (1 Bft) S 190 0 min 0,000 mm 0,0 UV-I 0 W/m -5,6 C -4,2 C 6,4 km/h (2 Bft) 95,83 %
22.03.2018 05:19 -4,3 C 3,9 C 89 % 1023,3 hPa 0,0 l/m 4,8 km/h (1 Bft) S 190 0 min 0,000 mm 0,0 UV-I 0 W/m -5,8 C -4,3 C 6,4 km/h (2 Bft) 95,65 %
22.03.2018 05:20 -4,3 C 3,9 C 89 % 1023,3 hPa 0,0 l/m 4,5 km/h (1 Bft) S 190 0 min 0,000 mm 0,0 UV-I 0 W/m -5,8 C -4,3 C 6,4 km/h (2 Bft) 95,83 %
22.03.2018 05:21 -4,3 C 3,9 C 89 % 1023,3 hPa 0,0 l/m 4,7 km/h (1 Bft) S 191 0 min 0,000 mm 0,0 UV-I 0 W/m -5,8 C -4,3 C 6,4 km/h (2 Bft) 100,00 %
22.03.2018 05:22 -4,3 C 3,9 C 90 % 1023,3 hPa 0,0 l/m 5,0 km/h (1 Bft) S 191 0 min 0,000 mm 0,0 UV-I 0 W/m -5,7 C -4,3 C 6,4 km/h (2 Bft) 100,00 %
22.03.2018 05:23 -4,3 C 3,9 C 90 % 1023,3 hPa 0,0 l/m 5,4 km/h (1 Bft) S-SW 192 0 min 0,000 mm 0,0 UV-I 0 W/m -5,7 C -4,3 C 6,4 km/h (2 Bft) 100,00 %
22.03.2018 05:24 -4,3 C 3,9 C 89 % 1023,3 hPa 0,0 l/m 5,5 km/h (1 Bft) S-SW 192 0 min 0,000 mm 0,0 UV-I 0 W/m -5,8 C -4,3 C 6,4 km/h (2 Bft) 100,00 %
22.03.2018 05:25 -4,3 C 3,9 C 90 % 1023,2 hPa 0,0 l/m 6,0 km/h (2 Bft) S-SW 208 0 min 0,000 mm 0,0 UV-I 0 W/m -5,7 C -4,3 C 6,4 km/h (2 Bft) 100,00 %
22.03.2018 05:26 -4,2 C 3,9 C 90 % 1023,2 hPa 0,0 l/m 5,2 km/h (1 Bft) S-SW 208 0 min 0,000 mm 0,0 UV-I 0 W/m -5,6 C -4,2 C 6,4 km/h (2 Bft) 100,00 %
22.03.2018 05:27 -4,2 C 3,9 C 90 % 1023,2 hPa 0,0 l/m 6,0 km/h (2 Bft) S-SW 205 0 min 0,000 mm 0,0 UV-I 0 W/m -5,6 C -4,2 C 6,4 km/h (2 Bft) 100,00 %
22.03.2018 05:28 -4,2 C 3,9 C 90 % 1023,2 hPa 0,0 l/m 5,6 km/h (1 Bft) S-SW 199 0 min 0,000 mm 0,0 UV-I 0 W/m -5,6 C -4,2 C 8,0 km/h (2 Bft) 95,83 %
22.03.2018 05:29 -4,1 C 3,9 C 89 % 1023,2 hPa 0,0 l/m 5,2 km/h (1 Bft) S-SW 196 0 min 0,000 mm 0,0 UV-I 0 W/m -5,6 C -4,1 C 6,4 km/h (2 Bft) 100,00 %
22.03.2018 05:30 -4,2 C 3,9 C 89 % 1023,2 hPa 0,0 l/m 4,8 km/h (1 Bft) S-SW 196 0 min 0,000 mm 0,0 UV-I 0 W/m -5,7 C -4,2 C 4,8 km/h (1 Bft) 100,00 %
22.03.2018 05:31 -4,2 C 3,9 C 89 % 1023,2 hPa 0,0 l/m 5,0 km/h (1 Bft) S-SW 200 0 min 0,000 mm 0,0 UV-I 0 W/m -5,7 C -4,2 C 6,4 km/h (2 Bft) 100,00 %
22.03.2018 05:32 -4,1 C 3,9 C 89 % 1023,1 hPa 0,0 l/m 5,0 km/h (1 Bft) S-SW 200 0 min 0,000 mm 0,0 UV-I 0 W/m -5,6 C -4,1 C 6,4 km/h (2 Bft) 100,00 %
22.03.2018 05:33 -4,1 C 3,9 C 89 % 1023,2 hPa 0,0 l/m 5,2 km/h (1 Bft) S-SW 200 0 min 0,000 mm 0,0 UV-I 0 W/m -5,6 C -4,1 C 6,4 km/h (2 Bft) 100,00 %
22.03.2018 05:34 -4,1 C 3,9 C 89 % 1023,2 hPa 0,0 l/m 5,4 km/h (1 Bft) S-SW 192 0 min 0,000 mm 0,0 UV-I 0 W/m -5,6 C -4,1 C 6,4 km/h (2 Bft) 100,00 %
22.03.2018 05:35 -4,1 C 3,9 C 89 % 1023,1 hPa 0,0 l/m 5,6 km/h (1 Bft) S 190 0 min 0,000 mm 0,0 UV-I 0 W/m -5,6 C -4,1 C 6,4 km/h (2 Bft) 100,00 %
22.03.2018 05:36 -4,1 C 3,9 C 89 % 1023,1 hPa 0,0 l/m 5,4 km/h (1 Bft) S-SW 207 0 min 0,000 mm 0,0 UV-I 0 W/m -5,6 C -4,1 C 6,4 km/h (2 Bft) 95,65 %
22.03.2018 05:37 -4,1 C 3,9 C 89 % 1023,1 hPa 0,0 l/m 4,4 km/h (1 Bft) S-SW 207 0 min 0,000 mm 0,0 UV-I 0 W/m -5,6 C -4,1 C 4,8 km/h (1 Bft) 100,00 %
22.03.2018 05:38 -4,1 C 3,9 C 89 % 1023,1 hPa 0,0 l/m 4,0 km/h (1 Bft) S-SW 199 0 min 0,000 mm 0,0 UV-I 0 W/m -5,6 C -4,1 C 4,8 km/h (1 Bft) 100,00 %
22.03.2018 05:39 -4,1 C 3,9 C 89 % 1023,1 hPa 0,0 l/m 4,7 km/h (1 Bft) S-SW 198 0 min 0,000 mm 0,0 UV-I 0 W/m -5,6 C -4,1 C 6,4 km/h (2 Bft) 100,00 %
22.03.2018 05:40 -4,1 C 3,9 C 89 % 1023,1 hPa 0,0 l/m 4,6 km/h (1 Bft) S-SW 198 0 min 0,000 mm 0,0 UV-I 0 W/m -5,6 C -4,1 C 6,4 km/h (2 Bft) 100,00 %
22.03.2018 05:41 -4,1 C 3,9 C 89 % 1023,1 hPa 0,0 l/m 4,5 km/h (1 Bft) S-SW 198 0 min 0,000 mm 0,0 UV-I 0 W/m -5,6 C -4,1 C 6,4 km/h (2 Bft) 100,00 %
22.03.2018 05:42 -4,1 C 3,9 C 88 % 1023,1 hPa 0,0 l/m 5,3 km/h (1 Bft) S-SW 200 0 min 0,000 mm 0,0 UV-I 0 W/m -5,8 C -4,1 C 6,4 km/h (2 Bft) 95,65 %
22.03.2018 05:43 -4,1 C 3,9 C 88 % 1023,0 hPa 0,0 l/m 5,4 km/h (1 Bft) S-SW 192 0 min 0,000 mm 0,0 UV-I 0 W/m -5,8 C -4,1 C 6,4 km/h (2 Bft) 95,83 %
22.03.2018 05:44 -4,1 C 3,9 C 88 % 1023,0 hPa 0,0 l/m 5,8 km/h (2 Bft) S 189 0 min 0,000 mm 0,0 UV-I 0 W/m -5,8 C -4,1 C 8,0 km/h (2 Bft) 100,00 %
22.03.2018 05:45 -4,1 C 3,9 C 88 % 1023,0 hPa 0,0 l/m 5,6 km/h (1 Bft) S-SW 203 0 min 0,000 mm 0,0 UV-I 0 W/m -5,8 C -4,1 C 6,4 km/h (2 Bft) 100,00 %
22.03.2018 05:46 -4,0 C 3,9 C 88 % 1023,0 hPa 0,0 l/m 5,3 km/h (1 Bft) S-SW 193 0 min 0,000 mm 0,0 UV-I 0 W/m -5,7 C -4,0 C 8,0 km/h (2 Bft) 100,00 %
22.03.2018 05:47 -4,0 C 3,9 C 88 % 1023,0 hPa 0,0 l/m 5,5 km/h (1 Bft) S 191 0 min 0,000 mm 0,0 UV-I 0 W/m -5,7 C -4,0 C 6,4 km/h (2 Bft) 100,00 %
22.03.2018 05:48 -4,0 C 3,9 C 88 % 1023,1 hPa 0,0 l/m 5,4 km/h (1 Bft) S-SW 192 0 min 0,000 mm 0,0 UV-I 0 W/m -5,7 C -4,0 C 8,0 km/h (2 Bft) 100,00 %
22.03.2018 05:49 -4,0 C 3,9 C 88 % 1023,1 hPa 0,0 l/m 5,7 km/h (1 Bft) S-SW 194 0 min 0,000 mm 0,0 UV-I 5 W/m -5,7 C -4,0 C 6,4 km/h (2 Bft) 100,00 %
22.03.2018 05:50 -4,0 C 3,9 C 88 % 1023,0 hPa 0,0 l/m 5,2 km/h (1 Bft) SW 214 0 min 0,000 mm 0,0 UV-I 5 W/m -5,7 C -4,0 C 6,4 km/h (2 Bft) 100,00 %
22.03.2018 05:51 -3,9 C 3,9 C 88 % 1023,0 hPa 0,0 l/m 4,1 km/h (1 Bft) S-SW 213 0 min 0,000 mm 0,0 UV-I 5 W/m -5,6 C -3,9 C 6,4 km/h (2 Bft) 95,65 %
22.03.2018 05:52 -4,0 C 3,9 C 88 % 1023,0 hPa 0,0 l/m 4,4 km/h (1 Bft) S-SW 213 0 min 0,000 mm 0,0 UV-I 5 W/m -5,7 C -4,0 C 6,4 km/h (2 Bft) 100,00 %
22.03.2018 05:53 -4,0 C 3,9 C 88 % 1023,0 hPa 0,0 l/m 5,4 km/h (1 Bft) S-SW 213 0 min 0,000 mm 0,0 UV-I 5 W/m -5,7 C -4,0 C 6,4 km/h (2 Bft) 95,65 %
22.03.2018 05:54 -4,0 C 3,9 C 87 % 1023,0 hPa 0,0 l/m 5,2 km/h (1 Bft) S-SW 213 0 min 0,000 mm 0,0 UV-I 5 W/m -5,8 C -4,0 C 6,4 km/h (2 Bft) 91,67 %
22.03.2018 05:55 -4,1 C 3,9 C 87 % 1023,0 hPa 0,0 l/m 4,6 km/h (1 Bft) S-SW 213 0 min 0,000 mm 0,0 UV-I 5 W/m -5,9 C -4,1 C 4,8 km/h (1 Bft) 100,00 %
22.03.2018 05:56 -4,1 C 3,9 C 87 % 1023,0 hPa 0,0 l/m 4,3 km/h (1 Bft) S-SW 213 0 min 0,000 mm 0,0 UV-I 6 W/m -5,9 C -4,1 C 4,8 km/h (1 Bft) 100,00 %
22.03.2018 05:57 -4,1 C 3,9 C 88 % 1023,0 hPa 0,0 l/m 4,1 km/h (1 Bft) S-SW 213 0 min 0,000 mm 0,0 UV-I 7 W/m -5,8 C -4,1 C 4,8 km/h (1 Bft) 100,00 %
22.03.2018 05:58 -4,1 C 3,9 C 87 % 1023,0 hPa 0,0 l/m 4,0 km/h (1 Bft) S-SW 213 0 min 0,000 mm 0,0 UV-I 7 W/m -5,9 C -4,1 C 4,8 km/h (1 Bft) 100,00 %
22.03.2018 05:59 -4,1 C 3,9 C 87 % 1023,0 hPa 0,0 l/m 3,5 km/h (1 Bft) S-SW 213 0 min 0,000 mm 0,0 UV-I 7 W/m -5,9 C -4,1 C 4,8 km/h (1 Bft) 95,65 %
22.03.2018 06:00 -4,2 C 3,9 C 88 % 1023,0 hPa 0,0 l/m 3,7 km/h (1 Bft) S-SW 213 0 min 0,000 mm 0,0 UV-I 7 W/m -5,9 C -4,2 C 4,8 km/h (1 Bft) 96,00 %
22.03.2018 06:01 -4,2 C 3,9 C 88 % 1023,0 hPa 0,0 l/m 4,1 km/h (1 Bft) S-SW 213 0 min 0,000 mm 0,0 UV-I 7 W/m -5,9 C -4,2 C 6,4 km/h (2 Bft) 100,00 %
22.03.2018 06:02 -4,2 C 3,9 C 88 % 1023,0 hPa 0,0 l/m 4,8 km/h (1 Bft) SW 214 0 min 0,000 mm 0,0 UV-I 8 W/m -5,9 C -4,2 C 6,4 km/h (2 Bft) 95,83 %
22.03.2018 06:03 -4,2 C 3,9 C 88 % 1023,0 hPa 0,0 l/m 5,1 km/h (1 Bft) S-SW 213 0 min 0,000 mm 0,0 UV-I 9 W/m -5,9 C -4,2 C 6,4 km/h (2 Bft) 100,00 %
22.03.2018 06:04 -4,2 C 3,9 C 88 % 1023,0 hPa 0,0 l/m 4,3 km/h (1 Bft) S-SW 213 0 min 0,000 mm 0,0 UV-I 9 W/m -5,9 C -4,2 C 6,4 km/h (2 Bft) 100,00 %
22.03.2018 06:05 -4,2 C 3,9 C 88 % 1023,0 hPa 0,0 l/m 4,4 km/h (1 Bft) S-SW 213 0 min 0,000 mm 0,0 UV-I 11 W/m -5,9 C -4,2 C 4,8 km/h (1 Bft) 100,00 %
22.03.2018 06:06 -4,2 C 3,9 C 88 % 1022,9 hPa 0,0 l/m 4,0 km/h (1 Bft) S-SW 213 0 min 0,000 mm 0,0 UV-I 11 W/m -5,9 C -4,2 C 4,8 km/h (1 Bft) 100,00 %
22.03.2018 06:07 -4,2 C 3,9 C 88 % 1022,9 hPa 0,0 l/m 4,6 km/h (1 Bft) S-SW 213 0 min 0,000 mm 0,0 UV-I 11 W/m -5,9 C -4,2 C 4,8 km/h (1 Bft) 100,00 %
22.03.2018 06:08 -4,2 C 3,9 C 88 % 1022,9 hPa 0,0 l/m 4,8 km/h (1 Bft) S-SW 213 0 min 0,000 mm 0,0 UV-I 11 W/m -5,9 C -4,2 C 6,4 km/h (2 Bft) 100,00 %
22.03.2018 06:09 -4,3 C 3,9 C 88 % 1023,0 hPa 0,0 l/m 3,7 km/h (1 Bft) S-SW 213 0 min 0,000 mm 0,0 UV-I 12 W/m -6,0 C -4,3 C 4,8 km/h (1 Bft) 100,00 %
22.03.2018 06:10 -4,3 C 3,9 C 88 % 1022,9 hPa 0,0 l/m 4,1 km/h (1 Bft) S-SW 213 0 min 0,000 mm 0,0 UV-I 13 W/m -6,0 C -4,3 C 4,8 km/h (1 Bft) 100,00 %
22.03.2018 06:11 -4,3 C 3,9 C 89 % 1022,9 hPa 0,0 l/m 4,7 km/h (1 Bft) S-SW 213 0 min 0,000 mm 0,0 UV-I 14 W/m -5,8 C -4,3 C 6,4 km/h (2 Bft) 100,00 %
22.03.2018 06:12 -4,3 C 3,9 C 89 % 1022,9 hPa 0,0 l/m 4,6 km/h (1 Bft) S-SW 213 0 min 0,000 mm 0,0 UV-I 16 W/m -5,8 C -4,3 C 4,8 km/h (1 Bft) 100,00 %
22.03.2018 06:13 -4,3 C 3,9 C 89 % 1022,9 hPa 0,0 l/m 4,7 km/h (1 Bft) S-SW 213 1 min 0,000 mm 0,0 UV-I 17 W/m -5,8 C -4,3 C 4,8 km/h (1 Bft) 100,00 %
22.03.2018 06:14 -4,3 C 3,9 C 89 % 1022,9 hPa 0,0 l/m 4,4 km/h (1 Bft) S-SW 213 1 min 0,000 mm 0,0 UV-I 18 W/m -5,8 C -4,3 C 6,4 km/h (2 Bft) 100,00 %
22.03.2018 06:15 -4,3 C 3,9 C 88 % 1022,9 hPa 0,0 l/m 4,2 km/h (1 Bft) S-SW 213 1 min 0,000 mm 0,0 UV-I 19 W/m -6,0 C -4,3 C 4,8 km/h (1 Bft) 100,00 %
22.03.2018 06:16 -4,3 C 3,9 C 89 % 1022,8 hPa 0,0 l/m 3,5 km/h (1 Bft) S-SW 213 1 min 0,000 mm 0,0 UV-I 20 W/m -5,8 C -4,3 C 4,8 km/h (1 Bft) 100,00 %
22.03.2018 06:17 -4,3 C 3,9 C 89 % 1022,9 hPa 0,0 l/m 4,8 km/h (1 Bft) S-SW 213 1 min 0,000 mm 0,0 UV-I 23 W/m -5,8 C -4,3 C 6,4 km/h (2 Bft) 100,00 %
22.03.2018 06:18 -4,3 C 3,9 C 89 % 1022,9 hPa 0,0 l/m 5,1 km/h (1 Bft) S-SW 203 1 min 0,000 mm 0,0 UV-I 24 W/m -5,8 C -4,3 C 6,4 km/h (2 Bft) 95,65 %
22.03.2018 06:19 -4,3 C 3,9 C 89 % 1022,9 hPa 0,0 l/m 5,1 km/h (1 Bft) S-SW 203 1 min 0,000 mm 0,0 UV-I 25 W/m -5,8 C -4,3 C 6,4 km/h (2 Bft) 100,00 %
22.03.2018 06:20 -4,3 C 3,9 C 89 % 1022,8 hPa 0,0 l/m 4,6 km/h (1 Bft) S-SW 203 1 min 0,000 mm 0,0 UV-I 27 W/m -5,8 C -4,3 C 6,4 km/h (2 Bft) 95,65 %
22.03.2018 06:21 -4,2 C 3,9 C 89 % 1022,8 hPa 0,0 l/m 5,0 km/h (1 Bft) S-SW 203 1 min 0,000 mm 0,0 UV-I 29 W/m -5,7 C -4,2 C 6,4 km/h (2 Bft) 95,83 %
22.03.2018 06:22 -4,2 C 3,9 C 89 % 1022,8 hPa 0,0 l/m 4,1 km/h (1 Bft) S-SW 203 1 min 0,000 mm 0,0 UV-I 32 W/m -5,7 C -4,2 C 4,8 km/h (1 Bft) 100,00 %
22.03.2018 06:23 -4,2 C 3,9 C 88 % 1022,8 hPa 0,0 l/m 4,4 km/h (1 Bft) S-SW 203 1 min 0,000 mm 0,0 UV-I 33 W/m -5,9 C -4,2 C 4,8 km/h (1 Bft) 95,83 %
22.03.2018 06:24 -4,2 C 3,9 C 88 % 1022,8 hPa 0,0 l/m 4,4 km/h (1 Bft) S-SW 203 1 min 0,000 mm 0,0 UV-I 35 W/m -5,9 C -4,2 C 4,8 km/h (1 Bft) 95,65 %
22.03.2018 06:25 -4,2 C 3,9 C 88 % 1022,8 hPa 0,0 l/m 4,6 km/h (1 Bft) S-SW 203 1 min 0,000 mm 0,0 UV-I 38 W/m -5,9 C -4,2 C 4,8 km/h (1 Bft) 91,67 %
22.03.2018 06:26 -4,2 C 3,9 C 88 % 1022,8 hPa 0,0 l/m 4,7 km/h (1 Bft) S-SW 203 1 min 0,000 mm 0,0 UV-I 40 W/m -5,9 C -4,2 C 4,8 km/h (1 Bft) 100,00 %
22.03.2018 06:27 -4,1 C 3,9 C 88 % 1022,8 hPa 0,0 l/m 5,1 km/h (1 Bft) S-SW 203 1 min 0,000 mm 0,0 UV-I 41 W/m -5,8 C -4,1 C 6,4 km/h (2 Bft) 95,65 %
22.03.2018 06:28 -4,1 C 3,9 C 88 % 1022,7 hPa 0,0 l/m 5,2 km/h (1 Bft) S-SW 202 1 min 0,000 mm 0,0 UV-I 44 W/m -5,8 C -4,1 C 6,4 km/h (2 Bft) 100,00 %
22.03.2018 06:29 -4,1 C 3,9 C 88 % 1022,7 hPa 0,0 l/m 4,3 km/h (1 Bft) S-SW 202 1 min 0,000 mm 0,0 UV-I 46 W/m -5,8 C -4,1 C 6,4 km/h (2 Bft) 96,15 %
22.03.2018 06:30 -4,1 C 3,9 C 88 % 1022,7 hPa 0,0 l/m 4,2 km/h (1 Bft) S-SW 202 1 min 0,000 mm 0,0 UV-I 48 W/m -5,8 C -4,1 C 4,8 km/h (1 Bft) 95,83 %
22.03.2018 06:31 -4,1 C 3,9 C 88 % 1022,7 hPa 0,0 l/m 4,7 km/h (1 Bft) S-SW 195 1 min 0,000 mm 0,0 UV-I 50 W/m -5,8 C -4,1 C 6,4 km/h (2 Bft) 100,00 %
22.03.2018 06:32 -4,1 C 3,9 C 88 % 1022,7 hPa 0,0 l/m 4,8 km/h (1 Bft) S-SW 192 1 min 0,000 mm 0,0 UV-I 54 W/m -5,8 C -4,1 C 6,4 km/h (2 Bft) 95,83 %
22.03.2018 06:33 -4,0 C 3,9 C 88 % 1022,7 hPa 0,0 l/m 5,6 km/h (1 Bft) S 186 1 min 0,000 mm 0,0 UV-I 55 W/m -5,7 C -4,0 C 6,4 km/h (2 Bft) 100,00 %
22.03.2018 06:34 -4,0 C 3,9 C 88 % 1022,7 hPa 0,0 l/m 5,7 km/h (1 Bft) S 190 1 min 0,000 mm 0,0 UV-I 58 W/m -5,7 C -4,0 C 8,0 km/h (2 Bft) 91,67 %
22.03.2018 06:35 -3,9 C 3,9 C 88 % 1022,7 hPa 0,0 l/m 6,1 km/h (2 Bft) S-SW 193 1 min 0,000 mm 0,0 UV-I 60 W/m -5,6 C -3,9 C 8,0 km/h (2 Bft) 92,31 %
22.03.2018 06:36 -3,9 C 3,9 C 88 % 1022,7 hPa 0,0 l/m 5,2 km/h (1 Bft) S-SW 201 1 min 0,000 mm 0,0 UV-I 63 W/m -5,6 C -3,9 C 6,4 km/h (2 Bft) 95,83 %
22.03.2018 06:37 -3,8 C 3,9 C 88 % 1022,6 hPa 0,0 l/m 5,5 km/h (1 Bft) S-SW 193 1 min 0,000 mm 0,0 UV-I 66 W/m -5,5 C -3,8 C 6,4 km/h (2 Bft) 100,00 %
22.03.2018 06:38 -3,8 C 3,9 C 88 % 1022,7 hPa 0,0 l/m 5,3 km/h (1 Bft) S 184 1 min 0,000 mm 0,0 UV-I 68 W/m -5,5 C -3,8 C 6,4 km/h (2 Bft) 95,83 %
22.03.2018 06:39 -3,8 C 3,9 C 87 % 1022,7 hPa 0,0 l/m 6,0 km/h (2 Bft) S-SW 199 1 min 0,000 mm 0,0 UV-I 70 W/m -5,6 C -3,8 C 8,0 km/h (2 Bft) 95,65 %
22.03.2018 06:40 -3,7 C 3,9 C 87 % 1022,6 hPa 0,0 l/m 6,2 km/h (2 Bft) S-SW 207 1 min 0,000 mm 0,0 UV-I 73 W/m -5,5 C -3,7 C 8,0 km/h (2 Bft) 95,83 %
22.03.2018 06:41 -3,7 C 3,9 C 87 % 1022,6 hPa 0,0 l/m 5,4 km/h (1 Bft) S-SW 207 1 min 0,000 mm 0,0 UV-I 76 W/m -5,5 C -3,7 C 6,4 km/h (2 Bft) 95,65 %
22.03.2018 06:42 -3,7 C 3,9 C 87 % 1022,6 hPa 0,0 l/m 6,1 km/h (2 Bft) S-SW 198 1 min 0,000 mm 0,0 UV-I 78 W/m -5,5 C -3,7 C 8,0 km/h (2 Bft) 100,00 %
22.03.2018 06:43 -3,7 C 3,9 C 87 % 1022,6 hPa 0,0 l/m 6,2 km/h (2 Bft) S-SW 195 1 min 0,000 mm 0,0 UV-I 82 W/m -5,5 C -3,7 C 8,0 km/h (2 Bft) 95,65 %
22.03.2018 06:44 -3,6 C 3,9 C 87 % 1022,6 hPa 0,0 l/m 8,0 km/h (2 Bft) S-SW 207 1 min 0,000 mm 0,0 UV-I 84 W/m -5,4 C -5,4 C 9,7 km/h (2 Bft) 95,83 %
22.03.2018 06:45 -3,6 C 3,9 C 87 % 1022,6 hPa 0,0 l/m 6,1 km/h (2 Bft) S-SW 201 1 min 0,000 mm 0,0 UV-I 86 W/m -5,4 C -3,6 C 8,0 km/h (2 Bft) 96,15 %
22.03.2018 06:46 -3,6 C 3,9 C 87 % 1022,6 hPa 0,0 l/m 6,1 km/h (2 Bft) S-SW 207 1 min 0,000 mm 0,0 UV-I 89 W/m -5,4 C -3,6 C 9,7 km/h (2 Bft) 91,67 %
22.03.2018 06:47 -3,6 C 3,9 C 87 % 1022,7 hPa 0,0 l/m 6,8 km/h (2 Bft) S-SW 197 1 min 0,000 mm 0,0 UV-I 91 W/m -5,4 C -4,0 C 8,0 km/h (2 Bft) 100,00 %
22.03.2018 06:48 -3,6 C 3,9 C 87 % 1022,6 hPa 0,0 l/m 6,6 km/h (2 Bft) S-SW 205 1 min 0,000 mm 0,0 UV-I 94 W/m -5,4 C -3,8 C 9,7 km/h (2 Bft) 95,65 %
22.03.2018 06:49 -3,6 C 3,9 C 87 % 1022,7 hPa 0,0 l/m 5,4 km/h (1 Bft) S 189 1 min 0,000 mm 0,0 UV-I 96 W/m -5,4 C -3,6 C 6,4 km/h (2 Bft) 100,00 %
22.03.2018 06:50 -3,5 C 3,9 C 87 % 1022,6 hPa 0,0 l/m 5,6 km/h (1 Bft) S-SW 199 1 min 0,000 mm 0,0 UV-I 99 W/m -5,3 C -3,5 C 8,0 km/h (2 Bft) 95,65 %
22.03.2018 06:51 -3,5 C 3,9 C 87 % 1022,6 hPa 0,0 l/m 6,3 km/h (2 Bft) S-SW 213 1 min 0,000 mm 0,0 UV-I 102 W/m -5,3 C -3,5 C 6,4 km/h (2 Bft) 100,00 %
22.03.2018 06:52 -3,4 C 3,9 C 87 % 1022,6 hPa 0,0 l/m 4,8 km/h (1 Bft) S-SW 209 1 min 0,000 mm 0,0 UV-I 104 W/m -5,2 C -3,4 C 8,0 km/h (2 Bft) 92,86 %
22.03.2018 06:53 -3,4 C 3,9 C 87 % 1022,6 hPa 0,0 l/m 5,9 km/h (2 Bft) S-SW 199 1 min 0,000 mm 0,0 UV-I 107 W/m -5,2 C -3,4 C 6,4 km/h (2 Bft) 100,00 %
22.03.2018 06:54 -3,4 C 3,9 C 87 % 1022,6 hPa 0,0 l/m 5,7 km/h (1 Bft) S-SW 204 1 min 0,000 mm 0,0 UV-I 110 W/m -5,2 C -3,4 C 8,0 km/h (2 Bft) 91,30 %
22.03.2018 06:55 -3,4 C 3,9 C 87 % 1022,6 hPa 0,0 l/m 6,1 km/h (2 Bft) S-SW 199 1 min 0,000 mm 0,0 UV-I 112 W/m -5,2 C -3,4 C 8,0 km/h (2 Bft) 91,67 %
22.03.2018 06:56 -3,4 C 3,9 C 87 % 1022,6 hPa 0,0 l/m 6,8 km/h (2 Bft) S-SW 211 1 min 0,000 mm 0,0 UV-I 114 W/m -5,2 C -3,8 C 8,0 km/h (2 Bft) 95,65 %
22.03.2018 06:57 -3,4 C 3,9 C 87 % 1022,6 hPa 0,0 l/m 4,2 km/h (1 Bft) S 188 1 min 0,000 mm 0,0 UV-I 117 W/m -5,2 C -3,4 C 8,0 km/h (2 Bft) 96,30 %
22.03.2018 06:58 -3,3 C 3,9 C 87 % 1022,6 hPa 0,0 l/m 5,4 km/h (1 Bft) S-SW 202 1 min 0,000 mm 0,0 UV-I 120 W/m -5,1 C -3,3 C 8,0 km/h (2 Bft) 91,30 %
22.03.2018 06:59 -3,3 C 3,9 C 87 % 1022,6 hPa 0,0 l/m 5,6 km/h (1 Bft) S-SW 196 1 min 0,000 mm 0,0 UV-I 121 W/m -5,1 C -3,3 C 6,4 km/h (2 Bft) 91,67 %
22.03.2018 07:00 -3,3 C 3,9 C 87 % 1022,6 hPa 0,0 l/m 5,4 km/h (1 Bft) S-SW 207 1 min 0,025 mm 0,0 UV-I 124 W/m -5,1 C -3,3 C 6,4 km/h (2 Bft) 100,00 %
22.03.2018 07:01 -3,3 C 3,9 C 87 % 1022,6 hPa 0,0 l/m 6,0 km/h (2 Bft) SW 215 1 min 0,000 mm 0,0 UV-I 126 W/m -5,1 C -3,3 C 8,0 km/h (2 Bft) 91,67 %
22.03.2018 07:02 -3,3 C 3,9 C 87 % 1022,6 hPa 0,0 l/m 5,2 km/h (1 Bft) S-SW 204 1 min 0,000 mm 0,0 UV-I 128 W/m -5,1 C -3,3 C 6,4 km/h (2 Bft) 95,83 %
22.03.2018 07:03 -3,2 C 3,9 C 86 % 1022,6 hPa 0,0 l/m 4,7 km/h (1 Bft) S-SW 205 1 min 0,000 mm 0,0 UV-I 130 W/m -5,2 C -3,2 C 6,4 km/h (2 Bft) 95,65 %
22.03.2018 07:04 -3,2 C 3,9 C 86 % 1022,6 hPa 0,0 l/m 4,8 km/h (1 Bft) S-SW 195 1 min 0,000 mm 0,0 UV-I 132 W/m -5,2 C -3,2 C 6,4 km/h (2 Bft) 100,00 %
22.03.2018 07:05 -3,2 C 3,9 C 87 % 1022,6 hPa 0,0 l/m 5,3 km/h (1 Bft) S-SW 213 1 min 0,000 mm 0,0 UV-I 135 W/m -5,0 C -3,2 C 6,4 km/h (2 Bft) 95,65 %
22.03.2018 07:06 -3,2 C 3,9 C 87 % 1022,6 hPa 0,0 l/m 5,4 km/h (1 Bft) S-SW 213 1 min 0,000 mm 0,0 UV-I 138 W/m -5,0 C -3,2 C 6,4 km/h (2 Bft) 100,00 %
22.03.2018 07:07 -3,2 C 3,9 C 87 % 1022,5 hPa 0,0 l/m 4,6 km/h (1 Bft) S-SW 213 1 min 0,000 mm 0,0 UV-I 140 W/m -5,0 C -3,2 C 6,4 km/h (2 Bft) 95,65 %
22.03.2018 07:08 -3,2 C 3,9 C 87 % 1022,5 hPa 0,0 l/m 4,8 km/h (1 Bft) S-SW 213 1 min 0,000 mm 0,0 UV-I 142 W/m -5,0 C -3,2 C 6,4 km/h (2 Bft) 95,83 %
22.03.2018 07:09 -3,2 C 3,9 C 86 % 1022,5 hPa 0,0 l/m 4,0 km/h (1 Bft) S-SW 213 1 min 0,000 mm 0,0 UV-I 144 W/m -5,2 C -3,2 C 4,8 km/h (1 Bft) 100,00 %
22.03.2018 07:10 -3,1 C 3,9 C 86 % 1022,5 hPa 0,0 l/m 4,0 km/h (1 Bft) S-SW 213 1 min 0,000 mm 0,0 UV-I 146 W/m -5,1 C -3,1 C 6,4 km/h (2 Bft) 100,00 %
22.03.2018 07:11 -3,1 C 3,9 C 86 % 1022,4 hPa 0,0 l/m 3,3 km/h (1 Bft) S-SW 213 1 min 0,000 mm 0,0 UV-I 148 W/m -5,1 C -3,1 C 4,8 km/h (1 Bft) 100,00 %
22.03.2018 07:12 -3,1 C 3,9 C 86 % 1022,4 hPa 0,0 l/m 4,1 km/h (1 Bft) S-SW 213 1 min 0,000 mm 0,0 UV-I 150 W/m -5,1 C -3,1 C 6,4 km/h (2 Bft) 95,83 %
22.03.2018 07:13 -3,1 C 3,9 C 86 % 1022,5 hPa 0,0 l/m 3,3 km/h (1 Bft) S-SW 213 1 min 0,000 mm 0,0 UV-I 152 W/m -5,1 C -3,1 C 4,8 km/h (1 Bft) 91,30 %
22.03.2018 07:14 -3,1 C 3,9 C 87 % 1022,4 hPa 0,0 l/m 3,8 km/h (1 Bft) SW 215 1 min 0,000 mm 0,0 UV-I 154 W/m -4,9 C -3,1 C 4,8 km/h (1 Bft) 100,00 %
22.03.2018 07:15 -3,0 C 3,9 C 87 % 1022,4 hPa 0,0 l/m 4,5 km/h (1 Bft) SW 226 1 min 0,000 mm 0,0 UV-I 156 W/m -4,9 C -3,0 C 6,4 km/h (2 Bft) 100,00 %
22.03.2018 07:16 -3,0 C 3,9 C 87 % 1022,4 hPa 0,0 l/m 3,7 km/h (1 Bft) SW 218 1 min 0,000 mm 0,0 UV-I 160 W/m -4,9 C -3,0 C 6,4 km/h (2 Bft) 100,00 %
22.03.2018 07:17 -3,0 C 3,9 C 86 % 1022,4 hPa 0,0 l/m 4,0 km/h (1 Bft) SW 217 1 min 0,000 mm 0,0 UV-I 162 W/m -5,0 C -3,0 C 6,4 km/h (2 Bft) 95,65 %
22.03.2018 07:18 -2,9 C 3,9 C 86 % 1022,4 hPa 0,0 l/m 4,2 km/h (1 Bft) SW 215 1 min 0,000 mm 0,0 UV-I 164 W/m -4,9 C -2,9 C 6,4 km/h (2 Bft) 95,83 %
22.03.2018 07:19 -2,9 C 3,9 C 86 % 1022,4 hPa 0,0 l/m 5,8 km/h (2 Bft) SW 219 1 min 0,000 mm 0,0 UV-I 166 W/m -4,9 C -2,9 C 9,7 km/h (2 Bft) 100,00 %
22.03.2018 07:20 -2,8 C 3,9 C 87 % 1022,4 hPa 0,0 l/m 4,7 km/h (1 Bft) SW 223 1 min 0,000 mm 0,0 UV-I 168 W/m -4,7 C -2,8 C 6,4 km/h (2 Bft) 100,00 %
22.03.2018 07:21 -2,8 C 3,9 C 86 % 1022,4 hPa 0,0 l/m 6,0 km/h (2 Bft) SW 227 1 min 0,000 mm 0,0 UV-I 171 W/m -4,8 C -2,8 C 8,0 km/h (2 Bft) 100,00 %
22.03.2018 07:22 -2,7 C 3,9 C 86 % 1022,4 hPa 0,0 l/m 4,8 km/h (1 Bft) S-SW 211 1 min 0,000 mm 0,0 UV-I 174 W/m -4,7 C -2,7 C 8,0 km/h (2 Bft) 100,00 %
22.03.2018 07:23 -2,7 C 3,9 C 86 % 1022,4 hPa 0,0 l/m 4,4 km/h (1 Bft) SW 214 1 min 0,000 mm 0,0 UV-I 176 W/m -4,7 C -2,7 C 6,4 km/h (2 Bft) 95,65 %
22.03.2018 07:24 -2,6 C 3,9 C 86 % 1022,3 hPa 0,0 l/m 5,7 km/h (1 Bft) S-SW 204 1 min 0,000 mm 0,0 UV-I 178 W/m -4,6 C -2,6 C 6,4 km/h (2 Bft) 95,83 %
22.03.2018 07:25 -2,6 C 3,9 C 86 % 1022,3 hPa 0,0 l/m 6,6 km/h (2 Bft) S-SW 198 1 min 0,000 mm 0,0 UV-I 182 W/m -4,6 C -2,8 C 8,0 km/h (2 Bft) 100,00 %
22.03.2018 07:26 -2,5 C 3,9 C 86 % 1022,3 hPa 0,0 l/m 4,4 km/h (1 Bft) S-SW 198 1 min 0,000 mm 0,0 UV-I 184 W/m -4,5 C -2,5 C 8,0 km/h (2 Bft) 95,83 %
22.03.2018 07:27 -2,4 C 3,9 C 86 % 1022,4 hPa 0,0 l/m 5,7 km/h (1 Bft) SW 223 1 min 0,000 mm 0,0 UV-I 188 W/m -4,4 C -2,4 C 8,0 km/h (2 Bft) 95,65 %
22.03.2018 07:28 -2,4 C 3,9 C 86 % 1022,4 hPa 0,0 l/m 6,6 km/h (2 Bft) W 263 1 min 0,000 mm 0,0 UV-I 190 W/m -4,4 C -2,6 C 9,7 km/h (2 Bft) 95,83 %
22.03.2018 07:29 -2,4 C 3,9 C 85 % 1022,4 hPa 0,0 l/m 5,2 km/h (1 Bft) SW 218 1 min 0,000 mm 0,0 UV-I 194 W/m -4,6 C -2,4 C 8,0 km/h (2 Bft) 100,00 %
22.03.2018 07:30 -2,3 C 3,9 C 85 % 1022,4 hPa 0,0 l/m 6,5 km/h (2 Bft) SW 221 1 min 0,000 mm 0,0 UV-I 197 W/m -4,5 C -2,4 C 11,3 km/h (2 Bft) 100,00 %
22.03.2018 07:31 -2,3 C 3,9 C 85 % 1022,4 hPa 0,0 l/m 5,0 km/h (1 Bft) W-SW 244 1 min 0,000 mm 0,0 UV-I 200 W/m -4,5 C -2,3 C 6,4 km/h (2 Bft) 100,00 %
22.03.2018 07:32 -2,3 C 3,9 C 84 % 1022,3 hPa 0,0 l/m 5,8 km/h (2 Bft) SW 234 1 min 0,000 mm 0,0 UV-I 203 W/m -4,6 C -2,3 C 9,7 km/h (2 Bft) 100,00 %
22.03.2018 07:33 -2,2 C 3,9 C 84 % 1022,4 hPa 0,0 l/m 7,0 km/h (2 Bft) SW 221 1 min 0,000 mm 0,0 UV-I 206 W/m -4,5 C -2,9 C 8,0 km/h (2 Bft) 100,00 %
22.03.2018 07:34 -2,2 C 3,9 C 84 % 1022,4 hPa 0,0 l/m 6,9 km/h (2 Bft) W-SW 257 1 min 0,000 mm 0,0 UV-I 208 W/m -4,5 C -2,7 C 11,3 km/h (2 Bft) 95,65 %
22.03.2018 07:35 -2,2 C 3,9 C 84 % 1022,3 hPa 0,0 l/m 5,6 km/h (1 Bft) SW 216 1 min 0,000 mm 0,0 UV-I 212 W/m -4,5 C -2,2 C 8,0 km/h (2 Bft) 100,00 %
22.03.2018 07:36 -2,1 C 3,9 C 84 % 1022,3 hPa 0,0 l/m 6,0 km/h (2 Bft) SW 219 1 min 0,000 mm 0,0 UV-I 213 W/m -4,4 C -2,1 C 8,0 km/h (2 Bft) 100,00 %
22.03.2018 07:37 -2,1 C 3,9 C 84 % 1022,2 hPa 0,0 l/m 5,0 km/h (1 Bft) W-SW 254 1 min 0,000 mm 0,0 UV-I 216 W/m -4,4 C -2,1 C 8,0 km/h (2 Bft) 100,00 %
22.03.2018 07:38 -2,1 C 3,9 C 84 % 1022,3 hPa 0,0 l/m 5,2 km/h (1 Bft) S-SW 211 1 min 0,000 mm 0,0 UV-I 220 W/m -4,4 C -2,1 C 8,0 km/h (2 Bft) 95,65 %
22.03.2018 07:39 -2,1 C 3,9 C 84 % 1022,3 hPa 0,0 l/m 6,6 km/h (2 Bft) W-SW 241 1 min 0,000 mm 0,0 UV-I 221 W/m -4,4 C -2,3 C 9,7 km/h (2 Bft) 100,00 %
22.03.2018 07:40 -2,0 C 3,9 C 84 % 1022,2 hPa 0,0 l/m 5,1 km/h (1 Bft) W-SW 257 1 min 0,000 mm 0,0 UV-I 225 W/m -4,3 C -2,0 C 8,0 km/h (2 Bft) 96,15 %
22.03.2018 07:41 -2,0 C 3,9 C 84 % 1022,2 hPa 0,0 l/m 4,6 km/h (1 Bft) W-SW 237 1 min 0,000 mm 0,0 UV-I 228 W/m -4,3 C -2,0 C 6,4 km/h (2 Bft) 100,00 %
22.03.2018 07:42 -2,0 C 3,9 C 83 % 1022,2 hPa 0,0 l/m 6,1 km/h (2 Bft) W-SW 252 1 min 0,000 mm 0,0 UV-I 230 W/m -4,5 C -2,0 C 9,7 km/h (2 Bft) 95,65 %
22.03.2018 07:43 -2,0 C 3,9 C 83 % 1022,2 hPa 0,0 l/m 5,7 km/h (1 Bft) SW 234 1 min 0,000 mm 0,0 UV-I 231 W/m -4,5 C -2,0 C 8,0 km/h (2 Bft) 100,00 %
22.03.2018 07:44 -2,0 C 3,9 C 83 % 1022,2 hPa 0,0 l/m 6,6 km/h (2 Bft) S-SW 213 1 min 0,000 mm 0,0 UV-I 232 W/m -4,5 C -2,2 C 9,7 km/h (2 Bft) 91,30 %
22.03.2018 07:45 -2,0 C 3,9 C 83 % 1022,2 hPa 0,0 l/m 6,2 km/h (2 Bft) W-SW 245 1 min 0,000 mm 0,0 UV-I 236 W/m -4,5 C -2,0 C 8,0 km/h (2 Bft) 91,67 %
22.03.2018 07:46 -2,0 C 3,9 C 83 % 1022,2 hPa 0,0 l/m 3,8 km/h (1 Bft) W-SW 244 1 min 0,000 mm 0,0 UV-I 238 W/m -4,5 C -2,0 C 4,8 km/h (1 Bft) 95,83 %
22.03.2018 07:47 -1,9 C 3,9 C 83 % 1022,2 hPa 0,0 l/m 5,5 km/h (1 Bft) S-SW 209 1 min 0,000 mm 0,0 UV-I 241 W/m -4,4 C -1,9 C 8,0 km/h (2 Bft) 91,30 %
22.03.2018 07:48 -1,9 C 3,9 C 83 % 1022,2 hPa 0,0 l/m 5,8 km/h (2 Bft) W-SW 252 1 min 0,000 mm 0,0 UV-I 244 W/m -4,4 C -1,9 C 8,0 km/h (2 Bft) 100,00 %
22.03.2018 07:49 -1,9 C 3,9 C 83 % 1022,2 hPa 0,0 l/m 6,0 km/h (2 Bft) SW 232 1 min 0,000 mm 0,0 UV-I 247 W/m -4,4 C -1,9 C 9,7 km/h (2 Bft) 95,65 %
22.03.2018 07:50 -1,8 C 3,9 C 83 % 1022,2 hPa 0,0 l/m 7,8 km/h (2 Bft) W-SW 248 1 min 0,000 mm 0,0 UV-I 250 W/m -4,3 C -3,3 C 12,9 km/h (3 Bft) 100,00 %
22.03.2018 07:51 -1,8 C 3,9 C 83 % 1022,2 hPa 0,0 l/m 8,9 km/h (2 Bft) SW 225 1 min 0,000 mm 0,0 UV-I 253 W/m -4,3 C -4,4 C 12,9 km/h (3 Bft) 82,61 %
22.03.2018 07:52 -1,8 C 3,9 C 83 % 1022,2 hPa 0,0 l/m 6,2 km/h (2 Bft) SW 234 1 min 0,000 mm 0,0 UV-I 256 W/m -4,3 C -1,8 C 8,0 km/h (2 Bft) 100,00 %
22.03.2018 07:53 -1,8 C 3,9 C 83 % 1022,2 hPa 0,0 l/m 6,2 km/h (2 Bft) W-SW 248 1 min 0,000 mm 0,0 UV-I 257 W/m -4,3 C -1,8 C 8,0 km/h (2 Bft) 95,65 %
22.03.2018 07:54 -1,8 C 3,9 C 83 % 1022,2 hPa 0,0 l/m 5,6 km/h (1 Bft) SW 220 1 min 0,000 mm 0,0 UV-I 260 W/m -4,3 C -1,8 C 8,0 km/h (2 Bft) 100,00 %
22.03.2018 07:55 -1,7 C 3,9 C 83 % 1022,2 hPa 0,0 l/m 8,0 km/h (2 Bft) W-SW 241 1 min 0,000 mm 0,0 UV-I 263 W/m -4,2 C -3,4 C 11,3 km/h (2 Bft) 95,65 %
22.03.2018 07:56 -1,7 C 3,9 C 83 % 1022,2 hPa 0,0 l/m 6,5 km/h (2 Bft) S-SW 202 1 min 0,000 mm 0,0 UV-I 253 W/m -4,2 C -1,8 C 8,0 km/h (2 Bft) 95,83 %
22.03.2018 07:57 -1,6 C 3,9 C 83 % 1022,2 hPa 0,0 l/m 7,9 km/h (2 Bft) SW 236 1 min 0,000 mm 0,0 UV-I 268 W/m -4,1 C -3,2 C 11,3 km/h (2 Bft) 100,00 %
22.03.2018 07:58 -1,7 C 3,9 C 83 % 1022,2 hPa 0,0 l/m 6,5 km/h (2 Bft) W-SW 249 1 min 0,000 mm 0,0 UV-I 272 W/m -4,2 C -1,8 C 11,3 km/h (2 Bft) 95,83 %
22.03.2018 07:59 -1,7 C 3,9 C 82 % 1022,1 hPa 0,0 l/m 7,0 km/h (2 Bft) W 268 1 min 0,000 mm 0,0 UV-I 275 W/m -4,4 C -2,4 C 9,7 km/h (2 Bft) 100,00 %
22.03.2018 08:00 -1,7 C 3,9 C 82 % 1022,2 hPa 0,0 l/m 7,6 km/h (2 Bft) W 271 1 min 0,077 mm 0,0 UV-I 277 W/m -4,4 C -3,0 C 11,3 km/h (2 Bft) 95,83 %
22.03.2018 08:01 -1,6 C 3,9 C 82 % 1022,1 hPa 0,0 l/m 8,6 km/h (2 Bft) W-SW 238 1 min 0,000 mm 0,0 UV-I 280 W/m -4,3 C -3,9 C 12,9 km/h (3 Bft) 100,00 %
22.03.2018 08:02 -1,6 C 3,9 C 82 % 1022,1 hPa 0,0 l/m 9,5 km/h (2 Bft) SW 234 1 min 0,000 mm 0,0 UV-I 284 W/m -4,3 C -4,8 C 11,3 km/h (2 Bft) 95,83 %
22.03.2018 08:03 -1,6 C 3,9 C 82 % 1022,1 hPa 0,0 l/m 12,4 km/h (3 Bft) W-SW 257 1 min 0,000 mm 0,0 UV-I 287 W/m -4,3 C -7,1 C 16,1 km/h (3 Bft) 95,65 %
22.03.2018 08:04 -1,6 C 3,9 C 82 % 1022,1 hPa 0,0 l/m 11,1 km/h (2 Bft) W-SW 244 1 min 0,000 mm 0,0 UV-I 288 W/m -4,3 C -6,1 C 12,9 km/h (3 Bft) 91,67 %
22.03.2018 08:05 -1,6 C 3,9 C 82 % 1022,2 hPa 0,0 l/m 7,1 km/h (2 Bft) W-SW 248 1 min 0,000 mm 0,5 UV-I 291 W/m -4,3 C -2,4 C 8,0 km/h (2 Bft) 100,00 %
22.03.2018 08:06 -1,6 C 3,9 C 82 % 1022,2 hPa 0,0 l/m 8,2 km/h (2 Bft) W-SW 244 1 min 0,000 mm 0,5 UV-I 290 W/m -4,3 C -3,5 C 11,3 km/h (2 Bft) 95,65 %
22.03.2018 08:07 -1,6 C 3,9 C 82 % 1022,2 hPa 0,0 l/m 9,3 km/h (2 Bft) W 269 1 min 0,000 mm 0,5 UV-I 291 W/m -4,3 C -4,6 C 14,5 km/h (3 Bft) 95,83 %
22.03.2018 08:08 -1,6 C 3,9 C 82 % 1022,1 hPa 0,0 l/m 8,1 km/h (2 Bft) W-SW 246 1 min 0,000 mm 0,5 UV-I 294 W/m -4,3 C -3,4 C 11,3 km/h (2 Bft) 100,00 %
22.03.2018 08:09 -1,6 C 3,9 C 82 % 1022,1 hPa 0,0 l/m 7,0 km/h (2 Bft) W 265 1 min 0,000 mm 0,5 UV-I 303 W/m -4,3 C -2,3 C 11,3 km/h (2 Bft) 100,00 %
22.03.2018 08:10 -1,6 C 3,9 C 82 % 1022,1 hPa 0,0 l/m 7,5 km/h (2 Bft) W-SW 250 1 min 0,000 mm 0,5 UV-I 307 W/m -4,3 C -2,8 C 11,3 km/h (2 Bft) 86,96 %
22.03.2018 08:11 -1,5 C 3,9 C 82 % 1022,1 hPa 0,0 l/m 9,0 km/h (2 Bft) SW 234 1 min 0,000 mm 0,5 UV-I 309 W/m -4,2 C -4,2 C 12,9 km/h (3 Bft) 91,67 %
22.03.2018 08:12 -1,5 C 3,9 C 82 % 1022,1 hPa 0,0 l/m 9,1 km/h (2 Bft) W-SW 240 1 min 0,000 mm 0,5 UV-I 312 W/m -4,2 C -4,3 C 12,9 km/h (3 Bft) 100,00 %
22.03.2018 08:13 -1,5 C 3,9 C 82 % 1022,1 hPa 0,0 l/m 10,1 km/h (2 Bft) SW 229 1 min 0,000 mm 0,5 UV-I 314 W/m -4,2 C -5,2 C 14,5 km/h (3 Bft) 95,83 %
22.03.2018 08:14 -1,5 C 3,9 C 82 % 1022,1 hPa 0,0 l/m 8,6 km/h (2 Bft) W-SW 248 1 min 0,000 mm 0,5 UV-I 318 W/m -4,2 C -3,8 C 12,9 km/h (3 Bft) 100,00 %
22.03.2018 08:15 -1,4 C 3,9 C 82 % 1022,1 hPa 0,0 l/m 7,6 km/h (2 Bft) W-SW 241 1 min 0,000 mm 0,5 UV-I 320 W/m -4,1 C -2,7 C 9,7 km/h (2 Bft) 95,83 %
22.03.2018 08:16 -1,4 C 3,9 C 82 % 1022,0 hPa 0,0 l/m 7,0 km/h (2 Bft) W-SW 242 1 min 0,000 mm 0,5 UV-I 323 W/m -4,1 C -2,0 C 9,7 km/h (2 Bft) 95,65 %
22.03.2018 08:17 -1,4 C 3,9 C 82 % 1022,0 hPa 0,0 l/m 4,5 km/h (1 Bft) W-SW 240 1 min 0,000 mm 0,5 UV-I 326 W/m -4,1 C -1,4 C 6,4 km/h (2 Bft) 95,83 %
22.03.2018 08:18 -1,3 C 3,9 C 83 % 1022,0 hPa 0,0 l/m 7,4 km/h (2 Bft) W 271 1 min 0,000 mm 0,5 UV-I 329 W/m -3,8 C -2,4 C 11,3 km/h (2 Bft) 100,00 %
22.03.2018 08:19 -1,3 C 3,9 C 82 % 1022,0 hPa 0,0 l/m 8,4 km/h (2 Bft) SW 236 1 min 0,000 mm 0,6 UV-I 332 W/m -4,0 C -3,4 C 14,5 km/h (3 Bft) 95,83 %
22.03.2018 08:20 -1,3 C 3,9 C 82 % 1022,0 hPa 0,0 l/m 10,9 km/h (2 Bft) W-SW 241 1 min 0,000 mm 0,6 UV-I 336 W/m -4,0 C -5,6 C 14,5 km/h (3 Bft) 100,00 %
22.03.2018 08:21 -1,3 C 3,9 C 82 % 1022,0 hPa 0,0 l/m 8,5 km/h (2 Bft) W-SW 252 1 min 0,000 mm 0,6 UV-I 338 W/m -4,0 C -3,5 C 12,9 km/h (3 Bft) 95,83 %
22.03.2018 08:22 -1,3 C 3,9 C 82 % 1022,0 hPa 0,0 l/m 9,7 km/h (2 Bft) W-SW 242 1 min 0,000 mm 0,6 UV-I 340 W/m -4,0 C -4,6 C 12,9 km/h (3 Bft) 100,00 %
22.03.2018 08:23 -1,3 C 3,9 C 82 % 1021,9 hPa 0,0 l/m 8,0 km/h (2 Bft) W-SW 246 1 min 0,000 mm 0,6 UV-I 344 W/m -4,0 C -3,0 C 9,7 km/h (2 Bft) 96,30 %
22.03.2018 08:24 -1,2 C 3,9 C 82 % 1021,9 hPa 0,0 l/m 6,1 km/h (2 Bft) W-SW 245 1 min 0,000 mm 0,6 UV-I 346 W/m -3,9 C -1,2 C 9,7 km/h (2 Bft) 100,00 %
22.03.2018 08:25 -1,2 C 3,9 C 82 % 1021,9 hPa 0,0 l/m 7,1 km/h (2 Bft) SW 232 1 min 0,000 mm 0,6 UV-I 350 W/m -3,9 C -2,0 C 8,0 km/h (2 Bft) 100,00 %
22.03.2018 08:26 -1,1 C 3,9 C 82 % 1021,9 hPa 0,0 l/m 6,2 km/h (2 Bft) SW 228 1 min 0,000 mm 0,6 UV-I 350 W/m -3,8 C -1,1 C 9,7 km/h (2 Bft) 100,00 %
22.03.2018 08:27 -1,1 C 3,9 C 83 % 1022,0 hPa 0,0 l/m 5,4 km/h (1 Bft) SW 221 1 min 0,000 mm 0,6 UV-I 353 W/m -3,6 C -1,1 C 8,0 km/h (2 Bft) 95,65 %
22.03.2018 08:28 -1,0 C 3,9 C 82 % 1021,9 hPa 0,0 l/m 7,1 km/h (2 Bft) S-SW 209 1 min 0,000 mm 0,6 UV-I 356 W/m -3,7 C -1,7 C 8,0 km/h (2 Bft) 100,00 %
22.03.2018 08:29 -1,0 C 3,9 C 82 % 1021,9 hPa 0,0 l/m 4,3 km/h (1 Bft) SW 233 1 min 0,000 mm 0,6 UV-I 359 W/m -3,7 C -1,0 C 9,7 km/h (2 Bft) 100,00 %
22.03.2018 08:30 -0,9 C 3,9 C 82 % 1021,9 hPa 0,0 l/m 6,5 km/h (2 Bft) SW 215 1 min 0,000 mm 0,7 UV-I 363 W/m -3,6 C -1,0 C 9,7 km/h (2 Bft) 100,00 %
22.03.2018 08:31 -0,9 C 3,9 C 81 % 1021,9 hPa 0,0 l/m 6,0 km/h (2 Bft) SW 229 1 min 0,000 mm 0,7 UV-I 366 W/m -3,7 C -0,9 C 9,7 km/h (2 Bft) 95,65 %
22.03.2018 08:32 -0,9 C 3,9 C 81 % 1021,9 hPa 0,0 l/m 7,2 km/h (2 Bft) SW 232 1 min 0,000 mm 0,7 UV-I 367 W/m -3,7 C -1,8 C 11,3 km/h (2 Bft) 100,00 %
22.03.2018 08:33 -0,9 C 3,9 C 80 % 1021,9 hPa 0,0 l/m 6,8 km/h (2 Bft) SW 225 1 min 0,000 mm 0,7 UV-I 372 W/m -3,9 C -1,3 C 11,3 km/h (2 Bft) 100,00 %
22.03.2018 08:34 -0,8 C 3,9 C 80 % 1021,9 hPa 0,0 l/m 6,5 km/h (2 Bft) S 175 1 min 0,000 mm 0,7 UV-I 373 W/m -3,8 C -0,9 C 8,0 km/h (2 Bft) 95,83 %
22.03.2018 08:35 -0,8 C 3,9 C 81 % 1021,9 hPa 0,0 l/m 4,4 km/h (1 Bft) SW 224 1 min 0,000 mm 0,7 UV-I 377 W/m -3,6 C -0,8 C 6,4 km/h (2 Bft) 100,00 %
22.03.2018 08:36 -0,8 C 3,9 C 80 % 1021,9 hPa 0,0 l/m 6,4 km/h (2 Bft) W-SW 244 1 min 0,000 mm 0,7 UV-I 380 W/m -3,8 C -0,8 C 11,3 km/h (2 Bft) 91,67 %
22.03.2018 08:37 -0,8 C 3,9 C 80 % 1021,9 hPa 0,0 l/m 6,4 km/h (2 Bft) S-SW 210 1 min 0,000 mm 0,7 UV-I 381 W/m -3,8 C -0,8 C 8,0 km/h (2 Bft) 95,65 %
22.03.2018 08:38 -0,7 C 3,9 C 81 % 1021,9 hPa 0,0 l/m 6,2 km/h (2 Bft) SW 227 1 min 0,000 mm 0,7 UV-I 383 W/m -3,5 C -0,7 C 9,7 km/h (2 Bft) 95,83 %
22.03.2018 08:39 -0,7 C 3,9 C 80 % 1021,9 hPa 0,0 l/m 8,5 km/h (2 Bft) W-SW 240 1 min 0,000 mm 0,7 UV-I 385 W/m -3,7 C -2,9 C 12,9 km/h (3 Bft) 100,00 %
22.03.2018 08:40 -0,7 C 3,9 C 80 % 1021,8 hPa 0,0 l/m 7,7 km/h (2 Bft) W-SW 253 1 min 0,000 mm 0,7 UV-I 387 W/m -3,7 C -2,1 C 11,3 km/h (2 Bft) 95,83 %
22.03.2018 08:41 -0,7 C 3,9 C 80 % 1021,8 hPa 0,0 l/m 5,4 km/h (1 Bft) W-SW 246 1 min 0,000 mm 0,7 UV-I 391 W/m -3,7 C -0,7 C 6,4 km/h (2 Bft) 95,65 %
22.03.2018 08:42 -0,6 C 3,9 C 80 % 1021,8 hPa 0,0 l/m 6,3 km/h (2 Bft) SW 218 1 min 0,000 mm 0,8 UV-I 393 W/m -3,6 C -0,6 C 8,0 km/h (2 Bft) 100,00 %
22.03.2018 08:43 -0,5 C 3,9 C 81 % 1021,8 hPa 0,0 l/m 4,1 km/h (1 Bft) W-SW 248 1 min 0,000 mm 0,8 UV-I 397 W/m -3,3 C -0,5 C 6,4 km/h (2 Bft) 93,33 %
22.03.2018 08:44 -0,4 C 3,9 C 80 % 1021,8 hPa 0,0 l/m 5,4 km/h (1 Bft) W-SW 238 1 min 0,000 mm 0,8 UV-I 399 W/m -3,4 C -0,4 C 6,4 km/h (2 Bft) 95,65 %
22.03.2018 08:45 -0,4 C 3,9 C 80 % 1021,8 hPa 0,0 l/m 6,9 km/h (2 Bft) W-SW 251 1 min 0,000 mm 0,8 UV-I 402 W/m -3,4 C -0,9 C 9,7 km/h (2 Bft) 95,83 %
22.03.2018 08:46 -0,5 C 3,9 C 80 % 1021,8 hPa 0,0 l/m 5,1 km/h (1 Bft) SW 230 1 min 0,000 mm 0,8 UV-I 403 W/m -3,5 C -0,5 C 6,4 km/h (2 Bft) 100,00 %
22.03.2018 08:47 -0,5 C 3,9 C 80 % 1021,7 hPa 0,0 l/m 6,0 km/h (2 Bft) SW 217 1 min 0,000 mm 0,8 UV-I 405 W/m -3,5 C -0,5 C 9,7 km/h (2 Bft) 95,83 %
22.03.2018 08:48 -0,4 C 3,9 C 80 % 1021,7 hPa 0,0 l/m 5,1 km/h (1 Bft) SW 235 1 min 0,000 mm 0,8 UV-I 409 W/m -3,4 C -0,4 C 9,7 km/h (2 Bft) 100,00 %
22.03.2018 08:49 -0,4 C 3,9 C 80 % 1021,7 hPa 0,0 l/m 5,4 km/h (1 Bft) SW 232 1 min 0,000 mm 0,8 UV-I 412 W/m -3,4 C -0,4 C 8,0 km/h (2 Bft) 95,83 %
22.03.2018 08:50 -0,3 C 3,9 C 80 % 1021,7 hPa 0,0 l/m 7,0 km/h (2 Bft) SW 220 1 min 0,000 mm 0,8 UV-I 415 W/m -3,3 C -0,9 C 11,3 km/h (2 Bft) 95,65 %
22.03.2018 08:51 -0,3 C 3,9 C 80 % 1021,6 hPa 0,0 l/m 8,3 km/h (2 Bft) S-SW 209 1 min 0,000 mm 0,8 UV-I 417 W/m -3,3 C -2,3 C 9,7 km/h (2 Bft) 100,00 %
22.03.2018 08:52 -0,3 C 3,9 C 79 % 1021,6 hPa 0,0 l/m 7,3 km/h (2 Bft) SW 227 1 min 0,000 mm 0,8 UV-I 419 W/m -3,5 C -1,2 C 9,7 km/h (2 Bft) 96,00 %
22.03.2018 08:53 -0,3 C 3,9 C 79 % 1021,6 hPa 0,0 l/m 6,7 km/h (2 Bft) W-SW 246 1 min 0,000 mm 0,9 UV-I 421 W/m -3,5 C -0,6 C 8,0 km/h (2 Bft) 100,00 %
22.03.2018 08:54 -0,3 C 3,9 C 79 % 1021,6 hPa 0,0 l/m 6,9 km/h (2 Bft) W-SW 240 1 min 0,000 mm 0,9 UV-I 424 W/m -3,5 C -0,8 C 8,0 km/h (2 Bft) 95,65 %
22.03.2018 08:55 -0,3 C 3,9 C 79 % 1021,6 hPa 0,0 l/m 5,4 km/h (1 Bft) SW 234 1 min 0,000 mm 0,9 UV-I 425 W/m -3,5 C -0,3 C 11,3 km/h (2 Bft) 100,00 %
22.03.2018 08:56 -0,3 C 3,9 C 79 % 1021,6 hPa 0,0 l/m 3,2 km/h (1 Bft) W-SW 237 1 min 0,000 mm 0,9 UV-I 429 W/m -3,5 C -0,3 C 6,4 km/h (2 Bft) 95,65 %
22.03.2018 08:57 -0,3 C 3,9 C 79 % 1021,6 hPa 0,0 l/m 5,2 km/h (1 Bft) W-SW 247 1 min 0,000 mm 0,9 UV-I 432 W/m -3,5 C -0,3 C 8,0 km/h (2 Bft) 100,00 %
22.03.2018 08:58 -0,3 C 3,9 C 79 % 1021,6 hPa 0,0 l/m 4,5 km/h (1 Bft) SW 217 1 min 0,000 mm 0,9 UV-I 435 W/m -3,5 C -0,3 C 4,8 km/h (1 Bft) 100,00 %
22.03.2018 08:59 -0,2 C 3,9 C 79 % 1021,6 hPa 0,0 l/m 2,8 km/h (1 Bft) W 265 1 min 0,000 mm 0,9 UV-I 437 W/m -3,4 C -0,2 C 6,4 km/h (2 Bft) 100,00 %
22.03.2018 09:00 -0,2 C 3,9 C 79 % 1021,6 hPa 0,0 l/m 7,0 km/h (2 Bft) W-SW 244 1 min 0,000 mm 0,9 UV-I 439 W/m -3,4 C -0,8 C 9,7 km/h (2 Bft) 100,00 %
22.03.2018 09:01 -0,2 C 3,9 C 78 % 1021,6 hPa 0,0 l/m 4,4 km/h (1 Bft) W 274 1 min 0,127 mm 0,9 UV-I 441 W/m -3,6 C -0,2 C 6,4 km/h (2 Bft) 96,30 %
22.03.2018 09:02 -0,1 C 3,9 C 78 % 1021,5 hPa 0,0 l/m 3,0 km/h (1 Bft) SW 215 1 min 0,000 mm 0,9 UV-I 441 W/m -3,5 C -0,1 C 4,8 km/h (1 Bft) 91,30 %
22.03.2018 09:03 -0,1 C 3,9 C 78 % 1021,5 hPa 0,0 l/m 2,6 km/h (1 Bft) SW 215 1 min 0,000 mm 1,0 UV-I 443 W/m -3,5 C -0,1 C 4,8 km/h (1 Bft) 100,00 %
22.03.2018 09:04 0,1 C 3,9 C 80 % 1021,5 hPa 0,0 l/m 4,8 km/h (1 Bft) S-SW 211 1 min 0,000 mm 1,0 UV-I 449 W/m -2,9 C 0,1 C 6,4 km/h (2 Bft) 95,65 %
22.03.2018 09:05 0,0 C 3,9 C 78 % 1021,5 hPa 0,0 l/m 4,6 km/h (1 Bft) S-SW 213 1 min 0,000 mm 1,0 UV-I 453 W/m -3,4 C 0,0 C 6,4 km/h (2 Bft) 100,00 %
22.03.2018 09:06 0,0 C 3,9 C 78 % 1021,5 hPa 0,0 l/m 5,9 km/h (2 Bft) W-SW 243 1 min 0,000 mm 1,0 UV-I 455 W/m -3,4 C 0,0 C 8,0 km/h (2 Bft) 100,00 %
22.03.2018 09:07 0,1 C 3,9 C 79 % 1021,5 hPa 0,0 l/m 4,8 km/h (1 Bft) W-SW 250 1 min 0,000 mm 1,0 UV-I 457 W/m -3,1 C 0,1 C 6,4 km/h (2 Bft) 100,00 %
22.03.2018 09:08 0,1 C 3,9 C 79 % 1021,4 hPa 0,0 l/m 4,4 km/h (1 Bft) SW 226 1 min 0,000 mm 1,0 UV-I 461 W/m -3,1 C 0,1 C 6,4 km/h (2 Bft) 100,00 %
22.03.2018 09:09 0,1 C 3,9 C 78 % 1021,4 hPa 0,0 l/m 3,4 km/h (1 Bft) SW 229 1 min 0,000 mm 1,0 UV-I 461 W/m -3,3 C 0,1 C 4,8 km/h (1 Bft) 95,65 %
22.03.2018 09:10 0,2 C 3,9 C 79 % 1021,4 hPa 0,0 l/m 4,7 km/h (1 Bft) W 273 1 min 0,000 mm 1,0 UV-I 464 W/m -3,0 C 0,2 C 6,4 km/h (2 Bft) 100,00 %
22.03.2018 09:11 0,3 C 3,9 C 77 % 1021,4 hPa 0,0 l/m 4,4 km/h (1 Bft) W-NW 297 1 min 0,000 mm 1,0 UV-I 467 W/m -3,2 C 0,3 C 6,4 km/h (2 Bft) 100,00 %
22.03.2018 09:12 0,3 C 3,9 C 77 % 1021,3 hPa 0,0 l/m 3,0 km/h (1 Bft) W-NW 297 1 min 0,000 mm 1,0 UV-I 468 W/m -3,2 C 0,3 C 4,8 km/h (1 Bft) 100,00 %
22.03.2018 09:13 0,3 C 3,9 C 78 % 1021,4 hPa 0,0 l/m 5,2 km/h (1 Bft) W-SW 237 1 min 0,000 mm 1,1 UV-I 471 W/m -3,1 C 0,3 C 9,7 km/h (2 Bft) 95,65 %
22.03.2018 09:14 0,3 C 3,9 C 77 % 1021,4 hPa 0,0 l/m 4,3 km/h (1 Bft) W-SW 238 1 min 0,000 mm 1,1 UV-I 474 W/m -3,2 C 0,3 C 8,0 km/h (2 Bft) 100,00 %
22.03.2018 09:15 0,4 C 3,9 C 77 % 1021,4 hPa 0,0 l/m 6,9 km/h (2 Bft) SW 214 1 min 0,000 mm 1,1 UV-I 477 W/m -3,1 C -0,1 C 9,7 km/h (2 Bft) 100,00 %
22.03.2018 09:16 0,4 C 3,9 C 77 % 1021,3 hPa 0,0 l/m 6,2 km/h (2 Bft) W-SW 251 1 min 0,000 mm 1,1 UV-I 479 W/m -3,1 C 0,4 C 8,0 km/h (2 Bft) 100,00 %
22.03.2018 09:17 0,4 C 3,9 C 77 % 1021,3 hPa 0,0 l/m 5,4 km/h (1 Bft) W-SW 251 1 min 0,000 mm 1,1 UV-I 481 W/m -3,1 C 0,4 C 6,4 km/h (2 Bft) 100,00 %
22.03.2018 09:18 0,5 C 3,9 C 77 % 1021,3 hPa 0,0 l/m 7,9 km/h (2 Bft) S-SW 204 1 min 0,000 mm 1,1 UV-I 484 W/m -3,1 C -1,0 C 9,7 km/h (2 Bft) 100,00 %
22.03.2018 09:19 0,6 C 3,9 C 77 % 1021,3 hPa 0,0 l/m 8,4 km/h (2 Bft) W-SW 240 1 min 0,000 mm 1,1 UV-I 485 W/m -3,0 C -1,4 C 11,3 km/h (2 Bft) 100,00 %
22.03.2018 09:20 0,6 C 3,9 C 77 % 1021,3 hPa 0,0 l/m 4,1 km/h (1 Bft) W-SW 244 1 min 0,000 mm 1,1 UV-I 489 W/m -3,0 C 0,6 C 8,0 km/h (2 Bft) 100,00 %
22.03.2018 09:21 0,6 C 3,9 C 77 % 1021,2 hPa 0,0 l/m 2,5 km/h (1 Bft) W-SW 243 1 min 0,000 mm 1,1 UV-I 490 W/m -3,0 C 0,6 C 4,8 km/h (1 Bft) 100,00 %
22.03.2018 09:22 0,6 C 3,9 C 77 % 1021,3 hPa 0,0 l/m 4,0 km/h (1 Bft) SW 236 1 min 0,000 mm 1,1 UV-I 492 W/m -3,0 C 0,6 C 6,4 km/h (2 Bft) 100,00 %
22.03.2018 09:23 0,6 C 3,9 C 77 % 1021,3 hPa 0,0 l/m 3,5 km/h (1 Bft) S 188 1 min 0,000 mm 1,2 UV-I 493 W/m -3,0 C 0,6 C 4,8 km/h (1 Bft) 100,00 %
22.03.2018 09:24 0,5 C 3,9 C 76 % 1021,3 hPa 0,0 l/m 2,0 km/h (1 Bft) W-SW 252 1 min 0,000 mm 1,2 UV-I 496 W/m -3,2 C 0,5 C 4,8 km/h (1 Bft) 100,00 %
22.03.2018 09:25 0,5 C 3,9 C 78 % 1021,2 hPa 0,0 l/m 5,2 km/h (1 Bft) W 271 1 min 0,000 mm 1,2 UV-I 498 W/m -2,9 C 0,5 C 6,4 km/h (2 Bft) 100,00 %
22.03.2018 09:26 0,6 C 3,9 C 77 % 1021,2 hPa 0,0 l/m 3,9 km/h (1 Bft) SW 228 1 min 0,000 mm 1,2 UV-I 502 W/m -3,0 C 0,6 C 6,4 km/h (2 Bft) 100,00 %
22.03.2018 09:27 0,7 C 3,9 C 77 % 1021,2 hPa 0,0 l/m 5,6 km/h (1 Bft) SW 225 1 min 0,000 mm 1,2 UV-I 504 W/m -2,9 C 0,7 C 6,4 km/h (2 Bft) 100,00 %
22.03.2018 09:28 0,8 C 3,9 C 76 % 1021,2 hPa 0,0 l/m 6,4 km/h (2 Bft) S-SW 202 1 min 0,000 mm 1,2 UV-I 505 W/m -2,9 C 0,8 C 9,7 km/h (2 Bft) 100,00 %
22.03.2018 09:29 0,8 C 3,9 C 76 % 1021,2 hPa 0,0 l/m 6,2 km/h (2 Bft) S-SW 202 1 min 0,000 mm 1,2 UV-I 507 W/m -2,9 C 0,8 C 8,0 km/h (2 Bft) 100,00 %
22.03.2018 09:30 0,7 C 3,9 C 75 % 1021,2 hPa 0,0 l/m 6,4 km/h (2 Bft) W-SW 248 1 min 0,000 mm 1,2 UV-I 510 W/m -3,2 C 0,7 C 8,0 km/h (2 Bft) 100,00 %
22.03.2018 09:31 0,7 C 3,9 C 76 % 1021,1 hPa 0,0 l/m 4,2 km/h (1 Bft) S-SW 193 1 min 0,000 mm 1,2 UV-I 514 W/m -3,0 C 0,7 C 6,4 km/h (2 Bft) 100,00 %
22.03.2018 09:32 0,7 C 3,9 C 76 % 1021,1 hPa 0,0 l/m 4,6 km/h (1 Bft) W-SW 248 1 min 0,000 mm 1,3 UV-I 517 W/m -3,0 C 0,7 C 6,4 km/h (2 Bft) 100,00 %
22.03.2018 09:34 0,7 C 3,9 C 75 % 1021,1 hPa 0,0 l/m 4,6 km/h (1 Bft) SW 231 2 min 0,000 mm 1,3 UV-I 519 W/m -3,2 C 0,7 C 8,0 km/h (2 Bft) 97,87 %
22.03.2018 09:35 0,7 C 3,9 C 75 % 1021,1 hPa 0,0 l/m 6,4 km/h (2 Bft) SW 214 1 min 0,000 mm 1,3 UV-I 518 W/m -3,2 C 0,7 C 9,7 km/h (2 Bft) 100,00 %
22.03.2018 09:36 0,8 C 3,9 C 75 % 1021,1 hPa 0,0 l/m 6,2 km/h (2 Bft) S-SW 213 1 min 0,000 mm 1,3 UV-I 517 W/m -3,1 C 0,8 C 9,7 km/h (2 Bft) 100,00 %
22.03.2018 09:37 0,8 C 3,9 C 74 % 1021,1 hPa 0,0 l/m 7,3 km/h (2 Bft) W-SW 251 1 min 0,000 mm 1,3 UV-I 518 W/m -3,3 C -0,1 C 11,3 km/h (2 Bft) 91,30 %
22.03.2018 09:38 0,8 C 3,9 C 74 % 1021,2 hPa 0,0 l/m 7,7 km/h (2 Bft) SW 227 1 min 0,000 mm 1,3 UV-I 527 W/m -3,3 C -0,5 C 11,3 km/h (2 Bft) 100,00 %
22.03.2018 09:39 0,7 C 3,9 C 73 % 1021,1 hPa 0,0 l/m 5,2 km/h (1 Bft) SW 229 1 min 0,000 mm 1,3 UV-I 529 W/m -3,6 C 0,7 C 8,0 km/h (2 Bft) 95,65 %
22.03.2018 09:40 0,8 C 3,9 C 75 % 1021,1 hPa 0,0 l/m 7,4 km/h (2 Bft) SW 220 1 min 0,000 mm 1,3 UV-I 530 W/m -3,1 C -0,2 C 9,7 km/h (2 Bft) 100,00 %
22.03.2018 09:41 0,9 C 3,9 C 74 % 1021,1 hPa 0,0 l/m 6,1 km/h (2 Bft) S-SW 207 1 min 0,000 mm 1,3 UV-I 531 W/m -3,2 C 0,9 C 9,7 km/h (2 Bft) 95,65 %
22.03.2018 09:42 0,9 C 3,9 C 74 % 1021,1 hPa 0,0 l/m 5,8 km/h (2 Bft) W-SW 242 1 min 0,000 mm 1,3 UV-I 523 W/m -3,2 C 0,9 C 9,7 km/h (2 Bft) 100,00 %
22.03.2018 09:43 1,1 C 3,9 C 73 % 1021,2 hPa 0,0 l/m 6,0 km/h (2 Bft) SW 219 1 min 0,000 mm 1,3 UV-I 528 W/m -3,2 C 1,1 C 8,0 km/h (2 Bft) 100,00 %
22.03.2018 09:44 1,1 C 3,9 C 73 % 1021,2 hPa 0,0 l/m 6,6 km/h (2 Bft) SW 232 1 min 0,000 mm 1,3 UV-I 533 W/m -3,2 C 0,9 C 11,3 km/h (2 Bft) 100,00 %
22.03.2018 09:45 1,0 C 3,9 C 72 % 1021,1 hPa 0,0 l/m 7,2 km/h (2 Bft) W-SW 245 1 min 0,000 mm 1,4 UV-I 533 W/m -3,5 C 0,2 C 11,3 km/h (2 Bft) 95,65 %
22.03.2018 09:46 1,1 C 3,9 C 72 % 1021,1 hPa 0,0 l/m 4,6 km/h (1 Bft) S-SW 200 1 min 0,000 mm 1,4 UV-I 534 W/m -3,4 C 1,1 C 8,0 km/h (2 Bft) 100,00 %
22.03.2018 09:47 1,1 C 3,9 C 72 % 1021,1 hPa 0,0 l/m 5,2 km/h (1 Bft) SW 216 1 min 0,000 mm 1,4 UV-I 534 W/m -3,4 C 1,1 C 8,0 km/h (2 Bft) 100,00 %
22.03.2018 09:48 1,2 C 3,9 C 72 % 1021,0 hPa 0,0 l/m 6,8 km/h (2 Bft) SW 215 1 min 0,000 mm 1,4 UV-I 540 W/m -3,3 C 0,8 C 9,7 km/h (2 Bft) 100,00 %
22.03.2018 09:49 1,2 C 3,9 C 72 % 1021,0 hPa 0,0 l/m 7,8 km/h (2 Bft) W-SW 243 1 min 0,000 mm 1,4 UV-I 544 W/m -3,3 C -0,2 C 11,3 km/h (2 Bft) 100,00 %
22.03.2018 09:50 1,1 C 3,9 C 71 % 1021,0 hPa 0,0 l/m 3,4 km/h (1 Bft) W-SW 244 1 min 0,000 mm 1,4 UV-I 547 W/m -3,6 C 1,1 C 4,8 km/h (1 Bft) 100,00 %
22.03.2018 09:51 1,1 C 3,9 C 71 % 1021,0 hPa 0,0 l/m 2,9 km/h (1 Bft) S-SW 211 1 min 0,000 mm 1,4 UV-I 548 W/m -3,6 C 1,1 C 9,7 km/h (2 Bft) 95,65 %
22.03.2018 09:52 1,1 C 3,9 C 73 % 1021,0 hPa 0,0 l/m 10,1 km/h (2 Bft) SW 225 1 min 0,000 mm 1,4 UV-I 553 W/m -3,2 C -2,3 C 11,3 km/h (2 Bft) 100,00 %
22.03.2018 09:53 1,3 C 3,9 C 72 % 1021,0 hPa 0,0 l/m 6,4 km/h (2 Bft) SW 221 1 min 0,000 mm 1,5 UV-I 558 W/m -3,2 C 1,3 C 9,7 km/h (2 Bft) 95,65 %
22.03.2018 09:54 1,3 C 3,9 C 72 % 1020,9 hPa 0,0 l/m 2,6 km/h (1 Bft) W-SW 238 1 min 0,000 mm 1,5 UV-I 559 W/m -3,2 C 1,3 C 4,8 km/h (1 Bft) 100,00 %
22.03.2018 09:55 1,3 C 3,9 C 71 % 1020,9 hPa 0,0 l/m 2,5 km/h (1 Bft) W-SW 238 1 min 0,000 mm 1,5 UV-I 562 W/m -3,4 C 1,3 C 4,8 km/h (1 Bft) 95,83 %
22.03.2018 09:56 1,2 C 3,9 C 71 % 1020,9 hPa 0,0 l/m 3,7 km/h (1 Bft) S-SW 194 1 min 0,000 mm 1,5 UV-I 565 W/m -3,5 C 1,2 C 8,0 km/h (2 Bft) 100,00 %
22.03.2018 09:57 1,2 C 3,9 C 71 % 1020,9 hPa 0,0 l/m 5,4 km/h (1 Bft) W-SW 253 1 min 0,000 mm 1,5 UV-I 567 W/m -3,5 C 1,2 C 8,0 km/h (2 Bft) 95,83 %
22.03.2018 09:58 1,3 C 3,9 C 71 % 1020,9 hPa 0,0 l/m 6,2 km/h (2 Bft) S-SW 213 1 min 0,000 mm 1,5 UV-I 569 W/m -3,4 C 1,3 C 8,0 km/h (2 Bft) 95,65 %
22.03.2018 09:59 1,3 C 3,9 C 71 % 1020,9 hPa 0,0 l/m 3,8 km/h (1 Bft) S 190 1 min 0,000 mm 1,5 UV-I 571 W/m -3,4 C 1,3 C 8,0 km/h (2 Bft) 96,30 %
22.03.2018 10:00 1,2 C 3,9 C 71 % 1020,9 hPa 0,0 l/m 3,7 km/h (1 Bft) SW 219 1 min 0,000 mm 1,5 UV-I 573 W/m -3,5 C 1,2 C 6,4 km/h (2 Bft) 95,65 %
22.03.2018 10:01 1,3 C 3,9 C 72 % 1020,9 hPa 0,0 l/m 6,2 km/h (2 Bft) S-SW 212 1 min 0,177 mm 1,5 UV-I 577 W/m -3,2 C 1,3 C 9,7 km/h (2 Bft) 100,00 %
22.03.2018 10:02 1,3 C 3,9 C 73 % 1020,9 hPa 0,0 l/m 5,4 km/h (1 Bft) SW 225 1 min 0,000 mm 1,6 UV-I 579 W/m -3,0 C 1,3 C 8,0 km/h (2 Bft) 95,65 %
22.03.2018 10:03 1,3 C 3,9 C 72 % 1020,8 hPa 0,0 l/m 4,0 km/h (1 Bft) S 180 1 min 0,000 mm 1,6 UV-I 582 W/m -3,2 C 1,3 C 6,4 km/h (2 Bft) 100,00 %
22.03.2018 10:04 1,3 C 3,9 C 71 % 1020,8 hPa 0,0 l/m 4,1 km/h (1 Bft) W 263 1 min 0,000 mm 1,6 UV-I 584 W/m -3,4 C 1,3 C 4,8 km/h (1 Bft) 95,65 %
22.03.2018 10:05 1,3 C 3,9 C 71 % 1020,8 hPa 0,0 l/m 3,3 km/h (1 Bft) W-SW 247 1 min 0,000 mm 1,6 UV-I 584 W/m -3,4 C 1,3 C 4,8 km/h (1 Bft) 100,00 %
22.03.2018 10:06 1,5 C 3,9 C 73 % 1020,7 hPa 0,0 l/m 3,8 km/h (1 Bft) S 190 1 min 0,000 mm 1,6 UV-I 584 W/m -2,8 C 1,5 C 6,4 km/h (2 Bft) 95,65 %
22.03.2018 10:07 1,5 C 3,9 C 70 % 1020,7 hPa 0,0 l/m 1,3 km/h (1 Bft) S 190 1 min 0,000 mm 1,6 UV-I 585 W/m -3,4 C 1,5 C 3,2 km/h (1 Bft) 100,00 %
22.03.2018 10:08 1,4 C 3,9 C 69 % 1020,7 hPa 0,0 l/m 1,5 km/h (1 Bft) S 190 1 min 0,000 mm 1,6 UV-I 586 W/m -3,7 C 1,4 C 3,2 km/h (1 Bft) 95,65 %
22.03.2018 10:09 1,4 C 3,9 C 70 % 1020,7 hPa 0,0 l/m 3,1 km/h (1 Bft) SW 234 1 min 0,000 mm 1,6 UV-I 590 W/m -3,5 C 1,4 C 6,4 km/h (2 Bft) 95,83 %
22.03.2018 10:10 1,4 C 3,9 C 71 % 1020,7 hPa 0,0 l/m 4,5 km/h (1 Bft) SW 235 1 min 0,000 mm 1,6 UV-I 593 W/m -3,3 C 1,4 C 6,4 km/h (2 Bft) 100,00 %
22.03.2018 10:11 1,5 C 3,9 C 70 % 1020,7 hPa 0,0 l/m 3,0 km/h (1 Bft) SW 236 1 min 0,000 mm 1,6 UV-I 592 W/m -3,4 C 1,5 C 4,8 km/h (1 Bft) 100,00 %
22.03.2018 10:12 1,6 C 3,9 C 70 % 1020,7 hPa 0,0 l/m 3,4 km/h (1 Bft) SW 234 1 min 0,000 mm 1,6 UV-I 591 W/m -3,3 C 1,6 C 4,8 km/h (1 Bft) 100,00 %
22.03.2018 10:13 1,8 C 3,9 C 70 % 1020,6 hPa 0,0 l/m 6,5 km/h (2 Bft) W-SW 244 1 min 0,000 mm 1,6 UV-I 591 W/m -3,1 C 1,7 C 9,7 km/h (2 Bft) 95,65 %
22.03.2018 10:14 1,9 C 3,9 C 70 % 1020,7 hPa 0,0 l/m 6,4 km/h (2 Bft) S-SW 205 1 min 0,000 mm 1,7 UV-I 593 W/m -3,0 C 1,9 C 9,7 km/h (2 Bft) 100,00 %
22.03.2018 10:15 1,9 C 3,9 C 69 % 1020,6 hPa 0,0 l/m 7,5 km/h (2 Bft) W 271 1 min 0,000 mm 1,7 UV-I 599 W/m -3,2 C 0,8 C 11,3 km/h (2 Bft) 92,31 %
22.03.2018 10:16 1,8 C 3,9 C 67 % 1020,6 hPa 0,0 l/m 3,8 km/h (1 Bft) W 259 1 min 0,000 mm 1,7 UV-I 598 W/m -3,7 C 1,8 C 4,8 km/h (1 Bft) 95,83 %
22.03.2018 10:17 1,7 C 3,9 C 68 % 1020,5 hPa 0,0 l/m 4,5 km/h (1 Bft) S-SW 207 1 min 0,000 mm 1,7 UV-I 599 W/m -3,6 C 1,7 C 6,4 km/h (2 Bft) 95,65 %
22.03.2018 10:18 1,8 C 3,9 C 70 % 1020,5 hPa 0,0 l/m 5,9 km/h (2 Bft) W-SW 257 1 min 0,000 mm 1,7 UV-I 602 W/m -3,1 C 1,8 C 11,3 km/h (2 Bft) 100,00 %
22.03.2018 10:19 1,8 C 3,9 C 69 % 1020,5 hPa 0,0 l/m 6,7 km/h (2 Bft) W-SW 237 1 min 0,000 mm 1,7 UV-I 607 W/m -3,3 C 1,5 C 12,9 km/h (3 Bft) 100,00 %
22.03.2018 10:20 1,8 C 3,9 C 68 % 1020,5 hPa 0,0 l/m 9,1 km/h (2 Bft) W-SW 238 1 min 0,000 mm 1,7 UV-I 609 W/m -3,5 C -0,7 C 11,3 km/h (2 Bft) 100,00 %
22.03.2018 10:21 1,7 C 3,9 C 67 % 1020,5 hPa 0,0 l/m 7,1 km/h (2 Bft) W 267 1 min 0,000 mm 1,7 UV-I 611 W/m -3,8 C 1,0 C 9,7 km/h (2 Bft) 95,65 %
22.03.2018 10:22 1,7 C 3,9 C 69 % 1020,5 hPa 0,0 l/m 3,3 km/h (1 Bft) W 265 1 min 0,000 mm 1,7 UV-I 609 W/m -3,4 C 1,7 C 6,4 km/h (2 Bft) 100,00 %
22.03.2018 10:23 1,8 C 3,9 C 69 % 1020,5 hPa 0,0 l/m 4,0 km/h (1 Bft) W 266 1 min 0,000 mm 1,8 UV-I 612 W/m -3,3 C 1,8 C 4,8 km/h (1 Bft) 92,86 %
22.03.2018 10:24 1,9 C 3,9 C 71 % 1020,4 hPa 0,0 l/m 3,7 km/h (1 Bft) W 260 1 min 0,000 mm 1,8 UV-I 613 W/m -2,8 C 1,9 C 4,8 km/h (1 Bft) 100,00 %
22.03.2018 10:25 2,1 C 3,9 C 70 % 1020,4 hPa 0,0 l/m 4,1 km/h (1 Bft) W 259 1 min 0,000 mm 1,8 UV-I 616 W/m -2,8 C 2,1 C 4,8 km/h (1 Bft) 100,00 %
22.03.2018 10:26 2,1 C 3,9 C 69 % 1020,4 hPa 0,0 l/m 3,0 km/h (1 Bft) N-NW 333 1 min 0,000 mm 1,8 UV-I 614 W/m -3,0 C 2,1 C 4,8 km/h (1 Bft) 100,00 %
22.03.2018 10:27 2,1 C 3,9 C 68 % 1020,4 hPa 0,0 l/m 4,4 km/h (1 Bft) W-NW 292 1 min 0,000 mm 1,8 UV-I 613 W/m -3,2 C 2,1 C 6,4 km/h (2 Bft) 95,65 %
22.03.2018 10:28 2,1 C 3,9 C 69 % 1020,4 hPa 0,0 l/m 4,3 km/h (1 Bft) SW 233 1 min 0,000 mm 1,8 UV-I 612 W/m -3,0 C 2,1 C 8,0 km/h (2 Bft) 100,00 %
22.03.2018 10:29 2,1 C 3,9 C 69 % 1020,4 hPa 0,0 l/m 9,1 km/h (2 Bft) SW 229 1 min 0,000 mm 1,8 UV-I 613 W/m -3,0 C -0,4 C 12,9 km/h (3 Bft) 100,00 %
22.03.2018 10:30 2,1 C 3,9 C 65 % 1020,4 hPa 0,0 l/m 6,9 km/h (2 Bft) SW 236 1 min 0,000 mm 1,8 UV-I 617 W/m -3,8 C 1,6 C 9,7 km/h (2 Bft) 92,59 %
22.03.2018 10:31 2,2 C 3,9 C 66 % 1020,4 hPa 0,0 l/m 8,4 km/h (2 Bft) W-SW 245 1 min 0,000 mm 1,8 UV-I 621 W/m -3,5 C 0,3 C 11,3 km/h (2 Bft) 100,00 %
22.03.2018 10:32 2,2 C 3,9 C 66 % 1020,3 hPa 0,0 l/m 9,1 km/h (2 Bft) W-SW 239 1 min 0,000 mm 1,8 UV-I 624 W/m -3,5 C -0,3 C 11,3 km/h (2 Bft) 100,00 %
22.03.2018 10:33 2,1 C 3,9 C 65 % 1020,3 hPa 0,0 l/m 7,4 km/h (2 Bft) SW 232 1 min 0,000 mm 1,8 UV-I 626 W/m -3,8 C 1,1 C 9,7 km/h (2 Bft) 96,15 %
22.03.2018 10:34 2,1 C 3,9 C 65 % 1020,3 hPa 0,0 l/m 9,7 km/h (2 Bft) W-SW 238 1 min 0,000 mm 1,8 UV-I 623 W/m -3,8 C -0,9 C 12,9 km/h (3 Bft) 100,00 %
22.03.2018 10:35 2,1 C 3,9 C 66 % 1020,3 hPa 0,0 l/m 5,8 km/h (2 Bft) SW 226 1 min 0,000 mm 1,9 UV-I 626 W/m -3,6 C 2,1 C 12,9 km/h (3 Bft) 100,00 %
22.03.2018 10:36 2,1 C 3,9 C 65 % 1020,3 hPa 0,0 l/m 4,8 km/h (1 Bft) SW 217 1 min 0,000 mm 1,9 UV-I 629 W/m -3,8 C 2,1 C 6,4 km/h (2 Bft) 100,00 %
22.03.2018 10:37 2,1 C 3,9 C 65 % 1020,3 hPa 0,0 l/m 2,5 km/h (1 Bft) SW 223 1 min 0,000 mm 1,9 UV-I 632 W/m -3,8 C 2,1 C 4,8 km/h (1 Bft) 95,83 %
22.03.2018 10:38 2,2 C 3,9 C 66 % 1020,2 hPa 0,0 l/m 3,7 km/h (1 Bft) W 259 1 min 0,000 mm 1,9 UV-I 632 W/m -3,5 C 2,2 C 6,4 km/h (2 Bft) 100,00 %
22.03.2018 10:39 2,3 C 3,9 C 65 % 1020,3 hPa 0,0 l/m 5,2 km/h (1 Bft) W 274 1 min 0,000 mm 1,9 UV-I 632 W/m -3,6 C 2,3 C 12,9 km/h (3 Bft) 95,83 %
22.03.2018 10:40 2,4 C 3,9 C 66 % 1020,3 hPa 0,0 l/m 9,9 km/h (2 Bft) W-SW 257 1 min 0,000 mm 1,9 UV-I 631 W/m -3,3 C -0,7 C 12,9 km/h (3 Bft) 100,00 %
22.03.2018 10:41 2,4 C 3,9 C 65 % 1020,2 hPa 0,0 l/m 6,3 km/h (2 Bft) S-SW 209 1 min 0,000 mm 1,9 UV-I 632 W/m -3,5 C 2,4 C 11,3 km/h (2 Bft) 100,00 %
22.03.2018 10:42 2,4 C 3,9 C 64 % 1020,1 hPa 0,0 l/m 5,2 km/h (1 Bft) W-SW 237 1 min 0,000 mm 1,9 UV-I 635 W/m -3,7 C 2,4 C 6,4 km/h (2 Bft) 100,00 %
22.03.2018 10:43 2,3 C 3,9 C 63 % 1020,1 hPa 0,0 l/m 2,1 km/h (1 Bft) N-NO 31 1 min 0,000 mm 1,9 UV-I 633 W/m -4,0 C 2,3 C 4,8 km/h (1 Bft) 100,00 %
22.03.2018 10:44 2,3 C 3,9 C 63 % 1020,1 hPa 0,0 l/m 5,9 km/h (2 Bft) N 355 1 min 0,000 mm 1,9 UV-I 637 W/m -4,0 C 2,3 C 8,0 km/h (2 Bft) 95,65 %
22.03.2018 10:45 2,3 C 3,9 C 64 % 1020,2 hPa 0,0 l/m 3,1 km/h (1 Bft) N 360 1 min 0,000 mm 2,0 UV-I 640 W/m -3,8 C 2,3 C 6,4 km/h (2 Bft) 100,00 %
22.03.2018 10:46 2,3 C 3,9 C 64 % 1020,1 hPa 0,0 l/m 0,5 km/h (0 Bft) N 350 1 min 0,000 mm 1,9 UV-I 636 W/m -3,8 C 2,3 C 1,6 km/h (1 Bft) 95,65 %
22.03.2018 10:47 2,4 C 3,9 C 64 % 1020,1 hPa 0,0 l/m 1,9 km/h (1 Bft) SW 223 1 min 0,000 mm 1,9 UV-I 636 W/m -3,7 C 2,4 C 6,4 km/h (2 Bft) 100,00 %
22.03.2018 10:48 2,5 C 3,9 C 65 % 1020,1 hPa 0,0 l/m 6,4 km/h (2 Bft) W 271 1 min 0,000 mm 2,0 UV-I 635 W/m -3,4 C 2,5 C 9,7 km/h (2 Bft) 100,00 %
22.03.2018 10:49 2,7 C 3,9 C 66 % 1020,1 hPa 0,0 l/m 5,3 km/h (1 Bft) SW 233 1 min 0,000 mm 2,0 UV-I 642 W/m -3,0 C 2,7 C 6,4 km/h (2 Bft) 100,00 %
22.03.2018 10:50 2,7 C 3,9 C 67 % 1020,1 hPa 0,0 l/m 4,2 km/h (1 Bft) W 259 1 min 0,000 mm 2,0 UV-I 645 W/m -2,8 C 2,7 C 4,8 km/h (1 Bft) 100,00 %
22.03.2018 10:51 2,9 C 3,9 C 66 % 1020,1 hPa 0,0 l/m 6,2 km/h (2 Bft) W 273 1 min 0,000 mm 2,0 UV-I 648 W/m -2,8 C 2,9 C 9,7 km/h (2 Bft) 100,00 %
22.03.2018 10:52 2,8 C 3,9 C 64 % 1020,1 hPa 0,0 l/m 8,8 km/h (2 Bft) W 259 1 min 0,000 mm 2,0 UV-I 649 W/m -3,3 C 0,6 C 12,9 km/h (3 Bft) 100,00 %
22.03.2018 10:53 2,7 C 3,9 C 64 % 1020,1 hPa 0,0 l/m 9,4 km/h (2 Bft) SW 220 1 min 0,000 mm 2,0 UV-I 650 W/m -3,4 C 0,0 C 12,9 km/h (3 Bft) 95,65 %
22.03.2018 10:54 2,8 C 3,9 C 65 % 1020,1 hPa 0,0 l/m 5,5 km/h (1 Bft) SW 236 1 min 0,000 mm 2,0 UV-I 649 W/m -3,1 C 2,8 C 6,4 km/h (2 Bft) 100,00 %
22.03.2018 10:55 2,8 C 3,9 C 65 % 1020,1 hPa 0,0 l/m 4,8 km/h (1 Bft) SW 230 1 min 0,000 mm 2,0 UV-I 646 W/m -3,1 C 2,8 C 6,4 km/h (2 Bft) 95,65 %
22.03.2018 10:56 2,7 C 3,9 C 63 % 1020,1 hPa 0,0 l/m 5,6 km/h (1 Bft) S 186 1 min 0,000 mm 2,0 UV-I 646 W/m -3,6 C 2,7 C 8,0 km/h (2 Bft) 100,00 %
22.03.2018 10:57 2,6 C 3,9 C 64 % 1020,0 hPa 0,0 l/m 6,9 km/h (2 Bft) W-SW 252 1 min 0,000 mm 2,0 UV-I 646 W/m -3,5 C 2,1 C 12,9 km/h (3 Bft) 100,00 %
22.03.2018 10:58 2,5 C 3,9 C 63 % 1020,0 hPa 0,0 l/m 7,6 km/h (2 Bft) W-SW 240 1 min 0,000 mm 2,0 UV-I 649 W/m -3,8 C 1,3 C 11,3 km/h (2 Bft) 95,83 %
22.03.2018 10:59 2,3 C 3,9 C 63 % 1020,0 hPa 0,0 l/m 2,5 km/h (1 Bft) W-SW 240 1 min 0,000 mm 2,0 UV-I 652 W/m -4,0 C 2,3 C 3,2 km/h (1 Bft) 100,00 %
22.03.2018 11:00 2,2 C 3,9 C 63 % 1019,9 hPa 0,0 l/m 3,8 km/h (1 Bft) W 276 1 min 0,229 mm 2,0 UV-I 653 W/m -4,1 C 2,2 C 6,4 km/h (2 Bft) 100,00 %
22.03.2018 11:01 2,4 C 3,9 C 65 % 1019,9 hPa 0,0 l/m 7,0 km/h (2 Bft) S-SW 204 1 min 0,000 mm 2,1 UV-I 655 W/m -3,5 C 1,8 C 9,7 km/h (2 Bft) 82,61 %
22.03.2018 11:02 2,7 C 3,9 C 65 % 1019,8 hPa 0,0 l/m 9,3 km/h (2 Bft) W-NW 293 1 min 0,000 mm 2,1 UV-I 655 W/m -3,2 C 0,1 C 11,3 km/h (2 Bft) 95,83 %
22.03.2018 11:03 2,9 C 3,9 C 65 % 1019,9 hPa 0,0 l/m 7,5 km/h (2 Bft) S-SW 198 1 min 0,000 mm 2,1 UV-I 656 W/m -3,0 C 1,9 C 11,3 km/h (2 Bft) 100,00 %
22.03.2018 11:04 2,9 C 3,9 C 62 % 1019,9 hPa 0,0 l/m 3,8 km/h (1 Bft) S-SO 165 1 min 0,000 mm 2,1 UV-I 653 W/m -3,6 C 2,9 C 8,0 km/h (2 Bft) 95,83 %
22.03.2018 11:05 2,8 C 3,9 C 63 % 1019,8 hPa 0,0 l/m 7,0 km/h (2 Bft) SW 227 1 min 0,000 mm 2,1 UV-I 656 W/m -3,5 C 2,2 C 11,3 km/h (2 Bft) 95,65 %
22.03.2018 11:06 2,8 C 3,9 C 62 % 1019,8 hPa 0,0 l/m 5,9 km/h (2 Bft) SW 221 1 min 0,000 mm 2,1 UV-I 656 W/m -3,7 C 2,8 C 11,3 km/h (2 Bft) 100,00 %
22.03.2018 11:07 2,8 C 3,9 C 61 % 1019,8 hPa 0,0 l/m 10,0 km/h (2 Bft) SW 223 1 min 0,000 mm 2,1 UV-I 659 W/m -4,0 C -0,4 C 14,5 km/h (3 Bft) 95,65 %
22.03.2018 11:08 2,8 C 3,9 C 62 % 1019,8 hPa 0,0 l/m 9,1 km/h (2 Bft) SW 214 1 min 0,000 mm 2,1 UV-I 661 W/m -3,7 C 0,4 C 11,3 km/h (2 Bft) 100,00 %
22.03.2018 11:09 2,8 C 3,9 C 63 % 1019,8 hPa 0,0 l/m 6,9 km/h (2 Bft) W-SW 242 1 min 0,000 mm 2,1 UV-I 661 W/m -3,5 C 2,3 C 11,3 km/h (2 Bft) 95,65 %
22.03.2018 11:10 2,9 C 3,9 C 64 % 1019,8 hPa 0,0 l/m 7,8 km/h (2 Bft) W-SW 240 1 min 0,000 mm 2,1 UV-I 657 W/m -3,2 C 1,6 C 12,9 km/h (3 Bft) 100,00 %
22.03.2018 11:11 2,8 C 3,9 C 60 % 1019,8 hPa 0,0 l/m 8,5 km/h (2 Bft) SW 230 1 min 0,000 mm 2,1 UV-I 659 W/m -4,2 C 0,9 C 11,3 km/h (2 Bft) 95,65 %
22.03.2018 11:12 2,8 C 3,9 C 60 % 1019,8 hPa 0,0 l/m 6,1 km/h (2 Bft) SW 225 1 min 0,000 mm 2,1 UV-I 661 W/m -4,2 C 2,8 C 8,0 km/h (2 Bft) 100,00 %
22.03.2018 11:13 2,9 C 3,9 C 63 % 1019,7 hPa 0,0 l/m 9,0 km/h (2 Bft) W-SW 251 1 min 0,000 mm 2,1 UV-I 667 W/m -3,4 C 0,5 C 11,3 km/h (2 Bft) 95,83 %
22.03.2018 11:14 3,1 C 3,9 C 61 % 1019,7 hPa 0,0 l/m 7,5 km/h (2 Bft) SW 221 1 min 0,000 mm 2,1 UV-I 667 W/m -3,7 C 2,1 C 9,7 km/h (2 Bft) 100,00 %
22.03.2018 11:15 3,1 C 3,9 C 61 % 1019,7 hPa 0,0 l/m 6,2 km/h (2 Bft) S-SW 203 1 min 0,000 mm 2,1 UV-I 664 W/m -3,7 C 3,1 C 11,3 km/h (2 Bft) 95,83 %
22.03.2018 11:16 2,9 C 3,9 C 60 % 1019,7 hPa 0,0 l/m 2,1 km/h (1 Bft) W-SW 252 1 min 0,000 mm 2,1 UV-I 664 W/m -4,1 C 2,9 C 3,2 km/h (1 Bft) 95,65 %
22.03.2018 11:17 2,8 C 3,9 C 59 % 1019,7 hPa 0,0 l/m 3,4 km/h (1 Bft) W-NW 301 1 min 0,000 mm 2,2 UV-I 668 W/m -4,4 C 2,8 C 6,4 km/h (2 Bft) 91,67 %
22.03.2018 11:18 2,8 C 3,9 C 61 % 1019,6 hPa 0,0 l/m 3,7 km/h (1 Bft) SW 225 1 min 0,000 mm 2,2 UV-I 671 W/m -4,0 C 2,8 C 6,4 km/h (2 Bft) 100,00 %
22.03.2018 11:19 2,8 C 3,9 C 64 % 1019,6 hPa 0,0 l/m 6,3 km/h (2 Bft) W-SW 240 1 min 0,000 mm 2,2 UV-I 674 W/m -3,3 C 2,8 C 11,3 km/h (2 Bft) 91,67 %
22.03.2018 11:20 3,0 C 3,9 C 64 % 1019,6 hPa 0,0 l/m 10,3 km/h (2 Bft) W-SW 244 1 min 0,000 mm 2,2 UV-I 674 W/m -3,1 C -0,4 C 14,5 km/h (3 Bft) 100,00 %
22.03.2018 11:21 3,1 C 3,9 C 61 % 1019,6 hPa 0,0 l/m 11,2 km/h (2 Bft) SW 231 1 min 0,000 mm 2,2 UV-I 676 W/m -3,7 C -0,9 C 14,5 km/h (3 Bft) 91,67 %
22.03.2018 11:22 3,0 C 3,9 C 59 % 1019,6 hPa 0,0 l/m 7,4 km/h (2 Bft) S 189 1 min 0,000 mm 2,2 UV-I 679 W/m -4,2 C 2,1 C 9,7 km/h (2 Bft) 91,30 %
22.03.2018 11:23 2,9 C 3,9 C 60 % 1019,6 hPa 0,0 l/m 7,2 km/h (2 Bft) W-SW 254 1 min 0,000 mm 2,2 UV-I 678 W/m -4,1 C 2,1 C 11,3 km/h (2 Bft) 95,83 %
22.03.2018 11:24 2,9 C 3,9 C 62 % 1019,5 hPa 0,0 l/m 12,4 km/h (3 Bft) W 271 1 min 0,000 mm 2,2 UV-I 674 W/m -3,6 C -1,9 C 16,1 km/h (3 Bft) 95,65 %
22.03.2018 11:25 3,0 C 3,9 C 61 % 1019,6 hPa 0,0 l/m 8,3 km/h (2 Bft) W-NW 302 1 min 0,000 mm 2,2 UV-I 670 W/m -3,8 C 1,2 C 11,3 km/h (2 Bft) 96,30 %
22.03.2018 11:26 3,0 C 3,9 C 61 % 1019,5 hPa 0,0 l/m 5,1 km/h (1 Bft) W-SW 250 1 min 0,000 mm 2,2 UV-I 674 W/m -3,8 C 3,0 C 6,4 km/h (2 Bft) 91,30 %
22.03.2018 11:27 3,0 C 3,9 C 61 % 1019,4 hPa 0,0 l/m 4,0 km/h (1 Bft) S 189 1 min 0,000 mm 2,2 UV-I 673 W/m -3,8 C 3,0 C 6,4 km/h (2 Bft) 100,00 %
22.03.2018 11:28 2,9 C 3,9 C 60 % 1019,4 hPa 0,0 l/m 6,0 km/h (2 Bft) W 268 1 min 0,000 mm 2,2 UV-I 673 W/m -4,1 C 2,9 C 12,9 km/h (3 Bft) 86,96 %
22.03.2018 11:29 2,9 C 3,9 C 61 % 1019,4 hPa 0,0 l/m 11,1 km/h (2 Bft) W 279 1 min 0,000 mm 2,2 UV-I 670 W/m -3,9 C -1,0 C 14,5 km/h (3 Bft) 100,00 %
22.03.2018 11:30 2,8 C 3,9 C 60 % 1019,4 hPa 0,0 l/m 9,9 km/h (2 Bft) W-SW 257 1 min 0,000 mm 2,2 UV-I 669 W/m -4,2 C -0,3 C 12,9 km/h (3 Bft) 88,46 %
22.03.2018 11:31 2,9 C 3,9 C 60 % 1019,4 hPa 0,0 l/m 6,0 km/h (2 Bft) W-NW 294 1 min 0,000 mm 2,2 UV-I 671 W/m -4,1 C 2,9 C 9,7 km/h (2 Bft) 91,67 %
22.03.2018 11:32 2,8 C 3,9 C 62 % 1019,4 hPa 0,0 l/m 5,2 km/h (1 Bft) SW 221 1 min 0,000 mm 2,2 UV-I 674 W/m -3,7 C 2,8 C 6,4 km/h (2 Bft) 95,83 %
22.03.2018 11:33 2,8 C 3,9 C 61 % 1019,4 hPa 0,0 l/m 2,2 km/h (1 Bft) W-SW 244 1 min 0,000 mm 2,2 UV-I 677 W/m -4,0 C 2,8 C 4,8 km/h (1 Bft) 91,30 %
22.03.2018 11:34 2,8 C 3,9 C 62 % 1019,4 hPa 0,0 l/m 3,8 km/h (1 Bft) W 275 1 min 0,000 mm 2,2 UV-I 679 W/m -3,7 C 2,8 C 6,4 km/h (2 Bft) 100,00 %
22.03.2018 11:35 2,8 C 3,9 C 61 % 1019,4 hPa 0,0 l/m 8,7 km/h (2 Bft) W-NW 296 1 min 0,000 mm 2,2 UV-I 677 W/m -4,0 C 0,7 C 12,9 km/h (3 Bft) 81,82 %
22.03.2018 11:36 2,9 C 3,9 C 62 % 1019,4 hPa 0,0 l/m 3,9 km/h (1 Bft) W-SW 242 1 min 0,000 mm 2,2 UV-I 672 W/m -3,6 C 2,9 C 6,4 km/h (2 Bft) 100,00 %
22.03.2018 11:37 2,9 C 3,9 C 62 % 1019,4 hPa 0,0 l/m 10,6 km/h (2 Bft) W 278 1 min 0,000 mm 2,2 UV-I 672 W/m -3,6 C -0,7 C 16,1 km/h (3 Bft) 81,82 %
22.03.2018 11:38 2,9 C 3,9 C 61 % 1019,4 hPa 0,0 l/m 6,6 km/h (2 Bft) W 274 1 min 0,000 mm 2,2 UV-I 671 W/m -3,9 C 2,7 C 11,3 km/h (2 Bft) 100,00 %
22.03.2018 11:39 3,1 C 3,9 C 63 % 1019,4 hPa 0,0 l/m 6,7 km/h (2 Bft) N-NW 331 1 min 0,000 mm 2,2 UV-I 668 W/m -3,2 C 2,8 C 11,3 km/h (2 Bft) 95,65 %
22.03.2018 11:40 3,2 C 3,9 C 63 % 1019,4 hPa 0,0 l/m 8,2 km/h (2 Bft) W-NW 299 1 min 0,000 mm 2,2 UV-I 674 W/m -3,1 C 1,5 C 12,9 km/h (3 Bft) 100,00 %
22.03.2018 11:41 3,2 C 3,9 C 62 % 1019,3 hPa 0,0 l/m 3,4 km/h (1 Bft) W 272 1 min 0,000 mm 2,2 UV-I 683 W/m -3,4 C 3,2 C 6,4 km/h (2 Bft) 95,65 %
22.03.2018 11:42 3,2 C 3,9 C 62 % 1019,4 hPa 0,0 l/m 5,8 km/h (2 Bft) NW 320 1 min 0,000 mm 2,2 UV-I 678 W/m -3,4 C 3,2 C 9,7 km/h (2 Bft) 100,00 %
22.03.2018 11:43 3,3 C 3,9 C 62 % 1019,3 hPa 0,0 l/m 5,6 km/h (1 Bft) W-NW 295 1 min 0,000 mm 2,2 UV-I 669 W/m -3,3 C 3,3 C 8,0 km/h (2 Bft) 95,83 %
22.03.2018 11:44 3,2 C 3,9 C 62 % 1019,3 hPa 0,0 l/m 5,1 km/h (1 Bft) N-NW 342 1 min 0,000 mm 2,2 UV-I 668 W/m -3,4 C 3,2 C 8,0 km/h (2 Bft) 96,15 %
22.03.2018 11:45 3,3 C 3,9 C 63 % 1019,2 hPa 0,0 l/m 9,2 km/h (2 Bft) NW 304 1 min 0,000 mm 2,2 UV-I 674 W/m -3,1 C 0,8 C 12,9 km/h (3 Bft) 100,00 %
22.03.2018 11:46 3,2 C 3,9 C 62 % 1019,2 hPa 0,0 l/m 7,2 km/h (2 Bft) NW 312 1 min 0,000 mm 2,2 UV-I 683 W/m -3,4 C 2,4 C 11,3 km/h (2 Bft) 92,31 %
22.03.2018 11:47 3,2 C 3,9 C 61 % 1019,1 hPa 0,0 l/m 2,7 km/h (1 Bft) NW 313 1 min 0,000 mm 2,2 UV-I 686 W/m -3,6 C 3,2 C 4,8 km/h (1 Bft) 100,00 %
22.03.2018 11:48 3,2 C 3,9 C 63 % 1019,1 hPa 0,0 l/m 4,0 km/h (1 Bft) N-NW 334 1 min 0,000 mm 2,2 UV-I 684 W/m -3,1 C 3,2 C 4,8 km/h (1 Bft) 96,15 %
22.03.2018 11:49 3,2 C 3,9 C 61 % 1019,1 hPa 0,0 l/m 3,6 km/h (1 Bft) W-NW 286 1 min 0,000 mm 2,2 UV-I 683 W/m -3,6 C 3,2 C 6,4 km/h (2 Bft) 100,00 %
22.03.2018 11:50 3,2 C 3,9 C 60 % 1019,1 hPa 0,0 l/m 6,2 km/h (2 Bft) W-SW 238 1 min 0,000 mm 2,2 UV-I 691 W/m -3,8 C 3,2 C 9,7 km/h (2 Bft) 95,83 %
22.03.2018 11:51 3,2 C 3,9 C 60 % 1019,0 hPa 0,0 l/m 7,3 km/h (2 Bft) W 273 1 min 0,000 mm 2,2 UV-I 698 W/m -3,8 C 2,4 C 11,3 km/h (2 Bft) 95,83 %
22.03.2018 11:52 3,2 C 3,9 C 60 % 1019,0 hPa 0,0 l/m 4,6 km/h (1 Bft) NW 313 1 min 0,000 mm 2,2 UV-I 700 W/m -3,8 C 3,2 C 8,0 km/h (2 Bft) 100,00 %
22.03.2018 11:53 3,2 C 3,9 C 60 % 1019,0 hPa 0,0 l/m 5,9 km/h (2 Bft) W-SW 255 1 min 0,000 mm 2,2 UV-I 703 W/m -3,8 C 3,2 C 12,9 km/h (3 Bft) 91,67 %
22.03.2018 11:54 3,3 C 3,9 C 61 % 1018,9 hPa 0,0 l/m 4,4 km/h (1 Bft) SW 233 1 min 0,000 mm 2,3 UV-I 703 W/m -3,5 C 3,3 C 9,7 km/h (2 Bft) 95,65 %
22.03.2018 11:55 3,4 C 3,9 C 61 % 1018,9 hPa 0,0 l/m 6,2 km/h (2 Bft) SW 215 1 min 0,000 mm 2,2 UV-I 699 W/m -3,4 C 3,4 C 11,3 km/h (2 Bft) 100,00 %
22.03.2018 11:56 3,5 C 3,9 C 61 % 1018,9 hPa 0,0 l/m 5,4 km/h (1 Bft) SW 227 1 min 0,000 mm 2,2 UV-I 697 W/m -3,3 C 3,5 C 8,0 km/h (2 Bft) 95,65 %
22.03.2018 11:57 3,7 C 3,9 C 62 % 1018,9 hPa 0,0 l/m 8,6 km/h (2 Bft) W 261 1 min 0,000 mm 2,2 UV-I 692 W/m -2,9 C 1,7 C 12,9 km/h (3 Bft) 95,83 %
22.03.2018 11:58 3,7 C 3,9 C 59 % 1018,9 hPa 0,0 l/m 11,7 km/h (2 Bft) W-SW 253 1 min 0,000 mm 2,2 UV-I 683 W/m -3,6 C -0,5 C 17,7 km/h (3 Bft) 100,00 %
22.03.2018 11:59 3,7 C 3,9 C 58 % 1018,9 hPa 0,0 l/m 7,8 km/h (2 Bft) N-NW 347 1 min 0,000 mm 2,2 UV-I 693 W/m -3,8 C 2,4 C 12,9 km/h (3 Bft) 94,74 %
22.03.2018 12:00 3,7 C 3,9 C 60 % 1018,8 hPa 0,0 l/m 6,1 km/h (2 Bft) NW 315 1 min 0,279 mm 2,2 UV-I 693 W/m -3,3 C 3,7 C 8,0 km/h (2 Bft) 100,00 %
22.03.2018 12:01 3,8 C 3,9 C 62 % 1018,9 hPa 0,0 l/m 5,0 km/h (1 Bft) NW 304 1 min 0,000 mm 2,2 UV-I 693 W/m -2,8 C 3,8 C 6,4 km/h (2 Bft) 91,67 %
22.03.2018 12:02 3,8 C 3,9 C 59 % 1018,8 hPa 0,0 l/m 5,0 km/h (1 Bft) N-NW 330 1 min 0,000 mm 2,2 UV-I 663 W/m -3,5 C 3,8 C 8,0 km/h (2 Bft) 100,00 %
22.03.2018 12:03 3,7 C 3,9 C 59 % 1018,8 hPa 0,0 l/m 7,0 km/h (2 Bft) W 266 1 min 0,000 mm 2,2 UV-I 689 W/m -3,6 C 3,1 C 16,1 km/h (3 Bft) 95,83 %
22.03.2018 12:04 3,6 C 3,9 C 58 % 1018,8 hPa 0,0 l/m 10,9 km/h (2 Bft) W 271 1 min 0,000 mm 2,2 UV-I 693 W/m -3,9 C -0,1 C 14,5 km/h (3 Bft) 95,65 %
22.03.2018 12:05 3,6 C 3,9 C 57 % 1018,8 hPa 0,0 l/m 7,1 km/h (2 Bft) W-NW 300 1 min 0,000 mm 2,2 UV-I 694 W/m -4,1 C 3,0 C 11,3 km/h (2 Bft) 100,00 %
22.03.2018 12:06 3,5 C 3,9 C 57 % 1018,8 hPa 0,0 l/m 9,5 km/h (2 Bft) NW 305 1 min 0,000 mm 2,2 UV-I 704 W/m -4,2 C 0,8 C 12,9 km/h (3 Bft) 95,65 %
22.03.2018 12:07 3,6 C 3,9 C 58 % 1018,7 hPa 0,0 l/m 3,6 km/h (1 Bft) W-SW 250 1 min 0,000 mm 2,3 UV-I 713 W/m -3,9 C 3,6 C 6,4 km/h (2 Bft) 100,00 %
22.03.2018 12:08 3,6 C 3,9 C 58 % 1018,7 hPa 0,0 l/m 5,9 km/h (2 Bft) NW 305 1 min 0,000 mm 2,3 UV-I 715 W/m -3,9 C 3,6 C 11,3 km/h (2 Bft) 95,83 %
22.03.2018 12:09 3,7 C 3,9 C 61 % 1018,6 hPa 0,0 l/m 8,7 km/h (2 Bft) W 263 1 min 0,000 mm 2,3 UV-I 712 W/m -3,1 C 1,6 C 14,5 km/h (3 Bft) 100,00 %
22.03.2018 12:10 3,8 C 3,9 C 60 % 1018,7 hPa 0,0 l/m 14,2 km/h (3 Bft) W-SW 245 1 min 0,000 mm 2,2 UV-I 701 W/m -3,2 C -1,9 C 19,3 km/h (3 Bft) 95,83 %
22.03.2018 12:11 3,9 C 3,9 C 59 % 1018,6 hPa 0,0 l/m 6,2 km/h (2 Bft) S-SW 194 1 min 0,000 mm 2,2 UV-I 701 W/m -3,4 C 3,9 C 11,3 km/h (2 Bft) 95,65 %
22.03.2018 12:12 3,8 C 3,9 C 57 % 1018,6 hPa 0,0 l/m 7,4 km/h (2 Bft) S-SW 198 1 min 0,000 mm 2,3 UV-I 704 W/m -3,9 C 2,9 C 11,3 km/h (2 Bft) 95,83 %
22.03.2018 12:13 3,7 C 3,9 C 56 % 1018,5 hPa 0,0 l/m 5,8 km/h (2 Bft) NW 309 1 min 0,000 mm 2,3 UV-I 708 W/m -4,2 C 3,7 C 9,7 km/h (2 Bft) 100,00 %
22.03.2018 12:14 3,6 C 3,9 C 58 % 1018,5 hPa 0,0 l/m 7,7 km/h (2 Bft) S-SW 207 1 min 0,000 mm 2,2 UV-I 713 W/m -3,9 C 2,4 C 12,9 km/h (3 Bft) 95,83 %
22.03.2018 12:15 3,6 C 3,9 C 59 % 1018,5 hPa 0,0 l/m 10,5 km/h (2 Bft) SW 218 1 min 0,000 mm 2,2 UV-I 716 W/m -3,6 C 0,2 C 16,1 km/h (3 Bft) 95,65 %
22.03.2018 12:16 3,7 C 3,9 C 59 % 1018,4 hPa 0,0 l/m 13,3 km/h (3 Bft) W-SW 245 1 min 0,000 mm 2,2 UV-I 712 W/m -3,6 C -1,5 C 19,3 km/h (3 Bft) 100,00 %
22.03.2018 12:17 3,8 C 3,9 C 58 % 1018,4 hPa 0,0 l/m 7,2 km/h (2 Bft) W 267 1 min 0,000 mm 2,2 UV-I 713 W/m -3,7 C 3,1 C 12,9 km/h (3 Bft) 95,65 %
22.03.2018 12:18 3,8 C 3,9 C 60 % 1018,4 hPa 0,0 l/m 7,0 km/h (2 Bft) W-SW 248 1 min 0,000 mm 2,2 UV-I 711 W/m -3,2 C 3,3 C 11,3 km/h (2 Bft) 100,00 %
22.03.2018 12:19 4,0 C 3,9 C 60 % 1018,4 hPa 0,0 l/m 8,7 km/h (2 Bft) W 267 1 min 0,000 mm 2,2 UV-I 710 W/m -3,0 C 2,0 C 12,9 km/h (3 Bft) 92,86 %
22.03.2018 12:20 4,1 C 3,9 C 59 % 1018,4 hPa 0,0 l/m 5,7 km/h (1 Bft) S 185 1 min 0,000 mm 2,2 UV-I 714 W/m -3,2 C 4,1 C 9,7 km/h (2 Bft) 100,00 %
22.03.2018 12:21 4,1 C 3,9 C 58 % 1018,3 hPa 0,0 l/m 6,9 km/h (2 Bft) W-SW 253 1 min 0,000 mm 2,2 UV-I 727 W/m -3,4 C 3,7 C 11,3 km/h (2 Bft) 91,67 %
22.03.2018 12:22 4,1 C 3,9 C 60 % 1018,3 hPa 0,0 l/m 9,1 km/h (2 Bft) S-SW 192 1 min 0,000 mm 2,3 UV-I 746 W/m -3,0 C 1,8 C 12,9 km/h (3 Bft) 100,00 %
22.03.2018 12:23 3,9 C 3,9 C 58 % 1018,3 hPa 0,0 l/m 5,9 km/h (2 Bft) SW 228 1 min 0,000 mm 2,0 UV-I 734 W/m -3,6 C 3,9 C 9,7 km/h (2 Bft) 95,83 %
22.03.2018 12:24 3,8 C 3,9 C 57 % 1018,2 hPa 0,0 l/m 7,8 km/h (2 Bft) S-SO 155 1 min 0,000 mm 1,8 UV-I 717 W/m -3,9 C 2,5 C 12,9 km/h (3 Bft) 100,00 %
22.03.2018 12:25 3,7 C 3,9 C 58 % 1018,2 hPa 0,0 l/m 8,9 km/h (2 Bft) S-SW 192 1 min 0,000 mm 1,9 UV-I 717 W/m -3,8 C 1,5 C 12,9 km/h (3 Bft) 91,67 %
22.03.2018 12:26 3,8 C 3,9 C 59 % 1018,2 hPa 0,0 l/m 16,7 km/h (3 Bft) SW 214 1 min 0,000 mm 2,1 UV-I 717 W/m -3,5 C -3,2 C 19,3 km/h (3 Bft) 100,00 %
22.03.2018 12:27 3,8 C 3,9 C 59 % 1018,2 hPa 0,0 l/m 10,8 km/h (2 Bft) SW 214 1 min 0,000 mm 2,2 UV-I 717 W/m -3,5 C 0,2 C 14,5 km/h (3 Bft) 92,59 %
22.03.2018 12:28 3,8 C 3,9 C 58 % 1018,2 hPa 0,0 l/m 10,8 km/h (2 Bft) S-SW 196 1 min 0,000 mm 2,2 UV-I 717 W/m -3,7 C 0,2 C 19,3 km/h (3 Bft) 95,65 %
22.03.2018 12:29 3,9 C 3,9 C 60 % 1018,2 hPa 0,0 l/m 12,0 km/h (2 Bft) W-SW 246 1 min 0,000 mm 2,2 UV-I 727 W/m -3,1 C -0,5 C 16,1 km/h (3 Bft) 100,00 %
22.03.2018 12:30 3,9 C 4,4 C 58 % 1018,2 hPa 0,0 l/m 8,0 km/h (2 Bft) W 275 1 min 0,000 mm 2,2 UV-I 737 W/m -3,6 C 2,4 C 12,9 km/h (3 Bft) 95,65 %
22.03.2018 12:31 3,9 C 4,4 C 58 % 1018,2 hPa 0,0 l/m 5,7 km/h (1 Bft) W 280 1 min 0,000 mm 2,2 UV-I 737 W/m -3,6 C 3,9 C 9,7 km/h (2 Bft) 100,00 %
22.03.2018 12:32 3,9 C 4,4 C 57 % 1018,1 hPa 0,0 l/m 5,0 km/h (1 Bft) W-SW 257 1 min 0,000 mm 2,2 UV-I 733 W/m -3,8 C 3,9 C 9,7 km/h (2 Bft) 91,30 %
22.03.2018 12:33 3,9 C 4,4 C 57 % 1018,1 hPa 0,0 l/m 5,5 km/h (1 Bft) SW 216 1 min 0,000 mm 2,2 UV-I 724 W/m -3,8 C 3,9 C 8,0 km/h (2 Bft) 100,00 %
22.03.2018 12:34 3,9 C 4,4 C 58 % 1018,1 hPa 0,0 l/m 7,0 km/h (2 Bft) S 186 1 min 0,000 mm 2,0 UV-I 718 W/m -3,6 C 3,4 C 11,3 km/h (2 Bft) 91,30 %
22.03.2018 12:35 3,8 C 3,9 C 57 % 1018,1 hPa 0,0 l/m 8,9 km/h (2 Bft) S-SO 164 1 min 0,000 mm 2,2 UV-I 730 W/m -3,9 C 1,6 C 11,3 km/h (2 Bft) 100,00 %
22.03.2018 12:36 3,7 C 3,9 C 57 % 1018,0 hPa 0,0 l/m 5,8 km/h (2 Bft) S-SW 199 1 min 0,000 mm 2,2 UV-I 727 W/m -4,0 C 3,7 C 9,7 km/h (2 Bft) 95,65 %
22.03.2018 12:37 3,6 C 3,9 C 57 % 1018,0 hPa 0,0 l/m 4,1 km/h (1 Bft) S 169 1 min 0,000 mm 2,2 UV-I 722 W/m -4,1 C 3,6 C 14,5 km/h (3 Bft) 100,00 %
22.03.2018 12:38 3,7 C 3,9 C 60 % 1018,0 hPa 0,0 l/m 10,1 km/h (2 Bft) W 265 1 min 0,000 mm 2,2 UV-I 717 W/m -3,3 C 0,6 C 14,5 km/h (3 Bft) 96,15 %
22.03.2018 12:39 3,8 C 3,9 C 60 % 1018,0 hPa 0,0 l/m 8,0 km/h (2 Bft) S-SW 196 1 min 0,000 mm 2,2 UV-I 713 W/m -3,2 C 2,3 C 11,3 km/h (2 Bft) 95,83 %
22.03.2018 12:40 3,8 C 3,9 C 60 % 1017,9 hPa 0,0 l/m 3,4 km/h (1 Bft) S-SW 194 1 min 0,000 mm 2,2 UV-I 708 W/m -3,2 C 3,8 C 6,4 km/h (2 Bft) 100,00 %
22.03.2018 12:41 3,8 C 3,9 C 58 % 1017,9 hPa 0,0 l/m 2,2 km/h (1 Bft) S 182 1 min 0,000 mm 2,2 UV-I 708 W/m -3,7 C 3,8 C 4,8 km/h (1 Bft) 91,67 %
22.03.2018 12:42 4,2 C 4,4 C 63 % 1017,9 hPa 0,0 l/m 0,9 km/h (0 Bft) S 182 1 min 0,000 mm 2,2 UV-I 707 W/m -2,2 C 4,2 C 3,2 km/h (1 Bft) 100,00 %
22.03.2018 12:43 4,3 C 4,4 C 60 % 1017,9 hPa 0,0 l/m 0,9 km/h (0 Bft) S 182 1 min 0,000 mm 2,2 UV-I 705 W/m -2,8 C 4,3 C 3,2 km/h (1 Bft) 95,65 %
22.03.2018 12:44 4,3 C 4,4 C 59 % 1017,9 hPa 0,0 l/m 4,2 km/h (1 Bft) W-SW 255 1 min 0,000 mm 2,2 UV-I 705 W/m -3,0 C 4,3 C 8,0 km/h (2 Bft) 95,83 %
22.03.2018 12:45 4,4 C 4,4 C 57 % 1017,9 hPa 0,0 l/m 5,6 km/h (1 Bft) W-NW 296 1 min 0,000 mm 2,2 UV-I 707 W/m -3,4 C 4,4 C 9,7 km/h (2 Bft) 91,30 %
22.03.2018 12:46 4,5 C 4,4 C 61 % 1017,8 hPa 0,0 l/m 4,2 km/h (1 Bft) W-NW 291 1 min 0,000 mm 2,2 UV-I 706 W/m -2,4 C 4,5 C 6,4 km/h (2 Bft) 100,00 %
22.03.2018 12:47 4,4 C 3,9 C 56 % 1017,8 hPa 0,0 l/m 4,2 km/h (1 Bft) W 278 1 min 0,000 mm 2,2 UV-I 705 W/m -3,6 C 4,4 C 11,3 km/h (2 Bft) 95,65 %
22.03.2018 12:48 4,4 C 3,9 C 56 % 1017,7 hPa 0,0 l/m 9,8 km/h (2 Bft) W-SW 254 1 min 0,000 mm 2,2 UV-I 707 W/m -3,6 C 1,6 C 12,9 km/h (3 Bft) 100,00 %
22.03.2018 12:49 4,3 C 4,4 C 56 % 1017,7 hPa 0,0 l/m 8,4 km/h (2 Bft) N 355 1 min 0,000 mm 2,2 UV-I 714 W/m -3,7 C 2,5 C 11,3 km/h (2 Bft) 91,30 %
22.03.2018 12:50 4,3 C 4,4 C 57 % 1017,7 hPa 0,0 l/m 4,2 km/h (1 Bft) N-NW 339 1 min 0,000 mm 2,2 UV-I 722 W/m -3,5 C 4,3 C 8,0 km/h (2 Bft) 100,00 %
22.03.2018 12:51 4,4 C 4,4 C 60 % 1017,7 hPa 0,0 l/m 4,7 km/h (1 Bft) S-SO 161 1 min 0,000 mm 2,2 UV-I 730 W/m -2,7 C 4,4 C 8,0 km/h (2 Bft) 91,30 %
22.03.2018 12:52 4,4 C 3,9 C 59 % 1017,6 hPa 0,0 l/m 7,0 km/h (2 Bft) S-SW 209 1 min 0,000 mm 2,2 UV-I 733 W/m -2,9 C 3,9 C 9,7 km/h (2 Bft) 87,50 %
22.03.2018 12:53 4,5 C 3,9 C 57 % 1017,6 hPa 0,0 l/m 8,1 km/h (2 Bft) S 169 1 min 0,000 mm 2,1 UV-I 723 W/m -3,3 C 3,0 C 11,3 km/h (2 Bft) 95,65 %
22.03.2018 12:54 4,4 C 3,9 C 58 % 1017,6 hPa 0,0 l/m 4,7 km/h (1 Bft) W-SW 243 1 min 0,000 mm 1,8 UV-I 717 W/m -3,1 C 4,4 C 8,0 km/h (2 Bft) 96,67 %
22.03.2018 12:55 4,3 C 3,9 C 59 % 1017,6 hPa 0,0 l/m 3,6 km/h (1 Bft) S-SO 149 0 min 0,000 mm 1,4 UV-I 258 W/m -3,0 C 4,3 C 6,4 km/h (2 Bft) 100,00 %
22.03.2018 12:56 4,1 C 3,9 C 57 % 1017,6 hPa 0,0 l/m 5,5 km/h (1 Bft) SW 217 0 min 0,000 mm 1,4 UV-I 186 W/m -3,6 C 4,1 C 8,0 km/h (2 Bft) 91,67 %
22.03.2018 12:57 3,9 C 4,4 C 58 % 1017,6 hPa 0,0 l/m 4,6 km/h (1 Bft) W 269 0 min 0,000 mm 1,5 UV-I 212 W/m -3,6 C 3,9 C 9,7 km/h (2 Bft) 91,30 %
22.03.2018 12:58 3,9 C 4,4 C 61 % 1017,5 hPa 0,0 l/m 3,0 km/h (1 Bft) W-NW 284 0 min 0,000 mm 1,8 UV-I 267 W/m -2,9 C 3,9 C 3,2 km/h (1 Bft) 91,67 %
22.03.2018 12:59 4,0 C 4,4 C 60 % 1017,5 hPa 0,0 l/m 3,3 km/h (1 Bft) W-SW 258 1 min 0,000 mm 2,0 UV-I 491 W/m -3,0 C 4,0 C 6,4 km/h (2 Bft) 95,65 %
22.03.2018 13:00 4,1 C 4,4 C 58 % 1017,5 hPa 0,0 l/m 3,9 km/h (1 Bft) W-SW 257 1 min 0,000 mm 1,7 UV-I 635 W/m -3,4 C 4,1 C 6,4 km/h (2 Bft) 95,83 %
22.03.2018 13:01 4,1 C 3,9 C 57 % 1017,5 hPa 0,0 l/m 9,1 km/h (2 Bft) W-NW 289 0 min 0,280 mm 1,6 UV-I 272 W/m -3,6 C 1,8 C 12,9 km/h (3 Bft) 91,30 %
22.03.2018 13:02 4,1 C 4,4 C 58 % 1017,5 hPa 0,0 l/m 7,4 km/h (2 Bft) W 273 0 min 0,000 mm 1,9 UV-I 220 W/m -3,4 C 3,2 C 11,3 km/h (2 Bft) 100,00 %
22.03.2018 13:03 4,1 C 4,4 C 59 % 1017,4 hPa 0,0 l/m 6,0 km/h (2 Bft) SW 234 1 min 0,000 mm 2,1 UV-I 396 W/m -3,2 C 4,1 C 8,0 km/h (2 Bft) 84,62 %
22.03.2018 13:04 4,2 C 4,4 C 58 % 1017,4 hPa 0,0 l/m 10,7 km/h (2 Bft) SW 231 1 min 0,000 mm 2,0 UV-I 640 W/m -3,3 C 0,7 C 14,5 km/h (3 Bft) 100,00 %
22.03.2018 13:05 4,2 C 4,4 C 57 % 1017,4 hPa 0,0 l/m 9,1 km/h (2 Bft) W 259 1 min 0,000 mm 2,0 UV-I 670 W/m -3,5 C 1,9 C 12,9 km/h (3 Bft) 91,43 %
22.03.2018 13:06 4,2 C 4,4 C 56 % 1017,4 hPa 0,0 l/m 11,5 km/h (2 Bft) W 264 1 min 0,000 mm 2,1 UV-I 726 W/m -3,8 C 0,2 C 14,5 km/h (3 Bft) 100,00 %
22.03.2018 13:07 4,2 C 4,4 C 57 % 1017,4 hPa 0,0 l/m 8,5 km/h (2 Bft) W 279 1 min 0,000 mm 2,1 UV-I 745 W/m -3,5 C 2,3 C 11,3 km/h (2 Bft) 92,59 %
22.03.2018 13:08 4,3 C 4,4 C 58 % 1017,3 hPa 0,0 l/m 4,7 km/h (1 Bft) N-NW 331 1 min 0,000 mm 2,2 UV-I 757 W/m -3,2 C 4,3 C 8,0 km/h (2 Bft) 100,00 %
22.03.2018 13:09 4,4 C 4,4 C 59 % 1017,3 hPa 0,0 l/m 4,3 km/h (1 Bft) W-NW 293 1 min 0,000 mm 2,2 UV-I 756 W/m -2,9 C 4,4 C 6,4 km/h (2 Bft) 91,67 %
22.03.2018 13:10 4,4 C 4,4 C 58 % 1017,3 hPa 0,0 l/m 4,4 km/h (1 Bft) NW 322 1 min 0,000 mm 2,2 UV-I 744 W/m -3,1 C 4,4 C 6,4 km/h (2 Bft) 95,65 %
22.03.2018 13:11 4,4 C 4,4 C 58 % 1017,3 hPa 0,0 l/m 4,7 km/h (1 Bft) N-NO 13 1 min 0,000 mm 2,1 UV-I 731 W/m -3,1 C 4,4 C 6,4 km/h (2 Bft) 95,83 %
22.03.2018 13:12 4,4 C 4,4 C 59 % 1017,2 hPa 0,0 l/m 4,3 km/h (1 Bft) N-NO 23 1 min 0,000 mm 2,1 UV-I 732 W/m -2,9 C 4,4 C 6,4 km/h (2 Bft) 95,65 %
22.03.2018 13:13 4,4 C 4,4 C 57 % 1017,2 hPa 0,0 l/m 4,7 km/h (1 Bft) N 5 1 min 0,000 mm 2,1 UV-I 746 W/m -3,4 C 4,4 C 6,4 km/h (2 Bft) 95,83 %
22.03.2018 13:14 4,4 C 4,4 C 59 % 1017,2 hPa 0,0 l/m 4,4 km/h (1 Bft) N-NW 329 1 min 0,000 mm 2,1 UV-I 748 W/m -2,9 C 4,4 C 6,4 km/h (2 Bft) 86,96 %
22.03.2018 13:15 4,6 C 4,4 C 58 % 1017,2 hPa 0,0 l/m 5,2 km/h (1 Bft) N 360 1 min 0,000 mm 2,1 UV-I 740 W/m -2,9 C 4,6 C 6,4 km/h (2 Bft) 100,00 %
22.03.2018 13:16 4,6 C 4,4 C 59 % 1017,2 hPa 0,0 l/m 3,7 km/h (1 Bft) NO 36 1 min 0,000 mm 2,1 UV-I 734 W/m -2,7 C 4,6 C 4,8 km/h (1 Bft) 86,96 %
22.03.2018 13:17 4,6 C 4,4 C 58 % 1017,1 hPa 0,0 l/m 1,8 km/h (1 Bft) N-NO 12 1 min 0,000 mm 2,1 UV-I 722 W/m -2,9 C 4,6 C 4,8 km/h (1 Bft) 100,00 %
22.03.2018 13:18 4,6 C 4,4 C 57 % 1017,1 hPa 0,0 l/m 8,9 km/h (2 Bft) N-NW 348 1 min 0,000 mm 2,1 UV-I 719 W/m -3,2 C 2,5 C 12,9 km/h (3 Bft) 95,65 %
22.03.2018 13:19 4,7 C 4,4 C 60 % 1017,0 hPa 0,0 l/m 9,9 km/h (2 Bft) N-NW 344 1 min 0,000 mm 2,0 UV-I 690 W/m -2,4 C 1,8 C 14,5 km/h (3 Bft) 100,00 %
22.03.2018 13:20 4,7 C 4,4 C 59 % 1017,0 hPa 0,0 l/m 4,9 km/h (1 Bft) W-NW 289 1 min 0,000 mm 2,0 UV-I 676 W/m -2,6 C 4,7 C 8,0 km/h (2 Bft) 96,15 %
22.03.2018 13:21 4,7 C 4,4 C 60 % 1017,1 hPa 0,0 l/m 7,8 km/h (2 Bft) N-NW 340 1 min 0,000 mm 2,0 UV-I 674 W/m -2,4 C 3,5 C 9,7 km/h (2 Bft) 95,83 %
22.03.2018 13:22 4,8 C 4,4 C 63 % 1017,1 hPa 0,0 l/m 8,8 km/h (2 Bft) W-NW 289 1 min 0,000 mm 2,0 UV-I 675 W/m -1,6 C 2,7 C 12,9 km/h (3 Bft) 91,30 %
22.03.2018 13:23 4,9 C 4,4 C 59 % 1017,1 hPa 0,0 l/m 6,0 km/h (2 Bft) W-NW 299 1 min 0,000 mm 2,0 UV-I 670 W/m -2,4 C 4,9 C 11,3 km/h (2 Bft) 95,83 %
22.03.2018 13:24 4,8 C 4,4 C 56 % 1017,1 hPa 0,0 l/m 1,9 km/h (1 Bft) W-NW 300 1 min 0,000 mm 2,0 UV-I 661 W/m -3,2 C 4,8 C 3,2 km/h (1 Bft) 95,65 %
22.03.2018 13:25 4,7 C 4,4 C 55 % 1017,1 hPa 0,0 l/m 2,9 km/h (1 Bft) N-NW 348 1 min 0,000 mm 2,0 UV-I 661 W/m -3,6 C 4,7 C 4,8 km/h (1 Bft) 91,67 %
22.03.2018 13:26 4,6 C 4,4 C 59 % 1017,0 hPa 0,0 l/m 3,3 km/h (1 Bft) W 259 1 min 0,000 mm 2,0 UV-I 666 W/m -2,7 C 4,6 C 4,8 km/h (1 Bft) 100,00 %
22.03.2018 13:27 4,7 C 4,4 C 60 % 1017,0 hPa 0,0 l/m 3,5 km/h (1 Bft) W 262 1 min 0,000 mm 2,0 UV-I 669 W/m -2,4 C 4,7 C 6,4 km/h (2 Bft) 91,67 %
22.03.2018 13:28 4,7 C 4,4 C 58 % 1017,0 hPa 0,0 l/m 7,1 km/h (2 Bft) NW 306 1 min 0,000 mm 2,0 UV-I 664 W/m -2,8 C 4,1 C 11,3 km/h (2 Bft) 100,00 %
22.03.2018 13:29 4,8 C 4,4 C 58 % 1017,0 hPa 0,0 l/m 7,3 km/h (2 Bft) NW 308 1 min 0,000 mm 2,0 UV-I 660 W/m -2,7 C 4,0 C 11,3 km/h (2 Bft) 91,30 %
22.03.2018 13:30 4,7 C 4,4 C 58 % 1016,9 hPa 0,0 l/m 4,4 km/h (1 Bft) N-NW 336 1 min 0,000 mm 2,0 UV-I 661 W/m -2,8 C 4,7 C 6,4 km/h (2 Bft) 100,00 %
22.03.2018 13:31 4,8 C 4,4 C 59 % 1017,0 hPa 0,0 l/m 8,0 km/h (2 Bft) W-SW 253 1 min 0,000 mm 2,0 UV-I 657 W/m -2,5 C 3,4 C 14,5 km/h (3 Bft) 91,30 %
22.03.2018 13:32 4,9 C 4,4 C 59 % 1016,9 hPa 0,0 l/m 9,0 km/h (2 Bft) W 259 1 min 0,000 mm 2,0 UV-I 657 W/m -2,4 C 2,7 C 17,7 km/h (3 Bft) 95,83 %
22.03.2018 13:33 5,0 C 4,4 C 58 % 1017,0 hPa 0,0 l/m 11,1 km/h (2 Bft) W-NW 294 1 min 0,000 mm 2,0 UV-I 656 W/m -2,6 C 1,3 C 14,5 km/h (3 Bft) 95,65 %
22.03.2018 13:34 4,9 C 4,4 C 54 % 1017,0 hPa 0,0 l/m 5,4 km/h (1 Bft) NW 321 1 min 0,000 mm 1,9 UV-I 652 W/m -3,6 C 4,9 C 11,3 km/h (2 Bft) 95,83 %
22.03.2018 13:35 4,8 C 4,4 C 54 % 1016,9 hPa 0,0 l/m 7,6 km/h (2 Bft) S-SW 208 1 min 0,000 mm 1,9 UV-I 649 W/m -3,7 C 3,7 C 11,3 km/h (2 Bft) 92,86 %
22.03.2018 13:36 4,7 C 4,4 C 54 % 1016,9 hPa 0,0 l/m 7,0 km/h (2 Bft) SW 236 1 min 0,000 mm 1,9 UV-I 650 W/m -3,8 C 4,2 C 11,3 km/h (2 Bft) 91,67 %
22.03.2018 13:37 4,7 C 4,4 C 56 % 1016,8 hPa 0,0 l/m 5,1 km/h (1 Bft) W-NW 288 1 min 0,000 mm 1,9 UV-I 650 W/m -3,3 C 4,7 C 6,4 km/h (2 Bft) 95,65 %
22.03.2018 13:38 4,8 C 4,4 C 56 % 1016,8 hPa 0,0 l/m 4,0 km/h (1 Bft) NW 308 1 min 0,000 mm 1,9 UV-I 646 W/m -3,2 C 4,8 C 4,8 km/h (1 Bft) 95,83 %
22.03.2018 13:39 4,9 C 4,4 C 59 % 1016,8 hPa 0,0 l/m 6,2 km/h (2 Bft) N-NW 341 1 min 0,000 mm 1,9 UV-I 643 W/m -2,4 C 4,9 C 14,5 km/h (3 Bft) 100,00 %
22.03.2018 13:40 5,1 C 4,4 C 60 % 1016,7 hPa 0,0 l/m 11,1 km/h (2 Bft) NW 309 1 min 0,000 mm 1,9 UV-I 643 W/m -2,0 C 1,4 C 12,9 km/h (3 Bft) 95,83 %
22.03.2018 13:41 5,1 C 4,4 C 57 % 1016,7 hPa 0,0 l/m 9,7 km/h (2 Bft) N 5 1 min 0,000 mm 1,9 UV-I 641 W/m -2,7 C 2,4 C 12,9 km/h (3 Bft) 100,00 %
22.03.2018 13:42 5,1 C 4,4 C 61 % 1016,7 hPa 0,0 l/m 7,9 km/h (2 Bft) N-NO 26 1 min 0,000 mm 1,9 UV-I 642 W/m -1,8 C 3,8 C 12,9 km/h (3 Bft) 95,83 %
22.03.2018 13:43 4,9 C 4,4 C 56 % 1016,6 hPa 0,0 l/m 6,1 km/h (2 Bft) NO 51 1 min 0,000 mm 1,9 UV-I 646 W/m -3,1 C 4,9 C 8,0 km/h (2 Bft) 100,00 %
22.03.2018 13:44 4,9 C 4,4 C 59 % 1016,6 hPa 0,0 l/m 8,5 km/h (2 Bft) N-NW 340 1 min 0,000 mm 1,9 UV-I 649 W/m -2,4 C 3,1 C 12,9 km/h (3 Bft) 91,30 %
22.03.2018 13:45 4,9 C 4,4 C 61 % 1016,6 hPa 0,0 l/m 8,3 km/h (2 Bft) N-NW 344 1 min 0,000 mm 1,9 UV-I 651 W/m -2,0 C 3,3 C 11,3 km/h (2 Bft) 95,83 %
22.03.2018 13:46 5,1 C 4,4 C 60 % 1016,6 hPa 0,0 l/m 6,3 km/h (2 Bft) W-NW 289 1 min 0,000 mm 1,9 UV-I 657 W/m -2,0 C 5,1 C 12,9 km/h (3 Bft) 95,65 %
22.03.2018 13:47 5,1 C 4,4 C 57 % 1016,6 hPa 0,0 l/m 9,6 km/h (2 Bft) NW 313 1 min 0,000 mm 1,8 UV-I 659 W/m -2,7 C 2,5 C 14,5 km/h (3 Bft) 95,83 %
22.03.2018 13:48 5,2 C 4,4 C 58 % 1016,6 hPa 0,0 l/m 7,2 km/h (2 Bft) W 277 1 min 0,000 mm 1,8 UV-I 656 W/m -2,4 C 4,5 C 11,3 km/h (2 Bft) 100,00 %
22.03.2018 13:49 5,2 C 4,4 C 57 % 1016,6 hPa 0,0 l/m 5,4 km/h (1 Bft) NW 321 1 min 0,000 mm 1,8 UV-I 655 W/m -2,6 C 5,2 C 11,3 km/h (2 Bft) 95,83 %
22.03.2018 13:50 5,1 C 4,4 C 55 % 1016,6 hPa 0,0 l/m 9,3 km/h (2 Bft) W-NW 292 1 min 0,000 mm 1,8 UV-I 647 W/m -3,2 C 2,7 C 12,9 km/h (3 Bft) 95,65 %
22.03.2018 13:51 5,0 C 4,4 C 56 % 1016,6 hPa 0,0 l/m 6,8 km/h (2 Bft) NW 317 1 min 0,000 mm 1,8 UV-I 640 W/m -3,0 C 4,7 C 9,7 km/h (2 Bft) 91,67 %
22.03.2018 13:52 5,1 C 4,4 C 59 % 1016,5 hPa 0,0 l/m 10,9 km/h (2 Bft) W-SW 244 1 min 0,000 mm 1,8 UV-I 635 W/m -2,2 C 1,6 C 16,1 km/h (3 Bft) 100,00 %
22.03.2018 13:53 5,2 C 4,4 C 58 % 1016,5 hPa 0,0 l/m 12,3 km/h (3 Bft) W 260 1 min 0,000 mm 1,8 UV-I 632 W/m -2,4 C 0,8 C 17,7 km/h (3 Bft) 91,67 %
22.03.2018 13:54 5,2 C 4,4 C 55 % 1016,5 hPa 0,0 l/m 10,6 km/h (2 Bft) W-SW 248 1 min 0,000 mm 1,8 UV-I 636 W/m -3,1 C 1,9 C 14,5 km/h (3 Bft) 95,65 %
22.03.2018 13:55 5,3 C 4,4 C 57 % 1016,5 hPa 0,0 l/m 7,6 km/h (2 Bft) S-SW 209 1 min 0,000 mm 1,8 UV-I 636 W/m -2,5 C 4,3 C 11,3 km/h (2 Bft) 95,83 %
22.03.2018 13:56 5,3 C 4,4 C 56 % 1016,5 hPa 0,0 l/m 7,8 km/h (2 Bft) W 263 1 min 0,000 mm 1,8 UV-I 637 W/m -2,8 C 4,1 C 11,3 km/h (2 Bft) 100,00 %
22.03.2018 13:57 5,4 C 4,4 C 58 % 1016,5 hPa 0,0 l/m 9,7 km/h (2 Bft) W 259 1 min 0,000 mm 1,7 UV-I 632 W/m -2,2 C 2,7 C 14,5 km/h (3 Bft) 95,83 %
22.03.2018 13:58 5,4 C 4,4 C 54 % 1016,5 hPa 0,0 l/m 7,0 km/h (2 Bft) W-SW 239 1 min 0,000 mm 1,7 UV-I 626 W/m -3,1 C 4,9 C 12,9 km/h (3 Bft) 95,65 %
22.03.2018 13:59 5,4 C 4,4 C 54 % 1016,4 hPa 0,0 l/m 6,8 km/h (2 Bft) SW 223 1 min 0,000 mm 1,7 UV-I 626 W/m -3,1 C 5,1 C 11,3 km/h (2 Bft) 95,83 %
22.03.2018 14:00 5,3 C 4,4 C 55 % 1016,4 hPa 0,0 l/m 8,7 km/h (2 Bft) N-NW 342 1 min 0,000 mm 1,7 UV-I 626 W/m -3,0 C 3,4 C 12,9 km/h (3 Bft) 95,83 %
22.03.2018 14:01 5,3 C 4,4 C 55 % 1016,5 hPa 0,0 l/m 8,0 km/h (2 Bft) NO 34 1 min 0,279 mm 1,7 UV-I 623 W/m -3,0 C 3,9 C 14,5 km/h (3 Bft) 95,65 %
22.03.2018 14:02 5,2 C 4,4 C 56 % 1016,4 hPa 0,0 l/m 3,6 km/h (1 Bft) W 263 1 min 0,000 mm 1,7 UV-I 618 W/m -2,8 C 5,2 C 4,8 km/h (1 Bft) 100,00 %
22.03.2018 14:03 5,2 C 4,4 C 56 % 1016,5 hPa 0,0 l/m 6,4 km/h (2 Bft) W 259 1 min 0,000 mm 1,7 UV-I 614 W/m -2,8 C 5,2 C 11,3 km/h (2 Bft) 100,00 %
22.03.2018 14:04 5,1 C 4,4 C 54 % 1016,4 hPa 0,0 l/m 5,6 km/h (1 Bft) NW 309 1 min 0,000 mm 1,7 UV-I 612 W/m -3,4 C 5,1 C 9,7 km/h (2 Bft) 95,83 %
22.03.2018 14:05 5,1 C 4,4 C 55 % 1016,4 hPa 0,0 l/m 14,1 km/h (3 Bft) W 264 1 min 0,000 mm 1,7 UV-I 612 W/m -3,2 C -0,3 C 20,9 km/h (4 Bft) 91,30 %
22.03.2018 14:06 5,1 C 4,4 C 54 % 1016,3 hPa 0,0 l/m 17,2 km/h (3 Bft) W-SW 252 1 min 0,000 mm 1,7 UV-I 615 W/m -3,4 C -1,9 C 19,3 km/h (3 Bft) 95,83 %
22.03.2018 14:07 5,2 C 4,4 C 54 % 1016,4 hPa 0,0 l/m 9,2 km/h (2 Bft) W-NW 296 1 min 0,000 mm 1,7 UV-I 618 W/m -3,3 C 2,9 C 14,5 km/h (3 Bft) 95,65 %
22.03.2018 14:08 5,2 C 4,4 C 54 % 1016,4 hPa 0,0 l/m 15,3 km/h (3 Bft) W-SW 257 1 min 0,000 mm 1,7 UV-I 621 W/m -3,3 C -0,8 C 19,3 km/h (3 Bft) 95,83 %
22.03.2018 14:09 5,2 C 4,4 C 54 % 1016,4 hPa 0,0 l/m 10,2 km/h (2 Bft) W-SW 257 1 min 0,000 mm 1,7 UV-I 626 W/m -3,3 C 2,2 C 14,5 km/h (3 Bft) 95,65 %
22.03.2018 14:10 5,1 C 4,4 C 54 % 1016,3 hPa 0,0 l/m 6,4 km/h (2 Bft) W 261 1 min 0,000 mm 1,7 UV-I 637 W/m -3,4 C 5,1 C 9,7 km/h (2 Bft) 100,00 %
22.03.2018 14:11 5,1 C 4,4 C 55 % 1016,3 hPa 0,0 l/m 3,6 km/h (1 Bft) W 259 1 min 0,000 mm 1,7 UV-I 642 W/m -3,2 C 5,1 C 4,8 km/h (1 Bft) 95,65 %
22.03.2018 14:12 5,2 C 4,4 C 55 % 1016,3 hPa 0,0 l/m 8,6 km/h (2 Bft) SW 227 1 min 0,000 mm 1,7 UV-I 652 W/m -3,1 C 3,3 C 14,5 km/h (3 Bft) 100,00 %
22.03.2018 14:13 5,3 C 4,4 C 54 % 1016,3 hPa 0,0 l/m 13,4 km/h (3 Bft) SW 214 1 min 0,000 mm 1,5 UV-I 616 W/m -3,2 C 0,3 C 16,1 km/h (3 Bft) 95,65 %
22.03.2018 14:14 5,4 C 4,4 C 55 % 1016,3 hPa 0,0 l/m 7,6 km/h (2 Bft) SW 224 1 min 0,000 mm 1,5 UV-I 504 W/m -2,9 C 4,4 C 12,9 km/h (3 Bft) 100,00 %
22.03.2018 14:15 5,3 C 4,4 C 53 % 1016,3 hPa 0,0 l/m 6,0 km/h (2 Bft) W-SW 257 1 min 0,000 mm 1,5 UV-I 492 W/m -3,5 C 5,3 C 8,0 km/h (2 Bft) 91,30 %
22.03.2018 14:16 5,2 C 4,4 C 54 % 1016,3 hPa 0,0 l/m 6,4 km/h (2 Bft) W 267 1 min 0,000 mm 1,5 UV-I 436 W/m -3,3 C 5,2 C 9,7 km/h (2 Bft) 100,00 %
22.03.2018 14:17 5,2 C 4,4 C 56 % 1016,2 hPa 0,0 l/m 3,3 km/h (1 Bft) W-NW 300 1 min 0,000 mm 1,4 UV-I 429 W/m -2,8 C 5,2 C 4,8 km/h (1 Bft) 95,65 %
22.03.2018 14:18 5,2 C 4,4 C 55 % 1016,3 hPa 0,0 l/m 4,5 km/h (1 Bft) NW 310 1 min 0,000 mm 1,4 UV-I 522 W/m -3,1 C 5,2 C 6,4 km/h (2 Bft) 100,00 %
22.03.2018 14:19 5,2 C 4,4 C 55 % 1016,2 hPa 0,0 l/m 3,1 km/h (1 Bft) N-NW 327 1 min 0,000 mm 1,6 UV-I 570 W/m -3,1 C 5,2 C 4,8 km/h (1 Bft) 91,30 %
22.03.2018 14:20 5,2 C 4,4 C 53 % 1016,2 hPa 0,0 l/m 3,0 km/h (1 Bft) W 267 1 min 0,000 mm 1,6 UV-I 615 W/m -3,6 C 5,2 C 4,8 km/h (1 Bft) 95,83 %
22.03.2018 14:21 5,2 C 4,4 C 54 % 1016,2 hPa 0,0 l/m 2,3 km/h (1 Bft) W 269 1 min 0,000 mm 1,5 UV-I 601 W/m -3,3 C 5,2 C 4,8 km/h (1 Bft) 100,00 %
22.03.2018 14:22 5,2 C 4,4 C 56 % 1016,2 hPa 0,0 l/m 2,2 km/h (1 Bft) O-SO 115 1 min 0,000 mm 1,5 UV-I 600 W/m -2,8 C 5,2 C 4,8 km/h (1 Bft) 95,65 %
22.03.2018 14:23 5,2 C 4,4 C 57 % 1016,1 hPa 0,0 l/m 4,7 km/h (1 Bft) W 279 1 min 0,000 mm 1,5 UV-I 584 W/m -2,6 C 5,2 C 8,0 km/h (2 Bft) 100,00 %
22.03.2018 14:24 5,3 C 4,4 C 56 % 1016,1 hPa 0,0 l/m 8,8 km/h (2 Bft) W-NW 289 1 min 0,000 mm 1,5 UV-I 579 W/m -2,8 C 3,3 C 14,5 km/h (3 Bft) 91,30 %
22.03.2018 14:25 5,4 C 4,4 C 55 % 1016,1 hPa 0,0 l/m 6,3 km/h (2 Bft) N-NW 327 1 min 0,000 mm 1,5 UV-I 564 W/m -2,9 C 5,4 C 12,9 km/h (3 Bft) 100,00 %
22.03.2018 14:26 5,3 C 4,4 C 54 % 1016,1 hPa 0,0 l/m 9,4 km/h (2 Bft) W-NW 286 1 min 0,000 mm 1,5 UV-I 553 W/m -3,2 C 2,8 C 11,3 km/h (2 Bft) 92,31 %
22.03.2018 14:27 5,3 C 4,4 C 53 % 1016,1 hPa 0,0 l/m 7,2 km/h (2 Bft) W-NW 298 1 min 0,000 mm 1,4 UV-I 553 W/m -3,5 C 4,6 C 11,3 km/h (2 Bft) 91,67 %
22.03.2018 14:28 5,2 C 4,4 C 54 % 1016,0 hPa 0,0 l/m 7,1 km/h (2 Bft) W-NW 286 1 min 0,000 mm 1,4 UV-I 558 W/m -3,3 C 4,6 C 12,9 km/h (3 Bft) 95,65 %
22.03.2018 14:29 5,2 C 4,4 C 55 % 1016,1 hPa 0,0 l/m 6,0 km/h (2 Bft) W 276 1 min 0,000 mm 1,4 UV-I 549 W/m -3,1 C 5,2 C 9,7 km/h (2 Bft) 91,67 %
22.03.2018 14:30 5,4 C 4,4 C 55 % 1016,1 hPa 0,0 l/m 3,6 km/h (1 Bft) W-SW 244 1 min 0,000 mm 1,4 UV-I 550 W/m -2,9 C 5,4 C 6,4 km/h (2 Bft) 96,15 %
22.03.2018 14:31 5,4 C 4,4 C 55 % 1016,0 hPa 0,0 l/m 6,5 km/h (2 Bft) W 262 1 min 0,000 mm 1,4 UV-I 548 W/m -2,9 C 5,3 C 14,5 km/h (3 Bft) 95,83 %
22.03.2018 14:32 5,6 C 4,4 C 56 % 1016,1 hPa 0,0 l/m 5,6 km/h (1 Bft) W-NW 296 1 min 0,000 mm 1,4 UV-I 546 W/m -2,5 C 5,6 C 9,7 km/h (2 Bft) 95,65 %
22.03.2018 14:33 5,5 C 4,4 C 54 % 1016,0 hPa 0,0 l/m 6,7 km/h (2 Bft) N 9 1 min 0,000 mm 1,4 UV-I 539 W/m -3,1 C 5,3 C 11,3 km/h (2 Bft) 91,67 %
22.03.2018 14:34 5,4 C 4,4 C 55 % 1016,0 hPa 0,0 l/m 5,4 km/h (1 Bft) N-NW 331 1 min 0,000 mm 1,4 UV-I 538 W/m -2,9 C 5,4 C 9,7 km/h (2 Bft) 100,00 %
22.03.2018 14:35 5,4 C 4,4 C 55 % 1016,0 hPa 0,0 l/m 7,8 km/h (2 Bft) W-NW 290 1 min 0,000 mm 1,4 UV-I 534 W/m -2,9 C 4,2 C 12,9 km/h (3 Bft) 91,67 %
22.03.2018 14:36 5,3 C 4,4 C 55 % 1016,0 hPa 0,0 l/m 6,3 km/h (2 Bft) W-NW 284 1 min 0,000 mm 1,4 UV-I 528 W/m -3,0 C 5,3 C 11,3 km/h (2 Bft) 96,15 %
22.03.2018 14:37 5,3 C 4,4 C 55 % 1015,9 hPa 0,0 l/m 4,1 km/h (1 Bft) N-NW 331 1 min 0,000 mm 1,4 UV-I 532 W/m -3,0 C 5,3 C 6,4 km/h (2 Bft) 96,15 %
22.03.2018 14:38 5,2 C 4,4 C 53 % 1015,9 hPa 0,0 l/m 3,9 km/h (1 Bft) N-NW 331 1 min 0,000 mm 1,3 UV-I 531 W/m -3,6 C 5,2 C 6,4 km/h (2 Bft) 91,30 %
22.03.2018 14:39 5,3 C 4,4 C 56 % 1015,8 hPa 0,0 l/m 3,6 km/h (1 Bft) W-NW 296 1 min 0,000 mm 1,3 UV-I 534 W/m -2,8 C 5,3 C 6,4 km/h (2 Bft) 95,83 %
22.03.2018 14:40 5,3 C 4,4 C 55 % 1015,8 hPa 0,0 l/m 4,9 km/h (1 Bft) W-NW 299 1 min 0,000 mm 1,3 UV-I 539 W/m -3,0 C 5,3 C 8,0 km/h (2 Bft) 91,30 %
22.03.2018 14:41 5,3 C 4,4 C 53 % 1015,9 hPa 0,0 l/m 3,4 km/h (1 Bft) NW 309 1 min 0,000 mm 1,3 UV-I 534 W/m -3,5 C 5,3 C 4,8 km/h (1 Bft) 100,00 %
22.03.2018 14:42 5,3 C 4,4 C 54 % 1015,8 hPa 0,0 l/m 1,9 km/h (1 Bft) NW 309 1 min 0,000 mm 1,3 UV-I 534 W/m -3,2 C 5,3 C 4,8 km/h (1 Bft) 91,30 %
22.03.2018 14:43 5,3 C 4,4 C 54 % 1015,8 hPa 0,0 l/m 0,4 km/h (0 Bft) NW 309 1 min 0,000 mm 1,1 UV-I 534 W/m -3,2 C 5,3 C 1,6 km/h (1 Bft) 91,67 %
22.03.2018 14:44 5,3 C 4,4 C 53 % 1015,8 hPa 0,0 l/m 0,1 km/h (0 Bft) NW 309 1 min 0,000 mm 1,3 UV-I 530 W/m -3,5 C 5,3 C 1,6 km/h (1 Bft) 95,83 %
22.03.2018 14:45 5,3 C 4,4 C 55 % 1015,8 hPa 0,0 l/m 3,3 km/h (1 Bft) W-NW 289 1 min 0,000 mm 1,3 UV-I 531 W/m -3,0 C 5,3 C 9,7 km/h (2 Bft) 95,65 %
22.03.2018 14:46 5,3 C 4,4 C 53 % 1015,8 hPa 0,0 l/m 4,5 km/h (1 Bft) SW 236 1 min 0,000 mm 1,3 UV-I 516 W/m -3,5 C 5,3 C 8,0 km/h (2 Bft) 95,83 %
22.03.2018 14:47 5,3 C 4,4 C 55 % 1015,7 hPa 0,0 l/m 12,4 km/h (3 Bft) W-NW 292 1 min 0,000 mm 1,3 UV-I 522 W/m -3,0 C 0,9 C 17,7 km/h (3 Bft) 92,31 %
22.03.2018 14:48 5,3 C 4,4 C 55 % 1015,8 hPa 0,0 l/m 11,4 km/h (2 Bft) NW 313 1 min 0,000 mm 1,3 UV-I 510 W/m -3,0 C 1,5 C 17,7 km/h (3 Bft) 95,83 %
22.03.2018 14:49 5,4 C 4,4 C 55 % 1015,7 hPa 0,0 l/m 3,0 km/h (1 Bft) N-NW 348 1 min 0,000 mm 1,3 UV-I 536 W/m -2,9 C 5,4 C 6,4 km/h (2 Bft) 95,65 %
22.03.2018 14:50 5,4 C 4,4 C 54 % 1015,7 hPa 0,0 l/m 6,0 km/h (2 Bft) W 273 1 min 0,000 mm 1,3 UV-I 543 W/m -3,1 C 5,4 C 14,5 km/h (3 Bft) 95,83 %
22.03.2018 14:51 5,4 C 4,4 C 53 % 1015,7 hPa 0,0 l/m 13,9 km/h (3 Bft) W 275 1 min 0,000 mm 1,3 UV-I 547 W/m -3,4 C 0,1 C 17,7 km/h (3 Bft) 100,00 %
22.03.2018 14:52 5,4 C 4,4 C 53 % 1015,7 hPa 0,0 l/m 9,4 km/h (2 Bft) W 267 1 min 0,000 mm 1,3 UV-I 547 W/m -3,4 C 2,9 C 16,1 km/h (3 Bft) 95,83 %
22.03.2018 14:53 5,6 C 4,4 C 54 % 1015,6 hPa 0,0 l/m 10,8 km/h (2 Bft) W-NW 291 1 min 0,000 mm 1,2 UV-I 543 W/m -3,0 C 2,2 C 19,3 km/h (3 Bft) 100,00 %
22.03.2018 14:54 5,7 C 4,4 C 55 % 1015,6 hPa 0,0 l/m 12,5 km/h (3 Bft) W 263 1 min 0,000 mm 1,2 UV-I 543 W/m -2,6 C 1,3 C 17,7 km/h (3 Bft) 91,67 %
22.03.2018 14:55 5,7 C 4,4 C 53 % 1015,7 hPa 0,0 l/m 6,4 km/h (2 Bft) W-SW 252 1 min 0,000 mm 1,2 UV-I 552 W/m -3,1 C 5,7 C 12,9 km/h (3 Bft) 100,00 %
22.03.2018 14:56 5,7 C 4,4 C 56 % 1015,6 hPa 0,0 l/m 2,4 km/h (1 Bft) NW 306 1 min 0,000 mm 1,2 UV-I 546 W/m -2,4 C 5,7 C 3,2 km/h (1 Bft) 95,83 %
22.03.2018 14:57 5,8 C 4,4 C 57 % 1015,6 hPa 0,0 l/m 3,8 km/h (1 Bft) N 355 1 min 0,000 mm 1,2 UV-I 520 W/m -2,0 C 5,8 C 8,0 km/h (2 Bft) 91,67 %
22.03.2018 14:58 5,9 C 4,4 C 55 % 1015,6 hPa 0,0 l/m 3,8 km/h (1 Bft) W-NW 301 1 min 0,000 mm 1,1 UV-I 518 W/m -2,4 C 5,9 C 8,0 km/h (2 Bft) 95,65 %
22.03.2018 14:59 5,9 C 4,4 C 56 % 1015,6 hPa 0,0 l/m 1,3 km/h (1 Bft) NW 307 1 min 0,000 mm 1,1 UV-I 548 W/m -2,2 C 5,9 C 3,2 km/h (1 Bft) 95,83 %
22.03.2018 15:00 5,9 C 4,4 C 54 % 1015,6 hPa 0,0 l/m 6,1 km/h (2 Bft) N-NW 327 1 min 0,254 mm 1,0 UV-I 489 W/m -2,7 C 5,9 C 8,0 km/h (2 Bft) 100,00 %
22.03.2018 15:02 5,8 C 4,4 C 54 % 1015,6 hPa 0,0 l/m 5,7 km/h (1 Bft) W-NW 302 2 min 0,000 mm 1,1 UV-I 406 W/m -2,8 C 5,8 C 9,7 km/h (2 Bft) 98,00 %
22.03.2018 15:03 5,8 C 4,4 C 55 % 1015,5 hPa 0,0 l/m 6,4 km/h (2 Bft) NW 320 1 min 0,000 mm 1,0 UV-I 548 W/m -2,5 C 5,8 C 14,5 km/h (3 Bft) 95,83 %
22.03.2018 15:04 5,7 C 4,4 C 54 % 1015,5 hPa 0,0 l/m 9,3 km/h (2 Bft) W-NW 295 1 min 0,000 mm 1,0 UV-I 458 W/m -2,9 C 3,3 C 12,9 km/h (3 Bft) 100,00 %
22.03.2018 15:05 5,6 C 4,4 C 55 % 1015,5 hPa 0,0 l/m 7,4 km/h (2 Bft) NW 309 1 min 0,000 mm 0,9 UV-I 402 W/m -2,7 C 4,7 C 11,3 km/h (2 Bft) 96,67 %
22.03.2018 15:06 5,5 C 4,4 C 53 % 1015,5 hPa 0,0 l/m 4,6 km/h (1 Bft) N 350 1 min 0,000 mm 0,9 UV-I 274 W/m -3,3 C 5,5 C 8,0 km/h (2 Bft) 95,65 %
22.03.2018 15:07 5,4 C 4,4 C 55 % 1015,4 hPa 0,0 l/m 5,8 km/h (2 Bft) W-NW 298 1 min 0,000 mm 0,9 UV-I 311 W/m -2,9 C 5,4 C 9,7 km/h (2 Bft) 100,00 %
22.03.2018 15:08 5,4 C 4,4 C 54 % 1015,4 hPa 0,0 l/m 4,1 km/h (1 Bft) NW 314 1 min 0,000 mm 0,9 UV-I 315 W/m -3,1 C 5,4 C 9,7 km/h (2 Bft) 95,65 %
22.03.2018 15:09 5,4 C 4,4 C 55 % 1015,4 hPa 0,0 l/m 6,0 km/h (2 Bft) N-NW 345 1 min 0,000 mm 0,9 UV-I 349 W/m -2,9 C 5,4 C 9,7 km/h (2 Bft) 95,83 %
22.03.2018 15:10 5,4 C 4,4 C 54 % 1015,4 hPa 0,0 l/m 6,5 km/h (2 Bft) W-NW 290 1 min 0,000 mm 1,0 UV-I 419 W/m -3,1 C 5,3 C 14,5 km/h (3 Bft) 90,91 %
22.03.2018 15:11 5,4 C 4,4 C 54 % 1015,4 hPa 0,0 l/m 6,3 km/h (2 Bft) W 265 1 min 0,000 mm 0,9 UV-I 409 W/m -3,1 C 5,4 C 9,7 km/h (2 Bft) 100,00 %
22.03.2018 15:12 5,4 C 4,4 C 53 % 1015,3 hPa 0,0 l/m 6,2 km/h (2 Bft) W 269 1 min 0,000 mm 0,9 UV-I 372 W/m -3,4 C 5,4 C 11,3 km/h (2 Bft) 95,65 %
22.03.2018 15:13 5,4 C 4,4 C 53 % 1015,3 hPa 0,0 l/m 10,6 km/h (2 Bft) W-SW 254 1 min 0,000 mm 0,9 UV-I 344 W/m -3,4 C 2,1 C 14,5 km/h (3 Bft) 100,00 %
22.03.2018 15:14 5,4 C 4,4 C 53 % 1015,3 hPa 0,0 l/m 13,0 km/h (3 Bft) W-SW 252 1 min 0,000 mm 0,9 UV-I 314 W/m -3,4 C 0,6 C 22,5 km/h (4 Bft) 95,65 %
22.03.2018 15:15 5,4 C 4,4 C 51 % 1015,3 hPa 0,0 l/m 14,6 km/h (3 Bft) W 276 1 min 0,000 mm 0,8 UV-I 301 W/m -3,9 C -0,2 C 22,5 km/h (4 Bft) 100,00 %
22.03.2018 15:16 5,4 C 4,4 C 53 % 1015,3 hPa 0,0 l/m 7,7 km/h (2 Bft) W 261 1 min 0,000 mm 0,8 UV-I 297 W/m -3,4 C 4,3 C 20,9 km/h (4 Bft) 95,65 %
22.03.2018 15:17 5,4 C 4,4 C 53 % 1015,3 hPa 0,0 l/m 9,3 km/h (2 Bft) W-NW 291 1 min 0,000 mm 0,8 UV-I 280 W/m -3,4 C 3,0 C 16,1 km/h (3 Bft) 95,83 %
22.03.2018 15:18 5,3 C 4,4 C 51 % 1015,3 hPa 0,0 l/m 6,3 km/h (2 Bft) W-NW 300 0 min 0,000 mm 0,8 UV-I 251 W/m -4,0 C 5,3 C 9,7 km/h (2 Bft) 100,00 %
22.03.2018 15:19 5,3 C 4,4 C 53 % 1015,3 hPa 0,0 l/m 6,5 km/h (2 Bft) W 277 0 min 0,000 mm 0,8 UV-I 212 W/m -3,5 C 5,2 C 12,9 km/h (3 Bft) 95,83 %
22.03.2018 15:20 5,2 C 4,4 C 53 % 1015,2 hPa 0,0 l/m 5,7 km/h (1 Bft) W-NW 300 0 min 0,000 mm 0,7 UV-I 193 W/m -3,6 C 5,2 C 11,3 km/h (2 Bft) 100,00 %
22.03.2018 15:21 5,2 C 4,4 C 53 % 1015,3 hPa 0,0 l/m 9,3 km/h (2 Bft) W-NW 292 0 min 0,000 mm 0,7 UV-I 192 W/m -3,6 C 2,8 C 14,5 km/h (3 Bft) 95,65 %
22.03.2018 15:22 5,1 C 4,4 C 52 % 1015,2 hPa 0,0 l/m 6,0 km/h (2 Bft) W 269 0 min 0,000 mm 0,7 UV-I 214 W/m -3,9 C 5,1 C 11,3 km/h (2 Bft) 100,00 %
22.03.2018 15:23 5,1 C 4,4 C 52 % 1015,2 hPa 0,0 l/m 5,0 km/h (1 Bft) NW 315 0 min 0,000 mm 0,7 UV-I 217 W/m -3,9 C 5,1 C 8,0 km/h (2 Bft) 95,65 %
22.03.2018 15:24 5,0 C 4,4 C 53 % 1015,2 hPa 0,0 l/m 5,8 km/h (2 Bft) W-NW 296 0 min 0,000 mm 0,7 UV-I 199 W/m -3,8 C 5,0 C 9,7 km/h (2 Bft) 100,00 %
22.03.2018 15:25 4,9 C 4,4 C 53 % 1015,2 hPa 0,0 l/m 6,2 km/h (2 Bft) W-NW 297 0 min 0,000 mm 0,7 UV-I 196 W/m -3,9 C 4,9 C 8,0 km/h (2 Bft) 95,65 %
22.03.2018 15:26 4,9 C 4,4 C 52 % 1015,2 hPa 0,0 l/m 6,6 km/h (2 Bft) W 264 0 min 0,000 mm 0,7 UV-I 194 W/m -4,1 C 4,7 C 11,3 km/h (2 Bft) 100,00 %
22.03.2018 15:27 4,8 C 4,4 C 52 % 1015,2 hPa 0,0 l/m 3,4 km/h (1 Bft) W-NW 287 0 min 0,000 mm 0,7 UV-I 191 W/m -4,2 C 4,8 C 6,4 km/h (2 Bft) 95,65 %
22.03.2018 15:28 4,8 C 4,4 C 56 % 1015,1 hPa 0,0 l/m 3,2 km/h (1 Bft) N 5 0 min 0,000 mm 0,7 UV-I 188 W/m -3,2 C 4,8 C 4,8 km/h (1 Bft) 95,83 %
22.03.2018 15:29 4,8 C 4,4 C 55 % 1015,1 hPa 0,0 l/m 4,5 km/h (1 Bft) N-NO 13 0 min 0,000 mm 0,7 UV-I 188 W/m -3,5 C 4,8 C 11,3 km/h (2 Bft) 100,00 %
22.03.2018 15:30 4,8 C 4,4 C 58 % 1015,1 hPa 0,0 l/m 7,9 km/h (2 Bft) N-NW 327 0 min 0,000 mm 0,7 UV-I 191 W/m -2,7 C 3,5 C 11,3 km/h (2 Bft) 95,83 %
22.03.2018 15:31 4,8 C 4,4 C 55 % 1015,0 hPa 0,0 l/m 3,5 km/h (1 Bft) NW 326 0 min 0,000 mm 0,7 UV-I 194 W/m -3,5 C 4,8 C 8,0 km/h (2 Bft) 100,00 %
22.03.2018 15:32 4,8 C 4,4 C 54 % 1015,0 hPa 0,0 l/m 4,8 km/h (1 Bft) W-NW 295 0 min 0,000 mm 0,7 UV-I 198 W/m -3,7 C 4,8 C 6,4 km/h (2 Bft) 91,67 %
22.03.2018 15:33 4,8 C 4,4 C 54 % 1015,0 hPa 0,0 l/m 4,2 km/h (1 Bft) W-SW 254 0 min 0,000 mm 0,7 UV-I 202 W/m -3,7 C 4,8 C 11,3 km/h (2 Bft) 100,00 %
22.03.2018 15:34 4,8 C 4,4 C 53 % 1015,0 hPa 0,0 l/m 7,2 km/h (2 Bft) W-NW 291 0 min 0,000 mm 0,7 UV-I 202 W/m -4,0 C 4,1 C 11,3 km/h (2 Bft) 95,83 %
22.03.2018 15:35 4,8 C 4,4 C 55 % 1014,9 hPa 0,0 l/m 5,6 km/h (1 Bft) W 281 0 min 0,000 mm 0,6 UV-I 205 W/m -3,5 C 4,8 C 9,7 km/h (2 Bft) 100,00 %
22.03.2018 15:36 4,9 C 4,4 C 56 % 1015,0 hPa 0,0 l/m 13,1 km/h (3 Bft) W-NW 294 0 min 0,000 mm 0,6 UV-I 213 W/m -3,1 C -0,0 C 16,1 km/h (3 Bft) 95,65 %
22.03.2018 15:37 4,9 C 4,4 C 53 % 1014,9 hPa 0,0 l/m 9,9 km/h (2 Bft) W 270 0 min 0,000 mm 0,7 UV-I 219 W/m -3,9 C 2,0 C 14,5 km/h (3 Bft) 100,00 %
22.03.2018 15:38 4,9 C 4,4 C 53 % 1014,9 hPa 0,0 l/m 10,8 km/h (2 Bft) W-NW 285 0 min 0,000 mm 0,7 UV-I 233 W/m -3,9 C 1,4 C 14,5 km/h (3 Bft) 95,65 %
22.03.2018 15:39 4,9 C 4,4 C 53 % 1014,9 hPa 0,0 l/m 7,7 km/h (2 Bft) W 280 1 min 0,000 mm 0,7 UV-I 279 W/m -3,9 C 3,8 C 11,3 km/h (2 Bft) 96,30 %
22.03.2018 15:40 4,9 C 4,4 C 54 % 1014,8 hPa 0,0 l/m 6,7 km/h (2 Bft) W-NW 287 1 min 0,000 mm 0,7 UV-I 288 W/m -3,6 C 4,7 C 12,9 km/h (3 Bft) 95,65 %
22.03.2018 15:41 4,9 C 4,4 C 52 % 1014,8 hPa 0,0 l/m 6,6 km/h (2 Bft) NW 314 1 min 0,000 mm 0,7 UV-I 286 W/m -4,1 C 4,7 C 11,3 km/h (2 Bft) 95,83 %
22.03.2018 15:42 5,0 C 4,4 C 52 % 1014,8 hPa 0,0 l/m 8,2 km/h (2 Bft) W-NW 294 1 min 0,000 mm 0,7 UV-I 291 W/m -4,0 C 3,4 C 12,9 km/h (3 Bft) 100,00 %
22.03.2018 15:43 5,1 C 4,4 C 52 % 1014,8 hPa 0,0 l/m 9,3 km/h (2 Bft) W-SW 256 1 min 0,000 mm 0,7 UV-I 331 W/m -3,9 C 2,7 C 12,9 km/h (3 Bft) 91,67 %
22.03.2018 15:44 5,1 C 4,4 C 51 % 1014,8 hPa 0,0 l/m 5,8 km/h (2 Bft) N-NW 330 1 min 0,000 mm 0,7 UV-I 364 W/m -4,2 C 5,1 C 11,3 km/h (2 Bft) 100,00 %
22.03.2018 15:45 5,1 C 4,4 C 52 % 1014,8 hPa 0,0 l/m 3,0 km/h (1 Bft) N 10 1 min 0,000 mm 0,7 UV-I 365 W/m -3,9 C 5,1 C 6,4 km/h (2 Bft) 95,83 %
22.03.2018 15:46 5,1 C 4,4 C 52 % 1014,8 hPa 0,0 l/m 3,4 km/h (1 Bft) N-NW 344 1 min 0,000 mm 0,7 UV-I 332 W/m -3,9 C 5,1 C 9,7 km/h (2 Bft) 100,00 %
22.03.2018 15:47 5,2 C 4,4 C 52 % 1014,8 hPa 0,0 l/m 5,0 km/h (1 Bft) NW 308 1 min 0,000 mm 0,7 UV-I 354 W/m -3,8 C 5,2 C 6,4 km/h (2 Bft) 95,83 %
22.03.2018 15:48 5,2 C 4,4 C 54 % 1014,8 hPa 0,0 l/m 6,2 km/h (2 Bft) N-NW 338 1 min 0,000 mm 0,7 UV-I 367 W/m -3,3 C 5,2 C 12,9 km/h (3 Bft) 100,00 %
22.03.2018 15:49 5,3 C 4,4 C 53 % 1014,8 hPa 0,0 l/m 4,8 km/h (1 Bft) N 11 1 min 0,000 mm 0,6 UV-I 357 W/m -3,5 C 5,3 C 6,4 km/h (2 Bft) 91,67 %
22.03.2018 15:50 5,3 C 4,4 C 54 % 1014,7 hPa 0,0 l/m 4,5 km/h (1 Bft) W-NW 288 1 min 0,000 mm 0,6 UV-I 353 W/m -3,2 C 5,3 C 8,0 km/h (2 Bft) 95,65 %
22.03.2018 15:51 5,4 C 4,4 C 52 % 1014,7 hPa 0,0 l/m 9,4 km/h (2 Bft) W 264 1 min 0,000 mm 0,6 UV-I 330 W/m -3,7 C 2,9 C 14,5 km/h (3 Bft) 100,00 %
22.03.2018 15:52 5,4 C 4,4 C 52 % 1014,7 hPa 0,0 l/m 4,0 km/h (1 Bft) W-SW 255 1 min 0,000 mm 0,6 UV-I 355 W/m -3,7 C 5,4 C 6,4 km/h (2 Bft) 95,65 %
22.03.2018 15:53 5,5 C 4,4 C 52 % 1014,7 hPa 0,0 l/m 4,7 km/h (1 Bft) W 277 1 min 0,000 mm 0,6 UV-I 326 W/m -3,6 C 5,5 C 6,4 km/h (2 Bft) 100,00 %
22.03.2018 15:54 5,7 C 4,4 C 53 % 1014,7 hPa 0,0 l/m 5,6 km/h (1 Bft) W-SW 248 1 min 0,000 mm 0,6 UV-I 300 W/m -3,1 C 5,7 C 9,7 km/h (2 Bft) 95,65 %
22.03.2018 15:55 5,7 C 4,4 C 52 % 1014,7 hPa 0,0 l/m 3,9 km/h (1 Bft) W-NW 300 1 min 0,000 mm 0,6 UV-I 330 W/m -3,4 C 5,7 C 6,4 km/h (2 Bft) 100,00 %
22.03.2018 15:56 5,7 C 4,4 C 51 % 1014,6 hPa 0,0 l/m 7,2 km/h (2 Bft) NW 304 1 min 0,000 mm 0,6 UV-I 334 W/m -3,6 C 5,0 C 12,9 km/h (3 Bft) 95,65 %
22.03.2018 15:57 5,6 C 4,4 C 51 % 1014,6 hPa 0,0 l/m 3,9 km/h (1 Bft) W 273 1 min 0,000 mm 0,6 UV-I 325 W/m -3,7 C 5,6 C 6,4 km/h (2 Bft) 100,00 %
22.03.2018 15:58 5,6 C 4,4 C 50 % 1014,7 hPa 0,0 l/m 8,1 km/h (2 Bft) W-SW 252 1 min 0,000 mm 0,6 UV-I 312 W/m -4,0 C 4,2 C 12,9 km/h (3 Bft) 96,67 %
22.03.2018 15:59 5,5 C 4,4 C 51 % 1014,6 hPa 0,0 l/m 11,9 km/h (2 Bft) W 266 1 min 0,000 mm 0,6 UV-I 249 W/m -3,8 C 1,4 C 14,5 km/h (3 Bft) 100,00 %
22.03.2018 16:00 5,4 C 4,4 C 50 % 1014,6 hPa 0,0 l/m 11,7 km/h (2 Bft) W 275 1 min 0,000 mm 0,6 UV-I 250 W/m -4,2 C 1,4 C 16,1 km/h (3 Bft) 95,83 %
22.03.2018 16:01 5,4 C 4,4 C 50 % 1014,6 hPa 0,0 l/m 11,7 km/h (2 Bft) W-SW 254 1 min 0,153 mm 0,6 UV-I 276 W/m -4,2 C 1,4 C 16,1 km/h (3 Bft) 96,15 %
22.03.2018 16:02 5,3 C 4,4 C 50 % 1014,6 hPa 0,0 l/m 8,1 km/h (2 Bft) W-NW 296 1 min 0,000 mm 0,6 UV-I 317 W/m -4,3 C 3,8 C 16,1 km/h (3 Bft) 100,00 %
22.03.2018 16:03 5,4 C 4,4 C 50 % 1014,6 hPa 0,0 l/m 7,0 km/h (2 Bft) W 270 1 min 0,000 mm 0,6 UV-I 339 W/m -4,2 C 4,9 C 12,9 km/h (3 Bft) 95,65 %
22.03.2018 16:04 5,4 C 4,4 C 50 % 1014,6 hPa 0,0 l/m 9,2 km/h (2 Bft) W 271 1 min 0,000 mm 0,5 UV-I 333 W/m -4,2 C 3,1 C 12,9 km/h (3 Bft) 95,83 %
22.03.2018 16:05 5,4 C 4,4 C 50 % 1014,5 hPa 0,0 l/m 8,0 km/h (2 Bft) W 260 1 min 0,000 mm 0,5 UV-I 311 W/m -4,2 C 4,0 C 12,9 km/h (3 Bft) 91,30 %
22.03.2018 16:06 5,4 C 4,4 C 49 % 1014,5 hPa 0,0 l/m 9,7 km/h (2 Bft) W 275 1 min 0,000 mm 0,5 UV-I 265 W/m -4,4 C 2,7 C 12,9 km/h (3 Bft) 100,00 %
22.03.2018 16:07 5,4 C 4,4 C 49 % 1014,5 hPa 0,0 l/m 6,4 km/h (2 Bft) W 279 1 min 0,000 mm 0,5 UV-I 258 W/m -4,4 C 5,4 C 11,3 km/h (2 Bft) 91,30 %
22.03.2018 16:08 5,3 C 4,4 C 49 % 1014,5 hPa 0,0 l/m 8,4 km/h (2 Bft) W-NW 286 1 min 0,000 mm 0,5 UV-I 276 W/m -4,5 C 3,6 C 14,5 km/h (3 Bft) 95,83 %
22.03.2018 16:09 5,3 C 4,4 C 49 % 1014,5 hPa 0,0 l/m 7,0 km/h (2 Bft) W 271 1 min 0,000 mm 0,5 UV-I 257 W/m -4,5 C 4,8 C 11,3 km/h (2 Bft) 91,30 %
22.03.2018 16:10 5,3 C 4,4 C 50 % 1014,5 hPa 0,0 l/m 5,2 km/h (1 Bft) W 265 1 min 0,000 mm 0,5 UV-I 291 W/m -4,3 C 5,3 C 6,4 km/h (2 Bft) 100,00 %
22.03.2018 16:11 5,3 C 4,4 C 51 % 1014,5 hPa 0,0 l/m 3,4 km/h (1 Bft) W-NW 302 1 min 0,000 mm 0,5 UV-I 268 W/m -4,0 C 5,3 C 6,4 km/h (2 Bft) 91,30 %
22.03.2018 16:12 5,3 C 4,4 C 49 % 1014,5 hPa 0,0 l/m 10,7 km/h (2 Bft) W-NW 298 1 min 0,000 mm 0,3 UV-I 236 W/m -4,5 C 1,9 C 12,9 km/h (3 Bft) 95,83 %
22.03.2018 16:13 5,3 C 4,4 C 48 % 1014,5 hPa 0,0 l/m 4,0 km/h (1 Bft) W-NW 287 1 min 0,000 mm 0,0 UV-I 217 W/m -4,8 C 5,3 C 8,0 km/h (2 Bft) 96,15 %
22.03.2018 16:14 5,2 C 4,4 C 50 % 1014,4 hPa 0,0 l/m 5,0 km/h (1 Bft) W 261 1 min 0,000 mm 0,0 UV-I 221 W/m -4,4 C 5,2 C 8,0 km/h (2 Bft) 95,83 %
22.03.2018 16:15 5,2 C 4,4 C 51 % 1014,4 hPa 0,0 l/m 14,4 km/h (3 Bft) W 273 1 min 0,000 mm 0,0 UV-I 216 W/m -4,1 C -0,4 C 17,7 km/h (3 Bft) 91,67 %
22.03.2018 16:16 5,2 C 4,4 C 50 % 1014,4 hPa 0,0 l/m 11,1 km/h (2 Bft) W-NW 293 1 min 0,000 mm 0,0 UV-I 216 W/m -4,4 C 1,6 C 14,5 km/h (3 Bft) 96,15 %
22.03.2018 16:17 5,2 C 4,4 C 49 % 1014,4 hPa 0,0 l/m 7,2 km/h (2 Bft) W-SW 247 1 min 0,000 mm 0,0 UV-I 229 W/m -4,6 C 4,5 C 11,3 km/h (2 Bft) 96,55 %
22.03.2018 16:18 5,2 C 4,4 C 52 % 1014,3 hPa 0,0 l/m 6,7 km/h (2 Bft) W 266 1 min 0,000 mm 0,0 UV-I 248 W/m -3,8 C 5,0 C 9,7 km/h (2 Bft) 87,50 %
22.03.2018 16:19 5,3 C 4,4 C 52 % 1014,4 hPa 0,0 l/m 5,6 km/h (1 Bft) N-NW 327 1 min 0,000 mm 0,0 UV-I 264 W/m -3,7 C 5,3 C 9,7 km/h (2 Bft) 100,00 %
22.03.2018 16:20 5,4 C 4,4 C 52 % 1014,3 hPa 0,0 l/m 4,8 km/h (1 Bft) W 265 1 min 0,000 mm 0,0 UV-I 269 W/m -3,7 C 5,4 C 8,0 km/h (2 Bft) 86,96 %
22.03.2018 16:21 5,4 C 4,4 C 51 % 1014,4 hPa 0,0 l/m 7,4 km/h (2 Bft) NW 310 1 min 0,000 mm 0,0 UV-I 220 W/m -3,9 C 4,5 C 12,9 km/h (3 Bft) 95,83 %
22.03.2018 16:22 5,4 C 4,4 C 53 % 1014,3 hPa 0,0 l/m 5,3 km/h (1 Bft) W 268 1 min 0,000 mm 0,0 UV-I 207 W/m -3,4 C 5,4 C 9,7 km/h (2 Bft) 95,65 %
22.03.2018 16:23 5,3 C 4,4 C 50 % 1014,3 hPa 0,0 l/m 4,8 km/h (1 Bft) W-NW 299 1 min 0,000 mm 0,0 UV-I 174 W/m -4,3 C 5,3 C 6,4 km/h (2 Bft) 95,83 %
22.03.2018 16:24 5,3 C 4,4 C 50 % 1014,3 hPa 0,0 l/m 5,8 km/h (2 Bft) W 262 0 min 0,000 mm 0,0 UV-I 170 W/m -4,3 C 5,3 C 9,7 km/h (2 Bft) 95,65 %
22.03.2018 16:25 5,3 C 4,4 C 52 % 1014,3 hPa 0,0 l/m 8,7 km/h (2 Bft) W 259 0 min 0,000 mm 0,0 UV-I 166 W/m -3,7 C 3,4 C 14,5 km/h (3 Bft) 100,00 %
22.03.2018 16:26 5,2 C 4,4 C 52 % 1014,3 hPa 0,0 l/m 9,5 km/h (2 Bft) W 261 0 min 0,000 mm 0,0 UV-I 162 W/m -3,8 C 2,7 C 14,5 km/h (3 Bft) 91,30 %
22.03.2018 16:27 5,2 C 4,4 C 52 % 1014,3 hPa 0,0 l/m 6,4 km/h (2 Bft) W-SW 258 0 min 0,000 mm 0,0 UV-I 157 W/m -3,8 C 5,2 C 9,7 km/h (2 Bft) 95,83 %
22.03.2018 16:28 5,1 C 4,4 C 51 % 1014,3 hPa 0,0 l/m 3,8 km/h (1 Bft) W-SW 237 0 min 0,000 mm 0,0 UV-I 152 W/m -4,2 C 5,1 C 6,4 km/h (2 Bft) 95,65 %
22.03.2018 16:29 5,2 C 4,4 C 52 % 1014,3 hPa 0,0 l/m 4,0 km/h (1 Bft) W-SW 258 0 min 0,000 mm 0,0 UV-I 145 W/m -3,8 C 5,2 C 6,4 km/h (2 Bft) 91,67 %
22.03.2018 16:30 5,2 C 4,4 C 52 % 1014,3 hPa 0,0 l/m 2,8 km/h (1 Bft) W 259 0 min 0,000 mm 0,0 UV-I 139 W/m -3,8 C 5,2 C 4,8 km/h (1 Bft) 100,00 %
22.03.2018 16:31 5,2 C 4,4 C 52 % 1014,3 hPa 0,0 l/m 4,3 km/h (1 Bft) W-NW 301 0 min 0,000 mm 0,0 UV-I 133 W/m -3,8 C 5,2 C 6,4 km/h (2 Bft) 91,67 %
22.03.2018 16:32 5,2 C 4,4 C 53 % 1014,3 hPa 0,0 l/m 2,2 km/h (1 Bft) W-NW 300 0 min 0,000 mm 0,0 UV-I 128 W/m -3,6 C 5,2 C 3,2 km/h (1 Bft) 100,00 %
22.03.2018 16:33 5,1 C 4,4 C 53 % 1014,3 hPa 0,0 l/m 2,1 km/h (1 Bft) W-NW 302 0 min 0,000 mm 0,0 UV-I 127 W/m -3,7 C 5,1 C 3,2 km/h (1 Bft) 91,30 %
22.03.2018 16:34 5,1 C 4,4 C 52 % 1014,3 hPa 0,0 l/m 6,0 km/h (2 Bft) NW 315 0 min 0,000 mm 0,0 UV-I 130 W/m -3,9 C 5,1 C 14,5 km/h (3 Bft) 91,67 %
22.03.2018 16:35 5,0 C 4,4 C 53 % 1014,3 hPa 0,0 l/m 6,5 km/h (2 Bft) W 276 1 min 0,000 mm 0,0 UV-I 160 W/m -3,8 C 4,9 C 11,3 km/h (2 Bft) 90,62 %
22.03.2018 16:36 5,0 C 4,4 C 52 % 1014,3 hPa 0,0 l/m 4,0 km/h (1 Bft) W 277 1 min 0,000 mm 0,0 UV-I 176 W/m -4,0 C 5,0 C 6,4 km/h (2 Bft) 91,30 %
22.03.2018 16:37 5,0 C 4,4 C 51 % 1014,3 hPa 0,0 l/m 2,9 km/h (1 Bft) SW 217 0 min 0,000 mm 0,0 UV-I 150 W/m -4,3 C 5,0 C 4,8 km/h (1 Bft) 100,00 %
22.03.2018 16:38 5,0 C 4,4 C 52 % 1014,3 hPa 0,0 l/m 4,7 km/h (1 Bft) W 263 0 min 0,000 mm 0,0 UV-I 132 W/m -4,0 C 5,0 C 12,9 km/h (3 Bft) 95,65 %
22.03.2018 16:39 5,1 C 4,4 C 54 % 1014,3 hPa 0,0 l/m 7,7 km/h (2 Bft) W 262 0 min 0,000 mm 0,0 UV-I 127 W/m -3,4 C 4,0 C 11,3 km/h (2 Bft) 95,83 %
22.03.2018 16:40 5,1 C 4,4 C 52 % 1014,3 hPa 0,0 l/m 6,1 km/h (2 Bft) W 263 0 min 0,000 mm 0,0 UV-I 124 W/m -3,9 C 5,1 C 9,7 km/h (2 Bft) 95,83 %
22.03.2018 16:41 5,1 C 4,4 C 53 % 1014,3 hPa 0,0 l/m 5,1 km/h (1 Bft) NW 305 0 min 0,000 mm 0,0 UV-I 123 W/m -3,7 C 5,1 C 6,4 km/h (2 Bft) 95,65 %
22.03.2018 16:42 5,1 C 4,4 C 54 % 1014,2 hPa 0,0 l/m 4,8 km/h (1 Bft) NW 315 0 min 0,000 mm 0,0 UV-I 123 W/m -3,4 C 5,1 C 6,4 km/h (2 Bft) 95,83 %
22.03.2018 16:43 5,1 C 4,4 C 53 % 1014,3 hPa 0,0 l/m 9,9 km/h (2 Bft) W 269 0 min 0,000 mm 0,0 UV-I 124 W/m -3,7 C 2,3 C 17,7 km/h (3 Bft) 91,30 %
22.03.2018 16:44 5,1 C 4,4 C 54 % 1014,2 hPa 0,0 l/m 12,7 km/h (3 Bft) W-SW 255 0 min 0,000 mm 0,0 UV-I 125 W/m -3,4 C 0,5 C 17,7 km/h (3 Bft) 100,00 %
22.03.2018 16:45 5,1 C 4,4 C 51 % 1014,2 hPa 0,0 l/m 10,9 km/h (2 Bft) W-NW 295 0 min 0,000 mm 0,0 UV-I 127 W/m -4,2 C 1,6 C 14,5 km/h (3 Bft) 95,65 %
22.03.2018 16:46 5,0 C 4,4 C 50 % 1014,2 hPa 0,0 l/m 8,0 km/h (2 Bft) W 259 0 min 0,000 mm 0,0 UV-I 128 W/m -4,5 C 3,6 C 12,9 km/h (3 Bft) 100,00 %
22.03.2018 16:47 4,9 C 4,4 C 52 % 1014,2 hPa 0,0 l/m 9,2 km/h (2 Bft) W-NW 284 0 min 0,000 mm 0,0 UV-I 128 W/m -4,1 C 2,5 C 12,9 km/h (3 Bft) 95,65 %
22.03.2018 16:48 4,9 C 4,4 C 52 % 1014,2 hPa 0,0 l/m 4,4 km/h (1 Bft) W 275 0 min 0,000 mm 0,0 UV-I 128 W/m -4,1 C 4,9 C 6,4 km/h (2 Bft) 96,30 %
22.03.2018 16:49 4,9 C 4,4 C 51 % 1014,2 hPa 0,0 l/m 5,0 km/h (1 Bft) W 267 0 min 0,000 mm 0,0 UV-I 128 W/m -4,4 C 4,9 C 11,3 km/h (2 Bft) 91,30 %
22.03.2018 16:50 4,9 C 4,4 C 51 % 1014,2 hPa 0,0 l/m 3,5 km/h (1 Bft) NW 306 0 min 0,000 mm 0,0 UV-I 128 W/m -4,4 C 4,9 C 4,8 km/h (1 Bft) 100,00 %
22.03.2018 16:51 4,9 C 4,4 C 52 % 1014,3 hPa 0,0 l/m 2,8 km/h (1 Bft) W-SW 257 0 min 0,000 mm 0,0 UV-I 127 W/m -4,1 C 4,9 C 6,4 km/h (2 Bft) 86,96 %
22.03.2018 16:52 4,9 C 4,4 C 52 % 1014,2 hPa 0,0 l/m 2,8 km/h (1 Bft) W 279 0 min 0,000 mm 0,0 UV-I 124 W/m -4,1 C 4,9 C 4,8 km/h (1 Bft) 100,00 %
22.03.2018 16:53 4,9 C 4,4 C 52 % 1014,2 hPa 0,0 l/m 3,4 km/h (1 Bft) W 278 0 min 0,000 mm 0,0 UV-I 121 W/m -4,1 C 4,9 C 4,8 km/h (1 Bft) 95,65 %
22.03.2018 16:54 4,9 C 4,4 C 53 % 1014,2 hPa 0,0 l/m 9,7 km/h (2 Bft) W-NW 290 0 min 0,000 mm 0,0 UV-I 116 W/m -3,9 C 2,2 C 14,5 km/h (3 Bft) 100,00 %
22.03.2018 16:55 4,9 C 4,4 C 52 % 1014,2 hPa 0,0 l/m 4,6 km/h (1 Bft) W 261 0 min 0,000 mm 0,0 UV-I 108 W/m -4,1 C 4,9 C 6,4 km/h (2 Bft) 91,30 %
22.03.2018 16:56 4,8 C 4,4 C 53 % 1014,3 hPa 0,0 l/m 8,0 km/h (2 Bft) NW 304 0 min 0,000 mm 0,0 UV-I 102 W/m -4,0 C 3,4 C 11,3 km/h (2 Bft) 100,00 %
22.03.2018 16:57 4,9 C 4,4 C 53 % 1014,2 hPa 0,0 l/m 7,6 km/h (2 Bft) W-NW 292 0 min 0,000 mm 0,0 UV-I 96 W/m -3,9 C 3,8 C 11,3 km/h (2 Bft) 100,00 %
22.03.2018 16:58 4,9 C 4,4 C 51 % 1014,2 hPa 0,0 l/m 6,0 km/h (2 Bft) W 281 0 min 0,000 mm 0,0 UV-I 92 W/m -4,4 C 4,9 C 9,7 km/h (2 Bft) 100,00 %
22.03.2018 16:59 4,8 C 4,4 C 51 % 1014,2 hPa 0,0 l/m 5,0 km/h (1 Bft) W 270 0 min 0,000 mm 0,0 UV-I 90 W/m -4,5 C 4,8 C 6,4 km/h (2 Bft) 100,00 %
22.03.2018 17:00 4,8 C 4,4 C 51 % 1014,2 hPa 0,0 l/m 5,5 km/h (1 Bft) W 271 0 min 0,000 mm 0,0 UV-I 89 W/m -4,5 C 4,8 C 8,0 km/h (2 Bft) 95,65 %
22.03.2018 17:01 4,8 C 4,4 C 50 % 1014,2 hPa 0,0 l/m 5,5 km/h (1 Bft) NW 324 0 min 0,101 mm 0,0 UV-I 86 W/m -4,7 C 4,8 C 8,0 km/h (2 Bft) 100,00 %
22.03.2018 17:02 4,8 C 4,4 C 52 % 1014,1 hPa 0,0 l/m 4,7 km/h (1 Bft) W-SW 254 0 min 0,000 mm 0,0 UV-I 86 W/m -4,2 C 4,8 C 8,0 km/h (2 Bft) 91,30 %
22.03.2018 17:03 4,8 C 4,4 C 51 % 1014,2 hPa 0,0 l/m 4,1 km/h (1 Bft) W 278 0 min 0,000 mm 0,0 UV-I 84 W/m -4,5 C 4,8 C 4,8 km/h (1 Bft) 100,00 %
22.03.2018 17:04 4,8 C 4,4 C 53 % 1014,1 hPa 0,0 l/m 4,4 km/h (1 Bft) W-NW 290 0 min 0,000 mm 0,0 UV-I 84 W/m -4,0 C 4,8 C 12,9 km/h (3 Bft) 95,65 %
22.03.2018 17:05 4,8 C 4,4 C 51 % 1014,1 hPa 0,0 l/m 5,4 km/h (1 Bft) W-SW 238 0 min 0,000 mm 0,0 UV-I 84 W/m -4,5 C 4,8 C 9,7 km/h (2 Bft) 100,00 %
22.03.2018 17:06 4,8 C 4,4 C 53 % 1014,1 hPa 0,0 l/m 8,6 km/h (2 Bft) NW 323 0 min 0,000 mm 0,0 UV-I 85 W/m -4,0 C 2,9 C 14,5 km/h (3 Bft) 100,00 %
22.03.2018 17:07 4,8 C 4,4 C 51 % 1014,1 hPa 0,0 l/m 4,7 km/h (1 Bft) W 263 0 min 0,000 mm 0,0 UV-I 88 W/m -4,5 C 4,8 C 6,4 km/h (2 Bft) 100,00 %
22.03.2018 17:08 4,7 C 4,4 C 53 % 1014,0 hPa 0,0 l/m 3,9 km/h (1 Bft) W-SW 248 0 min 0,000 mm 0,0 UV-I 90 W/m -4,0 C 4,7 C 6,4 km/h (2 Bft) 91,30 %
22.03.2018 17:09 4,7 C 4,4 C 52 % 1014,0 hPa 0,0 l/m 6,2 km/h (2 Bft) W-NW 287 0 min 0,000 mm 0,0 UV-I 92 W/m -4,3 C 4,7 C 9,7 km/h (2 Bft) 100,00 %
22.03.2018 17:10 4,7 C 4,4 C 53 % 1014,0 hPa 0,0 l/m 8,3 km/h (2 Bft) W-NW 284 0 min 0,000 mm 0,0 UV-I 96 W/m -4,0 C 3,0 C 12,9 km/h (3 Bft) 100,00 %
22.03.2018 17:11 4,7 C 4,4 C 52 % 1014,0 hPa 0,0 l/m 7,0 km/h (2 Bft) W 275 0 min 0,000 mm 0,0 UV-I 97 W/m -4,3 C 4,2 C 9,7 km/h (2 Bft) 100,00 %
22.03.2018 17:12 4,7 C 4,4 C 53 % 1014,0 hPa 0,0 l/m 7,3 km/h (2 Bft) W 272 0 min 0,000 mm 0,0 UV-I 97 W/m -4,0 C 3,9 C 9,7 km/h (2 Bft) 100,00 %
22.03.2018 17:13 4,7 C 4,4 C 54 % 1014,1 hPa 0,0 l/m 6,4 km/h (2 Bft) W 279 0 min 0,000 mm 0,0 UV-I 95 W/m -3,8 C 4,7 C 9,7 km/h (2 Bft) 100,00 %
22.03.2018 17:14 4,7 C 4,4 C 54 % 1014,0 hPa 0,0 l/m 7,3 km/h (2 Bft) NW 317 0 min 0,000 mm 0,0 UV-I 95 W/m -3,8 C 3,9 C 11,3 km/h (2 Bft) 100,00 %
22.03.2018 17:15 4,7 C 4,4 C 51 % 1014,0 hPa 0,0 l/m 4,1 km/h (1 Bft) W-NW 301 0 min 0,000 mm 0,0 UV-I 93 W/m -4,6 C 4,7 C 8,0 km/h (2 Bft) 100,00 %
22.03.2018 17:16 4,7 C 4,4 C 51 % 1014,0 hPa 0,0 l/m 6,9 km/h (2 Bft) W 279 1 min 0,000 mm 0,0 UV-I 93 W/m -4,6 C 4,3 C 11,3 km/h (2 Bft) 100,00 %
22.03.2018 17:17 4,7 C 4,4 C 53 % 1014,0 hPa 0,0 l/m 7,2 km/h (2 Bft) N-NW 330 1 min 0,000 mm 0,0 UV-I 94 W/m -4,0 C 4,0 C 14,5 km/h (3 Bft) 100,00 %
22.03.2018 17:18 4,7 C 4,4 C 52 % 1014,0 hPa 0,0 l/m 5,4 km/h (1 Bft) W 276 1 min 0,000 mm 0,0 UV-I 97 W/m -4,3 C 4,7 C 9,7 km/h (2 Bft) 100,00 %
22.03.2018 17:19 4,7 C 4,4 C 51 % 1014,0 hPa 0,0 l/m 4,4 km/h (1 Bft) N 11 1 min 0,000 mm 0,0 UV-I 97 W/m -4,6 C 4,7 C 6,4 km/h (2 Bft) 100,00 %
22.03.2018 17:20 4,7 C 4,4 C 53 % 1014,0 hPa 0,0 l/m 4,1 km/h (1 Bft) W 281 1 min 0,000 mm 0,0 UV-I 96 W/m -4,0 C 4,7 C 6,4 km/h (2 Bft) 100,00 %
22.03.2018 17:21 4,6 C 4,4 C 53 % 1014,0 hPa 0,0 l/m 3,7 km/h (1 Bft) W 279 1 min 0,000 mm 0,0 UV-I 92 W/m -4,1 C 4,6 C 6,4 km/h (2 Bft) 100,00 %
22.03.2018 17:22 4,6 C 4,4 C 53 % 1014,0 hPa 0,0 l/m 1,9 km/h (1 Bft) W 280 1 min 0,000 mm 0,0 UV-I 88 W/m -4,1 C 4,6 C 3,2 km/h (1 Bft) 100,00 %
22.03.2018 17:23 4,6 C 4,4 C 52 % 1014,0 hPa 0,0 l/m 2,7 km/h (1 Bft) W 279 1 min 0,000 mm 0,0 UV-I 84 W/m -4,4 C 4,6 C 4,8 km/h (1 Bft) 100,00 %
22.03.2018 17:24 4,6 C 4,4 C 52 % 1013,9 hPa 0,0 l/m 2,8 km/h (1 Bft) W 279 1 min 0,000 mm 0,0 UV-I 80 W/m -4,4 C 4,6 C 4,8 km/h (1 Bft) 100,00 %
22.03.2018 17:25 4,6 C 4,4 C 52 % 1013,9 hPa 0,0 l/m 2,9 km/h (1 Bft) W 275 0 min 0,000 mm 0,0 UV-I 76 W/m -4,4 C 4,6 C 4,8 km/h (1 Bft) 95,65 %
22.03.2018 17:26 4,6 C 4,4 C 54 % 1014,0 hPa 0,0 l/m 10,9 km/h (2 Bft) W 277 0 min 0,000 mm 0,0 UV-I 72 W/m -3,9 C 1,0 C 14,5 km/h (3 Bft) 100,00 %
22.03.2018 17:27 4,6 C 4,4 C 52 % 1013,9 hPa 0,0 l/m 5,6 km/h (1 Bft) W-SW 252 0 min 0,000 mm 0,0 UV-I 69 W/m -4,4 C 4,6 C 9,7 km/h (2 Bft) 100,00 %
22.03.2018 17:28 4,6 C 4,4 C 50 % 1014,0 hPa 0,0 l/m 4,5 km/h (1 Bft) W-SW 244 0 min 0,000 mm 0,0 UV-I 66 W/m -4,9 C 4,6 C 6,4 km/h (2 Bft) 100,00 %
22.03.2018 17:29 4,6 C 4,4 C 52 % 1014,0 hPa 0,0 l/m 4,9 km/h (1 Bft) W-NW 292 0 min 0,000 mm 0,0 UV-I 63 W/m -4,4 C 4,6 C 6,4 km/h (2 Bft) 100,00 %
22.03.2018 17:30 4,6 C 4,4 C 52 % 1014,0 hPa 0,0 l/m 4,3 km/h (1 Bft) W-NW 283 0 min 0,000 mm 0,0 UV-I 60 W/m -4,4 C 4,6 C 4,8 km/h (1 Bft) 100,00 %
22.03.2018 17:31 4,6 C 4,4 C 53 % 1014,0 hPa 0,0 l/m 3,2 km/h (1 Bft) W-NW 296 0 min 0,000 mm 0,0 UV-I 58 W/m -4,1 C 4,6 C 6,4 km/h (2 Bft) 100,00 %
22.03.2018 17:32 4,6 C 4,4 C 54 % 1014,0 hPa 0,0 l/m 5,0 km/h (1 Bft) N-NW 340 0 min 0,000 mm 0,0 UV-I 56 W/m -3,9 C 4,6 C 8,0 km/h (2 Bft) 100,00 %
22.03.2018 17:33 4,5 C 4,4 C 54 % 1014,0 hPa 0,0 l/m 3,5 km/h (1 Bft) W-NW 290 0 min 0,000 mm 0,0 UV-I 54 W/m -4,0 C 4,5 C 6,4 km/h (2 Bft) 100,00 %
22.03.2018 17:34 4,5 C 4,4 C 52 % 1014,0 hPa 0,0 l/m 5,6 km/h (1 Bft) W-NW 300 0 min 0,000 mm 0,0 UV-I 52 W/m -4,5 C 4,5 C 11,3 km/h (2 Bft) 100,00 %
22.03.2018 17:35 4,4 C 4,4 C 52 % 1014,0 hPa 0,0 l/m 5,8 km/h (2 Bft) W-NW 284 0 min 0,000 mm 0,0 UV-I 50 W/m -4,6 C 4,4 C 9,7 km/h (2 Bft) 100,00 %
22.03.2018 17:36 4,4 C 4,4 C 51 % 1014,0 hPa 0,0 l/m 5,2 km/h (1 Bft) NW 305 0 min 0,000 mm 0,0 UV-I 47 W/m -4,8 C 4,4 C 6,4 km/h (2 Bft) 95,65 %
22.03.2018 17:37 4,4 C 4,4 C 52 % 1013,9 hPa 0,0 l/m 5,4 km/h (1 Bft) W 274 0 min 0,000 mm 0,0 UV-I 46 W/m -4,6 C 4,4 C 6,4 km/h (2 Bft) 100,00 %
22.03.2018 17:38 4,4 C 4,4 C 52 % 1014,0 hPa 0,0 l/m 2,7 km/h (1 Bft) W 275 0 min 0,000 mm 0,0 UV-I 45 W/m -4,6 C 4,4 C 4,8 km/h (1 Bft) 96,15 %
22.03.2018 17:39 4,4 C 4,4 C 53 % 1014,0 hPa 0,0 l/m 4,6 km/h (1 Bft) N-NW 340 0 min 0,000 mm 0,0 UV-I 42 W/m -4,3 C 4,4 C 12,9 km/h (3 Bft) 100,00 %
22.03.2018 17:40 4,4 C 4,4 C 52 % 1014,0 hPa 0,0 l/m 5,2 km/h (1 Bft) S-SW 200 0 min 0,000 mm 0,0 UV-I 41 W/m -4,6 C 4,4 C 6,4 km/h (2 Bft) 100,00 %
22.03.2018 17:41 4,4 C 4,4 C 52 % 1013,9 hPa 0,0 l/m 4,4 km/h (1 Bft) W 268 0 min 0,000 mm 0,0 UV-I 40 W/m -4,6 C 4,4 C 9,7 km/h (2 Bft) 100,00 %
22.03.2018 17:42 4,4 C 4,4 C 52 % 1013,9 hPa 0,0 l/m 5,7 km/h (1 Bft) W-SW 258 0 min 0,000 mm 0,0 UV-I 39 W/m -4,6 C 4,4 C 8,0 km/h (2 Bft) 95,65 %
22.03.2018 17:43 4,4 C 4,4 C 52 % 1013,9 hPa 0,0 l/m 6,8 km/h (2 Bft) W 265 0 min 0,000 mm 0,0 UV-I 39 W/m -4,6 C 4,1 C 9,7 km/h (2 Bft) 100,00 %
22.03.2018 17:44 4,3 C 4,4 C 51 % 1013,9 hPa 0,0 l/m 6,1 km/h (2 Bft) W-NW 301 0 min 0,000 mm 0,0 UV-I 38 W/m -4,9 C 4,3 C 9,7 km/h (2 Bft) 100,00 %
22.03.2018 17:45 4,3 C 4,4 C 50 % 1013,9 hPa 0,0 l/m 9,4 km/h (2 Bft) W-NW 299 0 min 0,000 mm 0,0 UV-I 37 W/m -5,2 C 1,7 C 12,9 km/h (3 Bft) 100,00 %
22.03.2018 17:46 4,3 C 4,4 C 51 % 1013,9 hPa 0,0 l/m 5,4 km/h (1 Bft) W-SW 248 0 min 0,000 mm 0,0 UV-I 37 W/m -4,9 C 4,3 C 6,4 km/h (2 Bft) 100,00 %
22.03.2018 17:47 4,3 C 4,4 C 51 % 1013,9 hPa 0,0 l/m 6,8 km/h (2 Bft) W-NW 284 0 min 0,000 mm 0,0 UV-I 36 W/m -4,9 C 3,9 C 9,7 km/h (2 Bft) 100,00 %
22.03.2018 17:48 4,3 C 4,4 C 51 % 1013,9 hPa 0,0 l/m 8,5 km/h (2 Bft) W-NW 296 0 min 0,000 mm 0,0 UV-I 35 W/m -4,9 C 2,5 C 16,1 km/h (3 Bft) 100,00 %
22.03.2018 17:49 4,3 C 4,4 C 51 % 1013,9 hPa 0,0 l/m 4,9 km/h (1 Bft) W-NW 283 0 min 0,000 mm 0,0 UV-I 35 W/m -4,9 C 4,3 C 6,4 km/h (2 Bft) 100,00 %
22.03.2018 17:50 4,2 C 4,4 C 51 % 1013,9 hPa 0,0 l/m 8,3 km/h (2 Bft) W-SW 255 0 min 0,000 mm 0,0 UV-I 33 W/m -5,0 C 2,5 C 12,9 km/h (3 Bft) 100,00 %
22.03.2018 17:51 4,2 C 4,4 C 51 % 1013,9 hPa 0,0 l/m 4,9 km/h (1 Bft) W 278 0 min 0,000 mm 0,0 UV-I 33 W/m -5,0 C 4,2 C 6,4 km/h (2 Bft) 95,65 %
22.03.2018 17:52 4,2 C 4,4 C 52 % 1013,9 hPa 0,0 l/m 6,5 km/h (2 Bft) W 275 0 min 0,000 mm 0,0 UV-I 32 W/m -4,8 C 4,1 C 14,5 km/h (3 Bft) 100,00 %
22.03.2018 17:53 4,2 C 4,4 C 51 % 1013,9 hPa 0,0 l/m 8,0 km/h (2 Bft) W 259 0 min 0,000 mm 0,0 UV-I 32 W/m -5,0 C 2,8 C 12,9 km/h (3 Bft) 100,00 %
22.03.2018 17:54 4,2 C 4,4 C 52 % 1013,9 hPa 0,0 l/m 5,8 km/h (2 Bft) W 273 0 min 0,000 mm 0,0 UV-I 30 W/m -4,8 C 4,2 C 11,3 km/h (2 Bft) 100,00 %
22.03.2018 17:55 4,2 C 4,4 C 51 % 1013,9 hPa 0,0 l/m 6,8 km/h (2 Bft) W 260 0 min 0,000 mm 0,0 UV-I 30 W/m -5,0 C 3,8 C 12,9 km/h (3 Bft) 95,65 %
22.03.2018 17:56 4,2 C 4,4 C 52 % 1013,9 hPa 0,0 l/m 4,4 km/h (1 Bft) W 279 0 min 0,000 mm 0,0 UV-I 28 W/m -4,8 C 4,2 C 4,8 km/h (1 Bft) 100,00 %
22.03.2018 17:57 4,2 C 4,4 C 52 % 1013,9 hPa 0,0 l/m 4,2 km/h (1 Bft) W-NW 283 1 min 0,000 mm 0,0 UV-I 28 W/m -4,8 C 4,2 C 6,4 km/h (2 Bft) 100,00 %
22.03.2018 17:58 4,2 C 4,4 C 53 % 1013,9 hPa 0,0 l/m 3,6 km/h (1 Bft) W 279 1 min 0,000 mm 0,0 UV-I 27 W/m -4,5 C 4,2 C 6,4 km/h (2 Bft) 100,00 %
22.03.2018 17:59 4,1 C 4,4 C 53 % 1013,9 hPa 0,0 l/m 4,2 km/h (1 Bft) W 267 1 min 0,000 mm 0,0 UV-I 26 W/m -4,6 C 4,1 C 4,8 km/h (1 Bft) 95,65 %
22.03.2018 18:00 4,1 C 4,4 C 53 % 1013,9 hPa 0,0 l/m 5,5 km/h (1 Bft) W-NW 286 1 min 0,000 mm 0,0 UV-I 25 W/m -4,6 C 4,1 C 6,4 km/h (2 Bft) 100,00 %
22.03.2018 18:01 4,1 C 4,4 C 53 % 1013,9 hPa 0,0 l/m 4,5 km/h (1 Bft) W-NW 293 1 min 0,051 mm 0,0 UV-I 25 W/m -4,6 C 4,1 C 6,4 km/h (2 Bft) 96,15 %
22.03.2018 18:02 4,1 C 4,4 C 53 % 1013,9 hPa 0,0 l/m 5,4 km/h (1 Bft) W 271 1 min 0,000 mm 0,0 UV-I 24 W/m -4,6 C 4,1 C 9,7 km/h (2 Bft) 100,00 %
22.03.2018 18:03 4,1 C 4,4 C 53 % 1013,9 hPa 0,0 l/m 2,8 km/h (1 Bft) NW 312 1 min 0,000 mm 0,0 UV-I 22 W/m -4,6 C 4,1 C 4,8 km/h (1 Bft) 100,00 %
22.03.2018 18:04 4,0 C 4,4 C 54 % 1013,9 hPa 0,0 l/m 4,0 km/h (1 Bft) NW 307 1 min 0,000 mm 0,0 UV-I 21 W/m -4,4 C 4,0 C 4,8 km/h (1 Bft) 100,00 %
22.03.2018 18:05 4,0 C 4,4 C 53 % 1013,9 hPa 0,0 l/m 4,2 km/h (1 Bft) W-NW 293 1 min 0,000 mm 0,0 UV-I 19 W/m -4,7 C 4,0 C 6,4 km/h (2 Bft) 100,00 %
22.03.2018 18:06 3,9 C 4,4 C 54 % 1013,9 hPa 0,0 l/m 2,3 km/h (1 Bft) W-NW 293 1 min 0,000 mm 0,0 UV-I 18 W/m -4,5 C 3,9 C 4,8 km/h (1 Bft) 95,83 %
22.03.2018 18:07 3,9 C 4,4 C 55 % 1013,9 hPa 0,0 l/m 6,4 km/h (2 Bft) W 280 1 min 0,000 mm 0,0 UV-I 16 W/m -4,3 C 3,9 C 11,3 km/h (2 Bft) 95,65 %
22.03.2018 18:08 3,9 C 4,4 C 54 % 1013,9 hPa 0,0 l/m 10,4 km/h (2 Bft) NW 306 1 min 0,000 mm 0,0 UV-I 16 W/m -4,5 C 0,6 C 16,1 km/h (3 Bft) 91,67 %
22.03.2018 18:09 3,9 C 4,4 C 52 % 1013,9 hPa 0,0 l/m 8,6 km/h (2 Bft) W 274 1 min 0,000 mm 0,0 UV-I 13 W/m -5,0 C 1,9 C 11,3 km/h (2 Bft) 100,00 %
22.03.2018 18:10 3,9 C 4,4 C 52 % 1013,9 hPa 0,0 l/m 5,4 km/h (1 Bft) W-NW 292 0 min 0,000 mm 0,0 UV-I 12 W/m -5,0 C 3,9 C 11,3 km/h (2 Bft) 95,83 %
22.03.2018 18:11 3,9 C 4,4 C 52 % 1013,9 hPa 0,0 l/m 7,7 km/h (2 Bft) W 269 0 min 0,000 mm 0,0 UV-I 11 W/m -5,0 C 2,7 C 12,9 km/h (3 Bft) 95,65 %
22.03.2018 18:12 3,9 C 4,4 C 51 % 1013,9 hPa 0,0 l/m 3,8 km/h (1 Bft) W 273 0 min 0,000 mm 0,0 UV-I 11 W/m -5,3 C 3,9 C 9,7 km/h (2 Bft) 100,00 %
22.03.2018 18:13 3,9 C 4,4 C 52 % 1014,0 hPa 0,0 l/m 3,9 km/h (1 Bft) W 277 0 min 0,000 mm 0,0 UV-I 9 W/m -5,0 C 3,9 C 6,4 km/h (2 Bft) 95,65 %
22.03.2018 18:14 3,9 C 4,4 C 52 % 1014,0 hPa 0,0 l/m 2,7 km/h (1 Bft) W 277 0 min 0,000 mm 0,0 UV-I 8 W/m -5,0 C 3,9 C 4,8 km/h (1 Bft) 95,83 %
22.03.2018 18:15 3,9 C 4,4 C 53 % 1014,0 hPa 0,0 l/m 2,1 km/h (1 Bft) W 277 0 min 0,000 mm 0,0 UV-I 7 W/m -4,8 C 3,9 C 3,2 km/h (1 Bft) 95,83 %
22.03.2018 18:16 3,8 C 4,4 C 53 % 1014,0 hPa 0,0 l/m 3,7 km/h (1 Bft) NW 310 0 min 0,000 mm 0,0 UV-I 7 W/m -4,9 C 3,8 C 6,4 km/h (2 Bft) 95,65 %
22.03.2018 18:17 3,8 C 4,4 C 53 % 1014,0 hPa 0,0 l/m 9,9 km/h (2 Bft) W 279 0 min 0,000 mm 0,0 UV-I 7 W/m -4,9 C 0,8 C 16,1 km/h (3 Bft) 91,67 %
22.03.2018 18:18 3,8 C 4,4 C 52 % 1013,9 hPa 0,0 l/m 11,0 km/h (2 Bft) NW 304 0 min 0,000 mm 0,0 UV-I 5 W/m -5,1 C 0,0 C 14,5 km/h (3 Bft) 100,00 %
22.03.2018 18:19 3,9 C 4,4 C 52 % 1013,9 hPa 0,0 l/m 10,7 km/h (2 Bft) W 271 0 min 0,000 mm 0,0 UV-I 5 W/m -5,0 C 0,4 C 12,9 km/h (3 Bft) 95,83 %
22.03.2018 18:20 3,9 C 4,4 C 51 % 1013,9 hPa 0,0 l/m 5,7 km/h (1 Bft) W 272 0 min 0,000 mm 0,0 UV-I 5 W/m -5,3 C 3,9 C 11,3 km/h (2 Bft) 100,00 %
22.03.2018 18:21 3,9 C 4,4 C 51 % 1013,9 hPa 0,0 l/m 4,8 km/h (1 Bft) W-NW 302 0 min 0,000 mm 0,0 UV-I 5 W/m -5,3 C 3,9 C 9,7 km/h (2 Bft) 91,67 %
22.03.2018 18:22 3,9 C 4,4 C 52 % 1013,9 hPa 0,0 l/m 4,8 km/h (1 Bft) N-NW 331 0 min 0,000 mm 0,0 UV-I 5 W/m -5,0 C 3,9 C 8,0 km/h (2 Bft) 92,31 %
22.03.2018 18:23 3,8 C 4,4 C 52 % 1013,9 hPa 0,0 l/m 3,9 km/h (1 Bft) W-NW 297 0 min 0,000 mm 0,0 UV-I 5 W/m -5,1 C 3,8 C 4,8 km/h (1 Bft) 100,00 %
22.03.2018 18:24 3,8 C 4,4 C 53 % 1014,0 hPa 0,0 l/m 3,3 km/h (1 Bft) W-NW 296 0 min 0,000 mm 0,0 UV-I 5 W/m -4,9 C 3,8 C 4,8 km/h (1 Bft) 95,65 %
22.03.2018 18:25 3,8 C 4,4 C 52 % 1014,0 hPa 0,0 l/m 4,3 km/h (1 Bft) W-NW 298 0 min 0,000 mm 0,0 UV-I 5 W/m -5,1 C 3,8 C 8,0 km/h (2 Bft) 95,83 %
22.03.2018 18:26 3,8 C 4,4 C 53 % 1013,9 hPa 0,0 l/m 3,2 km/h (1 Bft) W-NW 297 0 min 0,000 mm 0,0 UV-I 5 W/m -4,9 C 3,8 C 3,2 km/h (1 Bft) 95,65 %
22.03.2018 18:27 3,8 C 4,4 C 53 % 1013,9 hPa 0,0 l/m 3,6 km/h (1 Bft) W-NW 302 0 min 0,000 mm 0,0 UV-I 5 W/m -4,9 C 3,8 C 4,8 km/h (1 Bft) 91,67 %
22.03.2018 18:28 3,8 C 4,4 C 53 % 1013,9 hPa 0,0 l/m 3,8 km/h (1 Bft) W-NW 284 0 min 0,000 mm 0,0 UV-I 5 W/m -4,9 C 3,8 C 4,8 km/h (1 Bft) 80,77 %
22.03.2018 18:29 3,8 C 4,4 C 52 % 1014,0 hPa 0,0 l/m 2,7 km/h (1 Bft) W-NW 285 0 min 0,000 mm 0,0 UV-I 5 W/m -5,1 C 3,8 C 6,4 km/h (2 Bft) 70,83 %
22.03.2018 18:30 3,7 C 4,4 C 53 % 1013,9 hPa 0,0 l/m 4,5 km/h (1 Bft) W 268 0 min 0,000 mm 0,0 UV-I 0 W/m -5,0 C 3,7 C 6,4 km/h (2 Bft) 100,00 %
22.03.2018 18:31 3,7 C 4,4 C 53 % 1013,9 hPa 0,0 l/m 8,0 km/h (2 Bft) W 281 0 min 0,000 mm 0,0 UV-I 0 W/m -5,0 C 2,2 C 12,9 km/h (3 Bft) 95,65 %
22.03.2018 18:32 3,7 C 4,4 C 52 % 1013,9 hPa 0,0 l/m 2,9 km/h (1 Bft) W 277 0 min 0,000 mm 0,0 UV-I 0 W/m -5,2 C 3,7 C 4,8 km/h (1 Bft) 95,83 %
22.03.2018 18:33 3,8 C 4,4 C 52 % 1013,9 hPa 0,0 l/m 4,8 km/h (1 Bft) NW 311 0 min 0,000 mm 0,0 UV-I 0 W/m -5,1 C 3,8 C 6,4 km/h (2 Bft) 95,65 %
22.03.2018 18:34 3,8 C 4,4 C 52 % 1013,8 hPa 0,0 l/m 6,8 km/h (2 Bft) W-NW 297 0 min 0,000 mm 0,0 UV-I 0 W/m -5,1 C 3,4 C 11,3 km/h (2 Bft) 100,00 %
22.03.2018 18:35 3,8 C 4,4 C 52 % 1013,8 hPa 0,0 l/m 7,8 km/h (2 Bft) W 271 0 min 0,000 mm 0,0 UV-I 0 W/m -5,1 C 2,5 C 12,9 km/h (3 Bft) 95,65 %
22.03.2018 18:36 3,8 C 4,4 C 51 % 1013,9 hPa 0,0 l/m 5,6 km/h (1 Bft) W 266 0 min 0,000 mm 0,0 UV-I 0 W/m -5,4 C 3,8 C 9,7 km/h (2 Bft) 100,00 %
22.03.2018 18:37 3,8 C 4,4 C 51 % 1013,7 hPa 0,0 l/m 4,9 km/h (1 Bft) W-NW 300 0 min 0,000 mm 0,0 UV-I 0 W/m -5,4 C 3,8 C 6,4 km/h (2 Bft) 93,10 %
22.03.2018 18:38 3,8 C 4,4 C 52 % 1013,8 hPa 0,0 l/m 5,4 km/h (1 Bft) W 261 0 min 0,000 mm 0,0 UV-I 0 W/m -5,1 C 3,8 C 6,4 km/h (2 Bft) 96,30 %
22.03.2018 18:39 3,8 C 4,4 C 52 % 1013,7 hPa 0,0 l/m 4,6 km/h (1 Bft) W 273 0 min 0,000 mm 0,0 UV-I 0 W/m -5,1 C 3,8 C 4,8 km/h (1 Bft) 100,00 %
22.03.2018 18:40 3,7 C 4,4 C 53 % 1013,8 hPa 0,0 l/m 6,2 km/h (2 Bft) W-NW 293 0 min 0,000 mm 0,0 UV-I 0 W/m -5,0 C 3,7 C 9,7 km/h (2 Bft) 95,83 %
22.03.2018 18:41 3,7 C 4,4 C 52 % 1013,8 hPa 0,0 l/m 4,3 km/h (1 Bft) W-NW 296 0 min 0,000 mm 0,0 UV-I 0 W/m -5,2 C 3,7 C 6,4 km/h (2 Bft) 100,00 %
22.03.2018 18:42 3,7 C 4,4 C 52 % 1013,7 hPa 0,0 l/m 3,3 km/h (1 Bft) W 275 0 min 0,000 mm 0,0 UV-I 0 W/m -5,2 C 3,7 C 6,4 km/h (2 Bft) 100,00 %
22.03.2018 18:43 3,7 C 4,4 C 53 % 1013,7 hPa 0,0 l/m 3,8 km/h (1 Bft) W-NW 288 0 min 0,000 mm 0,0 UV-I 0 W/m -5,0 C 3,7 C 6,4 km/h (2 Bft) 95,65 %
22.03.2018 18:44 3,6 C 4,4 C 54 % 1013,8 hPa 0,0 l/m 7,4 km/h (2 Bft) W-NW 298 0 min 0,000 mm 0,0 UV-I 0 W/m -4,8 C 2,7 C 11,3 km/h (2 Bft) 100,00 %
22.03.2018 18:45 3,6 C 4,4 C 53 % 1013,8 hPa 0,0 l/m 3,4 km/h (1 Bft) W-NW 297 0 min 0,000 mm 0,0 UV-I 0 W/m -5,1 C 3,6 C 6,4 km/h (2 Bft) 100,00 %
22.03.2018 18:46 3,7 C 4,4 C 54 % 1013,9 hPa 0,0 l/m 4,2 km/h (1 Bft) W-NW 288 0 min 0,000 mm 0,0 UV-I 0 W/m -4,7 C 3,7 C 6,4 km/h (2 Bft) 100,00 %
22.03.2018 18:47 3,6 C 4,4 C 54 % 1013,8 hPa 0,0 l/m 6,2 km/h (2 Bft) W-NW 287 0 min 0,000 mm 0,0 UV-I 0 W/m -4,8 C 3,6 C 11,3 km/h (2 Bft) 95,83 %
22.03.2018 18:48 3,6 C 4,4 C 53 % 1013,8 hPa 0,0 l/m 2,9 km/h (1 Bft) W-NW 287 0 min 0,000 mm 0,0 UV-I 0 W/m -5,1 C 3,6 C 4,8 km/h (1 Bft) 100,00 %
22.03.2018 18:49 3,6 C 4,4 C 54 % 1013,9 hPa 0,0 l/m 2,1 km/h (1 Bft) W-NW 289 0 min 0,000 mm 0,0 UV-I 0 W/m -4,8 C 3,6 C 4,8 km/h (1 Bft) 100,00 %
22.03.2018 18:50 3,6 C 4,4 C 54 % 1013,8 hPa 0,0 l/m 5,2 km/h (1 Bft) W-NW 286 0 min 0,000 mm 0,0 UV-I 0 W/m -4,8 C 3,6 C 11,3 km/h (2 Bft) 95,65 %
22.03.2018 18:51 3,6 C 4,4 C 54 % 1013,8 hPa 0,0 l/m 5,1 km/h (1 Bft) W-NW 288 0 min 0,000 mm 0,0 UV-I 0 W/m -4,8 C 3,6 C 9,7 km/h (2 Bft) 95,83 %
22.03.2018 18:52 3,6 C 4,4 C 54 % 1013,8 hPa 0,0 l/m 2,2 km/h (1 Bft) W-NW 288 0 min 0,000 mm 0,0 UV-I 0 W/m -4,8 C 3,6 C 4,8 km/h (1 Bft) 100,00 %
22.03.2018 18:53 3,5 C 4,4 C 54 % 1013,9 hPa 0,0 l/m 3,9 km/h (1 Bft) W-NW 300 0 min 0,000 mm 0,0 UV-I 0 W/m -4,9 C 3,5 C 6,4 km/h (2 Bft) 100,00 %
22.03.2018 18:54 3,5 C 4,4 C 55 % 1013,9 hPa 0,0 l/m 2,6 km/h (1 Bft) W-NW 300 0 min 0,000 mm 0,0 UV-I 0 W/m -4,7 C 3,5 C 4,8 km/h (1 Bft) 96,15 %
22.03.2018 18:55 3,4 C 4,4 C 55 % 1013,8 hPa 0,0 l/m 4,1 km/h (1 Bft) W-NW 282 0 min 0,000 mm 0,0 UV-I 0 W/m -4,8 C 3,4 C 4,8 km/h (1 Bft) 100,00 %
22.03.2018 18:56 3,4 C 4,4 C 56 % 1013,7 hPa 0,0 l/m 4,4 km/h (1 Bft) W-NW 296 0 min 0,000 mm 0,0 UV-I 0 W/m -4,5 C 3,4 C 4,8 km/h (1 Bft) 100,00 %
22.03.2018 18:57 3,4 C 4,4 C 57 % 1013,8 hPa 0,0 l/m 2,7 km/h (1 Bft) W-NW 285 0 min 0,000 mm 0,0 UV-I 0 W/m -4,3 C 3,4 C 4,8 km/h (1 Bft) 100,00 %
22.03.2018 18:58 3,3 C 4,4 C 58 % 1013,7 hPa 0,0 l/m 3,8 km/h (1 Bft) W-NW 298 0 min 0,000 mm 0,0 UV-I 0 W/m -4,2 C 3,3 C 8,0 km/h (2 Bft) 100,00 %
22.03.2018 18:59 3,3 C 4,4 C 57 % 1013,8 hPa 0,0 l/m 4,4 km/h (1 Bft) NW 318 0 min 0,000 mm 0,0 UV-I 0 W/m -4,4 C 3,3 C 6,4 km/h (2 Bft) 100,00 %
22.03.2018 19:00 3,3 C 4,4 C 57 % 1013,9 hPa 0,0 l/m 2,9 km/h (1 Bft) NW 314 0 min 0,000 mm 0,0 UV-I 0 W/m -4,4 C 3,3 C 4,8 km/h (1 Bft) 100,00 %
22.03.2018 19:01 3,3 C 4,4 C 57 % 1013,9 hPa 0,0 l/m 5,6 km/h (1 Bft) W-NW 298 0 min 0,025 mm 0,0 UV-I 0 W/m -4,4 C 3,3 C 9,7 km/h (2 Bft) 100,00 %
22.03.2018 19:02 3,3 C 4,4 C 57 % 1013,8 hPa 0,0 l/m 3,8 km/h (1 Bft) W-NW 291 0 min 0,000 mm 0,0 UV-I 0 W/m -4,4 C 3,3 C 6,4 km/h (2 Bft) 100,00 %
22.03.2018 19:03 3,2 C 4,4 C 58 % 1013,8 hPa 0,0 l/m 2,4 km/h (1 Bft) W-NW 299 0 min 0,000 mm 0,0 UV-I 0 W/m -4,3 C 3,2 C 4,8 km/h (1 Bft) 100,00 %
22.03.2018 19:04 3,2 C 4,4 C 58 % 1013,9 hPa 0,0 l/m 6,4 km/h (2 Bft) NW 323 0 min 0,000 mm 0,0 UV-I 0 W/m -4,3 C 3,2 C 12,9 km/h (3 Bft) 100,00 %
22.03.2018 19:05 3,3 C 4,4 C 57 % 1013,8 hPa 0,0 l/m 4,4 km/h (1 Bft) NW 312 0 min 0,000 mm 0,0 UV-I 0 W/m -4,4 C 3,3 C 6,4 km/h (2 Bft) 95,83 %
22.03.2018 19:06 3,3 C 4,4 C 57 % 1013,9 hPa 0,0 l/m 4,7 km/h (1 Bft) W-NW 285 0 min 0,000 mm 0,0 UV-I 0 W/m -4,4 C 3,3 C 6,4 km/h (2 Bft) 100,00 %
22.03.2018 19:07 3,3 C 4,4 C 58 % 1013,9 hPa 0,0 l/m 3,4 km/h (1 Bft) W-NW 290 0 min 0,000 mm 0,0 UV-I 0 W/m -4,2 C 3,3 C 4,8 km/h (1 Bft) 100,00 %
22.03.2018 19:08 3,3 C 4,4 C 58 % 1013,9 hPa 0,0 l/m 3,5 km/h (1 Bft) W-SW 244 0 min 0,000 mm 0,0 UV-I 0 W/m -4,2 C 3,3 C 8,0 km/h (2 Bft) 87,50 %
22.03.2018 19:09 3,3 C 4,4 C 57 % 1013,9 hPa 0,0 l/m 3,5 km/h (1 Bft) W-NW 293 0 min 0,000 mm 0,0 UV-I 0 W/m -4,4 C 3,3 C 6,4 km/h (2 Bft) 100,00 %
22.03.2018 19:10 3,3 C 4,4 C 58 % 1013,9 hPa 0,0 l/m 4,5 km/h (1 Bft) W-NW 298 0 min 0,000 mm 0,0 UV-I 0 W/m -4,2 C 3,3 C 6,4 km/h (2 Bft) 100,00 %
22.03.2018 19:11 3,3 C 4,4 C 58 % 1013,9 hPa 0,0 l/m 2,5 km/h (1 Bft) N-NW 329 0 min 0,000 mm 0,0 UV-I 0 W/m -4,2 C 3,3 C 4,8 km/h (1 Bft) 95,65 %
22.03.2018 19:12 3,2 C 4,4 C 59 % 1014,0 hPa 0,0 l/m 4,0 km/h (1 Bft) NW 304 0 min 0,000 mm 0,0 UV-I 0 W/m -4,0 C 3,2 C 9,7 km/h (2 Bft) 100,00 %
22.03.2018 19:13 3,2 C 4,4 C 59 % 1013,9 hPa 0,0 l/m 7,0 km/h (2 Bft) W 262 0 min 0,000 mm 0,0 UV-I 0 W/m -4,0 C 2,6 C 14,5 km/h (3 Bft) 100,00 %
22.03.2018 19:14 3,2 C 4,4 C 58 % 1013,9 hPa 0,0 l/m 5,9 km/h (2 Bft) W 271 0 min 0,000 mm 0,0 UV-I 0 W/m -4,3 C 3,2 C 11,3 km/h (2 Bft) 95,83 %
22.03.2018 19:15 3,2 C 4,4 C 59 % 1013,9 hPa 0,0 l/m 5,7 km/h (1 Bft) W-NW 286 0 min 0,000 mm 0,0 UV-I 0 W/m -4,0 C 3,2 C 11,3 km/h (2 Bft) 100,00 %
22.03.2018 19:16 3,2 C 4,4 C 59 % 1013,9 hPa 0,0 l/m 4,3 km/h (1 Bft) W-NW 288 0 min 0,000 mm 0,0 UV-I 0 W/m -4,0 C 3,2 C 9,7 km/h (2 Bft) 95,83 %
22.03.2018 19:17 3,2 C 4,4 C 59 % 1013,9 hPa 0,0 l/m 2,5 km/h (1 Bft) W-NW 288 0 min 0,000 mm 0,0 UV-I 0 W/m -4,0 C 3,2 C 3,2 km/h (1 Bft) 95,65 %
22.03.2018 19:18 3,1 C 4,4 C 59 % 1013,9 hPa 0,0 l/m 4,8 km/h (1 Bft) W 269 0 min 0,000 mm 0,0 UV-I 0 W/m -4,1 C 3,1 C 11,3 km/h (2 Bft) 100,00 %
22.03.2018 19:19 3,2 C 4,4 C 58 % 1013,9 hPa 0,0 l/m 6,4 km/h (2 Bft) W-NW 288 0 min 0,000 mm 0,0 UV-I 0 W/m -4,3 C 3,2 C 12,9 km/h (3 Bft) 95,65 %
22.03.2018 19:20 3,2 C 4,4 C 58 % 1013,9 hPa 0,0 l/m 5,9 km/h (2 Bft) NW 307 0 min 0,000 mm 0,0 UV-I 0 W/m -4,3 C 3,2 C 11,3 km/h (2 Bft) 100,00 %
22.03.2018 19:21 3,2 C 4,4 C 57 % 1013,9 hPa 0,0 l/m 6,2 km/h (2 Bft) W 270 0 min 0,000 mm 0,0 UV-I 0 W/m -4,5 C 3,2 C 9,7 km/h (2 Bft) 100,00 %
22.03.2018 19:22 3,2 C 4,4 C 58 % 1013,9 hPa 0,0 l/m 8,5 km/h (2 Bft) NW 306 0 min 0,000 mm 0,0 UV-I 0 W/m -4,3 C 1,3 C 12,9 km/h (3 Bft) 100,00 %
22.03.2018 19:23 3,2 C 4,4 C 57 % 1014,0 hPa 0,0 l/m 5,7 km/h (1 Bft) W-NW 293 0 min 0,000 mm 0,0 UV-I 0 W/m -4,5 C 3,2 C 9,7 km/h (2 Bft) 100,00 %
22.03.2018 19:24 3,2 C 4,4 C 59 % 1014,0 hPa 0,0 l/m 3,8 km/h (1 Bft) W-NW 291 0 min 0,000 mm 0,0 UV-I 0 W/m -4,0 C 3,2 C 6,4 km/h (2 Bft) 100,00 %
22.03.2018 19:25 3,2 C 4,4 C 59 % 1014,0 hPa 0,0 l/m 4,6 km/h (1 Bft) W-NW 288 0 min 0,000 mm 0,0 UV-I 0 W/m -4,0 C 3,2 C 6,4 km/h (2 Bft) 95,65 %
22.03.2018 19:26 3,2 C 4,4 C 58 % 1013,9 hPa 0,0 l/m 7,0 km/h (2 Bft) W-NW 291 0 min 0,000 mm 0,0 UV-I 0 W/m -4,3 C 2,6 C 11,3 km/h (2 Bft) 100,00 %
22.03.2018 19:27 3,2 C 4,4 C 58 % 1013,9 hPa 0,0 l/m 4,2 km/h (1 Bft) W-NW 302 0 min 0,000 mm 0,0 UV-I 0 W/m -4,3 C 3,2 C 8,0 km/h (2 Bft) 100,00 %
22.03.2018 19:28 3,2 C 4,4 C 59 % 1013,9 hPa 0,0 l/m 6,0 km/h (2 Bft) NW 317 0 min 0,000 mm 0,0 UV-I 0 W/m -4,0 C 3,2 C 11,3 km/h (2 Bft) 91,67 %
22.03.2018 19:29 3,1 C 4,4 C 59 % 1013,9 hPa 0,0 l/m 4,2 km/h (1 Bft) NW 313 0 min 0,000 mm 0,0 UV-I 0 W/m -4,1 C 3,1 C 6,4 km/h (2 Bft) 100,00 %
22.03.2018 19:30 3,1 C 4,4 C 60 % 1013,9 hPa 0,0 l/m 4,4 km/h (1 Bft) W 271 0 min 0,000 mm 0,0 UV-I 0 W/m -3,9 C 3,1 C 6,4 km/h (2 Bft) 100,00 %
22.03.2018 19:31 3,1 C 4,4 C 59 % 1013,9 hPa 0,0 l/m 4,0 km/h (1 Bft) W-NW 294 0 min 0,000 mm 0,0 UV-I 0 W/m -4,1 C 3,1 C 6,4 km/h (2 Bft) 95,83 %
22.03.2018 19:32 3,1 C 4,4 C 58 % 1013,9 hPa 0,0 l/m 4,3 km/h (1 Bft) NW 309 0 min 0,000 mm 0,0 UV-I 0 W/m -4,3 C 3,1 C 4,8 km/h (1 Bft) 85,71 %
22.03.2018 19:33 3,1 C 4,4 C 59 % 1013,9 hPa 0,0 l/m 4,2 km/h (1 Bft) W-SW 250 0 min 0,000 mm 0,0 UV-I 0 W/m -4,1 C 3,1 C 6,4 km/h (2 Bft) 100,00 %
22.03.2018 19:34 3,1 C 4,4 C 59 % 1013,9 hPa 0,0 l/m 9,1 km/h (2 Bft) W-NW 286 0 min 0,000 mm 0,0 UV-I 0 W/m -4,1 C 0,7 C 14,5 km/h (3 Bft) 100,00 %
22.03.2018 19:35 3,1 C 4,4 C 59 % 1013,9 hPa 0,0 l/m 8,0 km/h (2 Bft) W-NW 300 0 min 0,000 mm 0,0 UV-I 0 W/m -4,1 C 1,6 C 14,5 km/h (3 Bft) 95,83 %
22.03.2018 19:36 3,1 C 4,4 C 58 % 1013,9 hPa 0,0 l/m 4,8 km/h (1 Bft) NW 310 0 min 0,000 mm 0,0 UV-I 0 W/m -4,3 C 3,1 C 8,0 km/h (2 Bft) 91,30 %
22.03.2018 19:37 3,1 C 4,4 C 58 % 1013,9 hPa 0,0 l/m 4,5 km/h (1 Bft) W-NW 298 0 min 0,000 mm 0,0 UV-I 0 W/m -4,3 C 3,1 C 11,3 km/h (2 Bft) 100,00 %
22.03.2018 19:38 3,1 C 4,4 C 58 % 1013,9 hPa 0,0 l/m 4,2 km/h (1 Bft) W-NW 292 0 min 0,000 mm 0,0 UV-I 0 W/m -4,3 C 3,1 C 6,4 km/h (2 Bft) 100,00 %
22.03.2018 19:39 3,1 C 4,4 C 59 % 1013,9 hPa 0,0 l/m 3,8 km/h (1 Bft) W-NW 300 0 min 0,000 mm 0,0 UV-I 0 W/m -4,1 C 3,1 C 4,8 km/h (1 Bft) 100,00 %
22.03.2018 19:40 3,1 C 4,4 C 59 % 1013,9 hPa 0,0 l/m 5,5 km/h (1 Bft) W 273 0 min 0,000 mm 0,0 UV-I 0 W/m -4,1 C 3,1 C 11,3 km/h (2 Bft) 100,00 %
22.03.2018 19:41 3,1 C 4,4 C 59 % 1013,9 hPa 0,0 l/m 4,8 km/h (1 Bft) NW 314 0 min 0,000 mm 0,0 UV-I 0 W/m -4,1 C 3,1 C 6,4 km/h (2 Bft) 100,00 %
22.03.2018 19:42 3,0 C 4,4 C 59 % 1014,0 hPa 0,0 l/m 4,8 km/h (1 Bft) W-NW 285 0 min 0,000 mm 0,0 UV-I 0 W/m -4,2 C 3,0 C 8,0 km/h (2 Bft) 100,00 %
22.03.2018 19:43 3,0 C 4,4 C 60 % 1013,9 hPa 0,0 l/m 5,2 km/h (1 Bft) NW 306 0 min 0,000 mm 0,0 UV-I 0 W/m -4,0 C 3,0 C 8,0 km/h (2 Bft) 100,00 %
22.03.2018 19:44 3,0 C 4,4 C 60 % 1013,9 hPa 0,0 l/m 4,8 km/h (1 Bft) W-NW 296 0 min 0,000 mm 0,0 UV-I 0 W/m -4,0 C 3,0 C 6,4 km/h (2 Bft) 100,00 %
22.03.2018 19:45 3,0 C 4,4 C 60 % 1013,9 hPa 0,0 l/m 4,2 km/h (1 Bft) W-NW 302 0 min 0,000 mm 0,0 UV-I 0 W/m -4,0 C 3,0 C 8,0 km/h (2 Bft) 95,65 %
22.03.2018 19:46 3,0 C 4,4 C 59 % 1013,9 hPa 0,0 l/m 3,4 km/h (1 Bft) W-NW 301 0 min 0,000 mm 0,0 UV-I 0 W/m -4,2 C 3,0 C 4,8 km/h (1 Bft) 100,00 %
22.03.2018 19:47 2,9 C 4,4 C 60 % 1013,9 hPa 0,0 l/m 2,5 km/h (1 Bft) W-NW 302 0 min 0,000 mm 0,0 UV-I 0 W/m -4,1 C 2,9 C 4,8 km/h (1 Bft) 95,83 %
22.03.2018 19:48 2,9 C 4,4 C 60 % 1013,9 hPa 0,0 l/m 7,1 km/h (2 Bft) N-NW 336 0 min 0,000 mm 0,0 UV-I 0 W/m -4,1 C 2,2 C 12,9 km/h (3 Bft) 100,00 %
22.03.2018 19:49 2,9 C 4,4 C 60 % 1013,9 hPa 0,0 l/m 5,2 km/h (1 Bft) W-NW 288 0 min 0,000 mm 0,0 UV-I 0 W/m -4,1 C 2,9 C 9,7 km/h (2 Bft) 100,00 %
22.03.2018 19:50 2,9 C 4,4 C 60 % 1013,9 hPa 0,0 l/m 5,0 km/h (1 Bft) W 281 0 min 0,000 mm 0,0 UV-I 0 W/m -4,1 C 2,9 C 9,7 km/h (2 Bft) 100,00 %
22.03.2018 19:51 2,9 C 4,4 C 59 % 1013,9 hPa 0,0 l/m 7,0 km/h (2 Bft) W-NW 287 0 min 0,000 mm 0,0 UV-I 0 W/m -4,3 C 2,3 C 11,3 km/h (2 Bft) 95,65 %
22.03.2018 19:52 2,9 C 4,4 C 60 % 1013,9 hPa 0,0 l/m 4,0 km/h (1 Bft) W-NW 292 0 min 0,000 mm 0,0 UV-I 0 W/m -4,1 C 2,9 C 9,7 km/h (2 Bft) 100,00 %
22.03.2018 19:53 2,9 C 4,4 C 60 % 1013,9 hPa 0,0 l/m 4,6 km/h (1 Bft) NW 304 0 min 0,000 mm 0,0 UV-I 0 W/m -4,1 C 2,9 C 6,4 km/h (2 Bft) 95,65 %
22.03.2018 19:54 2,9 C 4,4 C 60 % 1013,9 hPa 0,0 l/m 4,1 km/h (1 Bft) W-NW 300 0 min 0,000 mm 0,0 UV-I 0 W/m -4,1 C 2,9 C 4,8 km/h (1 Bft) 95,83 %
22.03.2018 19:55 2,8 C 4,4 C 60 % 1013,9 hPa 0,0 l/m 7,3 km/h (2 Bft) NW 306 0 min 0,000 mm 0,0 UV-I 0 W/m -4,2 C 1,9 C 11,3 km/h (2 Bft) 100,00 %
22.03.2018 19:56 2,9 C 4,4 C 59 % 1013,9 hPa 0,0 l/m 4,3 km/h (1 Bft) N-NW 329 0 min 0,000 mm 0,0 UV-I 0 W/m -4,3 C 2,9 C 8,0 km/h (2 Bft) 100,00 %
22.03.2018 19:57 2,9 C 4,4 C 60 % 1013,8 hPa 0,0 l/m 3,2 km/h (1 Bft) W-NW 302 0 min 0,000 mm 0,0 UV-I 0 W/m -4,1 C 2,9 C 4,8 km/h (1 Bft) 100,00 %
22.03.2018 19:58 2,9 C 4,4 C 60 % 1013,9 hPa 0,0 l/m 7,5 km/h (2 Bft) NW 319 0 min 0,000 mm 0,0 UV-I 0 W/m -4,1 C 1,9 C 14,5 km/h (3 Bft) 100,00 %
22.03.2018 19:59 2,9 C 4,4 C 60 % 1013,9 hPa 0,0 l/m 9,3 km/h (2 Bft) W-NW 286 0 min 0,000 mm 0,0 UV-I 0 W/m -4,1 C 0,3 C 16,1 km/h (3 Bft) 95,65 %
22.03.2018 20:00 2,9 C 4,4 C 58 % 1013,9 hPa 0,0 l/m 8,0 km/h (2 Bft) NW 304 0 min 0,000 mm 0,0 UV-I 0 W/m -4,5 C 1,4 C 12,9 km/h (3 Bft) 95,83 %
22.03.2018 20:01 3,0 C 4,4 C 58 % 1013,9 hPa 0,0 l/m 8,5 km/h (2 Bft) W 272 0 min 0,026 mm 0,0 UV-I 0 W/m -4,4 C 1,1 C 17,7 km/h (3 Bft) 91,30 %
22.03.2018 20:02 3,0 C 4,4 C 58 % 1013,9 hPa 0,0 l/m 5,6 km/h (1 Bft) W 278 0 min 0,000 mm 0,0 UV-I 0 W/m -4,4 C 3,0 C 11,3 km/h (2 Bft) 100,00 %
22.03.2018 20:03 3,0 C 4,4 C 59 % 1013,9 hPa 0,0 l/m 3,2 km/h (1 Bft) W-SW 246 0 min 0,000 mm 0,0 UV-I 0 W/m -4,2 C 3,0 C 4,8 km/h (1 Bft) 93,33 %
22.03.2018 20:04 2,9 C 4,4 C 59 % 1013,9 hPa 0,0 l/m 6,3 km/h (2 Bft) NW 307 0 min 0,000 mm 0,0 UV-I 0 W/m -4,3 C 2,9 C 9,7 km/h (2 Bft) 91,30 %
22.03.2018 20:05 2,9 C 4,4 C 59 % 1013,9 hPa 0,0 l/m 5,7 km/h (1 Bft) W 270 0 min 0,000 mm 0,0 UV-I 0 W/m -4,3 C 2,9 C 9,7 km/h (2 Bft) 95,83 %
22.03.2018 20:06 2,9 C 4,4 C 59 % 1014,0 hPa 0,0 l/m 11,8 km/h (2 Bft) W-NW 293 0 min 0,000 mm 0,0 UV-I 0 W/m -4,3 C -1,5 C 16,1 km/h (3 Bft) 100,00 %
22.03.2018 20:07 2,9 C 4,4 C 58 % 1013,9 hPa 0,0 l/m 3,3 km/h (1 Bft) W-NW 293 0 min 0,000 mm 0,0 UV-I 0 W/m -4,5 C 2,9 C 6,4 km/h (2 Bft) 95,83 %
22.03.2018 20:08 2,9 C 4,4 C 60 % 1013,9 hPa 0,0 l/m 4,1 km/h (1 Bft) W 263 0 min 0,000 mm 0,0 UV-I 0 W/m -4,1 C 2,9 C 9,7 km/h (2 Bft) 92,31 %
22.03.2018 20:09 2,9 C 4,4 C 60 % 1013,9 hPa 0,0 l/m 6,0 km/h (2 Bft) NW 315 0 min 0,000 mm 0,0 UV-I 0 W/m -4,1 C 2,9 C 9,7 km/h (2 Bft) 100,00 %
22.03.2018 20:10 2,9 C 4,4 C 61 % 1013,9 hPa 0,0 l/m 5,9 km/h (2 Bft) N 360 0 min 0,000 mm 0,0 UV-I 0 W/m -3,9 C 2,9 C 11,3 km/h (2 Bft) 95,65 %
22.03.2018 20:11 2,8 C 4,4 C 61 % 1013,9 hPa 0,0 l/m 6,4 km/h (2 Bft) W-NW 303 0 min 0,000 mm 0,0 UV-I 0 W/m -4,0 C 2,8 C 14,5 km/h (3 Bft) 100,00 %
22.03.2018 20:12 2,8 C 4,4 C 61 % 1013,9 hPa 0,0 l/m 8,3 km/h (2 Bft) W-NW 283 0 min 0,000 mm 0,0 UV-I 0 W/m -4,0 C 1,0 C 14,5 km/h (3 Bft) 86,96 %
22.03.2018 20:13 2,8 C 4,4 C 61 % 1013,9 hPa 0,0 l/m 12,5 km/h (3 Bft) W-NW 284 0 min 0,000 mm 0,0 UV-I 0 W/m -4,0 C -2,1 C 17,7 km/h (3 Bft) 100,00 %
22.03.2018 20:14 2,8 C 4,4 C 61 % 1013,9 hPa 0,0 l/m 7,3 km/h (2 Bft) W-NW 295 0 min 0,000 mm 0,0 UV-I 0 W/m -4,0 C 1,9 C 11,3 km/h (2 Bft) 86,96 %
22.03.2018 20:15 2,7 C 4,4 C 61 % 1013,9 hPa 0,0 l/m 10,5 km/h (2 Bft) W-NW 290 0 min 0,000 mm 0,0 UV-I 0 W/m -4,1 C -0,8 C 16,1 km/h (3 Bft) 96,30 %
22.03.2018 20:16 2,7 C 4,4 C 60 % 1013,9 hPa 0,0 l/m 9,1 km/h (2 Bft) SW 233 0 min 0,000 mm 0,0 UV-I 0 W/m -4,3 C 0,2 C 17,7 km/h (3 Bft) 95,65 %
22.03.2018 20:17 2,7 C 4,4 C 60 % 1013,9 hPa 0,0 l/m 10,2 km/h (2 Bft) W-NW 292 0 min 0,000 mm 0,0 UV-I 0 W/m -4,3 C -0,6 C 14,5 km/h (3 Bft) 95,83 %
22.03.2018 20:18 2,7 C 4,4 C 60 % 1013,9 hPa 0,0 l/m 9,8 km/h (2 Bft) NW 313 0 min 0,000 mm 0,0 UV-I 0 W/m -4,3 C -0,3 C 17,7 km/h (3 Bft) 86,96 %
22.03.2018 20:19 2,7 C 4,4 C 61 % 1013,9 hPa 0,0 l/m 8,4 km/h (2 Bft) NW 317 0 min 0,000 mm 0,0 UV-I 0 W/m -4,1 C 0,8 C 12,9 km/h (3 Bft) 91,67 %
22.03.2018 20:20 2,6 C 4,4 C 62 % 1014,0 hPa 0,0 l/m 6,8 km/h (2 Bft) NW 306 0 min 0,000 mm 0,0 UV-I 0 W/m -3,9 C 2,2 C 14,5 km/h (3 Bft) 100,00 %
22.03.2018 20:21 2,6 C 4,4 C 61 % 1013,9 hPa 0,0 l/m 9,3 km/h (2 Bft) W-NW 300 0 min 0,000 mm 0,0 UV-I 0 W/m -4,1 C -0,0 C 12,9 km/h (3 Bft) 91,67 %
22.03.2018 20:22 2,6 C 4,4 C 61 % 1013,9 hPa 0,0 l/m 5,5 km/h (1 Bft) W 267 0 min 0,000 mm 0,0 UV-I 0 W/m -4,1 C 2,6 C 8,0 km/h (2 Bft) 91,30 %
22.03.2018 20:23 2,6 C 4,4 C 62 % 1013,9 hPa 0,0 l/m 5,6 km/h (1 Bft) N-NW 334 0 min 0,000 mm 0,0 UV-I 0 W/m -3,9 C 2,6 C 8,0 km/h (2 Bft) 95,83 %
22.03.2018 20:24 2,5 C 4,4 C 63 % 1013,9 hPa 0,0 l/m 7,8 km/h (2 Bft) W-NW 303 0 min 0,000 mm 0,0 UV-I 0 W/m -3,8 C 1,2 C 14,5 km/h (3 Bft) 95,83 %
22.03.2018 20:25 2,4 C 4,4 C 62 % 1013,9 hPa 0,0 l/m 10,8 km/h (2 Bft) W-NW 297 0 min 0,000 mm 0,0 UV-I 0 W/m -4,1 C -1,4 C 19,3 km/h (3 Bft) 95,65 %
22.03.2018 20:26 2,5 C 4,4 C 61 % 1013,9 hPa 0,0 l/m 5,5 km/h (1 Bft) NW 317 0 min 0,000 mm 0,0 UV-I 0 W/m -4,2 C 2,5 C 9,7 km/h (2 Bft) 91,67 %
22.03.2018 20:27 2,4 C 4,4 C 62 % 1013,9 hPa 0,0 l/m 6,7 km/h (2 Bft) NW 325 0 min 0,000 mm 0,0 UV-I 0 W/m -4,1 C 2,1 C 11,3 km/h (2 Bft) 92,31 %
22.03.2018 20:28 2,4 C 4,4 C 63 % 1013,9 hPa 0,0 l/m 9,5 km/h (2 Bft) W 271 0 min 0,000 mm 0,0 UV-I 0 W/m -3,9 C -0,4 C 17,7 km/h (3 Bft) 91,67 %
22.03.2018 20:29 2,4 C 4,4 C 62 % 1013,9 hPa 0,0 l/m 8,4 km/h (2 Bft) NW 308 0 min 0,000 mm 0,0 UV-I 0 W/m -4,1 C 0,5 C 17,7 km/h (3 Bft) 95,65 %
22.03.2018 20:30 2,4 C 4,4 C 62 % 1013,9 hPa 0,0 l/m 4,4 km/h (1 Bft) W-NW 298 0 min 0,000 mm 0,0 UV-I 0 W/m -4,1 C 2,4 C 8,0 km/h (2 Bft) 95,83 %
22.03.2018 20:31 2,4 C 4,4 C 62 % 1013,9 hPa 0,0 l/m 9,0 km/h (2 Bft) W-NW 282 0 min 0,000 mm 0,0 UV-I 0 W/m -4,1 C 0,0 C 12,9 km/h (3 Bft) 95,65 %
22.03.2018 20:32 2,4 C 4,4 C 62 % 1013,9 hPa 0,0 l/m 8,9 km/h (2 Bft) W-NW 286 0 min 0,000 mm 0,0 UV-I 0 W/m -4,1 C 0,1 C 16,1 km/h (3 Bft) 95,83 %
22.03.2018 20:33 2,4 C 4,4 C 62 % 1013,9 hPa 0,0 l/m 7,2 km/h (2 Bft) W-NW 289 0 min 0,000 mm 0,0 UV-I 0 W/m -4,1 C 1,6 C 14,5 km/h (3 Bft) 95,65 %
22.03.2018 20:34 2,3 C 4,4 C 63 % 1013,9 hPa 0,0 l/m 6,6 km/h (2 Bft) W-NW 288 0 min 0,000 mm 0,0 UV-I 0 W/m -4,0 C 2,1 C 11,3 km/h (2 Bft) 95,83 %
22.03.2018 20:35 2,3 C 4,4 C 63 % 1013,9 hPa 0,0 l/m 5,0 km/h (1 Bft) W 281 0 min 0,000 mm 0,0 UV-I 0 W/m -4,0 C 2,3 C 6,4 km/h (2 Bft) 95,65 %
22.03.2018 20:36 2,3 C 4,4 C 63 % 1013,9 hPa 0,0 l/m 4,1 km/h (1 Bft) W-NW 290 0 min 0,000 mm 0,0 UV-I 0 W/m -4,0 C 2,3 C 6,4 km/h (2 Bft) 93,33 %
22.03.2018 20:37 2,3 C 4,4 C 64 % 1013,9 hPa 0,0 l/m 6,5 km/h (2 Bft) W 269 0 min 0,000 mm 0,0 UV-I 0 W/m -3,8 C 2,2 C 14,5 km/h (3 Bft) 95,65 %
22.03.2018 20:38 2,3 C 4,4 C 64 % 1013,9 hPa 0,0 l/m 9,5 km/h (2 Bft) W-NW 286 0 min 0,000 mm 0,0 UV-I 0 W/m -3,8 C -0,5 C 17,7 km/h (3 Bft) 95,83 %
22.03.2018 20:39 2,3 C 4,4 C 64 % 1013,9 hPa 0,0 l/m 6,0 km/h (2 Bft) NW 326 0 min 0,000 mm 0,0 UV-I 0 W/m -3,8 C 2,3 C 11,3 km/h (2 Bft) 96,15 %
22.03.2018 20:40 2,3 C 4,4 C 64 % 1013,9 hPa 0,0 l/m 10,5 km/h (2 Bft) W-NW 302 0 min 0,000 mm 0,0 UV-I 0 W/m -3,8 C -1,3 C 16,1 km/h (3 Bft) 91,67 %
22.03.2018 20:41 2,3 C 4,4 C 64 % 1013,9 hPa 0,0 l/m 6,0 km/h (2 Bft) W 267 0 min 0,000 mm 0,0 UV-I 0 W/m -3,8 C 2,3 C 9,7 km/h (2 Bft) 100,00 %
22.03.2018 20:42 2,3 C 4,4 C 64 % 1013,8 hPa 0,0 l/m 8,8 km/h (2 Bft) W 261 0 min 0,000 mm 0,0 UV-I 0 W/m -3,8 C 0,1 C 11,3 km/h (2 Bft) 91,30 %
22.03.2018 20:43 2,2 C 4,4 C 64 % 1013,9 hPa 0,0 l/m 9,1 km/h (2 Bft) W 270 0 min 0,000 mm 0,0 UV-I 0 W/m -3,9 C -0,3 C 12,9 km/h (3 Bft) 95,83 %
22.03.2018 20:44 2,3 C 4,4 C 64 % 1013,9 hPa 0,0 l/m 10,0 km/h (2 Bft) W 280 0 min 0,000 mm 0,0 UV-I 0 W/m -3,8 C -0,9 C 14,5 km/h (3 Bft) 96,15 %
22.03.2018 20:45 2,3 C 4,4 C 63 % 1013,9 hPa 0,0 l/m 9,7 km/h (2 Bft) W-NW 288 0 min 0,000 mm 0,0 UV-I 0 W/m -4,0 C -0,7 C 14,5 km/h (3 Bft) 95,83 %
22.03.2018 20:46 2,3 C 4,4 C 64 % 1013,9 hPa 0,0 l/m 10,0 km/h (2 Bft) W-NW 286 0 min 0,000 mm 0,0 UV-I 0 W/m -3,8 C -0,9 C 14,5 km/h (3 Bft) 95,65 %
22.03.2018 20:47 2,2 C 4,4 C 64 % 1013,9 hPa 0,0 l/m 6,4 km/h (2 Bft) W 274 0 min 0,000 mm 0,0 UV-I 0 W/m -3,9 C 2,2 C 11,3 km/h (2 Bft) 95,83 %
22.03.2018 20:48 2,2 C 4,4 C 64 % 1013,9 hPa 0,0 l/m 7,0 km/h (2 Bft) W 279 0 min 0,000 mm 0,0 UV-I 0 W/m -3,9 C 1,6 C 12,9 km/h (3 Bft) 100,00 %
22.03.2018 20:49 2,2 C 4,4 C 64 % 1014,0 hPa 0,0 l/m 6,9 km/h (2 Bft) W 279 0 min 0,000 mm 0,0 UV-I 0 W/m -3,9 C 1,7 C 12,9 km/h (3 Bft) 95,83 %
22.03.2018 20:50 2,2 C 4,4 C 63 % 1013,9 hPa 0,0 l/m 7,8 km/h (2 Bft) W 271 0 min 0,000 mm 0,0 UV-I 0 W/m -4,1 C 0,8 C 14,5 km/h (3 Bft) 100,00 %
22.03.2018 20:51 2,2 C 4,4 C 64 % 1013,9 hPa 0,0 l/m 9,7 km/h (2 Bft) W-SW 248 0 min 0,000 mm 0,0 UV-I 0 W/m -3,9 C -0,8 C 14,5 km/h (3 Bft) 95,83 %
22.03.2018 20:52 2,2 C 4,4 C 64 % 1013,9 hPa 0,0 l/m 8,4 km/h (2 Bft) W 267 0 min 0,000 mm 0,0 UV-I 0 W/m -3,9 C 0,3 C 14,5 km/h (3 Bft) 91,30 %
22.03.2018 20:53 2,2 C 4,4 C 64 % 1013,9 hPa 0,0 l/m 8,6 km/h (2 Bft) NW 309 0 min 0,000 mm 0,0 UV-I 0 W/m -3,9 C 0,1 C 12,9 km/h (3 Bft) 95,83 %
22.03.2018 20:54 2,2 C 4,4 C 65 % 1013,9 hPa 0,0 l/m 7,8 km/h (2 Bft) W 265 0 min 0,000 mm 0,0 UV-I 0 W/m -3,7 C 0,8 C 12,9 km/h (3 Bft) 100,00 %
22.03.2018 20:55 2,2 C 4,4 C 64 % 1013,9 hPa 0,0 l/m 10,0 km/h (2 Bft) W 281 0 min 0,000 mm 0,0 UV-I 0 W/m -3,9 C -1,0 C 12,9 km/h (3 Bft) 95,83 %
22.03.2018 20:56 2,2 C 4,4 C 64 % 1014,0 hPa 0,0 l/m 10,7 km/h (2 Bft) W 275 0 min 0,000 mm 0,0 UV-I 0 W/m -3,9 C -1,6 C 14,5 km/h (3 Bft) 95,83 %
22.03.2018 20:57 2,2 C 4,4 C 64 % 1014,0 hPa 0,0 l/m 9,7 km/h (2 Bft) W 271 0 min 0,000 mm 0,0 UV-I 0 W/m -3,9 C -0,8 C 14,5 km/h (3 Bft) 100,00 %
22.03.2018 20:58 2,2 C 4,4 C 64 % 1014,0 hPa 0,0 l/m 7,2 km/h (2 Bft) W 260 0 min 0,000 mm 0,0 UV-I 0 W/m -3,9 C 1,4 C 11,3 km/h (2 Bft) 91,30 %
22.03.2018 20:59 2,2 C 4,4 C 64 % 1014,0 hPa 0,0 l/m 11,0 km/h (2 Bft) NW 309 0 min 0,000 mm 0,0 UV-I 0 W/m -3,9 C -1,8 C 14,5 km/h (3 Bft) 100,00 %
22.03.2018 21:00 2,2 C 4,4 C 64 % 1014,0 hPa 0,0 l/m 9,5 km/h (2 Bft) W 281 0 min 0,000 mm 0,0 UV-I 0 W/m -3,9 C -0,6 C 11,3 km/h (2 Bft) 95,65 %
22.03.2018 21:01 2,2 C 4,4 C 64 % 1014,1 hPa 0,0 l/m 9,7 km/h (2 Bft) NW 321 0 min 0,025 mm 0,0 UV-I 0 W/m -3,9 C -0,8 C 16,1 km/h (3 Bft) 100,00 %
22.03.2018 21:02 2,2 C 4,4 C 65 % 1014,1 hPa 0,0 l/m 6,5 km/h (2 Bft) W-NW 289 0 min 0,000 mm 0,0 UV-I 0 W/m -3,7 C 2,1 C 11,3 km/h (2 Bft) 95,83 %
22.03.2018 21:03 2,1 C 4,4 C 65 % 1014,0 hPa 0,0 l/m 6,2 km/h (2 Bft) W 266 0 min 0,000 mm 0,0 UV-I 0 W/m -3,8 C 2,1 C 9,7 km/h (2 Bft) 100,00 %
22.03.2018 21:04 2,1 C 4,4 C 66 % 1014,1 hPa 0,0 l/m 4,2 km/h (1 Bft) W-NW 282 0 min 0,000 mm 0,0 UV-I 0 W/m -3,6 C 2,1 C 4,8 km/h (1 Bft) 95,83 %
22.03.2018 21:05 2,1 C 4,4 C 66 % 1014,1 hPa 0,0 l/m 5,6 km/h (1 Bft) W-NW 293 0 min 0,000 mm 0,0 UV-I 0 W/m -3,6 C 2,1 C 11,3 km/h (2 Bft) 95,65 %
22.03.2018 21:06 2,0 C 4,4 C 66 % 1014,1 hPa 0,0 l/m 6,2 km/h (2 Bft) NW 305 0 min 0,000 mm 0,0 UV-I 0 W/m -3,7 C 2,0 C 12,9 km/h (3 Bft) 100,00 %
22.03.2018 21:07 2,0 C 4,4 C 66 % 1014,1 hPa 0,0 l/m 5,8 km/h (2 Bft) W-NW 285 0 min 0,000 mm 0,0 UV-I 0 W/m -3,7 C 2,0 C 9,7 km/h (2 Bft) 95,65 %
22.03.2018 21:08 2,0 C 4,4 C 66 % 1014,1 hPa 0,0 l/m 4,0 km/h (1 Bft) W-NW 300 0 min 0,000 mm 0,0 UV-I 0 W/m -3,7 C 2,0 C 4,8 km/h (1 Bft) 100,00 %
22.03.2018 21:09 1,9 C 4,4 C 67 % 1014,1 hPa 0,0 l/m 9,3 km/h (2 Bft) W-NW 303 0 min 0,000 mm 0,0 UV-I 0 W/m -3,6 C -0,8 C 12,9 km/h (3 Bft) 95,65 %
22.03.2018 21:10 2,0 C 4,4 C 67 % 1014,1 hPa 0,0 l/m 5,2 km/h (1 Bft) W-NW 284 0 min 0,000 mm 0,0 UV-I 0 W/m -3,5 C 2,0 C 8,0 km/h (2 Bft) 100,00 %
22.03.2018 21:11 2,0 C 4,4 C 67 % 1014,1 hPa 0,0 l/m 5,4 km/h (1 Bft) W 275 0 min 0,000 mm 0,0 UV-I 0 W/m -3,5 C 2,0 C 8,0 km/h (2 Bft) 91,30 %
22.03.2018 21:12 2,0 C 4,4 C 67 % 1014,0 hPa 0,0 l/m 5,7 km/h (1 Bft) W 279 0 min 0,000 mm 0,0 UV-I 0 W/m -3,5 C 2,0 C 9,7 km/h (2 Bft) 100,00 %
22.03.2018 21:13 2,0 C 4,4 C 67 % 1014,1 hPa 0,0 l/m 3,5 km/h (1 Bft) NW 316 0 min 0,000 mm 0,0 UV-I 0 W/m -3,5 C 2,0 C 4,8 km/h (1 Bft) 100,00 %
22.03.2018 21:14 2,0 C 4,4 C 67 % 1014,1 hPa 0,0 l/m 8,8 km/h (2 Bft) W 277 0 min 0,000 mm 0,0 UV-I 0 W/m -3,5 C -0,3 C 12,9 km/h (3 Bft) 100,00 %
22.03.2018 21:15 1,9 C 4,4 C 67 % 1014,1 hPa 0,0 l/m 5,0 km/h (1 Bft) W 267 0 min 0,000 mm 0,0 UV-I 0 W/m -3,6 C 1,9 C 9,7 km/h (2 Bft) 95,65 %
22.03.2018 21:16 1,9 C 4,4 C 68 % 1014,1 hPa 0,0 l/m 6,0 km/h (2 Bft) W-NW 294 0 min 0,000 mm 0,0 UV-I 0 W/m -3,4 C 1,9 C 11,3 km/h (2 Bft) 100,00 %
22.03.2018 21:17 1,9 C 4,4 C 67 % 1014,1 hPa 0,0 l/m 6,6 km/h (2 Bft) W-NW 283 0 min 0,000 mm 0,0 UV-I 0 W/m -3,6 C 1,7 C 12,9 km/h (3 Bft) 100,00 %
22.03.2018 21:18 1,9 C 4,4 C 68 % 1014,1 hPa 0,0 l/m 4,8 km/h (1 Bft) W 271 0 min 0,000 mm 0,0 UV-I 0 W/m -3,4 C 1,9 C 9,7 km/h (2 Bft) 100,00 %
22.03.2018 21:19 1,9 C 4,4 C 68 % 1014,1 hPa 0,0 l/m 4,1 km/h (1 Bft) W 275 0 min 0,000 mm 0,0 UV-I 0 W/m -3,4 C 1,9 C 6,4 km/h (2 Bft) 100,00 %
22.03.2018 21:20 1,9 C 4,4 C 68 % 1014,1 hPa 0,0 l/m 5,5 km/h (1 Bft) W 273 0 min 0,000 mm 0,0 UV-I 0 W/m -3,4 C 1,9 C 9,7 km/h (2 Bft) 100,00 %
22.03.2018 21:21 1,9 C 4,4 C 69 % 1014,1 hPa 0,0 l/m 5,4 km/h (1 Bft) W 271 0 min 0,000 mm 0,0 UV-I 0 W/m -3,2 C 1,9 C 6,4 km/h (2 Bft) 91,67 %
22.03.2018 21:22 1,8 C 4,4 C 69 % 1014,1 hPa 0,0 l/m 5,4 km/h (1 Bft) W 281 0 min 0,000 mm 0,0 UV-I 0 W/m -3,3 C 1,8 C 9,7 km/h (2 Bft) 100,00 %
22.03.2018 21:23 1,8 C 4,4 C 70 % 1014,1 hPa 0,0 l/m 3,2 km/h (1 Bft) W 279 0 min 0,000 mm 0,0 UV-I 0 W/m -3,1 C 1,8 C 4,8 km/h (1 Bft) 100,00 %
22.03.2018 21:24 1,8 C 4,4 C 70 % 1014,1 hPa 0,0 l/m 3,7 km/h (1 Bft) NW 312 0 min 0,000 mm 0,0 UV-I 0 W/m -3,1 C 1,8 C 4,8 km/h (1 Bft) 100,00 %
22.03.2018 21:25 1,8 C 4,4 C 70 % 1014,1 hPa 0,0 l/m 2,7 km/h (1 Bft) NW 311 0 min 0,000 mm 0,0 UV-I 0 W/m -3,1 C 1,8 C 3,2 km/h (1 Bft) 100,00 %
22.03.2018 21:26 1,8 C 4,4 C 70 % 1014,1 hPa 0,0 l/m 6,5 km/h (2 Bft) W 274 0 min 0,000 mm 0,0 UV-I 0 W/m -3,1 C 1,7 C 11,3 km/h (2 Bft) 95,65 %
22.03.2018 21:27 1,8 C 4,4 C 70 % 1014,1 hPa 0,0 l/m 4,0 km/h (1 Bft) W 281 0 min 0,000 mm 0,0 UV-I 0 W/m -3,1 C 1,8 C 4,8 km/h (1 Bft) 95,83 %
22.03.2018 21:28 1,7 C 4,4 C 70 % 1014,1 hPa 0,0 l/m 3,2 km/h (1 Bft) W 281 0 min 0,000 mm 0,0 UV-I 0 W/m -3,2 C 1,7 C 4,8 km/h (1 Bft) 82,61 %
22.03.2018 21:29 1,7 C 4,4 C 71 % 1014,2 hPa 0,0 l/m 4,2 km/h (1 Bft) NW 326 0 min 0,000 mm 0,0 UV-I 0 W/m -3,0 C 1,7 C 8,0 km/h (2 Bft) 95,83 %
22.03.2018 21:30 1,7 C 4,4 C 71 % 1014,1 hPa 0,0 l/m 6,2 km/h (2 Bft) W-NW 292 0 min 0,000 mm 0,0 UV-I 0 W/m -3,0 C 1,7 C 11,3 km/h (2 Bft) 100,00 %
22.03.2018 21:31 1,7 C 4,4 C 71 % 1014,1 hPa 0,0 l/m 4,2 km/h (1 Bft) W 269 0 min 0,000 mm 0,0 UV-I 0 W/m -3,0 C 1,7 C 6,4 km/h (2 Bft) 100,00 %
22.03.2018 21:32 1,7 C 4,4 C 71 % 1014,1 hPa 0,0 l/m 3,7 km/h (1 Bft) W-NW 283 0 min 0,000 mm 0,0 UV-I 0 W/m -3,0 C 1,7 C 4,8 km/h (1 Bft) 100,00 %
22.03.2018 21:34 1,7 C 4,4 C 71 % 1014,1 hPa 0,0 l/m 5,6 km/h (1 Bft) W-NW 297 0 min 0,000 mm 0,0 UV-I 0 W/m -3,0 C 1,7 C 16,1 km/h (3 Bft) 97,87 %
22.03.2018 21:35 1,7 C 4,4 C 71 % 1014,1 hPa 0,0 l/m 3,7 km/h (1 Bft) NW 322 0 min 0,000 mm 0,0 UV-I 0 W/m -3,0 C 1,7 C 8,0 km/h (2 Bft) 100,00 %
22.03.2018 21:36 1,7 C 4,4 C 71 % 1014,1 hPa 0,0 l/m 2,4 km/h (1 Bft) NW 321 0 min 0,000 mm 0,0 UV-I 0 W/m -3,0 C 1,7 C 4,8 km/h (1 Bft) 95,65 %
22.03.2018 21:37 1,7 C 4,4 C 71 % 1014,1 hPa 0,0 l/m 3,9 km/h (1 Bft) NW 321 0 min 0,000 mm 0,0 UV-I 0 W/m -3,0 C 1,7 C 4,8 km/h (1 Bft) 100,00 %
22.03.2018 21:38 1,7 C 4,4 C 71 % 1014,1 hPa 0,0 l/m 8,3 km/h (2 Bft) W-NW 286 0 min 0,000 mm 0,0 UV-I 0 W/m -3,0 C -0,1 C 12,9 km/h (3 Bft) 96,15 %
22.03.2018 21:39 1,7 C 4,4 C 71 % 1014,1 hPa 0,0 l/m 7,6 km/h (2 Bft) W-NW 285 0 min 0,000 mm 0,0 UV-I 0 W/m -3,0 C 0,5 C 12,9 km/h (3 Bft) 95,83 %
22.03.2018 21:40 1,7 C 4,4 C 71 % 1014,1 hPa 0,0 l/m 9,3 km/h (2 Bft) W 275 0 min 0,000 mm 0,0 UV-I 0 W/m -3,0 C -1,0 C 12,9 km/h (3 Bft) 100,00 %
22.03.2018 21:41 1,7 C 4,4 C 71 % 1014,1 hPa 0,0 l/m 8,6 km/h (2 Bft) W 267 0 min 0,000 mm 0,0 UV-I 0 W/m -3,0 C -0,4 C 9,7 km/h (2 Bft) 96,30 %
22.03.2018 21:42 1,7 C 4,4 C 71 % 1014,1 hPa 0,0 l/m 7,4 km/h (2 Bft) W-NW 294 0 min 0,000 mm 0,0 UV-I 0 W/m -3,0 C 0,7 C 11,3 km/h (2 Bft) 100,00 %
22.03.2018 21:43 1,7 C 4,4 C 71 % 1014,1 hPa 0,0 l/m 6,3 km/h (2 Bft) W-NW 301 0 min 0,000 mm 0,0 UV-I 0 W/m -3,0 C 1,7 C 9,7 km/h (2 Bft) 95,83 %
22.03.2018 21:44 1,7 C 4,4 C 72 % 1014,1 hPa 0,0 l/m 6,4 km/h (2 Bft) W-NW 301 0 min 0,000 mm 0,0 UV-I 0 W/m -2,8 C 1,7 C 12,9 km/h (3 Bft) 100,00 %
22.03.2018 21:45 1,7 C 4,4 C 72 % 1014,1 hPa 0,0 l/m 10,2 km/h (2 Bft) W 273 0 min 0,000 mm 0,0 UV-I 0 W/m -2,8 C -1,7 C 16,1 km/h (3 Bft) 100,00 %
22.03.2018 21:46 1,7 C 4,4 C 72 % 1014,0 hPa 0,0 l/m 9,4 km/h (2 Bft) W 271 0 min 0,000 mm 0,0 UV-I 0 W/m -2,8 C -1,1 C 14,5 km/h (3 Bft) 100,00 %
22.03.2018 21:47 1,7 C 4,4 C 71 % 1014,0 hPa 0,0 l/m 12,7 km/h (3 Bft) W-SW 258 0 min 0,000 mm 0,0 UV-I 0 W/m -3,0 C -3,5 C 16,1 km/h (3 Bft) 95,65 %
22.03.2018 21:48 1,7 C 4,4 C 71 % 1014,0 hPa 0,0 l/m 15,0 km/h (3 Bft) W 268 0 min 0,000 mm 0,0 UV-I 0 W/m -3,0 C -4,9 C 19,3 km/h (3 Bft) 100,00 %
22.03.2018 21:49 1,7 C 4,4 C 71 % 1014,0 hPa 0,0 l/m 8,9 km/h (2 Bft) NW 310 0 min 0,000 mm 0,0 UV-I 0 W/m -3,0 C -0,7 C 17,7 km/h (3 Bft) 100,00 %
22.03.2018 21:50 1,7 C 4,4 C 71 % 1014,0 hPa 0,0 l/m 9,8 km/h (2 Bft) W-SW 246 0 min 0,000 mm 0,0 UV-I 0 W/m -3,0 C -1,4 C 14,5 km/h (3 Bft) 100,00 %
22.03.2018 21:51 1,7 C 4,4 C 72 % 1014,0 hPa 0,0 l/m 7,7 km/h (2 Bft) W-NW 291 0 min 0,000 mm 0,0 UV-I 0 W/m -2,8 C 0,4 C 12,9 km/h (3 Bft) 100,00 %
22.03.2018 21:52 1,7 C 4,4 C 72 % 1013,9 hPa 0,0 l/m 11,0 km/h (2 Bft) W-NW 292 0 min 0,000 mm 0,0 UV-I 0 W/m -2,8 C -2,3 C 17,7 km/h (3 Bft) 100,00 %
22.03.2018 21:53 1,7 C 4,4 C 72 % 1014,0 hPa 0,0 l/m 11,4 km/h (2 Bft) W 269 0 min 0,000 mm 0,0 UV-I 0 W/m -2,8 C -2,6 C 16,1 km/h (3 Bft) 96,15 %
22.03.2018 21:54 1,7 C 4,4 C 72 % 1014,0 hPa 0,0 l/m 7,4 km/h (2 Bft) W 279 0 min 0,000 mm 0,0 UV-I 0 W/m -2,8 C 0,7 C 16,1 km/h (3 Bft) 100,00 %
22.03.2018 21:55 1,7 C 4,4 C 72 % 1014,0 hPa 0,0 l/m 7,4 km/h (2 Bft) W 281 0 min 0,000 mm 0,0 UV-I 0 W/m -2,8 C 0,7 C 12,9 km/h (3 Bft) 95,65 %
22.03.2018 21:56 1,7 C 4,4 C 72 % 1014,0 hPa 0,0 l/m 11,6 km/h (2 Bft) W 270 0 min 0,000 mm 0,0 UV-I 0 W/m -2,8 C -2,8 C 19,3 km/h (3 Bft) 95,83 %
22.03.2018 21:57 1,7 C 4,4 C 72 % 1014,0 hPa 0,0 l/m 7,5 km/h (2 Bft) W 273 0 min 0,000 mm 0,0 UV-I 0 W/m -2,8 C 0,6 C 14,5 km/h (3 Bft) 100,00 %
22.03.2018 21:58 1,7 C 4,4 C 72 % 1014,0 hPa 0,0 l/m 14,5 km/h (3 Bft) NW 304 0 min 0,000 mm 0,0 UV-I 0 W/m -2,8 C -4,6 C 19,3 km/h (3 Bft) 95,83 %
22.03.2018 21:59 1,7 C 4,4 C 72 % 1014,0 hPa 0,0 l/m 6,6 km/h (2 Bft) W 272 0 min 0,000 mm 0,0 UV-I 0 W/m -2,8 C 1,5 C 9,7 km/h (2 Bft) 100,00 %
22.03.2018 22:00 1,7 C 4,4 C 72 % 1014,0 hPa 0,0 l/m 9,0 km/h (2 Bft) W 273 0 min 0,000 mm 0,0 UV-I 0 W/m -2,8 C -0,8 C 16,1 km/h (3 Bft) 96,30 %
22.03.2018 22:01 1,7 C 4,4 C 73 % 1014,0 hPa 0,0 l/m 14,6 km/h (3 Bft) W 281 0 min 0,026 mm 0,0 UV-I 0 W/m -2,6 C -4,7 C 17,7 km/h (3 Bft) 95,65 %
22.03.2018 22:02 1,7 C 4,4 C 72 % 1014,0 hPa 0,0 l/m 9,2 km/h (2 Bft) W 278 0 min 0,000 mm 0,0 UV-I 0 W/m -2,8 C -0,9 C 12,9 km/h (3 Bft) 100,00 %
22.03.2018 22:03 1,7 C 4,4 C 73 % 1014,0 hPa 0,0 l/m 12,4 km/h (3 Bft) W 271 0 min 0,000 mm 0,0 UV-I 0 W/m -2,6 C -3,3 C 20,9 km/h (4 Bft) 95,83 %
22.03.2018 22:04 1,7 C 4,4 C 73 % 1014,0 hPa 0,0 l/m 13,7 km/h (3 Bft) W 271 0 min 0,000 mm 0,0 UV-I 0 W/m -2,6 C -4,1 C 20,9 km/h (4 Bft) 100,00 %
22.03.2018 22:05 1,7 C 4,4 C 73 % 1014,0 hPa 0,0 l/m 9,5 km/h (2 Bft) W 279 0 min 0,000 mm 0,0 UV-I 0 W/m -2,6 C -1,2 C 17,7 km/h (3 Bft) 100,00 %
22.03.2018 22:06 1,6 C 4,4 C 73 % 1014,0 hPa 0,0 l/m 12,1 km/h (2 Bft) W-NW 286 0 min 0,000 mm 0,0 UV-I 0 W/m -2,7 C -3,2 C 14,5 km/h (3 Bft) 96,43 %
22.03.2018 22:07 1,6 C 4,4 C 73 % 1014,0 hPa 0,0 l/m 12,2 km/h (2 Bft) W-SW 252 0 min 0,000 mm 0,0 UV-I 0 W/m -2,7 C -3,3 C 19,3 km/h (3 Bft) 100,00 %
22.03.2018 22:08 1,6 C 4,4 C 74 % 1014,0 hPa 0,0 l/m 14,2 km/h (3 Bft) W 281 0 min 0,000 mm 0,0 UV-I 0 W/m -2,5 C -4,6 C 22,5 km/h (4 Bft) 100,00 %
22.03.2018 22:09 1,6 C 4,4 C 74 % 1014,0 hPa 0,0 l/m 8,0 km/h (2 Bft) N-NW 334 0 min 0,000 mm 0,0 UV-I 0 W/m -2,5 C 0,0 C 12,9 km/h (3 Bft) 100,00 %
22.03.2018 22:10 1,6 C 4,4 C 74 % 1014,0 hPa 0,0 l/m 10,9 km/h (2 Bft) W 267 0 min 0,000 mm 0,0 UV-I 0 W/m -2,5 C -2,4 C 17,7 km/h (3 Bft) 100,00 %
22.03.2018 22:11 1,6 C 4,4 C 74 % 1014,0 hPa 0,0 l/m 13,3 km/h (3 Bft) W 267 0 min 0,000 mm 0,0 UV-I 0 W/m -2,5 C -4,0 C 16,1 km/h (3 Bft) 95,83 %
22.03.2018 22:12 1,6 C 4,4 C 74 % 1014,0 hPa 0,0 l/m 9,7 km/h (2 Bft) W-NW 293 0 min 0,000 mm 0,0 UV-I 0 W/m -2,5 C -1,4 C 14,5 km/h (3 Bft) 100,00 %
22.03.2018 22:13 1,6 C 4,4 C 74 % 1014,0 hPa 0,0 l/m 9,9 km/h (2 Bft) W-SW 252 0 min 0,000 mm 0,0 UV-I 0 W/m -2,5 C -1,6 C 16,1 km/h (3 Bft) 100,00 %
22.03.2018 22:14 1,6 C 4,4 C 74 % 1014,0 hPa 0,0 l/m 13,1 km/h (3 Bft) W-SW 258 0 min 0,000 mm 0,0 UV-I 0 W/m -2,5 C -3,9 C 19,3 km/h (3 Bft) 100,00 %
22.03.2018 22:15 1,6 C 4,4 C 74 % 1014,0 hPa 0,0 l/m 16,2 km/h (3 Bft) W-SW 245 0 min 0,000 mm 0,0 UV-I 0 W/m -2,5 C -5,7 C 25,7 km/h (4 Bft) 100,00 %
22.03.2018 22:16 1,6 C 4,4 C 74 % 1014,0 hPa 0,0 l/m 6,2 km/h (2 Bft) W 267 0 min 0,000 mm 0,0 UV-I 0 W/m -2,5 C 1,6 C 8,0 km/h (2 Bft) 100,00 %
22.03.2018 22:17 1,6 C 4,4 C 75 % 1014,0 hPa 0,0 l/m 7,6 km/h (2 Bft) W-NW 290 0 min 0,000 mm 0,0 UV-I 0 W/m -2,3 C 0,4 C 11,3 km/h (2 Bft) 95,65 %
22.03.2018 22:18 1,5 C 4,4 C 75 % 1014,0 hPa 0,0 l/m 11,7 km/h (2 Bft) W 273 0 min 0,000 mm 0,0 UV-I 0 W/m -2,4 C -3,1 C 16,1 km/h (3 Bft) 91,67 %
22.03.2018 22:19 1,5 C 4,4 C 75 % 1014,0 hPa 0,0 l/m 13,5 km/h (3 Bft) W 269 0 min 0,000 mm 0,0 UV-I 0 W/m -2,4 C -4,3 C 19,3 km/h (3 Bft) 97,37 %
22.03.2018 22:20 1,5 C 4,4 C 75 % 1013,9 hPa 0,0 l/m 14,2 km/h (3 Bft) W 277 0 min 0,000 mm 0,0 UV-I 0 W/m -2,4 C -4,7 C 17,7 km/h (3 Bft) 100,00 %
22.03.2018 22:21 1,5 C 4,4 C 75 % 1013,9 hPa 0,0 l/m 10,3 km/h (2 Bft) W-NW 290 0 min 0,000 mm 0,0 UV-I 0 W/m -2,4 C -2,0 C 17,7 km/h (3 Bft) 95,65 %
22.03.2018 22:22 1,5 C 4,4 C 75 % 1013,9 hPa 0,0 l/m 13,6 km/h (3 Bft) W 271 0 min 0,000 mm 0,0 UV-I 0 W/m -2,4 C -4,3 C 19,3 km/h (3 Bft) 95,83 %
22.03.2018 22:23 1,5 C 4,4 C 75 % 1013,9 hPa 0,0 l/m 17,1 km/h (3 Bft) W-SW 244 0 min 0,000 mm 0,0 UV-I 0 W/m -2,4 C -6,3 C 24,1 km/h (4 Bft) 96,15 %
22.03.2018 22:24 1,4 C 4,4 C 76 % 1013,9 hPa 0,0 l/m 6,8 km/h (2 Bft) NW 319 0 min 0,000 mm 0,0 UV-I 0 W/m -2,4 C 1,0 C 14,5 km/h (3 Bft) 91,67 %
22.03.2018 22:25 1,4 C 4,4 C 76 % 1014,0 hPa 0,0 l/m 12,4 km/h (3 Bft) W-NW 288 0 min 0,000 mm 0,0 UV-I 0 W/m -2,4 C -3,7 C 20,9 km/h (4 Bft) 96,55 %
22.03.2018 22:26 1,4 C 4,4 C 76 % 1013,9 hPa 0,0 l/m 14,1 km/h (3 Bft) W-SW 248 0 min 0,000 mm 0,0 UV-I 0 W/m -2,4 C -4,8 C 19,3 km/h (3 Bft) 95,83 %
22.03.2018 22:27 1,4 C 4,4 C 76 % 1013,9 hPa 0,0 l/m 15,5 km/h (3 Bft) W-NW 296 0 min 0,000 mm 0,0 UV-I 0 W/m -2,4 C -5,6 C 19,3 km/h (3 Bft) 100,00 %
22.03.2018 22:28 1,4 C 4,4 C 77 % 1014,0 hPa 0,0 l/m 19,2 km/h (3 Bft) NW 307 0 min 0,000 mm 0,0 UV-I 0 W/m -2,2 C -7,5 C 25,7 km/h (4 Bft) 95,83 %
22.03.2018 22:29 1,4 C 4,4 C 77 % 1013,9 hPa 0,0 l/m 16,2 km/h (3 Bft) W-NW 295 0 min 0,000 mm 0,0 UV-I 0 W/m -2,2 C -6,0 C 25,7 km/h (4 Bft) 100,00 %
22.03.2018 22:30 1,3 C 4,4 C 77 % 1014,0 hPa 0,0 l/m 17,3 km/h (3 Bft) NW 313 0 min 0,000 mm 0,0 UV-I 0 W/m -2,3 C -6,7 C 22,5 km/h (4 Bft) 95,83 %
22.03.2018 22:31 1,3 C 4,4 C 77 % 1013,9 hPa 0,0 l/m 11,5 km/h (2 Bft) NW 316 0 min 0,000 mm 0,0 UV-I 0 W/m -2,3 C -3,2 C 16,1 km/h (3 Bft) 95,65 %
22.03.2018 22:32 1,3 C 4,4 C 78 % 1013,9 hPa 0,0 l/m 11,6 km/h (2 Bft) W 268 0 min 0,000 mm 0,0 UV-I 0 W/m -2,1 C -3,2 C 14,5 km/h (3 Bft) 91,67 %
22.03.2018 22:33 1,3 C 4,4 C 78 % 1013,9 hPa 0,0 l/m 11,1 km/h (2 Bft) W 268 0 min 0,000 mm 0,0 UV-I 0 W/m -2,1 C -2,9 C 12,9 km/h (3 Bft) 91,30 %
22.03.2018 22:34 1,3 C 4,4 C 79 % 1013,9 hPa 0,0 l/m 7,3 km/h (2 Bft) W-NW 282 0 min 0,000 mm 0,0 UV-I 0 W/m -1,9 C 0,4 C 12,9 km/h (3 Bft) 100,00 %
22.03.2018 22:35 1,2 C 4,4 C 79 % 1013,9 hPa 0,0 l/m 12,0 km/h (2 Bft) W 275 0 min 0,000 mm 0,0 UV-I 0 W/m -2,0 C -3,6 C 16,1 km/h (3 Bft) 95,65 %
22.03.2018 22:36 1,2 C 4,4 C 79 % 1013,9 hPa 0,0 l/m 12,5 km/h (3 Bft) W-NW 295 0 min 0,000 mm 0,0 UV-I 0 W/m -2,0 C -4,0 C 14,5 km/h (3 Bft) 95,83 %
22.03.2018 22:37 1,2 C 4,4 C 79 % 1013,9 hPa 0,0 l/m 5,9 km/h (2 Bft) W-SW 254 0 min 0,000 mm 0,0 UV-I 0 W/m -2,0 C 1,2 C 9,7 km/h (2 Bft) 91,30 %
22.03.2018 22:38 1,2 C 4,4 C 79 % 1013,9 hPa 0,0 l/m 14,1 km/h (3 Bft) W 273 0 min 0,000 mm 0,0 UV-I 0 W/m -2,0 C -5,0 C 19,3 km/h (3 Bft) 100,00 %
22.03.2018 22:39 1,2 C 4,4 C 80 % 1013,8 hPa 0,0 l/m 9,6 km/h (2 Bft) W-SW 240 0 min 0,000 mm 0,0 UV-I 0 W/m -1,9 C -1,8 C 12,9 km/h (3 Bft) 95,65 %
22.03.2018 22:40 1,1 C 4,4 C 80 % 1013,9 hPa 0,0 l/m 9,8 km/h (2 Bft) W-NW 282 0 min 0,000 mm 0,0 UV-I 0 W/m -2,0 C -2,1 C 19,3 km/h (3 Bft) 95,83 %
22.03.2018 22:41 1,1 C 4,4 C 81 % 1013,9 hPa 0,0 l/m 11,3 km/h (2 Bft) NW 310 0 min 0,000 mm 0,0 UV-I 0 W/m -1,8 C -3,2 C 16,1 km/h (3 Bft) 100,00 %
22.03.2018 22:42 1,1 C 4,4 C 81 % 1013,8 hPa 0,0 l/m 13,3 km/h (3 Bft) W-NW 285 0 min 0,000 mm 0,0 UV-I 0 W/m -1,8 C -4,6 C 20,9 km/h (4 Bft) 95,83 %
22.03.2018 22:43 1,1 C 4,4 C 81 % 1013,9 hPa 0,0 l/m 9,4 km/h (2 Bft) W-NW 288 0 min 0,000 mm 0,0 UV-I 0 W/m -1,8 C -1,7 C 14,5 km/h (3 Bft) 100,00 %
22.03.2018 22:44 1,0 C 4,4 C 81 % 1013,9 hPa 0,0 l/m 9,3 km/h (2 Bft) W 269 0 min 0,000 mm 0,0 UV-I 0 W/m -1,9 C -1,8 C 14,5 km/h (3 Bft) 91,67 %
22.03.2018 22:45 1,0 C 4,4 C 82 % 1013,8 hPa 0,0 l/m 13,7 km/h (3 Bft) W-SW 252 0 min 0,000 mm 0,0 UV-I 0 W/m -1,7 C -5,0 C 17,7 km/h (3 Bft) 100,00 %
22.03.2018 22:46 0,9 C 4,4 C 82 % 1013,8 hPa 0,0 l/m 12,4 km/h (3 Bft) W 269 0 min 0,000 mm 0,0 UV-I 0 W/m -1,8 C -4,2 C 16,1 km/h (3 Bft) 90,91 %
22.03.2018 22:47 0,9 C 4,4 C 83 % 1013,9 hPa 0,0 l/m 11,3 km/h (2 Bft) NW 313 0 min 0,000 mm 0,0 UV-I 0 W/m -1,7 C -3,5 C 16,1 km/h (3 Bft) 96,43 %
22.03.2018 22:48 0,9 C 4,4 C 83 % 1013,8 hPa 0,0 l/m 9,9 km/h (2 Bft) W 265 0 min 0,000 mm 0,0 UV-I 0 W/m -1,7 C -2,4 C 14,5 km/h (3 Bft) 95,65 %
22.03.2018 22:49 0,9 C 4,4 C 84 % 1013,8 hPa 0,0 l/m 10,9 km/h (2 Bft) W 264 0 min 0,000 mm 0,0 UV-I 0 W/m -1,5 C -3,2 C 14,5 km/h (3 Bft) 91,67 %
22.03.2018 22:50 0,8 C 4,4 C 84 % 1013,8 hPa 0,0 l/m 9,0 km/h (2 Bft) W 261 0 min 0,000 mm 0,0 UV-I 0 W/m -1,6 C -1,7 C 11,3 km/h (2 Bft) 95,65 %
22.03.2018 22:51 0,8 C 4,4 C 84 % 1013,8 hPa 0,0 l/m 9,9 km/h (2 Bft) W-NW 290 0 min 0,000 mm 0,0 UV-I 0 W/m -1,6 C -2,5 C 14,5 km/h (3 Bft) 95,83 %
22.03.2018 22:52 0,8 C 4,4 C 84 % 1013,9 hPa 0,0 l/m 9,3 km/h (2 Bft) W-SW 257 0 min 0,000 mm 0,0 UV-I 0 W/m -1,6 C -2,0 C 16,1 km/h (3 Bft) 95,65 %
22.03.2018 22:53 0,8 C 4,4 C 84 % 1013,9 hPa 0,0 l/m 5,8 km/h (2 Bft) W 274 0 min 0,000 mm 0,0 UV-I 0 W/m -1,6 C 0,8 C 6,4 km/h (2 Bft) 96,30 %
22.03.2018 22:54 0,8 C 4,4 C 85 % 1013,8 hPa 0,0 l/m 9,4 km/h (2 Bft) W-NW 293 0 min 0,000 mm 0,0 UV-I 0 W/m -1,4 C -2,1 C 12,9 km/h (3 Bft) 95,65 %
22.03.2018 22:55 0,8 C 4,4 C 85 % 1013,9 hPa 0,0 l/m 5,3 km/h (1 Bft) W-SW 240 0 min 0,000 mm 0,0 UV-I 0 W/m -1,4 C 0,8 C 8,0 km/h (2 Bft) 100,00 %
22.03.2018 22:56 0,8 C 4,4 C 85 % 1013,9 hPa 0,0 l/m 6,8 km/h (2 Bft) W 267 0 min 0,000 mm 0,0 UV-I 0 W/m -1,4 C 0,4 C 9,7 km/h (2 Bft) 100,00 %
22.03.2018 22:57 0,7 C 4,4 C 85 % 1013,9 hPa 0,0 l/m 7,3 km/h (2 Bft) W 265 0 min 0,000 mm 0,0 UV-I 0 W/m -1,5 C -0,2 C 9,7 km/h (2 Bft) 100,00 %
22.03.2018 22:58 0,7 C 4,4 C 85 % 1013,9 hPa 0,0 l/m 4,7 km/h (1 Bft) W 271 0 min 0,000 mm 0,0 UV-I 0 W/m -1,5 C 0,7 C 9,7 km/h (2 Bft) 95,65 %
22.03.2018 22:59 0,7 C 4,4 C 86 % 1013,9 hPa 0,0 l/m 4,0 km/h (1 Bft) W 273 0 min 0,000 mm 0,0 UV-I 0 W/m -1,4 C 0,7 C 6,4 km/h (2 Bft) 100,00 %
22.03.2018 23:00 0,7 C 4,4 C 86 % 1013,9 hPa 0,0 l/m 10,5 km/h (2 Bft) W 277 0 min 0,000 mm 0,0 UV-I 0 W/m -1,4 C -3,1 C 14,5 km/h (3 Bft) 100,00 %
22.03.2018 23:01 0,7 C 4,4 C 86 % 1013,8 hPa 0,0 l/m 9,1 km/h (2 Bft) W-NW 293 0 min 0,025 mm 0,0 UV-I 0 W/m -1,4 C -1,9 C 14,5 km/h (3 Bft) 95,83 %
22.03.2018 23:02 0,7 C 4,4 C 86 % 1013,8 hPa 0,0 l/m 8,9 km/h (2 Bft) W-SW 253 0 min 0,000 mm 0,0 UV-I 0 W/m -1,4 C -1,7 C 14,5 km/h (3 Bft) 95,65 %
22.03.2018 23:03 0,7 C 4,4 C 86 % 1013,9 hPa 0,0 l/m 8,9 km/h (2 Bft) W-NW 285 0 min 0,000 mm 0,0 UV-I 0 W/m -1,4 C -1,7 C 12,9 km/h (3 Bft) 100,00 %
22.03.2018 23:04 0,7 C 4,4 C 86 % 1013,7 hPa 0,0 l/m 8,7 km/h (2 Bft) W 277 0 min 0,000 mm 0,0 UV-I 0 W/m -1,4 C -1,6 C 11,3 km/h (2 Bft) 91,67 %
22.03.2018 23:05 0,7 C 4,4 C 87 % 1013,7 hPa 0,0 l/m 7,6 km/h (2 Bft) W-NW 297 0 min 0,000 mm 0,0 UV-I 0 W/m -1,2 C -0,5 C 14,5 km/h (3 Bft) 100,00 %
22.03.2018 23:06 0,7 C 4,4 C 87 % 1013,7 hPa 0,0 l/m 11,1 km/h (2 Bft) W-NW 286 0 min 0,000 mm 0,0 UV-I 0 W/m -1,2 C -3,5 C 14,5 km/h (3 Bft) 100,00 %
22.03.2018 23:07 0,7 C 4,4 C 87 % 1013,7 hPa 0,0 l/m 12,3 km/h (3 Bft) W 272 0 min 0,000 mm 0,0 UV-I 0 W/m -1,2 C -4,4 C 16,1 km/h (3 Bft) 95,65 %
22.03.2018 23:08 0,7 C 4,4 C 87 % 1013,7 hPa 0,0 l/m 9,6 km/h (2 Bft) W 270 0 min 0,000 mm 0,0 UV-I 0 W/m -1,2 C -2,3 C 12,9 km/h (3 Bft) 95,83 %
22.03.2018 23:09 0,6 C 4,4 C 87 % 1013,7 hPa 0,0 l/m 8,3 km/h (2 Bft) W-NW 290 0 min 0,000 mm 0,0 UV-I 0 W/m -1,3 C -1,3 C 12,9 km/h (3 Bft) 95,65 %
22.03.2018 23:10 0,6 C 4,4 C 87 % 1013,7 hPa 0,0 l/m 8,7 km/h (2 Bft) W-NW 291 0 min 0,000 mm 0,0 UV-I 0 W/m -1,3 C -1,7 C 12,9 km/h (3 Bft) 100,00 %
22.03.2018 23:11 0,6 C 4,4 C 87 % 1013,6 hPa 0,0 l/m 13,6 km/h (3 Bft) W 279 0 min 0,000 mm 0,0 UV-I 0 W/m -1,3 C -5,4 C 19,3 km/h (3 Bft) 96,15 %
22.03.2018 23:12 0,6 C 4,4 C 87 % 1013,7 hPa 0,0 l/m 8,2 km/h (2 Bft) W-NW 288 0 min 0,000 mm 0,0 UV-I 0 W/m -1,3 C -1,2 C 14,5 km/h (3 Bft) 100,00 %
22.03.2018 23:13 0,6 C 4,4 C 88 % 1013,7 hPa 0,0 l/m 8,2 km/h (2 Bft) W 271 0 min 0,000 mm 0,0 UV-I 0 W/m -1,2 C -1,2 C 14,5 km/h (3 Bft) 100,00 %
22.03.2018 23:14 0,6 C 4,4 C 88 % 1013,6 hPa 0,0 l/m 10,3 km/h (2 Bft) W 260 0 min 0,000 mm 0,0 UV-I 0 W/m -1,2 C -3,0 C 16,1 km/h (3 Bft) 100,00 %
22.03.2018 23:15 0,6 C 4,4 C 88 % 1013,6 hPa 0,0 l/m 7,4 km/h (2 Bft) W 271 0 min 0,000 mm 0,0 UV-I 0 W/m -1,2 C -0,4 C 9,7 km/h (2 Bft) 100,00 %
22.03.2018 23:16 0,6 C 4,4 C 88 % 1013,6 hPa 0,0 l/m 7,5 km/h (2 Bft) W-NW 292 0 min 0,000 mm 0,0 UV-I 0 W/m -1,2 C -0,5 C 12,9 km/h (3 Bft) 100,00 %
22.03.2018 23:17 0,5 C 4,4 C 88 % 1013,6 hPa 0,0 l/m 5,3 km/h (1 Bft) W 262 0 min 0,000 mm 0,0 UV-I 0 W/m -1,3 C 0,5 C 12,9 km/h (3 Bft) 95,83 %
22.03.2018 23:18 0,5 C 4,4 C 88 % 1013,5 hPa 0,0 l/m 12,1 km/h (2 Bft) W 279 0 min 0,000 mm 0,0 UV-I 0 W/m -1,3 C -4,5 C 16,1 km/h (3 Bft) 95,65 %
22.03.2018 23:19 0,5 C 4,4 C 88 % 1013,5 hPa 0,0 l/m 7,7 km/h (2 Bft) W-NW 282 0 min 0,000 mm 0,0 UV-I 0 W/m -1,3 C -0,8 C 11,3 km/h (2 Bft) 100,00 %
22.03.2018 23:20 0,4 C 4,4 C 89 % 1013,5 hPa 0,0 l/m 5,6 km/h (1 Bft) W 263 0 min 0,000 mm 0,0 UV-I 0 W/m -1,2 C 0,4 C 9,7 km/h (2 Bft) 91,30 %
22.03.2018 23:21 0,4 C 4,4 C 89 % 1013,5 hPa 0,0 l/m 9,0 km/h (2 Bft) W 276 0 min 0,000 mm 0,0 UV-I 0 W/m -1,2 C -2,2 C 11,3 km/h (2 Bft) 95,83 %
22.03.2018 23:22 0,4 C 4,4 C 89 % 1013,5 hPa 0,0 l/m 6,4 km/h (2 Bft) W-NW 289 0 min 0,000 mm 0,0 UV-I 0 W/m -1,2 C 0,4 C 11,3 km/h (2 Bft) 95,65 %
22.03.2018 23:23 0,4 C 4,4 C 89 % 1013,4 hPa 0,0 l/m 4,7 km/h (1 Bft) W 275 0 min 0,000 mm 0,0 UV-I 0 W/m -1,2 C 0,4 C 6,4 km/h (2 Bft) 100,00 %
22.03.2018 23:24 0,4 C 4,4 C 89 % 1013,4 hPa 0,0 l/m 5,4 km/h (1 Bft) W-NW 282 0 min 0,000 mm 0,0 UV-I 0 W/m -1,2 C 0,4 C 6,4 km/h (2 Bft) 100,00 %
22.03.2018 23:25 0,4 C 4,4 C 89 % 1013,4 hPa 0,0 l/m 5,7 km/h (1 Bft) W 274 0 min 0,000 mm 0,0 UV-I 0 W/m -1,2 C 0,4 C 6,4 km/h (2 Bft) 100,00 %
22.03.2018 23:26 0,4 C 4,4 C 90 % 1013,4 hPa 0,0 l/m 5,9 km/h (2 Bft) W-NW 295 0 min 0,000 mm 0,0 UV-I 0 W/m -1,0 C 0,4 C 6,4 km/h (2 Bft) 95,65 %
22.03.2018 23:27 0,4 C 4,4 C 90 % 1013,4 hPa 0,0 l/m 3,1 km/h (1 Bft) W-NW 294 0 min 0,000 mm 0,0 UV-I 0 W/m -1,0 C 0,4 C 4,8 km/h (1 Bft) 100,00 %
22.03.2018 23:28 0,3 C 4,4 C 90 % 1013,4 hPa 0,0 l/m 4,7 km/h (1 Bft) W 269 0 min 0,000 mm 0,0 UV-I 0 W/m -1,1 C 0,3 C 6,4 km/h (2 Bft) 95,65 %
22.03.2018 23:29 0,3 C 4,4 C 90 % 1013,4 hPa 0,0 l/m 5,2 km/h (1 Bft) W 267 0 min 0,000 mm 0,0 UV-I 0 W/m -1,1 C 0,3 C 6,4 km/h (2 Bft) 100,00 %
22.03.2018 23:30 0,3 C 4,4 C 90 % 1013,3 hPa 0,0 l/m 4,8 km/h (1 Bft) W 269 0 min 0,000 mm 0,0 UV-I 0 W/m -1,1 C 0,3 C 6,4 km/h (2 Bft) 95,65 %
22.03.2018 23:31 0,3 C 4,4 C 90 % 1013,3 hPa 0,0 l/m 6,1 km/h (2 Bft) W 273 0 min 0,000 mm 0,0 UV-I 0 W/m -1,1 C 0,3 C 9,7 km/h (2 Bft) 95,83 %
22.03.2018 23:32 0,3 C 4,4 C 91 % 1013,3 hPa 0,0 l/m 4,4 km/h (1 Bft) W 273 0 min 0,000 mm 0,0 UV-I 0 W/m -1,0 C 0,3 C 6,4 km/h (2 Bft) 100,00 %
22.03.2018 23:33 0,3 C 4,4 C 91 % 1013,3 hPa 0,0 l/m 7,0 km/h (2 Bft) W-SW 240 0 min 0,000 mm 0,0 UV-I 0 W/m -1,0 C -0,3 C 9,7 km/h (2 Bft) 100,00 %
22.03.2018 23:35 0,3 C 4,4 C 91 % 1013,2 hPa 0,0 l/m 4,8 km/h (1 Bft) W 270 0 min 0,000 mm 0,0 UV-I 0 W/m -1,0 C 0,3 C 9,7 km/h (2 Bft) 97,37 %
22.03.2018 23:37 0,3 C 4,4 C 91 % 1013,1 hPa 0,0 l/m 4,8 km/h (1 Bft) W 262 0 min 0,000 mm 0,0 UV-I 0 W/m -1,0 C 0,3 C 4,8 km/h (1 Bft) 98,97 %
22.03.2018 23:38 0,3 C 4,4 C 91 % 1013,2 hPa 0,0 l/m 6,2 km/h (2 Bft) W 279 0 min 0,000 mm 0,0 UV-I 0 W/m -1,0 C 0,3 C 11,3 km/h (2 Bft) 100,00 %
22.03.2018 23:39 0,3 C 4,4 C 91 % 1013,1 hPa 0,0 l/m 5,9 km/h (2 Bft) W 263 0 min 0,000 mm 0,0 UV-I 0 W/m -1,0 C 0,3 C 6,4 km/h (2 Bft) 95,65 %
22.03.2018 23:40 0,3 C 4,4 C 91 % 1013,1 hPa 0,0 l/m 4,2 km/h (1 Bft) W 259 0 min 0,000 mm 0,0 UV-I 0 W/m -1,0 C 0,3 C 4,8 km/h (1 Bft) 100,00 %
22.03.2018 23:41 0,3 C 4,4 C 91 % 1013,1 hPa 0,0 l/m 6,2 km/h (2 Bft) W-SW 255 0 min 0,000 mm 0,0 UV-I 0 W/m -1,0 C 0,3 C 11,3 km/h (2 Bft) 100,00 %
22.03.2018 23:42 0,2 C 4,4 C 91 % 1013,1 hPa 0,0 l/m 5,9 km/h (2 Bft) W 271 0 min 0,000 mm 0,0 UV-I 0 W/m -1,1 C 0,2 C 9,7 km/h (2 Bft) 100,00 %
22.03.2018 23:43 0,2 C 4,4 C 91 % 1013,0 hPa 0,0 l/m 6,0 km/h (2 Bft) W 260 0 min 0,000 mm 0,0 UV-I 0 W/m -1,1 C 0,2 C 9,7 km/h (2 Bft) 95,65 %
22.03.2018 23:44 0,2 C 4,4 C 92 % 1013,0 hPa 0,0 l/m 5,5 km/h (1 Bft) SW 232 0 min 0,000 mm 0,0 UV-I 0 W/m -0,9 C 0,2 C 6,4 km/h (2 Bft) 100,00 %
22.03.2018 23:45 0,2 C 4,4 C 91 % 1013,0 hPa 0,0 l/m 4,9 km/h (1 Bft) W 263 0 min 0,000 mm 0,0 UV-I 0 W/m -1,1 C 0,2 C 9,7 km/h (2 Bft) 100,00 %
22.03.2018 23:46 0,2 C 4,4 C 92 % 1013,0 hPa 0,0 l/m 5,8 km/h (2 Bft) W-SW 247 0 min 0,000 mm 0,0 UV-I 0 W/m -0,9 C 0,2 C 8,0 km/h (2 Bft) 100,00 %
22.03.2018 23:48 0,2 C 4,4 C 92 % 1013,0 hPa 0,0 l/m 6,6 km/h (2 Bft) W 263 0 min 0,000 mm 0,0 UV-I 0 W/m -0,9 C 0,0 C 11,3 km/h (2 Bft) 98,00 %
22.03.2018 23:49 0,2 C 4,4 C 92 % 1013,0 hPa 0,0 l/m 5,7 km/h (1 Bft) W 259 0 min 0,000 mm 0,0 UV-I 0 W/m -0,9 C 0,2 C 6,4 km/h (2 Bft) 95,65 %
22.03.2018 23:50 0,2 C 4,4 C 92 % 1012,9 hPa 0,0 l/m 6,8 km/h (2 Bft) W 269 0 min 0,000 mm 0,0 UV-I 0 W/m -0,9 C -0,2 C 9,7 km/h (2 Bft) 100,00 %
22.03.2018 23:51 0,2 C 4,4 C 92 % 1013,0 hPa 0,0 l/m 5,3 km/h (1 Bft) W 271 0 min 0,000 mm 0,0 UV-I 0 W/m -0,9 C 0,2 C 6,4 km/h (2 Bft) 100,00 %
22.03.2018 23:52 0,2 C 4,4 C 92 % 1012,9 hPa 0,0 l/m 5,2 km/h (1 Bft) W-NW 291 0 min 0,000 mm 0,0 UV-I 0 W/m -0,9 C 0,2 C 9,7 km/h (2 Bft) 100,00 %
22.03.2018 23:53 0,2 C 4,4 C 92 % 1012,9 hPa 0,0 l/m 5,4 km/h (1 Bft) W 261 0 min 0,000 mm 0,0 UV-I 0 W/m -0,9 C 0,2 C 6,4 km/h (2 Bft) 100,00 %
22.03.2018 23:54 0,2 C 4,4 C 92 % 1012,8 hPa 0,0 l/m 6,7 km/h (2 Bft) W-SW 250 0 min 0,000 mm 0,0 UV-I 0 W/m -0,9 C -0,1 C 11,3 km/h (2 Bft) 100,00 %
22.03.2018 23:55 0,1 C 4,4 C 92 % 1012,8 hPa 0,0 l/m 5,0 km/h (1 Bft) W 273 0 min 0,000 mm 0,0 UV-I 0 W/m -1,0 C 0,1 C 6,4 km/h (2 Bft) 100,00 %
22.03.2018 23:56 0,1 C 4,4 C 92 % 1012,8 hPa 0,0 l/m 6,5 km/h (2 Bft) W 262 0 min 0,000 mm 0,0 UV-I 0 W/m -1,0 C 0,0 C 11,3 km/h (2 Bft) 100,00 %
22.03.2018 23:57 0,1 C 4,4 C 92 % 1012,8 hPa 0,0 l/m 7,2 km/h (2 Bft) W 275 0 min 0,000 mm 0,0 UV-I 0 W/m -1,0 C -0,7 C 11,3 km/h (2 Bft) 95,65 %
22.03.2018 23:58 0,1 C 4,4 C 92 % 1012,8 hPa 0,0 l/m 7,6 km/h (2 Bft) W 267 0 min 0,000 mm 0,0 UV-I 0 W/m -1,0 C -1,1 C 9,7 km/h (2 Bft) 100,00 %
22.03.2018 23:59 0,1 C 4,4 C 92 % 1012,8 hPa 0,0 l/m 5,5 km/h (1 Bft) W 266 0 min 0,000 mm 0,0 UV-I 0 W/m -1,0 C 0,1 C 9,7 km/h (2 Bft) 100,00 %
_ Min-Zeit 04:56 00:00 16:13 23:54 - 14:44 - - - - - - 06:09 22:28 10:46 18:29
Minimum _ -4,3 C 3,9 C 48 % 1012,8 hPa - 0,1 km/h (0 Bft) - - - - - - -6,0 C -7,5 C 1,6 km/h (1 Bft) 70,83 %
_ Max-Zeit 14:58 12:30 23:44 00:00 00:00 22:28 - - 09:34 13:01 11:54 13:08 23:44 14:58 22:15 00:00
Maximum _ 5,9 C 4,4 C 92 % 1026,0 hPa 0,0 l/m 19,2 km/h
NW (3 Bft)
- - 2 min 0,280 mm 2,3 UV-I 757 W/m -0,9 C 5,9 C 25,7 km/h
W-NW (4 Bft)
100,00 %
Durchschnitt _ 0,9 C 4,1 C 72 % 1018,9 hPa #0,0 l/m 6,0 km/h (2 Bft) W - #10:08 h #2,159 mm 1,5 UV-I 382 W/m -3,9 C 0,2 C 9,0 km/h (2 Bft) 97,11 %